<?xml version="1.0" encoding="UTF-8" standalone="no" ?>
<gpx xmlns="http://www.topografix.com/GPX/1/1" xmlns:xsi="http://www.w3.org/2001/XMLSchema-instance" xsi:schemaLocation="http://www.topografix.com/GPX/1/1 http://www.topografix.com/GPX/1/1/gpx.xsd" version="1.1" creator="VisuGPX - https://www.visugpx.com">
  <metadata>
    <name>2024-11-03  Randonnée TwoNav</name>
    <desc><![CDATA[2024-11-03_101311.trk]]></desc>
  </metadata>
  <trk>
    <name><![CDATA[2024-11-03  Randonnée TwoNav_1]]></name>
    <trkseg>
      <trkpt lat="48.18859" lon="6.57849">
        <ele>446.2</ele>
        <time>2024-11-03T09:13:12Z</time>
      </trkpt>
      <trkpt lat="48.1886" lon="6.57848">
        <ele>446.3</ele>
        <time>2024-11-03T09:13:13Z</time>
      </trkpt>
      <trkpt lat="48.1886" lon="6.57846">
        <ele>446.4</ele>
        <time>2024-11-03T09:13:30Z</time>
      </trkpt>
      <trkpt lat="48.18861" lon="6.57844">
        <ele>446.5</ele>
        <time>2024-11-03T09:13:31Z</time>
      </trkpt>
      <trkpt lat="48.18862" lon="6.57843">
        <ele>446.6</ele>
        <time>2024-11-03T09:13:35Z</time>
      </trkpt>
      <trkpt lat="48.18863" lon="6.57841">
        <ele>446.7</ele>
        <time>2024-11-03T09:13:36Z</time>
      </trkpt>
      <trkpt lat="48.18863" lon="6.5784">
        <ele>446.8</ele>
        <time>2024-11-03T09:13:37Z</time>
      </trkpt>
      <trkpt lat="48.18864" lon="6.57838">
        <ele>446.9</ele>
        <time>2024-11-03T09:13:40Z</time>
      </trkpt>
      <trkpt lat="48.18865" lon="6.57836">
        <ele>447</ele>
        <time>2024-11-03T09:13:41Z</time>
      </trkpt>
      <trkpt lat="48.18866" lon="6.57835">
        <ele>447.1</ele>
        <time>2024-11-03T09:13:50Z</time>
      </trkpt>
      <trkpt lat="48.18866" lon="6.57833">
        <ele>447.2</ele>
        <time>2024-11-03T09:13:51Z</time>
      </trkpt>
      <trkpt lat="48.18867" lon="6.57832">
        <ele>447.2</ele>
        <time>2024-11-03T09:14:02Z</time>
      </trkpt>
      <trkpt lat="48.18868" lon="6.5783">
        <ele>447.3</ele>
        <time>2024-11-03T09:14:03Z</time>
      </trkpt>
      <trkpt lat="48.18869" lon="6.57828">
        <ele>447.3</ele>
        <time>2024-11-03T09:14:04Z</time>
      </trkpt>
      <trkpt lat="48.1887" lon="6.57827">
        <ele>447.3</ele>
        <time>2024-11-03T09:14:20Z</time>
      </trkpt>
      <trkpt lat="48.1887" lon="6.57825">
        <ele>447.3</ele>
        <time>2024-11-03T09:14:20Z</time>
      </trkpt>
      <trkpt lat="48.18872" lon="6.57825">
        <ele>447.3</ele>
        <time>2024-11-03T09:14:21Z</time>
      </trkpt>
      <trkpt lat="48.18878" lon="6.57815">
        <ele>447.3</ele>
        <time>2024-11-03T09:14:29Z</time>
      </trkpt>
      <trkpt lat="48.18877" lon="6.57798">
        <ele>447.3</ele>
        <time>2024-11-03T09:14:31Z</time>
      </trkpt>
      <trkpt lat="48.1888" lon="6.57784">
        <ele>447.3</ele>
        <time>2024-11-03T09:14:36Z</time>
      </trkpt>
      <trkpt lat="48.18885" lon="6.57771">
        <ele>447.2</ele>
        <time>2024-11-03T09:14:44Z</time>
      </trkpt>
      <trkpt lat="48.18891" lon="6.5776">
        <ele>447</ele>
        <time>2024-11-03T09:14:53Z</time>
      </trkpt>
      <trkpt lat="48.18894" lon="6.57756">
        <ele>446.9</ele>
        <time>2024-11-03T09:15:03Z</time>
      </trkpt>
      <trkpt lat="48.18894" lon="6.57756">
        <ele>446.9</ele>
        <time>2024-11-03T09:15:04Z</time>
      </trkpt>
      <trkpt lat="48.18894" lon="6.57755">
        <ele>446.9</ele>
        <time>2024-11-03T09:15:07Z</time>
      </trkpt>
      <trkpt lat="48.18894" lon="6.57754">
        <ele>446.9</ele>
        <time>2024-11-03T09:15:08Z</time>
      </trkpt>
      <trkpt lat="48.18895" lon="6.57752">
        <ele>446.9</ele>
        <time>2024-11-03T09:15:09Z</time>
      </trkpt>
      <trkpt lat="48.18903" lon="6.57746">
        <ele>446.5</ele>
        <time>2024-11-03T09:15:18Z</time>
      </trkpt>
      <trkpt lat="48.18912" lon="6.57747">
        <ele>446</ele>
        <time>2024-11-03T09:15:24Z</time>
      </trkpt>
      <trkpt lat="48.18922" lon="6.5774">
        <ele>445.3</ele>
        <time>2024-11-03T09:15:31Z</time>
      </trkpt>
      <trkpt lat="48.18931" lon="6.57738">
        <ele>444.6</ele>
        <time>2024-11-03T09:15:40Z</time>
      </trkpt>
      <trkpt lat="48.1894" lon="6.57732">
        <ele>443.7</ele>
        <time>2024-11-03T09:15:52Z</time>
      </trkpt>
      <trkpt lat="48.18949" lon="6.57731">
        <ele>442.8</ele>
        <time>2024-11-03T09:16:03Z</time>
      </trkpt>
      <trkpt lat="48.18958" lon="6.57727">
        <ele>441.9</ele>
        <time>2024-11-03T09:16:13Z</time>
      </trkpt>
      <trkpt lat="48.18966" lon="6.57717">
        <ele>441.1</ele>
        <time>2024-11-03T09:16:20Z</time>
      </trkpt>
      <trkpt lat="48.18968" lon="6.57704">
        <ele>440.4</ele>
        <time>2024-11-03T09:16:28Z</time>
      </trkpt>
      <trkpt lat="48.18971" lon="6.5769">
        <ele>439.7</ele>
        <time>2024-11-03T09:16:37Z</time>
      </trkpt>
      <trkpt lat="48.18972" lon="6.57676">
        <ele>439</ele>
        <time>2024-11-03T09:16:46Z</time>
      </trkpt>
      <trkpt lat="48.18976" lon="6.57663">
        <ele>438.2</ele>
        <time>2024-11-03T09:16:55Z</time>
      </trkpt>
      <trkpt lat="48.18979" lon="6.57649">
        <ele>437.6</ele>
        <time>2024-11-03T09:17:02Z</time>
      </trkpt>
      <trkpt lat="48.18981" lon="6.57635">
        <ele>437</ele>
        <time>2024-11-03T09:17:09Z</time>
      </trkpt>
      <trkpt lat="48.18982" lon="6.57621">
        <ele>436.4</ele>
        <time>2024-11-03T09:17:16Z</time>
      </trkpt>
      <trkpt lat="48.18985" lon="6.57607">
        <ele>436</ele>
        <time>2024-11-03T09:17:23Z</time>
      </trkpt>
      <trkpt lat="48.18986" lon="6.57593">
        <ele>435.5</ele>
        <time>2024-11-03T09:17:30Z</time>
      </trkpt>
      <trkpt lat="48.18992" lon="6.5758">
        <ele>435.1</ele>
        <time>2024-11-03T09:17:38Z</time>
      </trkpt>
      <trkpt lat="48.18996" lon="6.57567">
        <ele>434.7</ele>
        <time>2024-11-03T09:17:46Z</time>
      </trkpt>
      <trkpt lat="48.18999" lon="6.57553">
        <ele>434.3</ele>
        <time>2024-11-03T09:17:54Z</time>
      </trkpt>
      <trkpt lat="48.19" lon="6.57539">
        <ele>433.8</ele>
        <time>2024-11-03T09:18:03Z</time>
      </trkpt>
      <trkpt lat="48.19003" lon="6.57525">
        <ele>433.2</ele>
        <time>2024-11-03T09:18:14Z</time>
      </trkpt>
      <trkpt lat="48.19005" lon="6.57512">
        <ele>432.7</ele>
        <time>2024-11-03T09:18:22Z</time>
      </trkpt>
      <trkpt lat="48.19007" lon="6.57498">
        <ele>432.2</ele>
        <time>2024-11-03T09:18:29Z</time>
      </trkpt>
      <trkpt lat="48.19011" lon="6.57484">
        <ele>431.7</ele>
        <time>2024-11-03T09:18:37Z</time>
      </trkpt>
      <trkpt lat="48.19012" lon="6.57469">
        <ele>431.2</ele>
        <time>2024-11-03T09:18:45Z</time>
      </trkpt>
      <trkpt lat="48.19015" lon="6.57455">
        <ele>430.6</ele>
        <time>2024-11-03T09:18:53Z</time>
      </trkpt>
      <trkpt lat="48.19017" lon="6.57442">
        <ele>430</ele>
        <time>2024-11-03T09:19:01Z</time>
      </trkpt>
      <trkpt lat="48.1902" lon="6.57429">
        <ele>429.3</ele>
        <time>2024-11-03T09:19:09Z</time>
      </trkpt>
      <trkpt lat="48.19025" lon="6.57416">
        <ele>428.3</ele>
        <time>2024-11-03T09:19:17Z</time>
      </trkpt>
      <trkpt lat="48.1903" lon="6.57404">
        <ele>427.4</ele>
        <time>2024-11-03T09:19:24Z</time>
      </trkpt>
      <trkpt lat="48.19035" lon="6.57393">
        <ele>426.5</ele>
        <time>2024-11-03T09:19:31Z</time>
      </trkpt>
      <trkpt lat="48.1904" lon="6.57381">
        <ele>425.8</ele>
        <time>2024-11-03T09:19:38Z</time>
      </trkpt>
      <trkpt lat="48.19043" lon="6.57368">
        <ele>425.1</ele>
        <time>2024-11-03T09:19:46Z</time>
      </trkpt>
      <trkpt lat="48.19046" lon="6.57355">
        <ele>424.5</ele>
        <time>2024-11-03T09:19:54Z</time>
      </trkpt>
      <trkpt lat="48.1905" lon="6.57341">
        <ele>424</ele>
        <time>2024-11-03T09:20:02Z</time>
      </trkpt>
      <trkpt lat="48.19053" lon="6.57326">
        <ele>423.5</ele>
        <time>2024-11-03T09:20:10Z</time>
      </trkpt>
      <trkpt lat="48.19056" lon="6.57313">
        <ele>423.1</ele>
        <time>2024-11-03T09:20:17Z</time>
      </trkpt>
      <trkpt lat="48.19058" lon="6.57298">
        <ele>422.7</ele>
        <time>2024-11-03T09:20:24Z</time>
      </trkpt>
      <trkpt lat="48.19057" lon="6.57285">
        <ele>422.3</ele>
        <time>2024-11-03T09:20:31Z</time>
      </trkpt>
      <trkpt lat="48.19059" lon="6.57271">
        <ele>422</ele>
        <time>2024-11-03T09:20:39Z</time>
      </trkpt>
      <trkpt lat="48.19059" lon="6.57256">
        <ele>421.7</ele>
        <time>2024-11-03T09:20:47Z</time>
      </trkpt>
      <trkpt lat="48.19063" lon="6.57242">
        <ele>421.4</ele>
        <time>2024-11-03T09:20:55Z</time>
      </trkpt>
      <trkpt lat="48.19068" lon="6.57229">
        <ele>421.2</ele>
        <time>2024-11-03T09:21:03Z</time>
      </trkpt>
      <trkpt lat="48.19071" lon="6.57216">
        <ele>421.1</ele>
        <time>2024-11-03T09:21:11Z</time>
      </trkpt>
      <trkpt lat="48.19077" lon="6.57203">
        <ele>421</ele>
        <time>2024-11-03T09:21:19Z</time>
      </trkpt>
      <trkpt lat="48.19082" lon="6.57191">
        <ele>420.8</ele>
        <time>2024-11-03T09:21:27Z</time>
      </trkpt>
      <trkpt lat="48.19086" lon="6.57179">
        <ele>420.6</ele>
        <time>2024-11-03T09:21:34Z</time>
      </trkpt>
      <trkpt lat="48.1909" lon="6.57165">
        <ele>420.3</ele>
        <time>2024-11-03T09:21:42Z</time>
      </trkpt>
      <trkpt lat="48.19097" lon="6.57154">
        <ele>420.1</ele>
        <time>2024-11-03T09:21:50Z</time>
      </trkpt>
      <trkpt lat="48.19102" lon="6.57142">
        <ele>419.7</ele>
        <time>2024-11-03T09:21:58Z</time>
      </trkpt>
      <trkpt lat="48.19103" lon="6.57141">
        <ele>419.7</ele>
        <time>2024-11-03T09:22:02Z</time>
      </trkpt>
      <trkpt lat="48.19103" lon="6.57141">
        <ele>419.7</ele>
        <time>2024-11-03T09:22:03Z</time>
      </trkpt>
      <trkpt lat="48.19103" lon="6.57141">
        <ele>419.7</ele>
        <time>2024-11-03T09:22:04Z</time>
      </trkpt>
      <trkpt lat="48.19103" lon="6.57141">
        <ele>419.7</ele>
        <time>2024-11-03T09:22:05Z</time>
      </trkpt>
      <trkpt lat="48.19103" lon="6.57141">
        <ele>419.7</ele>
        <time>2024-11-03T09:22:08Z</time>
      </trkpt>
      <trkpt lat="48.19104" lon="6.5714">
        <ele>419.6</ele>
        <time>2024-11-03T09:22:09Z</time>
      </trkpt>
      <trkpt lat="48.19104" lon="6.5714">
        <ele>419.6</ele>
        <time>2024-11-03T09:22:10Z</time>
      </trkpt>
      <trkpt lat="48.19112" lon="6.57132">
        <ele>419</ele>
        <time>2024-11-03T09:22:17Z</time>
      </trkpt>
      <trkpt lat="48.19119" lon="6.57124">
        <ele>418.2</ele>
        <time>2024-11-03T09:22:25Z</time>
      </trkpt>
      <trkpt lat="48.19126" lon="6.57113">
        <ele>417.3</ele>
        <time>2024-11-03T09:22:32Z</time>
      </trkpt>
      <trkpt lat="48.19133" lon="6.57103">
        <ele>416.3</ele>
        <time>2024-11-03T09:22:39Z</time>
      </trkpt>
      <trkpt lat="48.19141" lon="6.57097">
        <ele>415.3</ele>
        <time>2024-11-03T09:22:46Z</time>
      </trkpt>
      <trkpt lat="48.19149" lon="6.5709">
        <ele>414.4</ele>
        <time>2024-11-03T09:22:52Z</time>
      </trkpt>
      <trkpt lat="48.19158" lon="6.57083">
        <ele>413.4</ele>
        <time>2024-11-03T09:23:00Z</time>
      </trkpt>
      <trkpt lat="48.19166" lon="6.57077">
        <ele>412.6</ele>
        <time>2024-11-03T09:23:09Z</time>
      </trkpt>
      <trkpt lat="48.19176" lon="6.57074">
        <ele>411.8</ele>
        <time>2024-11-03T09:23:17Z</time>
      </trkpt>
      <trkpt lat="48.19184" lon="6.57067">
        <ele>411</ele>
        <time>2024-11-03T09:23:25Z</time>
      </trkpt>
      <trkpt lat="48.19192" lon="6.57059">
        <ele>410.3</ele>
        <time>2024-11-03T09:23:34Z</time>
      </trkpt>
      <trkpt lat="48.192" lon="6.57054">
        <ele>409.6</ele>
        <time>2024-11-03T09:23:41Z</time>
      </trkpt>
      <trkpt lat="48.19208" lon="6.57047">
        <ele>409</ele>
        <time>2024-11-03T09:23:48Z</time>
      </trkpt>
      <trkpt lat="48.19217" lon="6.57044">
        <ele>408.5</ele>
        <time>2024-11-03T09:23:55Z</time>
      </trkpt>
      <trkpt lat="48.19226" lon="6.57043">
        <ele>408.1</ele>
        <time>2024-11-03T09:24:02Z</time>
      </trkpt>
      <trkpt lat="48.19236" lon="6.57044">
        <ele>407.7</ele>
        <time>2024-11-03T09:24:10Z</time>
      </trkpt>
      <trkpt lat="48.19245" lon="6.5704">
        <ele>407.3</ele>
        <time>2024-11-03T09:24:16Z</time>
      </trkpt>
      <trkpt lat="48.19254" lon="6.57033">
        <ele>406.9</ele>
        <time>2024-11-03T09:24:22Z</time>
      </trkpt>
      <trkpt lat="48.19262" lon="6.57026">
        <ele>406.6</ele>
        <time>2024-11-03T09:24:28Z</time>
      </trkpt>
      <trkpt lat="48.1927" lon="6.57021">
        <ele>406.3</ele>
        <time>2024-11-03T09:24:35Z</time>
      </trkpt>
      <trkpt lat="48.19279" lon="6.57015">
        <ele>406.1</ele>
        <time>2024-11-03T09:24:44Z</time>
      </trkpt>
      <trkpt lat="48.19287" lon="6.5701">
        <ele>406</ele>
        <time>2024-11-03T09:24:51Z</time>
      </trkpt>
      <trkpt lat="48.19297" lon="6.57002">
        <ele>406</ele>
        <time>2024-11-03T09:24:56Z</time>
      </trkpt>
      <trkpt lat="48.19304" lon="6.56992">
        <ele>405.9</ele>
        <time>2024-11-03T09:25:02Z</time>
      </trkpt>
      <trkpt lat="48.19312" lon="6.56983">
        <ele>405.9</ele>
        <time>2024-11-03T09:25:09Z</time>
      </trkpt>
      <trkpt lat="48.1932" lon="6.56976">
        <ele>405.8</ele>
        <time>2024-11-03T09:25:16Z</time>
      </trkpt>
      <trkpt lat="48.19329" lon="6.56969">
        <ele>405.6</ele>
        <time>2024-11-03T09:25:23Z</time>
      </trkpt>
      <trkpt lat="48.19336" lon="6.5696">
        <ele>405.4</ele>
        <time>2024-11-03T09:25:29Z</time>
      </trkpt>
      <trkpt lat="48.19345" lon="6.56952">
        <ele>405.1</ele>
        <time>2024-11-03T09:25:39Z</time>
      </trkpt>
      <trkpt lat="48.19354" lon="6.56944">
        <ele>404.8</ele>
        <time>2024-11-03T09:25:48Z</time>
      </trkpt>
      <trkpt lat="48.19362" lon="6.56937">
        <ele>404.2</ele>
        <time>2024-11-03T09:25:55Z</time>
      </trkpt>
      <trkpt lat="48.1937" lon="6.56929">
        <ele>403.7</ele>
        <time>2024-11-03T09:26:02Z</time>
      </trkpt>
      <trkpt lat="48.19377" lon="6.56918">
        <ele>403.2</ele>
        <time>2024-11-03T09:26:09Z</time>
      </trkpt>
      <trkpt lat="48.19384" lon="6.56907">
        <ele>402.8</ele>
        <time>2024-11-03T09:26:16Z</time>
      </trkpt>
      <trkpt lat="48.19391" lon="6.56897">
        <ele>402.5</ele>
        <time>2024-11-03T09:26:23Z</time>
      </trkpt>
      <trkpt lat="48.19397" lon="6.56885">
        <ele>402.2</ele>
        <time>2024-11-03T09:26:30Z</time>
      </trkpt>
      <trkpt lat="48.19405" lon="6.56876">
        <ele>401.9</ele>
        <time>2024-11-03T09:26:38Z</time>
      </trkpt>
      <trkpt lat="48.19413" lon="6.56867">
        <ele>401.6</ele>
        <time>2024-11-03T09:26:45Z</time>
      </trkpt>
      <trkpt lat="48.19419" lon="6.56856">
        <ele>401.3</ele>
        <time>2024-11-03T09:26:52Z</time>
      </trkpt>
      <trkpt lat="48.19425" lon="6.56846">
        <ele>400.9</ele>
        <time>2024-11-03T09:26:59Z</time>
      </trkpt>
      <trkpt lat="48.19433" lon="6.56836">
        <ele>400.4</ele>
        <time>2024-11-03T09:27:07Z</time>
      </trkpt>
      <trkpt lat="48.19439" lon="6.56824">
        <ele>399.8</ele>
        <time>2024-11-03T09:27:15Z</time>
      </trkpt>
      <trkpt lat="48.19446" lon="6.56815">
        <ele>399.2</ele>
        <time>2024-11-03T09:27:23Z</time>
      </trkpt>
      <trkpt lat="48.19454" lon="6.56804">
        <ele>398.6</ele>
        <time>2024-11-03T09:27:32Z</time>
      </trkpt>
      <trkpt lat="48.1946" lon="6.56794">
        <ele>398</ele>
        <time>2024-11-03T09:27:39Z</time>
      </trkpt>
      <trkpt lat="48.19467" lon="6.56787">
        <ele>397.5</ele>
        <time>2024-11-03T09:27:46Z</time>
      </trkpt>
      <trkpt lat="48.19473" lon="6.56776">
        <ele>396.8</ele>
        <time>2024-11-03T09:27:54Z</time>
      </trkpt>
      <trkpt lat="48.1948" lon="6.56767">
        <ele>396.1</ele>
        <time>2024-11-03T09:28:02Z</time>
      </trkpt>
      <trkpt lat="48.19489" lon="6.5676">
        <ele>395.3</ele>
        <time>2024-11-03T09:28:13Z</time>
      </trkpt>
      <trkpt lat="48.19499" lon="6.56758">
        <ele>394.4</ele>
        <time>2024-11-03T09:28:22Z</time>
      </trkpt>
      <trkpt lat="48.19507" lon="6.56752">
        <ele>393.5</ele>
        <time>2024-11-03T09:28:28Z</time>
      </trkpt>
      <trkpt lat="48.19509" lon="6.56738">
        <ele>392.6</ele>
        <time>2024-11-03T09:28:35Z</time>
      </trkpt>
      <trkpt lat="48.1951" lon="6.56722">
        <ele>391.7</ele>
        <time>2024-11-03T09:28:42Z</time>
      </trkpt>
      <trkpt lat="48.19515" lon="6.56709">
        <ele>391.2</ele>
        <time>2024-11-03T09:28:49Z</time>
      </trkpt>
      <trkpt lat="48.19521" lon="6.56697">
        <ele>390.9</ele>
        <time>2024-11-03T09:28:56Z</time>
      </trkpt>
      <trkpt lat="48.19527" lon="6.56686">
        <ele>390.8</ele>
        <time>2024-11-03T09:29:03Z</time>
      </trkpt>
      <trkpt lat="48.19532" lon="6.56674">
        <ele>390.9</ele>
        <time>2024-11-03T09:29:14Z</time>
      </trkpt>
      <trkpt lat="48.19541" lon="6.56667">
        <ele>391</ele>
        <time>2024-11-03T09:29:20Z</time>
      </trkpt>
      <trkpt lat="48.19549" lon="6.56662">
        <ele>391.2</ele>
        <time>2024-11-03T09:29:29Z</time>
      </trkpt>
      <trkpt lat="48.1956" lon="6.56658">
        <ele>391.4</ele>
        <time>2024-11-03T09:29:41Z</time>
      </trkpt>
      <trkpt lat="48.19568" lon="6.56652">
        <ele>391.7</ele>
        <time>2024-11-03T09:29:48Z</time>
      </trkpt>
      <trkpt lat="48.19572" lon="6.56638">
        <ele>392.3</ele>
        <time>2024-11-03T09:29:53Z</time>
      </trkpt>
      <trkpt lat="48.19577" lon="6.56626">
        <ele>393.1</ele>
        <time>2024-11-03T09:29:59Z</time>
      </trkpt>
      <trkpt lat="48.19582" lon="6.56612">
        <ele>394.1</ele>
        <time>2024-11-03T09:30:07Z</time>
      </trkpt>
      <trkpt lat="48.19583" lon="6.56598">
        <ele>394.8</ele>
        <time>2024-11-03T09:30:13Z</time>
      </trkpt>
      <trkpt lat="48.19579" lon="6.56585">
        <ele>395.4</ele>
        <time>2024-11-03T09:30:19Z</time>
      </trkpt>
      <trkpt lat="48.19583" lon="6.56573">
        <ele>395.6</ele>
        <time>2024-11-03T09:30:25Z</time>
      </trkpt>
      <trkpt lat="48.19587" lon="6.56559">
        <ele>395.6</ele>
        <time>2024-11-03T09:30:32Z</time>
      </trkpt>
      <trkpt lat="48.19593" lon="6.56548">
        <ele>395.3</ele>
        <time>2024-11-03T09:30:39Z</time>
      </trkpt>
      <trkpt lat="48.19599" lon="6.56535">
        <ele>395</ele>
        <time>2024-11-03T09:30:47Z</time>
      </trkpt>
      <trkpt lat="48.19604" lon="6.56523">
        <ele>394.6</ele>
        <time>2024-11-03T09:30:54Z</time>
      </trkpt>
      <trkpt lat="48.19611" lon="6.56511">
        <ele>394.1</ele>
        <time>2024-11-03T09:31:01Z</time>
      </trkpt>
      <trkpt lat="48.19614" lon="6.56498">
        <ele>393.7</ele>
        <time>2024-11-03T09:31:09Z</time>
      </trkpt>
      <trkpt lat="48.19615" lon="6.56483">
        <ele>393.2</ele>
        <time>2024-11-03T09:31:17Z</time>
      </trkpt>
      <trkpt lat="48.19613" lon="6.56469">
        <ele>392.8</ele>
        <time>2024-11-03T09:31:26Z</time>
      </trkpt>
      <trkpt lat="48.19613" lon="6.56455">
        <ele>392.4</ele>
        <time>2024-11-03T09:31:34Z</time>
      </trkpt>
      <trkpt lat="48.19608" lon="6.56442">
        <ele>392</ele>
        <time>2024-11-03T09:31:41Z</time>
      </trkpt>
      <trkpt lat="48.19605" lon="6.56429">
        <ele>391.7</ele>
        <time>2024-11-03T09:31:48Z</time>
      </trkpt>
      <trkpt lat="48.19602" lon="6.56416">
        <ele>391.3</ele>
        <time>2024-11-03T09:31:55Z</time>
      </trkpt>
      <trkpt lat="48.19605" lon="6.56402">
        <ele>390.9</ele>
        <time>2024-11-03T09:32:04Z</time>
      </trkpt>
      <trkpt lat="48.19614" lon="6.56396">
        <ele>390.6</ele>
        <time>2024-11-03T09:32:13Z</time>
      </trkpt>
      <trkpt lat="48.19622" lon="6.56391">
        <ele>390.1</ele>
        <time>2024-11-03T09:32:22Z</time>
      </trkpt>
      <trkpt lat="48.19631" lon="6.56384">
        <ele>390</ele>
        <time>2024-11-03T09:32:32Z</time>
      </trkpt>
      <trkpt lat="48.19639" lon="6.56374">
        <ele>389.8</ele>
        <time>2024-11-03T09:32:40Z</time>
      </trkpt>
      <trkpt lat="48.19649" lon="6.56368">
        <ele>389.6</ele>
        <time>2024-11-03T09:32:47Z</time>
      </trkpt>
      <trkpt lat="48.19656" lon="6.5636">
        <ele>389.3</ele>
        <time>2024-11-03T09:32:53Z</time>
      </trkpt>
      <trkpt lat="48.19665" lon="6.56354">
        <ele>388.9</ele>
        <time>2024-11-03T09:32:59Z</time>
      </trkpt>
      <trkpt lat="48.19674" lon="6.5635">
        <ele>388.4</ele>
        <time>2024-11-03T09:33:08Z</time>
      </trkpt>
      <trkpt lat="48.19683" lon="6.56349">
        <ele>387.9</ele>
        <time>2024-11-03T09:33:16Z</time>
      </trkpt>
      <trkpt lat="48.19692" lon="6.56342">
        <ele>387.4</ele>
        <time>2024-11-03T09:33:25Z</time>
      </trkpt>
      <trkpt lat="48.19698" lon="6.56331">
        <ele>387</ele>
        <time>2024-11-03T09:33:33Z</time>
      </trkpt>
      <trkpt lat="48.19704" lon="6.5632">
        <ele>386.6</ele>
        <time>2024-11-03T09:33:41Z</time>
      </trkpt>
      <trkpt lat="48.19714" lon="6.56316">
        <ele>386.1</ele>
        <time>2024-11-03T09:33:49Z</time>
      </trkpt>
      <trkpt lat="48.19724" lon="6.56317">
        <ele>385.4</ele>
        <time>2024-11-03T09:33:55Z</time>
      </trkpt>
      <trkpt lat="48.19734" lon="6.5632">
        <ele>384.4</ele>
        <time>2024-11-03T09:34:02Z</time>
      </trkpt>
      <trkpt lat="48.19744" lon="6.56323">
        <ele>383.4</ele>
        <time>2024-11-03T09:34:09Z</time>
      </trkpt>
      <trkpt lat="48.19752" lon="6.5632">
        <ele>382.5</ele>
        <time>2024-11-03T09:34:16Z</time>
      </trkpt>
      <trkpt lat="48.19762" lon="6.56314">
        <ele>381.4</ele>
        <time>2024-11-03T09:34:24Z</time>
      </trkpt>
      <trkpt lat="48.1977" lon="6.56308">
        <ele>380.5</ele>
        <time>2024-11-03T09:34:31Z</time>
      </trkpt>
      <trkpt lat="48.19777" lon="6.56299">
        <ele>379.8</ele>
        <time>2024-11-03T09:34:38Z</time>
      </trkpt>
      <trkpt lat="48.19785" lon="6.56289">
        <ele>379.1</ele>
        <time>2024-11-03T09:34:45Z</time>
      </trkpt>
      <trkpt lat="48.19793" lon="6.56283">
        <ele>378.4</ele>
        <time>2024-11-03T09:34:52Z</time>
      </trkpt>
      <trkpt lat="48.19799" lon="6.56272">
        <ele>377.8</ele>
        <time>2024-11-03T09:34:59Z</time>
      </trkpt>
      <trkpt lat="48.19808" lon="6.56269">
        <ele>377</ele>
        <time>2024-11-03T09:35:06Z</time>
      </trkpt>
      <trkpt lat="48.19817" lon="6.56264">
        <ele>376.2</ele>
        <time>2024-11-03T09:35:16Z</time>
      </trkpt>
      <trkpt lat="48.19825" lon="6.56256">
        <ele>375.4</ele>
        <time>2024-11-03T09:35:22Z</time>
      </trkpt>
      <trkpt lat="48.19833" lon="6.56248">
        <ele>374.5</ele>
        <time>2024-11-03T09:35:28Z</time>
      </trkpt>
      <trkpt lat="48.19836" lon="6.56245">
        <ele>374.2</ele>
        <time>2024-11-03T09:35:35Z</time>
      </trkpt>
      <trkpt lat="48.19836" lon="6.56245">
        <ele>374.2</ele>
        <time>2024-11-03T09:35:36Z</time>
      </trkpt>
      <trkpt lat="48.19837" lon="6.56241">
        <ele>374</ele>
        <time>2024-11-03T09:35:51Z</time>
      </trkpt>
      <trkpt lat="48.19837" lon="6.56239">
        <ele>373.9</ele>
        <time>2024-11-03T09:35:52Z</time>
      </trkpt>
      <trkpt lat="48.1984" lon="6.56225">
        <ele>373.8</ele>
        <time>2024-11-03T09:35:59Z</time>
      </trkpt>
      <trkpt lat="48.19841" lon="6.5621">
        <ele>374.2</ele>
        <time>2024-11-03T09:36:06Z</time>
      </trkpt>
      <trkpt lat="48.19838" lon="6.56196">
        <ele>374.7</ele>
        <time>2024-11-03T09:36:13Z</time>
      </trkpt>
      <trkpt lat="48.19838" lon="6.56181">
        <ele>375.1</ele>
        <time>2024-11-03T09:36:20Z</time>
      </trkpt>
      <trkpt lat="48.1984" lon="6.56166">
        <ele>375.3</ele>
        <time>2024-11-03T09:36:27Z</time>
      </trkpt>
      <trkpt lat="48.19843" lon="6.56152">
        <ele>375.2</ele>
        <time>2024-11-03T09:36:34Z</time>
      </trkpt>
      <trkpt lat="48.19848" lon="6.5614">
        <ele>375</ele>
        <time>2024-11-03T09:36:41Z</time>
      </trkpt>
      <trkpt lat="48.19854" lon="6.56128">
        <ele>374.7</ele>
        <time>2024-11-03T09:36:49Z</time>
      </trkpt>
      <trkpt lat="48.19859" lon="6.56116">
        <ele>374.4</ele>
        <time>2024-11-03T09:36:56Z</time>
      </trkpt>
      <trkpt lat="48.19862" lon="6.56103">
        <ele>374</ele>
        <time>2024-11-03T09:37:02Z</time>
      </trkpt>
      <trkpt lat="48.19865" lon="6.56088">
        <ele>373.4</ele>
        <time>2024-11-03T09:37:09Z</time>
      </trkpt>
      <trkpt lat="48.19868" lon="6.56074">
        <ele>372.7</ele>
        <time>2024-11-03T09:37:24Z</time>
      </trkpt>
      <trkpt lat="48.1987" lon="6.56061">
        <ele>371.8</ele>
        <time>2024-11-03T09:37:31Z</time>
      </trkpt>
      <trkpt lat="48.19877" lon="6.56049">
        <ele>370.7</ele>
        <time>2024-11-03T09:37:38Z</time>
      </trkpt>
      <trkpt lat="48.19883" lon="6.56037">
        <ele>369.5</ele>
        <time>2024-11-03T09:37:45Z</time>
      </trkpt>
      <trkpt lat="48.19888" lon="6.56025">
        <ele>368.8</ele>
        <time>2024-11-03T09:37:52Z</time>
      </trkpt>
      <trkpt lat="48.19888" lon="6.56011">
        <ele>368.8</ele>
        <time>2024-11-03T09:37:58Z</time>
      </trkpt>
      <trkpt lat="48.19894" lon="6.56">
        <ele>369.5</ele>
        <time>2024-11-03T09:38:06Z</time>
      </trkpt>
      <trkpt lat="48.19901" lon="6.5599">
        <ele>370.2</ele>
        <time>2024-11-03T09:38:12Z</time>
      </trkpt>
      <trkpt lat="48.19911" lon="6.55987">
        <ele>370.6</ele>
        <time>2024-11-03T09:38:21Z</time>
      </trkpt>
      <trkpt lat="48.1992" lon="6.5599">
        <ele>370.6</ele>
        <time>2024-11-03T09:38:29Z</time>
      </trkpt>
      <trkpt lat="48.19929" lon="6.55989">
        <ele>370.3</ele>
        <time>2024-11-03T09:38:36Z</time>
      </trkpt>
      <trkpt lat="48.19939" lon="6.55989">
        <ele>369.9</ele>
        <time>2024-11-03T09:38:42Z</time>
      </trkpt>
      <trkpt lat="48.19949" lon="6.55988">
        <ele>369.5</ele>
        <time>2024-11-03T09:38:48Z</time>
      </trkpt>
      <trkpt lat="48.19958" lon="6.55987">
        <ele>368.7</ele>
        <time>2024-11-03T09:38:55Z</time>
      </trkpt>
      <trkpt lat="48.19968" lon="6.55981">
        <ele>367.9</ele>
        <time>2024-11-03T09:39:03Z</time>
      </trkpt>
      <trkpt lat="48.19976" lon="6.55975">
        <ele>367.2</ele>
        <time>2024-11-03T09:39:08Z</time>
      </trkpt>
      <trkpt lat="48.19985" lon="6.55969">
        <ele>366.5</ele>
        <time>2024-11-03T09:39:15Z</time>
      </trkpt>
      <trkpt lat="48.19992" lon="6.5596">
        <ele>366.2</ele>
        <time>2024-11-03T09:39:25Z</time>
      </trkpt>
      <trkpt lat="48.19994" lon="6.55947">
        <ele>366.4</ele>
        <time>2024-11-03T09:39:30Z</time>
      </trkpt>
      <trkpt lat="48.19994" lon="6.55932">
        <ele>366.9</ele>
        <time>2024-11-03T09:39:37Z</time>
      </trkpt>
      <trkpt lat="48.19995" lon="6.55918">
        <ele>367.4</ele>
        <time>2024-11-03T09:39:44Z</time>
      </trkpt>
      <trkpt lat="48.19989" lon="6.55906">
        <ele>367.7</ele>
        <time>2024-11-03T09:39:50Z</time>
      </trkpt>
      <trkpt lat="48.19984" lon="6.55894">
        <ele>367.9</ele>
        <time>2024-11-03T09:39:57Z</time>
      </trkpt>
      <trkpt lat="48.19977" lon="6.55883">
        <ele>368</ele>
        <time>2024-11-03T09:40:06Z</time>
      </trkpt>
      <trkpt lat="48.19973" lon="6.55871">
        <ele>368.1</ele>
        <time>2024-11-03T09:40:11Z</time>
      </trkpt>
      <trkpt lat="48.19968" lon="6.55859">
        <ele>368.1</ele>
        <time>2024-11-03T09:40:18Z</time>
      </trkpt>
      <trkpt lat="48.19961" lon="6.55846">
        <ele>368.3</ele>
        <time>2024-11-03T09:40:27Z</time>
      </trkpt>
      <trkpt lat="48.19955" lon="6.55835">
        <ele>368.5</ele>
        <time>2024-11-03T09:40:32Z</time>
      </trkpt>
      <trkpt lat="48.1995" lon="6.55822">
        <ele>368.7</ele>
        <time>2024-11-03T09:40:38Z</time>
      </trkpt>
      <trkpt lat="48.19947" lon="6.55809">
        <ele>369</ele>
        <time>2024-11-03T09:40:45Z</time>
      </trkpt>
      <trkpt lat="48.19953" lon="6.55797">
        <ele>369.2</ele>
        <time>2024-11-03T09:40:55Z</time>
      </trkpt>
      <trkpt lat="48.19961" lon="6.55788">
        <ele>369.3</ele>
        <time>2024-11-03T09:41:02Z</time>
      </trkpt>
      <trkpt lat="48.19968" lon="6.55779">
        <ele>369.4</ele>
        <time>2024-11-03T09:41:09Z</time>
      </trkpt>
      <trkpt lat="48.19976" lon="6.55772">
        <ele>369.5</ele>
        <time>2024-11-03T09:41:16Z</time>
      </trkpt>
      <trkpt lat="48.19982" lon="6.5576">
        <ele>369.8</ele>
        <time>2024-11-03T09:41:23Z</time>
      </trkpt>
      <trkpt lat="48.19983" lon="6.55746">
        <ele>370</ele>
        <time>2024-11-03T09:41:29Z</time>
      </trkpt>
      <trkpt lat="48.19987" lon="6.55733">
        <ele>370.3</ele>
        <time>2024-11-03T09:41:35Z</time>
      </trkpt>
      <trkpt lat="48.19988" lon="6.55718">
        <ele>370.6</ele>
        <time>2024-11-03T09:41:41Z</time>
      </trkpt>
      <trkpt lat="48.19984" lon="6.55703">
        <ele>371</ele>
        <time>2024-11-03T09:41:47Z</time>
      </trkpt>
      <trkpt lat="48.19982" lon="6.5569">
        <ele>371.4</ele>
        <time>2024-11-03T09:41:54Z</time>
      </trkpt>
      <trkpt lat="48.19977" lon="6.55677">
        <ele>371.8</ele>
        <time>2024-11-03T09:42:02Z</time>
      </trkpt>
      <trkpt lat="48.19973" lon="6.55664">
        <ele>372.2</ele>
        <time>2024-11-03T09:42:09Z</time>
      </trkpt>
      <trkpt lat="48.19967" lon="6.55652">
        <ele>372.5</ele>
        <time>2024-11-03T09:42:16Z</time>
      </trkpt>
      <trkpt lat="48.19969" lon="6.55639">
        <ele>372.9</ele>
        <time>2024-11-03T09:42:23Z</time>
      </trkpt>
      <trkpt lat="48.19965" lon="6.55625">
        <ele>373.3</ele>
        <time>2024-11-03T09:42:29Z</time>
      </trkpt>
      <trkpt lat="48.19961" lon="6.55611">
        <ele>373.8</ele>
        <time>2024-11-03T09:42:37Z</time>
      </trkpt>
      <trkpt lat="48.19958" lon="6.55598">
        <ele>374</ele>
        <time>2024-11-03T09:42:43Z</time>
      </trkpt>
      <trkpt lat="48.19955" lon="6.55584">
        <ele>374.2</ele>
        <time>2024-11-03T09:42:50Z</time>
      </trkpt>
      <trkpt lat="48.19951" lon="6.55571">
        <ele>374.3</ele>
        <time>2024-11-03T09:42:57Z</time>
      </trkpt>
      <trkpt lat="48.19947" lon="6.55557">
        <ele>374.4</ele>
        <time>2024-11-03T09:43:04Z</time>
      </trkpt>
      <trkpt lat="48.19939" lon="6.55548">
        <ele>374.6</ele>
        <time>2024-11-03T09:43:12Z</time>
      </trkpt>
      <trkpt lat="48.19936" lon="6.55543">
        <ele>374.7</ele>
        <time>2024-11-03T09:43:18Z</time>
      </trkpt>
      <trkpt lat="48.19936" lon="6.55542">
        <ele>374.7</ele>
        <time>2024-11-03T09:43:19Z</time>
      </trkpt>
      <trkpt lat="48.19935" lon="6.55541">
        <ele>374.7</ele>
        <time>2024-11-03T09:43:20Z</time>
      </trkpt>
      <trkpt lat="48.19934" lon="6.5554">
        <ele>374.8</ele>
        <time>2024-11-03T09:43:21Z</time>
      </trkpt>
      <trkpt lat="48.19934" lon="6.55538">
        <ele>374.8</ele>
        <time>2024-11-03T09:43:22Z</time>
      </trkpt>
      <trkpt lat="48.19927" lon="6.55529">
        <ele>375</ele>
        <time>2024-11-03T09:43:29Z</time>
      </trkpt>
      <trkpt lat="48.19922" lon="6.55517">
        <ele>375.1</ele>
        <time>2024-11-03T09:43:36Z</time>
      </trkpt>
      <trkpt lat="48.19916" lon="6.55506">
        <ele>375.1</ele>
        <time>2024-11-03T09:43:42Z</time>
      </trkpt>
      <trkpt lat="48.1991" lon="6.55496">
        <ele>375.1</ele>
        <time>2024-11-03T09:43:50Z</time>
      </trkpt>
      <trkpt lat="48.19903" lon="6.55484">
        <ele>375</ele>
        <time>2024-11-03T09:43:57Z</time>
      </trkpt>
      <trkpt lat="48.19897" lon="6.55473">
        <ele>374.9</ele>
        <time>2024-11-03T09:44:05Z</time>
      </trkpt>
      <trkpt lat="48.19888" lon="6.55465">
        <ele>374.8</ele>
        <time>2024-11-03T09:44:12Z</time>
      </trkpt>
      <trkpt lat="48.1988" lon="6.55457">
        <ele>374.7</ele>
        <time>2024-11-03T09:44:19Z</time>
      </trkpt>
      <trkpt lat="48.19872" lon="6.55448">
        <ele>374.6</ele>
        <time>2024-11-03T09:44:26Z</time>
      </trkpt>
      <trkpt lat="48.19864" lon="6.55441">
        <ele>374.5</ele>
        <time>2024-11-03T09:44:33Z</time>
      </trkpt>
      <trkpt lat="48.19855" lon="6.55433">
        <ele>374.2</ele>
        <time>2024-11-03T09:44:40Z</time>
      </trkpt>
      <trkpt lat="48.19848" lon="6.55425">
        <ele>373.9</ele>
        <time>2024-11-03T09:44:46Z</time>
      </trkpt>
      <trkpt lat="48.19839" lon="6.55417">
        <ele>373.4</ele>
        <time>2024-11-03T09:44:54Z</time>
      </trkpt>
      <trkpt lat="48.1983" lon="6.55407">
        <ele>372.9</ele>
        <time>2024-11-03T09:44:59Z</time>
      </trkpt>
      <trkpt lat="48.19825" lon="6.55396">
        <ele>372.5</ele>
        <time>2024-11-03T09:45:08Z</time>
      </trkpt>
      <trkpt lat="48.19817" lon="6.55387">
        <ele>372.1</ele>
        <time>2024-11-03T09:45:13Z</time>
      </trkpt>
      <trkpt lat="48.19809" lon="6.5538">
        <ele>371.7</ele>
        <time>2024-11-03T09:45:18Z</time>
      </trkpt>
      <trkpt lat="48.19803" lon="6.5537">
        <ele>371.2</ele>
        <time>2024-11-03T09:45:25Z</time>
      </trkpt>
      <trkpt lat="48.19797" lon="6.5536">
        <ele>370.6</ele>
        <time>2024-11-03T09:45:29Z</time>
      </trkpt>
      <trkpt lat="48.19791" lon="6.55347">
        <ele>370.1</ele>
        <time>2024-11-03T09:45:34Z</time>
      </trkpt>
      <trkpt lat="48.19786" lon="6.55334">
        <ele>369.7</ele>
        <time>2024-11-03T09:45:41Z</time>
      </trkpt>
      <trkpt lat="48.19782" lon="6.55322">
        <ele>369.3</ele>
        <time>2024-11-03T09:45:50Z</time>
      </trkpt>
      <trkpt lat="48.19776" lon="6.5531">
        <ele>369</ele>
        <time>2024-11-03T09:45:57Z</time>
      </trkpt>
      <trkpt lat="48.19771" lon="6.55298">
        <ele>368.7</ele>
        <time>2024-11-03T09:46:04Z</time>
      </trkpt>
      <trkpt lat="48.19764" lon="6.55286">
        <ele>368.5</ele>
        <time>2024-11-03T09:46:11Z</time>
      </trkpt>
      <trkpt lat="48.19758" lon="6.55275">
        <ele>368.3</ele>
        <time>2024-11-03T09:46:18Z</time>
      </trkpt>
      <trkpt lat="48.1975" lon="6.55265">
        <ele>368.2</ele>
        <time>2024-11-03T09:46:26Z</time>
      </trkpt>
      <trkpt lat="48.19745" lon="6.55253">
        <ele>368</ele>
        <time>2024-11-03T09:46:34Z</time>
      </trkpt>
      <trkpt lat="48.19737" lon="6.55242">
        <ele>367.8</ele>
        <time>2024-11-03T09:46:42Z</time>
      </trkpt>
      <trkpt lat="48.1973" lon="6.55231">
        <ele>367.7</ele>
        <time>2024-11-03T09:46:50Z</time>
      </trkpt>
      <trkpt lat="48.19722" lon="6.55222">
        <ele>367.8</ele>
        <time>2024-11-03T09:46:57Z</time>
      </trkpt>
      <trkpt lat="48.19712" lon="6.55216">
        <ele>367.9</ele>
        <time>2024-11-03T09:47:04Z</time>
      </trkpt>
      <trkpt lat="48.19703" lon="6.55212">
        <ele>368.1</ele>
        <time>2024-11-03T09:47:12Z</time>
      </trkpt>
      <trkpt lat="48.19694" lon="6.55207">
        <ele>368.4</ele>
        <time>2024-11-03T09:47:19Z</time>
      </trkpt>
      <trkpt lat="48.19686" lon="6.55199">
        <ele>368.5</ele>
        <time>2024-11-03T09:47:27Z</time>
      </trkpt>
      <trkpt lat="48.19677" lon="6.55199">
        <ele>368.6</ele>
        <time>2024-11-03T09:47:35Z</time>
      </trkpt>
      <trkpt lat="48.19668" lon="6.55191">
        <ele>368.6</ele>
        <time>2024-11-03T09:47:42Z</time>
      </trkpt>
      <trkpt lat="48.19661" lon="6.55183">
        <ele>368.7</ele>
        <time>2024-11-03T09:47:49Z</time>
      </trkpt>
      <trkpt lat="48.19651" lon="6.55177">
        <ele>368.8</ele>
        <time>2024-11-03T09:47:56Z</time>
      </trkpt>
      <trkpt lat="48.19641" lon="6.55173">
        <ele>368.9</ele>
        <time>2024-11-03T09:48:02Z</time>
      </trkpt>
      <trkpt lat="48.19632" lon="6.55169">
        <ele>369.1</ele>
        <time>2024-11-03T09:48:09Z</time>
      </trkpt>
      <trkpt lat="48.19624" lon="6.55163">
        <ele>369.2</ele>
        <time>2024-11-03T09:48:15Z</time>
      </trkpt>
      <trkpt lat="48.19615" lon="6.55157">
        <ele>369.3</ele>
        <time>2024-11-03T09:48:21Z</time>
      </trkpt>
      <trkpt lat="48.19607" lon="6.55149">
        <ele>369.3</ele>
        <time>2024-11-03T09:48:28Z</time>
      </trkpt>
      <trkpt lat="48.196" lon="6.5514">
        <ele>369.1</ele>
        <time>2024-11-03T09:48:35Z</time>
      </trkpt>
      <trkpt lat="48.19593" lon="6.55131">
        <ele>368.9</ele>
        <time>2024-11-03T09:48:42Z</time>
      </trkpt>
      <trkpt lat="48.19585" lon="6.55121">
        <ele>368.7</ele>
        <time>2024-11-03T09:48:51Z</time>
      </trkpt>
      <trkpt lat="48.19579" lon="6.5511">
        <ele>368.4</ele>
        <time>2024-11-03T09:48:59Z</time>
      </trkpt>
      <trkpt lat="48.19572" lon="6.55099">
        <ele>368.1</ele>
        <time>2024-11-03T09:49:08Z</time>
      </trkpt>
      <trkpt lat="48.19565" lon="6.55089">
        <ele>367.8</ele>
        <time>2024-11-03T09:49:16Z</time>
      </trkpt>
      <trkpt lat="48.19558" lon="6.55079">
        <ele>367.5</ele>
        <time>2024-11-03T09:49:24Z</time>
      </trkpt>
      <trkpt lat="48.19551" lon="6.55068">
        <ele>367.3</ele>
        <time>2024-11-03T09:49:32Z</time>
      </trkpt>
      <trkpt lat="48.19544" lon="6.55057">
        <ele>367</ele>
        <time>2024-11-03T09:49:40Z</time>
      </trkpt>
      <trkpt lat="48.19537" lon="6.55048">
        <ele>366.9</ele>
        <time>2024-11-03T09:49:46Z</time>
      </trkpt>
      <trkpt lat="48.19531" lon="6.55038">
        <ele>366.7</ele>
        <time>2024-11-03T09:49:53Z</time>
      </trkpt>
      <trkpt lat="48.19526" lon="6.55025">
        <ele>366.5</ele>
        <time>2024-11-03T09:50:02Z</time>
      </trkpt>
      <trkpt lat="48.19518" lon="6.55017">
        <ele>366.3</ele>
        <time>2024-11-03T09:50:09Z</time>
      </trkpt>
      <trkpt lat="48.19512" lon="6.55005">
        <ele>365.9</ele>
        <time>2024-11-03T09:50:16Z</time>
      </trkpt>
      <trkpt lat="48.19505" lon="6.54996">
        <ele>365.4</ele>
        <time>2024-11-03T09:50:22Z</time>
      </trkpt>
      <trkpt lat="48.19497" lon="6.54985">
        <ele>364.9</ele>
        <time>2024-11-03T09:50:29Z</time>
      </trkpt>
      <trkpt lat="48.19491" lon="6.54975">
        <ele>364.5</ele>
        <time>2024-11-03T09:50:36Z</time>
      </trkpt>
      <trkpt lat="48.19483" lon="6.54965">
        <ele>364.1</ele>
        <time>2024-11-03T09:50:42Z</time>
      </trkpt>
      <trkpt lat="48.19475" lon="6.54958">
        <ele>363.9</ele>
        <time>2024-11-03T09:50:49Z</time>
      </trkpt>
      <trkpt lat="48.19467" lon="6.54952">
        <ele>363.6</ele>
        <time>2024-11-03T09:50:55Z</time>
      </trkpt>
      <trkpt lat="48.19458" lon="6.54944">
        <ele>363.3</ele>
        <time>2024-11-03T09:51:02Z</time>
      </trkpt>
      <trkpt lat="48.19451" lon="6.54934">
        <ele>362.9</ele>
        <time>2024-11-03T09:51:09Z</time>
      </trkpt>
      <trkpt lat="48.19444" lon="6.54926">
        <ele>362.4</ele>
        <time>2024-11-03T09:51:16Z</time>
      </trkpt>
      <trkpt lat="48.19436" lon="6.54918">
        <ele>361.8</ele>
        <time>2024-11-03T09:51:23Z</time>
      </trkpt>
      <trkpt lat="48.19428" lon="6.54911">
        <ele>361.1</ele>
        <time>2024-11-03T09:51:31Z</time>
      </trkpt>
      <trkpt lat="48.19422" lon="6.54906">
        <ele>360.5</ele>
        <time>2024-11-03T09:51:43Z</time>
      </trkpt>
      <trkpt lat="48.19422" lon="6.54906">
        <ele>360.5</ele>
        <time>2024-11-03T09:51:44Z</time>
      </trkpt>
      <trkpt lat="48.19422" lon="6.54906">
        <ele>360.5</ele>
        <time>2024-11-03T09:51:45Z</time>
      </trkpt>
      <trkpt lat="48.19421" lon="6.54905">
        <ele>360.4</ele>
        <time>2024-11-03T09:51:48Z</time>
      </trkpt>
      <trkpt lat="48.1942" lon="6.54905">
        <ele>360.3</ele>
        <time>2024-11-03T09:51:49Z</time>
      </trkpt>
      <trkpt lat="48.19412" lon="6.54897">
        <ele>359.4</ele>
        <time>2024-11-03T09:52:02Z</time>
      </trkpt>
      <trkpt lat="48.19405" lon="6.54888">
        <ele>358.5</ele>
        <time>2024-11-03T09:52:11Z</time>
      </trkpt>
      <trkpt lat="48.19397" lon="6.54881">
        <ele>357.6</ele>
        <time>2024-11-03T09:52:19Z</time>
      </trkpt>
      <trkpt lat="48.19391" lon="6.54871">
        <ele>356.9</ele>
        <time>2024-11-03T09:52:27Z</time>
      </trkpt>
      <trkpt lat="48.19382" lon="6.54863">
        <ele>356.2</ele>
        <time>2024-11-03T09:52:35Z</time>
      </trkpt>
      <trkpt lat="48.19374" lon="6.54856">
        <ele>355.6</ele>
        <time>2024-11-03T09:52:42Z</time>
      </trkpt>
      <trkpt lat="48.19367" lon="6.54845">
        <ele>355.1</ele>
        <time>2024-11-03T09:52:50Z</time>
      </trkpt>
      <trkpt lat="48.1936" lon="6.54834">
        <ele>354.5</ele>
        <time>2024-11-03T09:53:02Z</time>
      </trkpt>
      <trkpt lat="48.19354" lon="6.54824">
        <ele>354.1</ele>
        <time>2024-11-03T09:53:10Z</time>
      </trkpt>
      <trkpt lat="48.1935" lon="6.54812">
        <ele>353.9</ele>
        <time>2024-11-03T09:53:20Z</time>
      </trkpt>
      <trkpt lat="48.19342" lon="6.54822">
        <ele>353.9</ele>
        <time>2024-11-03T09:53:28Z</time>
      </trkpt>
      <trkpt lat="48.19336" lon="6.54833">
        <ele>353.9</ele>
        <time>2024-11-03T09:53:36Z</time>
      </trkpt>
      <trkpt lat="48.1933" lon="6.54843">
        <ele>354</ele>
        <time>2024-11-03T09:53:45Z</time>
      </trkpt>
      <trkpt lat="48.19323" lon="6.54855">
        <ele>354.1</ele>
        <time>2024-11-03T09:53:53Z</time>
      </trkpt>
      <trkpt lat="48.19316" lon="6.54865">
        <ele>354.2</ele>
        <time>2024-11-03T09:54:01Z</time>
      </trkpt>
      <trkpt lat="48.19309" lon="6.54875">
        <ele>354.3</ele>
        <time>2024-11-03T09:54:08Z</time>
      </trkpt>
      <trkpt lat="48.19302" lon="6.54886">
        <ele>354.3</ele>
        <time>2024-11-03T09:54:15Z</time>
      </trkpt>
      <trkpt lat="48.19294" lon="6.54894">
        <ele>354.3</ele>
        <time>2024-11-03T09:54:22Z</time>
      </trkpt>
      <trkpt lat="48.19286" lon="6.54903">
        <ele>354.4</ele>
        <time>2024-11-03T09:54:29Z</time>
      </trkpt>
      <trkpt lat="48.19278" lon="6.5491">
        <ele>354.4</ele>
        <time>2024-11-03T09:54:36Z</time>
      </trkpt>
      <trkpt lat="48.1927" lon="6.54918">
        <ele>354.4</ele>
        <time>2024-11-03T09:54:43Z</time>
      </trkpt>
      <trkpt lat="48.19262" lon="6.54925">
        <ele>354.4</ele>
        <time>2024-11-03T09:54:50Z</time>
      </trkpt>
      <trkpt lat="48.19253" lon="6.54933">
        <ele>354.4</ele>
        <time>2024-11-03T09:54:57Z</time>
      </trkpt>
      <trkpt lat="48.19245" lon="6.5494">
        <ele>354.4</ele>
        <time>2024-11-03T09:55:04Z</time>
      </trkpt>
      <trkpt lat="48.19237" lon="6.54946">
        <ele>354.4</ele>
        <time>2024-11-03T09:55:11Z</time>
      </trkpt>
      <trkpt lat="48.1923" lon="6.54956">
        <ele>354.4</ele>
        <time>2024-11-03T09:55:18Z</time>
      </trkpt>
      <trkpt lat="48.19223" lon="6.54964">
        <ele>354.5</ele>
        <time>2024-11-03T09:55:25Z</time>
      </trkpt>
      <trkpt lat="48.19215" lon="6.54973">
        <ele>354.6</ele>
        <time>2024-11-03T09:55:33Z</time>
      </trkpt>
      <trkpt lat="48.19208" lon="6.54982">
        <ele>354.7</ele>
        <time>2024-11-03T09:55:40Z</time>
      </trkpt>
      <trkpt lat="48.192" lon="6.54992">
        <ele>354.8</ele>
        <time>2024-11-03T09:55:52Z</time>
      </trkpt>
      <trkpt lat="48.19193" lon="6.55002">
        <ele>355</ele>
        <time>2024-11-03T09:55:58Z</time>
      </trkpt>
      <trkpt lat="48.19186" lon="6.55012">
        <ele>355.2</ele>
        <time>2024-11-03T09:56:04Z</time>
      </trkpt>
      <trkpt lat="48.1918" lon="6.55023">
        <ele>355.4</ele>
        <time>2024-11-03T09:56:10Z</time>
      </trkpt>
      <trkpt lat="48.19175" lon="6.55035">
        <ele>355.6</ele>
        <time>2024-11-03T09:56:20Z</time>
      </trkpt>
      <trkpt lat="48.19169" lon="6.55046">
        <ele>355.8</ele>
        <time>2024-11-03T09:56:27Z</time>
      </trkpt>
      <trkpt lat="48.19163" lon="6.55057">
        <ele>356.1</ele>
        <time>2024-11-03T09:56:34Z</time>
      </trkpt>
      <trkpt lat="48.19158" lon="6.55069">
        <ele>356.3</ele>
        <time>2024-11-03T09:56:41Z</time>
      </trkpt>
      <trkpt lat="48.19151" lon="6.5508">
        <ele>356.5</ele>
        <time>2024-11-03T09:56:48Z</time>
      </trkpt>
      <trkpt lat="48.19146" lon="6.55091">
        <ele>356.7</ele>
        <time>2024-11-03T09:56:54Z</time>
      </trkpt>
      <trkpt lat="48.19138" lon="6.551">
        <ele>356.9</ele>
        <time>2024-11-03T09:57:02Z</time>
      </trkpt>
      <trkpt lat="48.19132" lon="6.55111">
        <ele>357.2</ele>
        <time>2024-11-03T09:57:09Z</time>
      </trkpt>
      <trkpt lat="48.19126" lon="6.55121">
        <ele>357.4</ele>
        <time>2024-11-03T09:57:16Z</time>
      </trkpt>
      <trkpt lat="48.1912" lon="6.55132">
        <ele>357.7</ele>
        <time>2024-11-03T09:57:22Z</time>
      </trkpt>
      <trkpt lat="48.19112" lon="6.55139">
        <ele>357.9</ele>
        <time>2024-11-03T09:57:30Z</time>
      </trkpt>
      <trkpt lat="48.19104" lon="6.55148">
        <ele>358.1</ele>
        <time>2024-11-03T09:57:36Z</time>
      </trkpt>
      <trkpt lat="48.19096" lon="6.55158">
        <ele>358.2</ele>
        <time>2024-11-03T09:57:43Z</time>
      </trkpt>
      <trkpt lat="48.19089" lon="6.55167">
        <ele>358.3</ele>
        <time>2024-11-03T09:57:50Z</time>
      </trkpt>
      <trkpt lat="48.19084" lon="6.55174">
        <ele>358.3</ele>
        <time>2024-11-03T09:58:01Z</time>
      </trkpt>
      <trkpt lat="48.19084" lon="6.55174">
        <ele>358.3</ele>
        <time>2024-11-03T09:58:02Z</time>
      </trkpt>
      <trkpt lat="48.19082" lon="6.55177">
        <ele>358.4</ele>
        <time>2024-11-03T09:58:06Z</time>
      </trkpt>
      <trkpt lat="48.19081" lon="6.55178">
        <ele>358.4</ele>
        <time>2024-11-03T09:58:07Z</time>
      </trkpt>
      <trkpt lat="48.19073" lon="6.55188">
        <ele>358.5</ele>
        <time>2024-11-03T09:58:16Z</time>
      </trkpt>
      <trkpt lat="48.19063" lon="6.55193">
        <ele>358.5</ele>
        <time>2024-11-03T09:58:24Z</time>
      </trkpt>
      <trkpt lat="48.19055" lon="6.552">
        <ele>358.5</ele>
        <time>2024-11-03T09:58:31Z</time>
      </trkpt>
      <trkpt lat="48.19046" lon="6.55206">
        <ele>358.5</ele>
        <time>2024-11-03T09:58:39Z</time>
      </trkpt>
      <trkpt lat="48.19037" lon="6.5521">
        <ele>358.6</ele>
        <time>2024-11-03T09:58:47Z</time>
      </trkpt>
      <trkpt lat="48.19029" lon="6.55218">
        <ele>358.6</ele>
        <time>2024-11-03T09:58:56Z</time>
      </trkpt>
      <trkpt lat="48.1902" lon="6.55223">
        <ele>358.7</ele>
        <time>2024-11-03T09:59:04Z</time>
      </trkpt>
      <trkpt lat="48.19011" lon="6.55229">
        <ele>358.7</ele>
        <time>2024-11-03T09:59:12Z</time>
      </trkpt>
      <trkpt lat="48.19003" lon="6.55236">
        <ele>358.6</ele>
        <time>2024-11-03T09:59:21Z</time>
      </trkpt>
      <trkpt lat="48.18993" lon="6.5524">
        <ele>358.6</ele>
        <time>2024-11-03T09:59:29Z</time>
      </trkpt>
      <trkpt lat="48.18989" lon="6.55242">
        <ele>358.6</ele>
        <time>2024-11-03T09:59:35Z</time>
      </trkpt>
      <trkpt lat="48.18989" lon="6.55242">
        <ele>358.6</ele>
        <time>2024-11-03T09:59:36Z</time>
      </trkpt>
      <trkpt lat="48.18989" lon="6.55242">
        <ele>358.6</ele>
        <time>2024-11-03T09:59:37Z</time>
      </trkpt>
      <trkpt lat="48.18988" lon="6.55245">
        <ele>358.6</ele>
        <time>2024-11-03T10:00:12Z</time>
      </trkpt>
      <trkpt lat="48.18987" lon="6.55247">
        <ele>358.6</ele>
        <time>2024-11-03T10:00:13Z</time>
      </trkpt>
      <trkpt lat="48.18986" lon="6.55248">
        <ele>358.6</ele>
        <time>2024-11-03T10:00:14Z</time>
      </trkpt>
      <trkpt lat="48.18977" lon="6.55256">
        <ele>358.7</ele>
        <time>2024-11-03T10:00:22Z</time>
      </trkpt>
      <trkpt lat="48.18969" lon="6.55261">
        <ele>358.7</ele>
        <time>2024-11-03T10:00:29Z</time>
      </trkpt>
      <trkpt lat="48.18959" lon="6.55268">
        <ele>358.7</ele>
        <time>2024-11-03T10:00:38Z</time>
      </trkpt>
      <trkpt lat="48.18951" lon="6.55274">
        <ele>358.7</ele>
        <time>2024-11-03T10:00:45Z</time>
      </trkpt>
      <trkpt lat="48.18943" lon="6.55284">
        <ele>358.7</ele>
        <time>2024-11-03T10:00:52Z</time>
      </trkpt>
      <trkpt lat="48.18935" lon="6.55291">
        <ele>358.8</ele>
        <time>2024-11-03T10:01:01Z</time>
      </trkpt>
      <trkpt lat="48.18925" lon="6.55296">
        <ele>358.8</ele>
        <time>2024-11-03T10:01:09Z</time>
      </trkpt>
      <trkpt lat="48.18917" lon="6.55303">
        <ele>358.9</ele>
        <time>2024-11-03T10:01:16Z</time>
      </trkpt>
      <trkpt lat="48.1891" lon="6.55311">
        <ele>359.1</ele>
        <time>2024-11-03T10:01:23Z</time>
      </trkpt>
      <trkpt lat="48.18901" lon="6.55316">
        <ele>359.3</ele>
        <time>2024-11-03T10:01:30Z</time>
      </trkpt>
      <trkpt lat="48.18893" lon="6.55324">
        <ele>359.5</ele>
        <time>2024-11-03T10:01:37Z</time>
      </trkpt>
      <trkpt lat="48.18885" lon="6.55331">
        <ele>359.7</ele>
        <time>2024-11-03T10:01:43Z</time>
      </trkpt>
      <trkpt lat="48.18877" lon="6.55339">
        <ele>360</ele>
        <time>2024-11-03T10:01:49Z</time>
      </trkpt>
      <trkpt lat="48.18869" lon="6.55347">
        <ele>360.3</ele>
        <time>2024-11-03T10:01:55Z</time>
      </trkpt>
      <trkpt lat="48.18862" lon="6.55356">
        <ele>360.6</ele>
        <time>2024-11-03T10:02:01Z</time>
      </trkpt>
      <trkpt lat="48.18856" lon="6.55367">
        <ele>360.9</ele>
        <time>2024-11-03T10:02:08Z</time>
      </trkpt>
      <trkpt lat="48.18849" lon="6.55377">
        <ele>361.3</ele>
        <time>2024-11-03T10:02:15Z</time>
      </trkpt>
      <trkpt lat="48.18843" lon="6.55388">
        <ele>361.8</ele>
        <time>2024-11-03T10:02:21Z</time>
      </trkpt>
      <trkpt lat="48.18838" lon="6.554">
        <ele>362.3</ele>
        <time>2024-11-03T10:02:28Z</time>
      </trkpt>
      <trkpt lat="48.18833" lon="6.55412">
        <ele>362.9</ele>
        <time>2024-11-03T10:02:35Z</time>
      </trkpt>
      <trkpt lat="48.18828" lon="6.55424">
        <ele>363.5</ele>
        <time>2024-11-03T10:02:42Z</time>
      </trkpt>
      <trkpt lat="48.18822" lon="6.55436">
        <ele>364.2</ele>
        <time>2024-11-03T10:02:49Z</time>
      </trkpt>
      <trkpt lat="48.18816" lon="6.55446">
        <ele>364.9</ele>
        <time>2024-11-03T10:02:56Z</time>
      </trkpt>
      <trkpt lat="48.18808" lon="6.55454">
        <ele>365.5</ele>
        <time>2024-11-03T10:03:03Z</time>
      </trkpt>
      <trkpt lat="48.188" lon="6.55461">
        <ele>366</ele>
        <time>2024-11-03T10:03:10Z</time>
      </trkpt>
      <trkpt lat="48.18791" lon="6.55469">
        <ele>366.4</ele>
        <time>2024-11-03T10:03:19Z</time>
      </trkpt>
      <trkpt lat="48.18783" lon="6.55479">
        <ele>366.8</ele>
        <time>2024-11-03T10:03:26Z</time>
      </trkpt>
      <trkpt lat="48.18777" lon="6.55492">
        <ele>367</ele>
        <time>2024-11-03T10:03:33Z</time>
      </trkpt>
      <trkpt lat="48.18772" lon="6.55504">
        <ele>367.3</ele>
        <time>2024-11-03T10:03:40Z</time>
      </trkpt>
      <trkpt lat="48.18768" lon="6.55518">
        <ele>367.5</ele>
        <time>2024-11-03T10:03:47Z</time>
      </trkpt>
      <trkpt lat="48.18764" lon="6.5553">
        <ele>367.6</ele>
        <time>2024-11-03T10:03:54Z</time>
      </trkpt>
      <trkpt lat="48.18762" lon="6.55544">
        <ele>367.8</ele>
        <time>2024-11-03T10:04:01Z</time>
      </trkpt>
      <trkpt lat="48.1876" lon="6.55559">
        <ele>367.9</ele>
        <time>2024-11-03T10:04:08Z</time>
      </trkpt>
      <trkpt lat="48.18758" lon="6.55572">
        <ele>367.9</ele>
        <time>2024-11-03T10:04:14Z</time>
      </trkpt>
      <trkpt lat="48.18754" lon="6.55586">
        <ele>368</ele>
        <time>2024-11-03T10:04:21Z</time>
      </trkpt>
      <trkpt lat="48.18751" lon="6.55601">
        <ele>368</ele>
        <time>2024-11-03T10:04:28Z</time>
      </trkpt>
      <trkpt lat="48.18747" lon="6.55615">
        <ele>368</ele>
        <time>2024-11-03T10:04:35Z</time>
      </trkpt>
      <trkpt lat="48.18739" lon="6.55626">
        <ele>368</ele>
        <time>2024-11-03T10:04:42Z</time>
      </trkpt>
      <trkpt lat="48.18731" lon="6.55636">
        <ele>368.1</ele>
        <time>2024-11-03T10:04:49Z</time>
      </trkpt>
      <trkpt lat="48.18723" lon="6.55645">
        <ele>368.3</ele>
        <time>2024-11-03T10:04:56Z</time>
      </trkpt>
      <trkpt lat="48.18716" lon="6.55653">
        <ele>368.5</ele>
        <time>2024-11-03T10:05:03Z</time>
      </trkpt>
      <trkpt lat="48.18709" lon="6.55661">
        <ele>368.7</ele>
        <time>2024-11-03T10:05:10Z</time>
      </trkpt>
      <trkpt lat="48.18703" lon="6.55674">
        <ele>368.9</ele>
        <time>2024-11-03T10:05:18Z</time>
      </trkpt>
      <trkpt lat="48.18697" lon="6.55686">
        <ele>369.1</ele>
        <time>2024-11-03T10:05:26Z</time>
      </trkpt>
      <trkpt lat="48.18691" lon="6.55696">
        <ele>369.1</ele>
        <time>2024-11-03T10:05:36Z</time>
      </trkpt>
      <trkpt lat="48.18682" lon="6.55702">
        <ele>369.2</ele>
        <time>2024-11-03T10:05:42Z</time>
      </trkpt>
      <trkpt lat="48.18675" lon="6.55711">
        <ele>369.3</ele>
        <time>2024-11-03T10:05:48Z</time>
      </trkpt>
      <trkpt lat="48.18668" lon="6.5572">
        <ele>369.3</ele>
        <time>2024-11-03T10:05:54Z</time>
      </trkpt>
      <trkpt lat="48.18659" lon="6.55727">
        <ele>369.4</ele>
        <time>2024-11-03T10:06:01Z</time>
      </trkpt>
      <trkpt lat="48.18651" lon="6.55737">
        <ele>369.4</ele>
        <time>2024-11-03T10:06:07Z</time>
      </trkpt>
      <trkpt lat="48.18643" lon="6.55745">
        <ele>369.3</ele>
        <time>2024-11-03T10:06:13Z</time>
      </trkpt>
      <trkpt lat="48.18636" lon="6.55755">
        <ele>369.2</ele>
        <time>2024-11-03T10:06:20Z</time>
      </trkpt>
      <trkpt lat="48.18629" lon="6.55765">
        <ele>369</ele>
        <time>2024-11-03T10:06:27Z</time>
      </trkpt>
      <trkpt lat="48.18622" lon="6.55774">
        <ele>368.9</ele>
        <time>2024-11-03T10:06:33Z</time>
      </trkpt>
      <trkpt lat="48.18617" lon="6.55786">
        <ele>368.7</ele>
        <time>2024-11-03T10:06:41Z</time>
      </trkpt>
      <trkpt lat="48.18611" lon="6.55797">
        <ele>368.5</ele>
        <time>2024-11-03T10:06:49Z</time>
      </trkpt>
      <trkpt lat="48.18605" lon="6.55807">
        <ele>368.3</ele>
        <time>2024-11-03T10:06:55Z</time>
      </trkpt>
      <trkpt lat="48.18599" lon="6.55819">
        <ele>368.2</ele>
        <time>2024-11-03T10:07:03Z</time>
      </trkpt>
      <trkpt lat="48.18593" lon="6.55831">
        <ele>368</ele>
        <time>2024-11-03T10:07:11Z</time>
      </trkpt>
      <trkpt lat="48.18586" lon="6.5584">
        <ele>367.9</ele>
        <time>2024-11-03T10:07:18Z</time>
      </trkpt>
      <trkpt lat="48.1858" lon="6.55851">
        <ele>367.8</ele>
        <time>2024-11-03T10:07:25Z</time>
      </trkpt>
      <trkpt lat="48.18572" lon="6.55861">
        <ele>367.6</ele>
        <time>2024-11-03T10:07:33Z</time>
      </trkpt>
      <trkpt lat="48.18565" lon="6.5587">
        <ele>367.5</ele>
        <time>2024-11-03T10:07:40Z</time>
      </trkpt>
      <trkpt lat="48.18558" lon="6.5588">
        <ele>367.3</ele>
        <time>2024-11-03T10:07:47Z</time>
      </trkpt>
      <trkpt lat="48.18552" lon="6.5589">
        <ele>367</ele>
        <time>2024-11-03T10:07:53Z</time>
      </trkpt>
      <trkpt lat="48.18545" lon="6.55899">
        <ele>366.6</ele>
        <time>2024-11-03T10:07:59Z</time>
      </trkpt>
      <trkpt lat="48.18539" lon="6.5591">
        <ele>366.1</ele>
        <time>2024-11-03T10:08:08Z</time>
      </trkpt>
      <trkpt lat="48.18533" lon="6.55922">
        <ele>365.5</ele>
        <time>2024-11-03T10:08:15Z</time>
      </trkpt>
      <trkpt lat="48.18527" lon="6.55935">
        <ele>364.8</ele>
        <time>2024-11-03T10:08:22Z</time>
      </trkpt>
      <trkpt lat="48.18522" lon="6.55947">
        <ele>364.2</ele>
        <time>2024-11-03T10:08:29Z</time>
      </trkpt>
      <trkpt lat="48.1852" lon="6.55961">
        <ele>363.5</ele>
        <time>2024-11-03T10:08:36Z</time>
      </trkpt>
      <trkpt lat="48.18519" lon="6.55971">
        <ele>363.2</ele>
        <time>2024-11-03T10:08:43Z</time>
      </trkpt>
      <trkpt lat="48.18519" lon="6.55971">
        <ele>363.2</ele>
        <time>2024-11-03T10:08:44Z</time>
      </trkpt>
      <trkpt lat="48.1852" lon="6.55974">
        <ele>363.1</ele>
        <time>2024-11-03T10:08:58Z</time>
      </trkpt>
      <trkpt lat="48.1852" lon="6.55975">
        <ele>363.1</ele>
        <time>2024-11-03T10:08:59Z</time>
      </trkpt>
      <trkpt lat="48.18515" lon="6.55988">
        <ele>362.7</ele>
        <time>2024-11-03T10:09:09Z</time>
      </trkpt>
      <trkpt lat="48.18509" lon="6.55999">
        <ele>362.6</ele>
        <time>2024-11-03T10:09:18Z</time>
      </trkpt>
      <trkpt lat="48.185" lon="6.56007">
        <ele>362.5</ele>
        <time>2024-11-03T10:09:26Z</time>
      </trkpt>
      <trkpt lat="48.1849" lon="6.56011">
        <ele>362.5</ele>
        <time>2024-11-03T10:09:32Z</time>
      </trkpt>
      <trkpt lat="48.18481" lon="6.56011">
        <ele>362.6</ele>
        <time>2024-11-03T10:09:38Z</time>
      </trkpt>
      <trkpt lat="48.18471" lon="6.56011">
        <ele>362.9</ele>
        <time>2024-11-03T10:09:45Z</time>
      </trkpt>
      <trkpt lat="48.18462" lon="6.56008">
        <ele>363.2</ele>
        <time>2024-11-03T10:09:51Z</time>
      </trkpt>
      <trkpt lat="48.18453" lon="6.56008">
        <ele>363.5</ele>
        <time>2024-11-03T10:09:59Z</time>
      </trkpt>
      <trkpt lat="48.18443" lon="6.56011">
        <ele>363.8</ele>
        <time>2024-11-03T10:10:06Z</time>
      </trkpt>
      <trkpt lat="48.18434" lon="6.56015">
        <ele>364.2</ele>
        <time>2024-11-03T10:10:18Z</time>
      </trkpt>
      <trkpt lat="48.18424" lon="6.56017">
        <ele>364.7</ele>
        <time>2024-11-03T10:10:23Z</time>
      </trkpt>
      <trkpt lat="48.18415" lon="6.56019">
        <ele>365.2</ele>
        <time>2024-11-03T10:10:29Z</time>
      </trkpt>
      <trkpt lat="48.18406" lon="6.56019">
        <ele>365.9</ele>
        <time>2024-11-03T10:10:36Z</time>
      </trkpt>
      <trkpt lat="48.18395" lon="6.56021">
        <ele>366.5</ele>
        <time>2024-11-03T10:10:43Z</time>
      </trkpt>
      <trkpt lat="48.18386" lon="6.56021">
        <ele>367.1</ele>
        <time>2024-11-03T10:10:49Z</time>
      </trkpt>
      <trkpt lat="48.18376" lon="6.56021">
        <ele>367.8</ele>
        <time>2024-11-03T10:10:56Z</time>
      </trkpt>
      <trkpt lat="48.18367" lon="6.56025">
        <ele>368.6</ele>
        <time>2024-11-03T10:11:02Z</time>
      </trkpt>
      <trkpt lat="48.18357" lon="6.56027">
        <ele>369.6</ele>
        <time>2024-11-03T10:11:09Z</time>
      </trkpt>
      <trkpt lat="48.18348" lon="6.56032">
        <ele>370.7</ele>
        <time>2024-11-03T10:11:16Z</time>
      </trkpt>
      <trkpt lat="48.1834" lon="6.56038">
        <ele>371.8</ele>
        <time>2024-11-03T10:11:23Z</time>
      </trkpt>
      <trkpt lat="48.18331" lon="6.56045">
        <ele>373.1</ele>
        <time>2024-11-03T10:11:31Z</time>
      </trkpt>
      <trkpt lat="48.18322" lon="6.5605">
        <ele>374.3</ele>
        <time>2024-11-03T10:11:37Z</time>
      </trkpt>
      <trkpt lat="48.18314" lon="6.56056">
        <ele>375.4</ele>
        <time>2024-11-03T10:11:45Z</time>
      </trkpt>
      <trkpt lat="48.18306" lon="6.56064">
        <ele>376.7</ele>
        <time>2024-11-03T10:11:54Z</time>
      </trkpt>
      <trkpt lat="48.18299" lon="6.56075">
        <ele>377.9</ele>
        <time>2024-11-03T10:12:03Z</time>
      </trkpt>
      <trkpt lat="48.18293" lon="6.56086">
        <ele>379.2</ele>
        <time>2024-11-03T10:12:13Z</time>
      </trkpt>
      <trkpt lat="48.18287" lon="6.56098">
        <ele>380.4</ele>
        <time>2024-11-03T10:12:22Z</time>
      </trkpt>
      <trkpt lat="48.18284" lon="6.56111">
        <ele>381.4</ele>
        <time>2024-11-03T10:12:30Z</time>
      </trkpt>
      <trkpt lat="48.18281" lon="6.56124">
        <ele>382.4</ele>
        <time>2024-11-03T10:12:38Z</time>
      </trkpt>
      <trkpt lat="48.18277" lon="6.56137">
        <ele>383.7</ele>
        <time>2024-11-03T10:12:47Z</time>
      </trkpt>
      <trkpt lat="48.18269" lon="6.56147">
        <ele>385.2</ele>
        <time>2024-11-03T10:12:58Z</time>
      </trkpt>
      <trkpt lat="48.18262" lon="6.56155">
        <ele>386.5</ele>
        <time>2024-11-03T10:13:06Z</time>
      </trkpt>
      <trkpt lat="48.18253" lon="6.56159">
        <ele>387.6</ele>
        <time>2024-11-03T10:13:16Z</time>
      </trkpt>
      <trkpt lat="48.18243" lon="6.56163">
        <ele>388.6</ele>
        <time>2024-11-03T10:13:26Z</time>
      </trkpt>
      <trkpt lat="48.18234" lon="6.56168">
        <ele>389.7</ele>
        <time>2024-11-03T10:13:33Z</time>
      </trkpt>
      <trkpt lat="48.18225" lon="6.56168">
        <ele>391</ele>
        <time>2024-11-03T10:13:40Z</time>
      </trkpt>
      <trkpt lat="48.18215" lon="6.5617">
        <ele>392.2</ele>
        <time>2024-11-03T10:13:48Z</time>
      </trkpt>
      <trkpt lat="48.18206" lon="6.56172">
        <ele>393.5</ele>
        <time>2024-11-03T10:13:57Z</time>
      </trkpt>
      <trkpt lat="48.18197" lon="6.56174">
        <ele>394.5</ele>
        <time>2024-11-03T10:14:05Z</time>
      </trkpt>
      <trkpt lat="48.18187" lon="6.56174">
        <ele>395.4</ele>
        <time>2024-11-03T10:14:13Z</time>
      </trkpt>
      <trkpt lat="48.18178" lon="6.56172">
        <ele>396.1</ele>
        <time>2024-11-03T10:14:21Z</time>
      </trkpt>
      <trkpt lat="48.18168" lon="6.56171">
        <ele>396.9</ele>
        <time>2024-11-03T10:14:29Z</time>
      </trkpt>
      <trkpt lat="48.18157" lon="6.5617">
        <ele>397.7</ele>
        <time>2024-11-03T10:14:36Z</time>
      </trkpt>
      <trkpt lat="48.18148" lon="6.56169">
        <ele>398.6</ele>
        <time>2024-11-03T10:14:44Z</time>
      </trkpt>
      <trkpt lat="48.18138" lon="6.56169">
        <ele>399.5</ele>
        <time>2024-11-03T10:14:52Z</time>
      </trkpt>
      <trkpt lat="48.18128" lon="6.56169">
        <ele>400.3</ele>
        <time>2024-11-03T10:14:59Z</time>
      </trkpt>
      <trkpt lat="48.18119" lon="6.56168">
        <ele>400.9</ele>
        <time>2024-11-03T10:15:05Z</time>
      </trkpt>
      <trkpt lat="48.18109" lon="6.56165">
        <ele>401.5</ele>
        <time>2024-11-03T10:15:12Z</time>
      </trkpt>
      <trkpt lat="48.18099" lon="6.56164">
        <ele>402.1</ele>
        <time>2024-11-03T10:15:19Z</time>
      </trkpt>
      <trkpt lat="48.1809" lon="6.56163">
        <ele>402.7</ele>
        <time>2024-11-03T10:15:26Z</time>
      </trkpt>
      <trkpt lat="48.18081" lon="6.56161">
        <ele>403.3</ele>
        <time>2024-11-03T10:15:34Z</time>
      </trkpt>
      <trkpt lat="48.18071" lon="6.56159">
        <ele>404</ele>
        <time>2024-11-03T10:15:41Z</time>
      </trkpt>
      <trkpt lat="48.18062" lon="6.56158">
        <ele>404.8</ele>
        <time>2024-11-03T10:15:48Z</time>
      </trkpt>
      <trkpt lat="48.18053" lon="6.56156">
        <ele>405.5</ele>
        <time>2024-11-03T10:15:55Z</time>
      </trkpt>
      <trkpt lat="48.18043" lon="6.56155">
        <ele>406.4</ele>
        <time>2024-11-03T10:16:03Z</time>
      </trkpt>
      <trkpt lat="48.18032" lon="6.56153">
        <ele>407.3</ele>
        <time>2024-11-03T10:16:10Z</time>
      </trkpt>
      <trkpt lat="48.18023" lon="6.56152">
        <ele>408.3</ele>
        <time>2024-11-03T10:16:17Z</time>
      </trkpt>
      <trkpt lat="48.18014" lon="6.56149">
        <ele>409.3</ele>
        <time>2024-11-03T10:16:26Z</time>
      </trkpt>
      <trkpt lat="48.18004" lon="6.56149">
        <ele>410.5</ele>
        <time>2024-11-03T10:16:34Z</time>
      </trkpt>
      <trkpt lat="48.17994" lon="6.56147">
        <ele>411.8</ele>
        <time>2024-11-03T10:16:42Z</time>
      </trkpt>
      <trkpt lat="48.17984" lon="6.56145">
        <ele>413.1</ele>
        <time>2024-11-03T10:16:50Z</time>
      </trkpt>
      <trkpt lat="48.17974" lon="6.56143">
        <ele>414.4</ele>
        <time>2024-11-03T10:16:58Z</time>
      </trkpt>
      <trkpt lat="48.17965" lon="6.56142">
        <ele>415.7</ele>
        <time>2024-11-03T10:17:05Z</time>
      </trkpt>
      <trkpt lat="48.17955" lon="6.56142">
        <ele>417</ele>
        <time>2024-11-03T10:17:13Z</time>
      </trkpt>
      <trkpt lat="48.17946" lon="6.56139">
        <ele>418.4</ele>
        <time>2024-11-03T10:17:21Z</time>
      </trkpt>
      <trkpt lat="48.17937" lon="6.56136">
        <ele>419.2</ele>
        <time>2024-11-03T10:17:29Z</time>
      </trkpt>
      <trkpt lat="48.1793" lon="6.56126">
        <ele>419.6</ele>
        <time>2024-11-03T10:17:37Z</time>
      </trkpt>
      <trkpt lat="48.17922" lon="6.56118">
        <ele>420.1</ele>
        <time>2024-11-03T10:17:44Z</time>
      </trkpt>
      <trkpt lat="48.17917" lon="6.56105">
        <ele>420.7</ele>
        <time>2024-11-03T10:17:52Z</time>
      </trkpt>
      <trkpt lat="48.17911" lon="6.56094">
        <ele>421.3</ele>
        <time>2024-11-03T10:18:00Z</time>
      </trkpt>
      <trkpt lat="48.17905" lon="6.56085">
        <ele>422</ele>
        <time>2024-11-03T10:18:08Z</time>
      </trkpt>
      <trkpt lat="48.17897" lon="6.56076">
        <ele>422.7</ele>
        <time>2024-11-03T10:18:14Z</time>
      </trkpt>
      <trkpt lat="48.17889" lon="6.56067">
        <ele>423.5</ele>
        <time>2024-11-03T10:18:22Z</time>
      </trkpt>
      <trkpt lat="48.1788" lon="6.5606">
        <ele>424.1</ele>
        <time>2024-11-03T10:18:29Z</time>
      </trkpt>
      <trkpt lat="48.17872" lon="6.5605">
        <ele>424.5</ele>
        <time>2024-11-03T10:18:39Z</time>
      </trkpt>
      <trkpt lat="48.17864" lon="6.56042">
        <ele>424.8</ele>
        <time>2024-11-03T10:18:44Z</time>
      </trkpt>
      <trkpt lat="48.17858" lon="6.5603">
        <ele>425.1</ele>
        <time>2024-11-03T10:18:51Z</time>
      </trkpt>
      <trkpt lat="48.17851" lon="6.56018">
        <ele>425.4</ele>
        <time>2024-11-03T10:18:59Z</time>
      </trkpt>
      <trkpt lat="48.17844" lon="6.56007">
        <ele>425.8</ele>
        <time>2024-11-03T10:19:05Z</time>
      </trkpt>
      <trkpt lat="48.1784" lon="6.55995">
        <ele>426.2</ele>
        <time>2024-11-03T10:19:12Z</time>
      </trkpt>
      <trkpt lat="48.17833" lon="6.55985">
        <ele>426.6</ele>
        <time>2024-11-03T10:19:20Z</time>
      </trkpt>
      <trkpt lat="48.17826" lon="6.55974">
        <ele>426.9</ele>
        <time>2024-11-03T10:19:28Z</time>
      </trkpt>
      <trkpt lat="48.17825" lon="6.55973">
        <ele>427</ele>
        <time>2024-11-03T10:19:33Z</time>
      </trkpt>
      <trkpt lat="48.17825" lon="6.55973">
        <ele>427</ele>
        <time>2024-11-03T10:19:34Z</time>
      </trkpt>
      <trkpt lat="48.17824" lon="6.55972">
        <ele>427</ele>
        <time>2024-11-03T10:19:37Z</time>
      </trkpt>
      <trkpt lat="48.17823" lon="6.55973">
        <ele>427</ele>
        <time>2024-11-03T10:19:38Z</time>
      </trkpt>
      <trkpt lat="48.17822" lon="6.55975">
        <ele>427</ele>
        <time>2024-11-03T10:19:39Z</time>
      </trkpt>
      <trkpt lat="48.17825" lon="6.55988">
        <ele>426.7</ele>
        <time>2024-11-03T10:19:46Z</time>
      </trkpt>
      <trkpt lat="48.17826" lon="6.56003">
        <ele>426.7</ele>
        <time>2024-11-03T10:19:55Z</time>
      </trkpt>
      <trkpt lat="48.17827" lon="6.56016">
        <ele>426.8</ele>
        <time>2024-11-03T10:20:03Z</time>
      </trkpt>
      <trkpt lat="48.17828" lon="6.5603">
        <ele>426.9</ele>
        <time>2024-11-03T10:20:09Z</time>
      </trkpt>
      <trkpt lat="48.17827" lon="6.56045">
        <ele>427.1</ele>
        <time>2024-11-03T10:20:16Z</time>
      </trkpt>
      <trkpt lat="48.17828" lon="6.5606">
        <ele>427.4</ele>
        <time>2024-11-03T10:20:24Z</time>
      </trkpt>
      <trkpt lat="48.17828" lon="6.56073">
        <ele>427.7</ele>
        <time>2024-11-03T10:20:31Z</time>
      </trkpt>
      <trkpt lat="48.17829" lon="6.56087">
        <ele>428.1</ele>
        <time>2024-11-03T10:20:40Z</time>
      </trkpt>
      <trkpt lat="48.17833" lon="6.56085">
        <ele>428.3</ele>
        <time>2024-11-03T10:20:45Z</time>
      </trkpt>
      <trkpt lat="48.17833" lon="6.56085">
        <ele>428.3</ele>
        <time>2024-11-03T10:20:46Z</time>
      </trkpt>
      <trkpt lat="48.17833" lon="6.56085">
        <ele>428.3</ele>
        <time>2024-11-03T10:20:47Z</time>
      </trkpt>
      <trkpt lat="48.17838" lon="6.56086">
        <ele>428.5</ele>
        <time>2024-11-03T10:21:25Z</time>
      </trkpt>
      <trkpt lat="48.17839" lon="6.56087">
        <ele>428.6</ele>
        <time>2024-11-03T10:21:26Z</time>
      </trkpt>
      <trkpt lat="48.17842" lon="6.56088">
        <ele>428.7</ele>
        <time>2024-11-03T10:21:35Z</time>
      </trkpt>
      <trkpt lat="48.17842" lon="6.56088">
        <ele>428.7</ele>
        <time>2024-11-03T10:21:36Z</time>
      </trkpt>
      <trkpt lat="48.17842" lon="6.56088">
        <ele>428.7</ele>
        <time>2024-11-03T10:21:37Z</time>
      </trkpt>
      <trkpt lat="48.17843" lon="6.5609">
        <ele>428.8</ele>
        <time>2024-11-03T10:22:40Z</time>
      </trkpt>
      <trkpt lat="48.17843" lon="6.56091">
        <ele>428.8</ele>
        <time>2024-11-03T10:22:41Z</time>
      </trkpt>
      <trkpt lat="48.17844" lon="6.56098">
        <ele>429</ele>
        <time>2024-11-03T10:22:55Z</time>
      </trkpt>
      <trkpt lat="48.17844" lon="6.56098">
        <ele>429</ele>
        <time>2024-11-03T10:22:56Z</time>
      </trkpt>
      <trkpt lat="48.17844" lon="6.56098">
        <ele>429</ele>
        <time>2024-11-03T10:26:38Z</time>
      </trkpt>
      <trkpt lat="48.17844" lon="6.56098">
        <ele>429</ele>
        <time>2024-11-03T10:26:39Z</time>
      </trkpt>
      <trkpt lat="48.17844" lon="6.56098">
        <ele>429</ele>
        <time>2024-11-03T10:26:40Z</time>
      </trkpt>
      <trkpt lat="48.17844" lon="6.56098">
        <ele>429</ele>
        <time>2024-11-03T10:26:41Z</time>
      </trkpt>
      <trkpt lat="48.17844" lon="6.56098">
        <ele>429</ele>
        <time>2024-11-03T10:26:42Z</time>
      </trkpt>
      <trkpt lat="48.17844" lon="6.56098">
        <ele>429.1</ele>
        <time>2024-11-03T10:27:23Z</time>
      </trkpt>
      <trkpt lat="48.17844" lon="6.56098">
        <ele>429.1</ele>
        <time>2024-11-03T10:27:24Z</time>
      </trkpt>
      <trkpt lat="48.17844" lon="6.56098">
        <ele>429.1</ele>
        <time>2024-11-03T10:27:25Z</time>
      </trkpt>
      <trkpt lat="48.17844" lon="6.56098">
        <ele>429.1</ele>
        <time>2024-11-03T10:27:26Z</time>
      </trkpt>
      <trkpt lat="48.17844" lon="6.56098">
        <ele>429.1</ele>
        <time>2024-11-03T10:27:27Z</time>
      </trkpt>
      <trkpt lat="48.17844" lon="6.56098">
        <ele>429.1</ele>
        <time>2024-11-03T10:27:51Z</time>
      </trkpt>
      <trkpt lat="48.17844" lon="6.56098">
        <ele>429.1</ele>
        <time>2024-11-03T10:27:52Z</time>
      </trkpt>
      <trkpt lat="48.17837" lon="6.56098">
        <ele>429.2</ele>
        <time>2024-11-03T10:28:02Z</time>
      </trkpt>
      <trkpt lat="48.17837" lon="6.56098">
        <ele>429.2</ele>
        <time>2024-11-03T10:28:03Z</time>
      </trkpt>
      <trkpt lat="48.17837" lon="6.56098">
        <ele>429.2</ele>
        <time>2024-11-03T10:28:04Z</time>
      </trkpt>
      <trkpt lat="48.17837" lon="6.56098">
        <ele>429.2</ele>
        <time>2024-11-03T10:28:05Z</time>
      </trkpt>
      <trkpt lat="48.17837" lon="6.56098">
        <ele>429.2</ele>
        <time>2024-11-03T10:28:06Z</time>
      </trkpt>
      <trkpt lat="48.17837" lon="6.56098">
        <ele>429.2</ele>
        <time>2024-11-03T10:28:07Z</time>
      </trkpt>
      <trkpt lat="48.17837" lon="6.56098">
        <ele>429.2</ele>
        <time>2024-11-03T10:28:08Z</time>
      </trkpt>
      <trkpt lat="48.17837" lon="6.56098">
        <ele>429.2</ele>
        <time>2024-11-03T10:28:09Z</time>
      </trkpt>
      <trkpt lat="48.17836" lon="6.56098">
        <ele>429.2</ele>
        <time>2024-11-03T10:28:12Z</time>
      </trkpt>
      <trkpt lat="48.17836" lon="6.56099">
        <ele>429.2</ele>
        <time>2024-11-03T10:28:13Z</time>
      </trkpt>
      <trkpt lat="48.17836" lon="6.56101">
        <ele>429.2</ele>
        <time>2024-11-03T10:28:14Z</time>
      </trkpt>
      <trkpt lat="48.17835" lon="6.56104">
        <ele>429.1</ele>
        <time>2024-11-03T10:28:20Z</time>
      </trkpt>
      <trkpt lat="48.17835" lon="6.56104">
        <ele>429.1</ele>
        <time>2024-11-03T10:28:21Z</time>
      </trkpt>
      <trkpt lat="48.17834" lon="6.56104">
        <ele>429.1</ele>
        <time>2024-11-03T10:28:22Z</time>
      </trkpt>
      <trkpt lat="48.17834" lon="6.56104">
        <ele>429.1</ele>
        <time>2024-11-03T10:28:23Z</time>
      </trkpt>
      <trkpt lat="48.17833" lon="6.56104">
        <ele>429.1</ele>
        <time>2024-11-03T10:28:24Z</time>
      </trkpt>
      <trkpt lat="48.17823" lon="6.561">
        <ele>428.9</ele>
        <time>2024-11-03T10:28:33Z</time>
      </trkpt>
      <trkpt lat="48.17814" lon="6.56097">
        <ele>428.8</ele>
        <time>2024-11-03T10:28:42Z</time>
      </trkpt>
      <trkpt lat="48.17805" lon="6.56092">
        <ele>428.6</ele>
        <time>2024-11-03T10:28:50Z</time>
      </trkpt>
      <trkpt lat="48.17797" lon="6.56087">
        <ele>428.5</ele>
        <time>2024-11-03T10:28:57Z</time>
      </trkpt>
      <trkpt lat="48.17788" lon="6.56082">
        <ele>428.4</ele>
        <time>2024-11-03T10:29:06Z</time>
      </trkpt>
      <trkpt lat="48.17778" lon="6.5608">
        <ele>428.3</ele>
        <time>2024-11-03T10:29:14Z</time>
      </trkpt>
      <trkpt lat="48.17768" lon="6.56079">
        <ele>428.2</ele>
        <time>2024-11-03T10:29:21Z</time>
      </trkpt>
      <trkpt lat="48.17759" lon="6.56078">
        <ele>428.1</ele>
        <time>2024-11-03T10:29:28Z</time>
      </trkpt>
      <trkpt lat="48.1775" lon="6.56075">
        <ele>428</ele>
        <time>2024-11-03T10:29:35Z</time>
      </trkpt>
      <trkpt lat="48.17741" lon="6.56074">
        <ele>427.8</ele>
        <time>2024-11-03T10:29:43Z</time>
      </trkpt>
      <trkpt lat="48.17731" lon="6.56077">
        <ele>427.5</ele>
        <time>2024-11-03T10:29:55Z</time>
      </trkpt>
      <trkpt lat="48.17722" lon="6.56073">
        <ele>427.3</ele>
        <time>2024-11-03T10:30:04Z</time>
      </trkpt>
      <trkpt lat="48.17712" lon="6.56073">
        <ele>427.1</ele>
        <time>2024-11-03T10:30:13Z</time>
      </trkpt>
      <trkpt lat="48.17702" lon="6.56072">
        <ele>426.8</ele>
        <time>2024-11-03T10:30:20Z</time>
      </trkpt>
      <trkpt lat="48.17693" lon="6.56072">
        <ele>426.6</ele>
        <time>2024-11-03T10:30:28Z</time>
      </trkpt>
      <trkpt lat="48.17683" lon="6.56071">
        <ele>426.4</ele>
        <time>2024-11-03T10:30:36Z</time>
      </trkpt>
      <trkpt lat="48.17673" lon="6.5607">
        <ele>426.2</ele>
        <time>2024-11-03T10:30:44Z</time>
      </trkpt>
      <trkpt lat="48.17664" lon="6.56069">
        <ele>426</ele>
        <time>2024-11-03T10:30:50Z</time>
      </trkpt>
      <trkpt lat="48.17655" lon="6.56075">
        <ele>425.8</ele>
        <time>2024-11-03T10:30:59Z</time>
      </trkpt>
      <trkpt lat="48.17646" lon="6.56075">
        <ele>425.7</ele>
        <time>2024-11-03T10:31:05Z</time>
      </trkpt>
      <trkpt lat="48.17636" lon="6.56077">
        <ele>425.5</ele>
        <time>2024-11-03T10:31:12Z</time>
      </trkpt>
      <trkpt lat="48.17626" lon="6.56079">
        <ele>425.3</ele>
        <time>2024-11-03T10:31:18Z</time>
      </trkpt>
      <trkpt lat="48.17616" lon="6.5608">
        <ele>425.1</ele>
        <time>2024-11-03T10:31:26Z</time>
      </trkpt>
      <trkpt lat="48.17607" lon="6.56083">
        <ele>425</ele>
        <time>2024-11-03T10:31:33Z</time>
      </trkpt>
      <trkpt lat="48.17598" lon="6.56086">
        <ele>424.9</ele>
        <time>2024-11-03T10:31:40Z</time>
      </trkpt>
      <trkpt lat="48.17589" lon="6.56091">
        <ele>424.8</ele>
        <time>2024-11-03T10:31:49Z</time>
      </trkpt>
      <trkpt lat="48.17578" lon="6.56094">
        <ele>424.8</ele>
        <time>2024-11-03T10:31:58Z</time>
      </trkpt>
      <trkpt lat="48.17569" lon="6.56099">
        <ele>424.8</ele>
        <time>2024-11-03T10:32:05Z</time>
      </trkpt>
      <trkpt lat="48.1756" lon="6.56096">
        <ele>424.9</ele>
        <time>2024-11-03T10:32:11Z</time>
      </trkpt>
      <trkpt lat="48.17551" lon="6.56097">
        <ele>425</ele>
        <time>2024-11-03T10:32:17Z</time>
      </trkpt>
      <trkpt lat="48.17541" lon="6.56103">
        <ele>425.2</ele>
        <time>2024-11-03T10:32:25Z</time>
      </trkpt>
      <trkpt lat="48.17532" lon="6.56108">
        <ele>425.5</ele>
        <time>2024-11-03T10:32:32Z</time>
      </trkpt>
      <trkpt lat="48.17523" lon="6.56113">
        <ele>425.8</ele>
        <time>2024-11-03T10:32:41Z</time>
      </trkpt>
      <trkpt lat="48.17513" lon="6.56117">
        <ele>426.1</ele>
        <time>2024-11-03T10:32:48Z</time>
      </trkpt>
      <trkpt lat="48.17504" lon="6.5612">
        <ele>426.4</ele>
        <time>2024-11-03T10:32:55Z</time>
      </trkpt>
      <trkpt lat="48.17494" lon="6.56122">
        <ele>426.7</ele>
        <time>2024-11-03T10:33:01Z</time>
      </trkpt>
      <trkpt lat="48.17485" lon="6.56126">
        <ele>426.9</ele>
        <time>2024-11-03T10:33:10Z</time>
      </trkpt>
      <trkpt lat="48.17475" lon="6.56127">
        <ele>426.8</ele>
        <time>2024-11-03T10:33:17Z</time>
      </trkpt>
      <trkpt lat="48.17466" lon="6.5613">
        <ele>426.7</ele>
        <time>2024-11-03T10:33:24Z</time>
      </trkpt>
      <trkpt lat="48.17456" lon="6.56129">
        <ele>426.5</ele>
        <time>2024-11-03T10:33:33Z</time>
      </trkpt>
      <trkpt lat="48.17446" lon="6.56129">
        <ele>426.2</ele>
        <time>2024-11-03T10:33:42Z</time>
      </trkpt>
      <trkpt lat="48.17437" lon="6.56132">
        <ele>426.2</ele>
        <time>2024-11-03T10:33:50Z</time>
      </trkpt>
      <trkpt lat="48.17435" lon="6.56139">
        <ele>426.3</ele>
        <time>2024-11-03T10:33:58Z</time>
      </trkpt>
      <trkpt lat="48.17435" lon="6.56139">
        <ele>426.3</ele>
        <time>2024-11-03T10:33:59Z</time>
      </trkpt>
      <trkpt lat="48.17435" lon="6.56141">
        <ele>426.4</ele>
        <time>2024-11-03T10:34:05Z</time>
      </trkpt>
      <trkpt lat="48.17435" lon="6.56141">
        <ele>426.4</ele>
        <time>2024-11-03T10:34:06Z</time>
      </trkpt>
      <trkpt lat="48.17435" lon="6.56141">
        <ele>426.4</ele>
        <time>2024-11-03T10:34:13Z</time>
      </trkpt>
      <trkpt lat="48.17435" lon="6.5614">
        <ele>426.4</ele>
        <time>2024-11-03T10:34:14Z</time>
      </trkpt>
      <trkpt lat="48.17437" lon="6.56143">
        <ele>426.5</ele>
        <time>2024-11-03T10:34:20Z</time>
      </trkpt>
      <trkpt lat="48.17437" lon="6.56143">
        <ele>426.5</ele>
        <time>2024-11-03T10:34:21Z</time>
      </trkpt>
      <trkpt lat="48.17437" lon="6.56143">
        <ele>426.6</ele>
        <time>2024-11-03T10:34:22Z</time>
      </trkpt>
      <trkpt lat="48.17437" lon="6.56143">
        <ele>426.6</ele>
        <time>2024-11-03T10:34:23Z</time>
      </trkpt>
      <trkpt lat="48.17437" lon="6.56143">
        <ele>426.6</ele>
        <time>2024-11-03T10:34:24Z</time>
      </trkpt>
      <trkpt lat="48.17437" lon="6.56143">
        <ele>426.6</ele>
        <time>2024-11-03T10:34:25Z</time>
      </trkpt>
      <trkpt lat="48.17438" lon="6.56146">
        <ele>426.6</ele>
        <time>2024-11-03T10:35:15Z</time>
      </trkpt>
      <trkpt lat="48.17438" lon="6.56146">
        <ele>426.7</ele>
        <time>2024-11-03T10:35:16Z</time>
      </trkpt>
      <trkpt lat="48.17438" lon="6.56147">
        <ele>426.7</ele>
        <time>2024-11-03T10:35:17Z</time>
      </trkpt>
      <trkpt lat="48.17438" lon="6.56147">
        <ele>426.7</ele>
        <time>2024-11-03T10:35:18Z</time>
      </trkpt>
      <trkpt lat="48.17438" lon="6.56147">
        <ele>426.7</ele>
        <time>2024-11-03T10:35:19Z</time>
      </trkpt>
      <trkpt lat="48.17438" lon="6.56148">
        <ele>426.7</ele>
        <time>2024-11-03T10:35:35Z</time>
      </trkpt>
      <trkpt lat="48.17438" lon="6.56148">
        <ele>426.7</ele>
        <time>2024-11-03T10:35:36Z</time>
      </trkpt>
      <trkpt lat="48.17438" lon="6.56148">
        <ele>426.7</ele>
        <time>2024-11-03T10:35:37Z</time>
      </trkpt>
      <trkpt lat="48.17438" lon="6.56148">
        <ele>426.7</ele>
        <time>2024-11-03T10:35:38Z</time>
      </trkpt>
      <trkpt lat="48.17438" lon="6.56148">
        <ele>426.7</ele>
        <time>2024-11-03T10:35:39Z</time>
      </trkpt>
      <trkpt lat="48.17439" lon="6.56148">
        <ele>426.8</ele>
        <time>2024-11-03T10:35:50Z</time>
      </trkpt>
      <trkpt lat="48.17439" lon="6.56148">
        <ele>426.8</ele>
        <time>2024-11-03T10:35:51Z</time>
      </trkpt>
      <trkpt lat="48.17439" lon="6.56148">
        <ele>426.8</ele>
        <time>2024-11-03T10:35:52Z</time>
      </trkpt>
      <trkpt lat="48.17439" lon="6.56148">
        <ele>426.8</ele>
        <time>2024-11-03T10:35:55Z</time>
      </trkpt>
      <trkpt lat="48.17439" lon="6.56148">
        <ele>426.8</ele>
        <time>2024-11-03T10:35:56Z</time>
      </trkpt>
      <trkpt lat="48.17439" lon="6.5615">
        <ele>426.8</ele>
        <time>2024-11-03T10:36:05Z</time>
      </trkpt>
      <trkpt lat="48.17439" lon="6.56152">
        <ele>426.9</ele>
        <time>2024-11-03T10:36:06Z</time>
      </trkpt>
      <trkpt lat="48.17438" lon="6.56152">
        <ele>426.9</ele>
        <time>2024-11-03T10:36:07Z</time>
      </trkpt>
      <trkpt lat="48.17435" lon="6.56166">
        <ele>427.2</ele>
        <time>2024-11-03T10:36:19Z</time>
      </trkpt>
      <trkpt lat="48.17431" lon="6.5618">
        <ele>427.5</ele>
        <time>2024-11-03T10:36:29Z</time>
      </trkpt>
      <trkpt lat="48.17425" lon="6.56192">
        <ele>427.7</ele>
        <time>2024-11-03T10:36:38Z</time>
      </trkpt>
      <trkpt lat="48.1742" lon="6.56204">
        <ele>427.7</ele>
        <time>2024-11-03T10:36:46Z</time>
      </trkpt>
      <trkpt lat="48.17417" lon="6.56217">
        <ele>427.7</ele>
        <time>2024-11-03T10:36:53Z</time>
      </trkpt>
      <trkpt lat="48.17412" lon="6.56229">
        <ele>427.5</ele>
        <time>2024-11-03T10:37:01Z</time>
      </trkpt>
      <trkpt lat="48.17407" lon="6.56242">
        <ele>427.3</ele>
        <time>2024-11-03T10:37:09Z</time>
      </trkpt>
      <trkpt lat="48.17404" lon="6.56255">
        <ele>427.1</ele>
        <time>2024-11-03T10:37:17Z</time>
      </trkpt>
      <trkpt lat="48.174" lon="6.56268">
        <ele>426.8</ele>
        <time>2024-11-03T10:37:25Z</time>
      </trkpt>
      <trkpt lat="48.17398" lon="6.56283">
        <ele>426.6</ele>
        <time>2024-11-03T10:37:33Z</time>
      </trkpt>
      <trkpt lat="48.17396" lon="6.56296">
        <ele>426.5</ele>
        <time>2024-11-03T10:37:40Z</time>
      </trkpt>
      <trkpt lat="48.17393" lon="6.5631">
        <ele>426.3</ele>
        <time>2024-11-03T10:37:48Z</time>
      </trkpt>
      <trkpt lat="48.17389" lon="6.56325">
        <ele>426.2</ele>
        <time>2024-11-03T10:37:56Z</time>
      </trkpt>
      <trkpt lat="48.17389" lon="6.56338">
        <ele>426.2</ele>
        <time>2024-11-03T10:38:03Z</time>
      </trkpt>
      <trkpt lat="48.17392" lon="6.56352">
        <ele>426.2</ele>
        <time>2024-11-03T10:38:09Z</time>
      </trkpt>
      <trkpt lat="48.17397" lon="6.56365">
        <ele>426.2</ele>
        <time>2024-11-03T10:38:15Z</time>
      </trkpt>
      <trkpt lat="48.17402" lon="6.56376">
        <ele>426.2</ele>
        <time>2024-11-03T10:38:22Z</time>
      </trkpt>
      <trkpt lat="48.17408" lon="6.56389">
        <ele>426.1</ele>
        <time>2024-11-03T10:38:29Z</time>
      </trkpt>
      <trkpt lat="48.17416" lon="6.56398">
        <ele>426</ele>
        <time>2024-11-03T10:38:36Z</time>
      </trkpt>
      <trkpt lat="48.17424" lon="6.56405">
        <ele>425.9</ele>
        <time>2024-11-03T10:38:42Z</time>
      </trkpt>
      <trkpt lat="48.17431" lon="6.56414">
        <ele>425.7</ele>
        <time>2024-11-03T10:38:48Z</time>
      </trkpt>
      <trkpt lat="48.17439" lon="6.56422">
        <ele>425.6</ele>
        <time>2024-11-03T10:38:54Z</time>
      </trkpt>
      <trkpt lat="48.17447" lon="6.56429">
        <ele>425.3</ele>
        <time>2024-11-03T10:39:03Z</time>
      </trkpt>
      <trkpt lat="48.17455" lon="6.56438">
        <ele>425.1</ele>
        <time>2024-11-03T10:39:11Z</time>
      </trkpt>
      <trkpt lat="48.17463" lon="6.56445">
        <ele>424.8</ele>
        <time>2024-11-03T10:39:21Z</time>
      </trkpt>
      <trkpt lat="48.17471" lon="6.56454">
        <ele>424.4</ele>
        <time>2024-11-03T10:39:29Z</time>
      </trkpt>
      <trkpt lat="48.17481" lon="6.56461">
        <ele>424</ele>
        <time>2024-11-03T10:39:39Z</time>
      </trkpt>
      <trkpt lat="48.17488" lon="6.5647">
        <ele>423.6</ele>
        <time>2024-11-03T10:39:46Z</time>
      </trkpt>
      <trkpt lat="48.17496" lon="6.56478">
        <ele>423.3</ele>
        <time>2024-11-03T10:39:54Z</time>
      </trkpt>
      <trkpt lat="48.17502" lon="6.5649">
        <ele>423</ele>
        <time>2024-11-03T10:40:02Z</time>
      </trkpt>
      <trkpt lat="48.17509" lon="6.56501">
        <ele>422.7</ele>
        <time>2024-11-03T10:40:11Z</time>
      </trkpt>
      <trkpt lat="48.17518" lon="6.56508">
        <ele>422.5</ele>
        <time>2024-11-03T10:40:18Z</time>
      </trkpt>
      <trkpt lat="48.17526" lon="6.56516">
        <ele>422.4</ele>
        <time>2024-11-03T10:40:26Z</time>
      </trkpt>
      <trkpt lat="48.17533" lon="6.56526">
        <ele>422.3</ele>
        <time>2024-11-03T10:40:36Z</time>
      </trkpt>
      <trkpt lat="48.1754" lon="6.56535">
        <ele>422.2</ele>
        <time>2024-11-03T10:40:44Z</time>
      </trkpt>
      <trkpt lat="48.17548" lon="6.56542">
        <ele>422.2</ele>
        <time>2024-11-03T10:40:51Z</time>
      </trkpt>
      <trkpt lat="48.17557" lon="6.5655">
        <ele>422.2</ele>
        <time>2024-11-03T10:40:59Z</time>
      </trkpt>
      <trkpt lat="48.17565" lon="6.56558">
        <ele>422.2</ele>
        <time>2024-11-03T10:41:05Z</time>
      </trkpt>
      <trkpt lat="48.17573" lon="6.56564">
        <ele>422.2</ele>
        <time>2024-11-03T10:41:13Z</time>
      </trkpt>
      <trkpt lat="48.17582" lon="6.56564">
        <ele>422.1</ele>
        <time>2024-11-03T10:41:20Z</time>
      </trkpt>
      <trkpt lat="48.1759" lon="6.56576">
        <ele>421.9</ele>
        <time>2024-11-03T10:41:29Z</time>
      </trkpt>
      <trkpt lat="48.17593" lon="6.56575">
        <ele>421.9</ele>
        <time>2024-11-03T10:41:35Z</time>
      </trkpt>
      <trkpt lat="48.17594" lon="6.56574">
        <ele>421.9</ele>
        <time>2024-11-03T10:41:36Z</time>
      </trkpt>
      <trkpt lat="48.17597" lon="6.56577">
        <ele>421.8</ele>
        <time>2024-11-03T10:41:48Z</time>
      </trkpt>
      <trkpt lat="48.17598" lon="6.56578">
        <ele>421.8</ele>
        <time>2024-11-03T10:41:49Z</time>
      </trkpt>
      <trkpt lat="48.17606" lon="6.56587">
        <ele>421.6</ele>
        <time>2024-11-03T10:41:56Z</time>
      </trkpt>
      <trkpt lat="48.17613" lon="6.56596">
        <ele>421.4</ele>
        <time>2024-11-03T10:42:02Z</time>
      </trkpt>
      <trkpt lat="48.17622" lon="6.56603">
        <ele>421.2</ele>
        <time>2024-11-03T10:42:09Z</time>
      </trkpt>
      <trkpt lat="48.17631" lon="6.56609">
        <ele>420.9</ele>
        <time>2024-11-03T10:42:16Z</time>
      </trkpt>
      <trkpt lat="48.17639" lon="6.56617">
        <ele>420.7</ele>
        <time>2024-11-03T10:42:25Z</time>
      </trkpt>
      <trkpt lat="48.17646" lon="6.56628">
        <ele>420.5</ele>
        <time>2024-11-03T10:42:34Z</time>
      </trkpt>
      <trkpt lat="48.17653" lon="6.56639">
        <ele>420.4</ele>
        <time>2024-11-03T10:42:42Z</time>
      </trkpt>
      <trkpt lat="48.1766" lon="6.56649">
        <ele>420.4</ele>
        <time>2024-11-03T10:42:49Z</time>
      </trkpt>
      <trkpt lat="48.17665" lon="6.56661">
        <ele>420.4</ele>
        <time>2024-11-03T10:42:55Z</time>
      </trkpt>
      <trkpt lat="48.17666" lon="6.56676">
        <ele>420.4</ele>
        <time>2024-11-03T10:43:00Z</time>
      </trkpt>
      <trkpt lat="48.17668" lon="6.56689">
        <ele>420.5</ele>
        <time>2024-11-03T10:43:08Z</time>
      </trkpt>
      <trkpt lat="48.17674" lon="6.56701">
        <ele>420.4</ele>
        <time>2024-11-03T10:43:15Z</time>
      </trkpt>
      <trkpt lat="48.17682" lon="6.5671">
        <ele>420.4</ele>
        <time>2024-11-03T10:43:22Z</time>
      </trkpt>
      <trkpt lat="48.1769" lon="6.56717">
        <ele>420.3</ele>
        <time>2024-11-03T10:43:30Z</time>
      </trkpt>
      <trkpt lat="48.177" lon="6.56715">
        <ele>420.1</ele>
        <time>2024-11-03T10:43:36Z</time>
      </trkpt>
      <trkpt lat="48.17701" lon="6.56713">
        <ele>420.1</ele>
        <time>2024-11-03T10:43:38Z</time>
      </trkpt>
      <trkpt lat="48.17702" lon="6.56712">
        <ele>420.1</ele>
        <time>2024-11-03T10:43:39Z</time>
      </trkpt>
      <trkpt lat="48.17702" lon="6.56712">
        <ele>420</ele>
        <time>2024-11-03T10:43:40Z</time>
      </trkpt>
      <trkpt lat="48.17702" lon="6.56715">
        <ele>420</ele>
        <time>2024-11-03T10:43:47Z</time>
      </trkpt>
      <trkpt lat="48.17703" lon="6.56716">
        <ele>420</ele>
        <time>2024-11-03T10:43:48Z</time>
      </trkpt>
      <trkpt lat="48.17704" lon="6.56717">
        <ele>420</ele>
        <time>2024-11-03T10:43:49Z</time>
      </trkpt>
      <trkpt lat="48.17712" lon="6.56724">
        <ele>419.7</ele>
        <time>2024-11-03T10:43:58Z</time>
      </trkpt>
      <trkpt lat="48.1772" lon="6.56731">
        <ele>419.5</ele>
        <time>2024-11-03T10:44:06Z</time>
      </trkpt>
      <trkpt lat="48.1773" lon="6.56735">
        <ele>419.3</ele>
        <time>2024-11-03T10:44:15Z</time>
      </trkpt>
      <trkpt lat="48.1774" lon="6.56735">
        <ele>419.1</ele>
        <time>2024-11-03T10:44:21Z</time>
      </trkpt>
      <trkpt lat="48.17749" lon="6.56737">
        <ele>419</ele>
        <time>2024-11-03T10:44:28Z</time>
      </trkpt>
      <trkpt lat="48.17758" lon="6.56735">
        <ele>419</ele>
        <time>2024-11-03T10:44:35Z</time>
      </trkpt>
      <trkpt lat="48.17767" lon="6.56731">
        <ele>419</ele>
        <time>2024-11-03T10:44:43Z</time>
      </trkpt>
      <trkpt lat="48.17776" lon="6.56725">
        <ele>419.1</ele>
        <time>2024-11-03T10:44:53Z</time>
      </trkpt>
      <trkpt lat="48.17784" lon="6.56717">
        <ele>419.2</ele>
        <time>2024-11-03T10:45:03Z</time>
      </trkpt>
      <trkpt lat="48.17791" lon="6.56707">
        <ele>419.4</ele>
        <time>2024-11-03T10:45:15Z</time>
      </trkpt>
      <trkpt lat="48.17797" lon="6.56693">
        <ele>419.7</ele>
        <time>2024-11-03T10:45:23Z</time>
      </trkpt>
      <trkpt lat="48.17802" lon="6.56682">
        <ele>419.9</ele>
        <time>2024-11-03T10:45:32Z</time>
      </trkpt>
      <trkpt lat="48.17804" lon="6.56677">
        <ele>420</ele>
        <time>2024-11-03T10:45:42Z</time>
      </trkpt>
      <trkpt lat="48.17804" lon="6.56677">
        <ele>420.1</ele>
        <time>2024-11-03T10:45:43Z</time>
      </trkpt>
      <trkpt lat="48.17804" lon="6.56676">
        <ele>420.1</ele>
        <time>2024-11-03T10:45:44Z</time>
      </trkpt>
      <trkpt lat="48.17808" lon="6.56667">
        <ele>420.3</ele>
        <time>2024-11-03T10:46:21Z</time>
      </trkpt>
      <trkpt lat="48.17808" lon="6.56667">
        <ele>420.3</ele>
        <time>2024-11-03T10:46:22Z</time>
      </trkpt>
      <trkpt lat="48.17808" lon="6.56668">
        <ele>420.3</ele>
        <time>2024-11-03T10:46:26Z</time>
      </trkpt>
      <trkpt lat="48.17809" lon="6.56669">
        <ele>420.3</ele>
        <time>2024-11-03T10:46:27Z</time>
      </trkpt>
      <trkpt lat="48.1781" lon="6.56667">
        <ele>420.4</ele>
        <time>2024-11-03T10:46:33Z</time>
      </trkpt>
      <trkpt lat="48.1781" lon="6.56667">
        <ele>420.4</ele>
        <time>2024-11-03T10:46:34Z</time>
      </trkpt>
      <trkpt lat="48.1781" lon="6.56666">
        <ele>420.4</ele>
        <time>2024-11-03T10:46:35Z</time>
      </trkpt>
      <trkpt lat="48.1781" lon="6.56666">
        <ele>420.4</ele>
        <time>2024-11-03T10:46:36Z</time>
      </trkpt>
      <trkpt lat="48.17807" lon="6.56664">
        <ele>420.5</ele>
        <time>2024-11-03T10:46:40Z</time>
      </trkpt>
      <trkpt lat="48.17806" lon="6.56663">
        <ele>420.5</ele>
        <time>2024-11-03T10:46:41Z</time>
      </trkpt>
      <trkpt lat="48.178" lon="6.56661">
        <ele>420.6</ele>
        <time>2024-11-03T10:46:51Z</time>
      </trkpt>
      <trkpt lat="48.17801" lon="6.56661">
        <ele>420.7</ele>
        <time>2024-11-03T10:46:52Z</time>
      </trkpt>
      <trkpt lat="48.17802" lon="6.56658">
        <ele>420.7</ele>
        <time>2024-11-03T10:47:07Z</time>
      </trkpt>
      <trkpt lat="48.17801" lon="6.56658">
        <ele>420.7</ele>
        <time>2024-11-03T10:47:08Z</time>
      </trkpt>
      <trkpt lat="48.178" lon="6.56658">
        <ele>420.7</ele>
        <time>2024-11-03T10:47:09Z</time>
      </trkpt>
      <trkpt lat="48.17791" lon="6.56654">
        <ele>420.9</ele>
        <time>2024-11-03T10:47:14Z</time>
      </trkpt>
      <trkpt lat="48.17783" lon="6.56647">
        <ele>421</ele>
        <time>2024-11-03T10:47:20Z</time>
      </trkpt>
      <trkpt lat="48.17776" lon="6.56638">
        <ele>420.9</ele>
        <time>2024-11-03T10:47:30Z</time>
      </trkpt>
      <trkpt lat="48.1777" lon="6.56626">
        <ele>420.8</ele>
        <time>2024-11-03T10:47:41Z</time>
      </trkpt>
      <trkpt lat="48.17766" lon="6.56614">
        <ele>420.6</ele>
        <time>2024-11-03T10:47:53Z</time>
      </trkpt>
      <trkpt lat="48.17758" lon="6.56606">
        <ele>420.3</ele>
        <time>2024-11-03T10:48:04Z</time>
      </trkpt>
      <trkpt lat="48.17759" lon="6.56608">
        <ele>420.3</ele>
        <time>2024-11-03T10:48:10Z</time>
      </trkpt>
      <trkpt lat="48.17758" lon="6.56608">
        <ele>420.3</ele>
        <time>2024-11-03T10:48:11Z</time>
      </trkpt>
      <trkpt lat="48.17758" lon="6.56608">
        <ele>420.3</ele>
        <time>2024-11-03T10:48:12Z</time>
      </trkpt>
      <trkpt lat="48.17758" lon="6.56607">
        <ele>420.2</ele>
        <time>2024-11-03T10:48:28Z</time>
      </trkpt>
      <trkpt lat="48.17758" lon="6.56606">
        <ele>420.2</ele>
        <time>2024-11-03T10:48:29Z</time>
      </trkpt>
      <trkpt lat="48.17758" lon="6.56606">
        <ele>420.2</ele>
        <time>2024-11-03T10:48:30Z</time>
      </trkpt>
      <trkpt lat="48.17761" lon="6.56619">
        <ele>419.7</ele>
        <time>2024-11-03T10:48:47Z</time>
      </trkpt>
      <trkpt lat="48.17764" lon="6.56632">
        <ele>419.2</ele>
        <time>2024-11-03T10:48:55Z</time>
      </trkpt>
      <trkpt lat="48.17769" lon="6.56645">
        <ele>418.5</ele>
        <time>2024-11-03T10:49:02Z</time>
      </trkpt>
      <trkpt lat="48.17775" lon="6.56654">
        <ele>417.8</ele>
        <time>2024-11-03T10:49:12Z</time>
      </trkpt>
      <trkpt lat="48.1778" lon="6.56666">
        <ele>417.1</ele>
        <time>2024-11-03T10:49:19Z</time>
      </trkpt>
      <trkpt lat="48.17789" lon="6.56672">
        <ele>416.4</ele>
        <time>2024-11-03T10:49:26Z</time>
      </trkpt>
      <trkpt lat="48.17794" lon="6.56674">
        <ele>416.1</ele>
        <time>2024-11-03T10:49:35Z</time>
      </trkpt>
      <trkpt lat="48.17795" lon="6.56675">
        <ele>416</ele>
        <time>2024-11-03T10:50:01Z</time>
      </trkpt>
      <trkpt lat="48.17796" lon="6.56676">
        <ele>415.9</ele>
        <time>2024-11-03T10:50:02Z</time>
      </trkpt>
      <trkpt lat="48.17805" lon="6.56673">
        <ele>415.3</ele>
        <time>2024-11-03T10:50:11Z</time>
      </trkpt>
      <trkpt lat="48.17815" lon="6.56671">
        <ele>414.8</ele>
        <time>2024-11-03T10:50:19Z</time>
      </trkpt>
      <trkpt lat="48.17821" lon="6.56683">
        <ele>413.2</ele>
        <time>2024-11-03T10:50:30Z</time>
      </trkpt>
      <trkpt lat="48.17823" lon="6.56696">
        <ele>412.5</ele>
        <time>2024-11-03T10:50:39Z</time>
      </trkpt>
      <trkpt lat="48.17829" lon="6.56708">
        <ele>411.8</ele>
        <time>2024-11-03T10:50:52Z</time>
      </trkpt>
      <trkpt lat="48.17832" lon="6.56721">
        <ele>411.4</ele>
        <time>2024-11-03T10:50:59Z</time>
      </trkpt>
      <trkpt lat="48.17833" lon="6.56735">
        <ele>411</ele>
        <time>2024-11-03T10:51:04Z</time>
      </trkpt>
      <trkpt lat="48.17833" lon="6.5675">
        <ele>410.6</ele>
        <time>2024-11-03T10:51:11Z</time>
      </trkpt>
      <trkpt lat="48.17835" lon="6.56752">
        <ele>410.6</ele>
        <time>2024-11-03T10:51:18Z</time>
      </trkpt>
      <trkpt lat="48.17835" lon="6.56751">
        <ele>410.6</ele>
        <time>2024-11-03T10:51:19Z</time>
      </trkpt>
      <trkpt lat="48.17835" lon="6.56749">
        <ele>410.5</ele>
        <time>2024-11-03T10:51:20Z</time>
      </trkpt>
      <trkpt lat="48.17835" lon="6.56749">
        <ele>410.5</ele>
        <time>2024-11-03T10:51:21Z</time>
      </trkpt>
      <trkpt lat="48.17834" lon="6.56749">
        <ele>410.5</ele>
        <time>2024-11-03T10:51:22Z</time>
      </trkpt>
      <trkpt lat="48.17836" lon="6.56762">
        <ele>410.3</ele>
        <time>2024-11-03T10:51:33Z</time>
      </trkpt>
      <trkpt lat="48.17838" lon="6.56777">
        <ele>410.2</ele>
        <time>2024-11-03T10:51:40Z</time>
      </trkpt>
      <trkpt lat="48.17837" lon="6.56791">
        <ele>410.2</ele>
        <time>2024-11-03T10:51:45Z</time>
      </trkpt>
      <trkpt lat="48.17835" lon="6.56804">
        <ele>410.2</ele>
        <time>2024-11-03T10:51:53Z</time>
      </trkpt>
      <trkpt lat="48.1783" lon="6.56817">
        <ele>410.2</ele>
        <time>2024-11-03T10:52:02Z</time>
      </trkpt>
      <trkpt lat="48.17822" lon="6.56825">
        <ele>410.2</ele>
        <time>2024-11-03T10:52:08Z</time>
      </trkpt>
      <trkpt lat="48.1782" lon="6.56839">
        <ele>410.3</ele>
        <time>2024-11-03T10:52:15Z</time>
      </trkpt>
      <trkpt lat="48.17819" lon="6.56852">
        <ele>410.3</ele>
        <time>2024-11-03T10:52:24Z</time>
      </trkpt>
      <trkpt lat="48.17818" lon="6.56866">
        <ele>410.4</ele>
        <time>2024-11-03T10:52:31Z</time>
      </trkpt>
      <trkpt lat="48.17819" lon="6.56881">
        <ele>410.3</ele>
        <time>2024-11-03T10:52:39Z</time>
      </trkpt>
      <trkpt lat="48.17815" lon="6.56896">
        <ele>410.2</ele>
        <time>2024-11-03T10:52:47Z</time>
      </trkpt>
      <trkpt lat="48.17814" lon="6.56911">
        <ele>410.1</ele>
        <time>2024-11-03T10:52:54Z</time>
      </trkpt>
      <trkpt lat="48.17809" lon="6.56924">
        <ele>410</ele>
        <time>2024-11-03T10:53:02Z</time>
      </trkpt>
      <trkpt lat="48.17804" lon="6.56936">
        <ele>409.9</ele>
        <time>2024-11-03T10:53:09Z</time>
      </trkpt>
      <trkpt lat="48.178" lon="6.56948">
        <ele>409.8</ele>
        <time>2024-11-03T10:53:17Z</time>
      </trkpt>
      <trkpt lat="48.17799" lon="6.56962">
        <ele>409.8</ele>
        <time>2024-11-03T10:53:26Z</time>
      </trkpt>
      <trkpt lat="48.17799" lon="6.56976">
        <ele>409.7</ele>
        <time>2024-11-03T10:53:33Z</time>
      </trkpt>
      <trkpt lat="48.17801" lon="6.5699">
        <ele>409.6</ele>
        <time>2024-11-03T10:53:39Z</time>
      </trkpt>
      <trkpt lat="48.178" lon="6.57005">
        <ele>409.3</ele>
        <time>2024-11-03T10:53:47Z</time>
      </trkpt>
      <trkpt lat="48.17803" lon="6.5702">
        <ele>408.9</ele>
        <time>2024-11-03T10:53:55Z</time>
      </trkpt>
      <trkpt lat="48.17804" lon="6.57034">
        <ele>408.3</ele>
        <time>2024-11-03T10:54:02Z</time>
      </trkpt>
      <trkpt lat="48.17802" lon="6.57049">
        <ele>407.4</ele>
        <time>2024-11-03T10:54:10Z</time>
      </trkpt>
      <trkpt lat="48.178" lon="6.57062">
        <ele>406.3</ele>
        <time>2024-11-03T10:54:19Z</time>
      </trkpt>
      <trkpt lat="48.17799" lon="6.57076">
        <ele>405.2</ele>
        <time>2024-11-03T10:54:28Z</time>
      </trkpt>
      <trkpt lat="48.178" lon="6.5709">
        <ele>404.2</ele>
        <time>2024-11-03T10:54:35Z</time>
      </trkpt>
      <trkpt lat="48.17797" lon="6.57103">
        <ele>403.3</ele>
        <time>2024-11-03T10:54:45Z</time>
      </trkpt>
      <trkpt lat="48.17792" lon="6.57116">
        <ele>402.5</ele>
        <time>2024-11-03T10:54:55Z</time>
      </trkpt>
      <trkpt lat="48.17791" lon="6.5713">
        <ele>401.8</ele>
        <time>2024-11-03T10:55:02Z</time>
      </trkpt>
      <trkpt lat="48.17788" lon="6.57143">
        <ele>400.8</ele>
        <time>2024-11-03T10:55:10Z</time>
      </trkpt>
      <trkpt lat="48.17784" lon="6.57156">
        <ele>399.6</ele>
        <time>2024-11-03T10:55:20Z</time>
      </trkpt>
      <trkpt lat="48.1778" lon="6.57169">
        <ele>398.3</ele>
        <time>2024-11-03T10:55:31Z</time>
      </trkpt>
      <trkpt lat="48.17783" lon="6.57182">
        <ele>397.2</ele>
        <time>2024-11-03T10:55:49Z</time>
      </trkpt>
      <trkpt lat="48.17784" lon="6.57185">
        <ele>397</ele>
        <time>2024-11-03T10:55:57Z</time>
      </trkpt>
      <trkpt lat="48.17784" lon="6.57185">
        <ele>397</ele>
        <time>2024-11-03T10:55:58Z</time>
      </trkpt>
      <trkpt lat="48.17784" lon="6.57185">
        <ele>397</ele>
        <time>2024-11-03T10:55:59Z</time>
      </trkpt>
      <trkpt lat="48.17786" lon="6.57182">
        <ele>396.7</ele>
        <time>2024-11-03T10:56:15Z</time>
      </trkpt>
      <trkpt lat="48.17786" lon="6.57183">
        <ele>396.7</ele>
        <time>2024-11-03T10:56:16Z</time>
      </trkpt>
      <trkpt lat="48.17786" lon="6.57183">
        <ele>396.7</ele>
        <time>2024-11-03T10:56:20Z</time>
      </trkpt>
      <trkpt lat="48.17786" lon="6.57183">
        <ele>396.7</ele>
        <time>2024-11-03T10:56:21Z</time>
      </trkpt>
      <trkpt lat="48.17786" lon="6.57182">
        <ele>396.7</ele>
        <time>2024-11-03T10:56:36Z</time>
      </trkpt>
      <trkpt lat="48.17786" lon="6.57183">
        <ele>396.6</ele>
        <time>2024-11-03T10:56:37Z</time>
      </trkpt>
      <trkpt lat="48.17788" lon="6.57184">
        <ele>396.5</ele>
        <time>2024-11-03T10:56:43Z</time>
      </trkpt>
      <trkpt lat="48.17788" lon="6.57184">
        <ele>396.5</ele>
        <time>2024-11-03T10:56:44Z</time>
      </trkpt>
      <trkpt lat="48.17788" lon="6.57183">
        <ele>396.5</ele>
        <time>2024-11-03T10:56:45Z</time>
      </trkpt>
      <trkpt lat="48.17789" lon="6.57185">
        <ele>396.4</ele>
        <time>2024-11-03T10:56:52Z</time>
      </trkpt>
      <trkpt lat="48.17789" lon="6.57186">
        <ele>396.3</ele>
        <time>2024-11-03T10:56:53Z</time>
      </trkpt>
      <trkpt lat="48.17789" lon="6.57188">
        <ele>396.3</ele>
        <time>2024-11-03T10:56:54Z</time>
      </trkpt>
      <trkpt lat="48.17784" lon="6.57201">
        <ele>395.8</ele>
        <time>2024-11-03T10:57:02Z</time>
      </trkpt>
      <trkpt lat="48.17781" lon="6.57214">
        <ele>395.4</ele>
        <time>2024-11-03T10:57:09Z</time>
      </trkpt>
      <trkpt lat="48.17779" lon="6.57217">
        <ele>395</ele>
        <time>2024-11-03T10:57:16Z</time>
      </trkpt>
      <trkpt lat="48.17779" lon="6.57217">
        <ele>395</ele>
        <time>2024-11-03T10:57:17Z</time>
      </trkpt>
      <trkpt lat="48.17779" lon="6.57216">
        <ele>395</ele>
        <time>2024-11-03T10:57:25Z</time>
      </trkpt>
      <trkpt lat="48.17779" lon="6.57216">
        <ele>395</ele>
        <time>2024-11-03T10:57:26Z</time>
      </trkpt>
      <trkpt lat="48.17779" lon="6.57216">
        <ele>395</ele>
        <time>2024-11-03T10:57:27Z</time>
      </trkpt>
      <trkpt lat="48.17779" lon="6.57216">
        <ele>395</ele>
        <time>2024-11-03T10:57:28Z</time>
      </trkpt>
      <trkpt lat="48.17779" lon="6.57216">
        <ele>395</ele>
        <time>2024-11-03T10:57:29Z</time>
      </trkpt>
      <trkpt lat="48.17779" lon="6.57214">
        <ele>395</ele>
        <time>2024-11-03T10:58:56Z</time>
      </trkpt>
      <trkpt lat="48.17778" lon="6.57214">
        <ele>395</ele>
        <time>2024-11-03T10:58:57Z</time>
      </trkpt>
      <trkpt lat="48.17769" lon="6.57208">
        <ele>395.2</ele>
        <time>2024-11-03T10:59:05Z</time>
      </trkpt>
      <trkpt lat="48.17761" lon="6.57203">
        <ele>395.6</ele>
        <time>2024-11-03T10:59:21Z</time>
      </trkpt>
      <trkpt lat="48.1776" lon="6.57202">
        <ele>395.6</ele>
        <time>2024-11-03T10:59:30Z</time>
      </trkpt>
      <trkpt lat="48.1776" lon="6.57201">
        <ele>395.7</ele>
        <time>2024-11-03T10:59:31Z</time>
      </trkpt>
      <trkpt lat="48.1776" lon="6.57201">
        <ele>395.7</ele>
        <time>2024-11-03T10:59:32Z</time>
      </trkpt>
      <trkpt lat="48.1776" lon="6.57201">
        <ele>395.7</ele>
        <time>2024-11-03T10:59:33Z</time>
      </trkpt>
      <trkpt lat="48.1776" lon="6.572">
        <ele>395.7</ele>
        <time>2024-11-03T10:59:34Z</time>
      </trkpt>
      <trkpt lat="48.17759" lon="6.572">
        <ele>395.8</ele>
        <time>2024-11-03T10:59:35Z</time>
      </trkpt>
      <trkpt lat="48.1775" lon="6.57196">
        <ele>396.7</ele>
        <time>2024-11-03T10:59:47Z</time>
      </trkpt>
      <trkpt lat="48.17741" lon="6.57194">
        <ele>398</ele>
        <time>2024-11-03T11:00:02Z</time>
      </trkpt>
      <trkpt lat="48.17731" lon="6.57192">
        <ele>399.7</ele>
        <time>2024-11-03T11:00:16Z</time>
      </trkpt>
      <trkpt lat="48.17722" lon="6.57186">
        <ele>401.2</ele>
        <time>2024-11-03T11:00:24Z</time>
      </trkpt>
      <trkpt lat="48.17715" lon="6.57177">
        <ele>402.6</ele>
        <time>2024-11-03T11:00:34Z</time>
      </trkpt>
      <trkpt lat="48.17709" lon="6.57166">
        <ele>403.8</ele>
        <time>2024-11-03T11:00:44Z</time>
      </trkpt>
      <trkpt lat="48.17704" lon="6.57154">
        <ele>404.5</ele>
        <time>2024-11-03T11:00:56Z</time>
      </trkpt>
      <trkpt lat="48.17696" lon="6.57148">
        <ele>404.9</ele>
        <time>2024-11-03T11:01:04Z</time>
      </trkpt>
      <trkpt lat="48.17687" lon="6.57142">
        <ele>405</ele>
        <time>2024-11-03T11:01:13Z</time>
      </trkpt>
      <trkpt lat="48.17678" lon="6.57149">
        <ele>405.4</ele>
        <time>2024-11-03T11:01:26Z</time>
      </trkpt>
      <trkpt lat="48.17683" lon="6.57161">
        <ele>406.5</ele>
        <time>2024-11-03T11:01:34Z</time>
      </trkpt>
      <trkpt lat="48.17681" lon="6.57175">
        <ele>408.1</ele>
        <time>2024-11-03T11:01:47Z</time>
      </trkpt>
      <trkpt lat="48.17676" lon="6.57187">
        <ele>409.6</ele>
        <time>2024-11-03T11:01:57Z</time>
      </trkpt>
      <trkpt lat="48.17671" lon="6.57199">
        <ele>411.1</ele>
        <time>2024-11-03T11:02:07Z</time>
      </trkpt>
      <trkpt lat="48.17671" lon="6.57213">
        <ele>412.3</ele>
        <time>2024-11-03T11:02:18Z</time>
      </trkpt>
      <trkpt lat="48.1767" lon="6.57228">
        <ele>413.4</ele>
        <time>2024-11-03T11:02:27Z</time>
      </trkpt>
      <trkpt lat="48.17671" lon="6.57242">
        <ele>414.3</ele>
        <time>2024-11-03T11:02:35Z</time>
      </trkpt>
      <trkpt lat="48.1767" lon="6.57256">
        <ele>415.1</ele>
        <time>2024-11-03T11:02:43Z</time>
      </trkpt>
      <trkpt lat="48.1767" lon="6.5727">
        <ele>415.7</ele>
        <time>2024-11-03T11:02:52Z</time>
      </trkpt>
      <trkpt lat="48.17671" lon="6.57281">
        <ele>416.1</ele>
        <time>2024-11-03T11:03:02Z</time>
      </trkpt>
      <trkpt lat="48.17671" lon="6.57281">
        <ele>416.1</ele>
        <time>2024-11-03T11:03:03Z</time>
      </trkpt>
      <trkpt lat="48.17671" lon="6.57281">
        <ele>416.1</ele>
        <time>2024-11-03T11:03:04Z</time>
      </trkpt>
      <trkpt lat="48.1767" lon="6.57282">
        <ele>416.1</ele>
        <time>2024-11-03T11:03:08Z</time>
      </trkpt>
      <trkpt lat="48.1767" lon="6.57283">
        <ele>416.1</ele>
        <time>2024-11-03T11:03:09Z</time>
      </trkpt>
      <trkpt lat="48.17667" lon="6.57296">
        <ele>416.4</ele>
        <time>2024-11-03T11:03:18Z</time>
      </trkpt>
      <trkpt lat="48.17665" lon="6.57309">
        <ele>416.5</ele>
        <time>2024-11-03T11:03:26Z</time>
      </trkpt>
      <trkpt lat="48.17663" lon="6.57323">
        <ele>416.6</ele>
        <time>2024-11-03T11:03:34Z</time>
      </trkpt>
      <trkpt lat="48.17661" lon="6.57336">
        <ele>416.5</ele>
        <time>2024-11-03T11:03:41Z</time>
      </trkpt>
      <trkpt lat="48.17662" lon="6.57351">
        <ele>416.2</ele>
        <time>2024-11-03T11:03:49Z</time>
      </trkpt>
      <trkpt lat="48.17657" lon="6.57362">
        <ele>415.8</ele>
        <time>2024-11-03T11:03:58Z</time>
      </trkpt>
      <trkpt lat="48.17649" lon="6.57369">
        <ele>415.4</ele>
        <time>2024-11-03T11:04:05Z</time>
      </trkpt>
      <trkpt lat="48.17643" lon="6.57379">
        <ele>415</ele>
        <time>2024-11-03T11:04:13Z</time>
      </trkpt>
      <trkpt lat="48.17636" lon="6.5739">
        <ele>414.7</ele>
        <time>2024-11-03T11:04:21Z</time>
      </trkpt>
      <trkpt lat="48.1763" lon="6.57402">
        <ele>414.5</ele>
        <time>2024-11-03T11:04:27Z</time>
      </trkpt>
      <trkpt lat="48.17624" lon="6.57414">
        <ele>414.3</ele>
        <time>2024-11-03T11:04:38Z</time>
      </trkpt>
      <trkpt lat="48.17618" lon="6.57424">
        <ele>414</ele>
        <time>2024-11-03T11:04:44Z</time>
      </trkpt>
      <trkpt lat="48.17615" lon="6.57429">
        <ele>413.8</ele>
        <time>2024-11-03T11:04:55Z</time>
      </trkpt>
      <trkpt lat="48.17615" lon="6.5743">
        <ele>413.8</ele>
        <time>2024-11-03T11:04:56Z</time>
      </trkpt>
      <trkpt lat="48.17615" lon="6.57431">
        <ele>413.8</ele>
        <time>2024-11-03T11:04:57Z</time>
      </trkpt>
      <trkpt lat="48.17616" lon="6.57433">
        <ele>413.7</ele>
        <time>2024-11-03T11:04:58Z</time>
      </trkpt>
      <trkpt lat="48.17617" lon="6.57435">
        <ele>413.7</ele>
        <time>2024-11-03T11:04:59Z</time>
      </trkpt>
      <trkpt lat="48.17622" lon="6.57448">
        <ele>413.3</ele>
        <time>2024-11-03T11:05:07Z</time>
      </trkpt>
      <trkpt lat="48.17627" lon="6.57459">
        <ele>412.8</ele>
        <time>2024-11-03T11:05:13Z</time>
      </trkpt>
      <trkpt lat="48.17633" lon="6.5747">
        <ele>412.3</ele>
        <time>2024-11-03T11:05:21Z</time>
      </trkpt>
      <trkpt lat="48.1764" lon="6.5748">
        <ele>411.8</ele>
        <time>2024-11-03T11:05:28Z</time>
      </trkpt>
      <trkpt lat="48.17646" lon="6.57491">
        <ele>411.3</ele>
        <time>2024-11-03T11:05:36Z</time>
      </trkpt>
      <trkpt lat="48.17649" lon="6.57504">
        <ele>410.9</ele>
        <time>2024-11-03T11:05:44Z</time>
      </trkpt>
      <trkpt lat="48.17657" lon="6.57515">
        <ele>410.5</ele>
        <time>2024-11-03T11:05:52Z</time>
      </trkpt>
      <trkpt lat="48.17663" lon="6.57526">
        <ele>410</ele>
        <time>2024-11-03T11:06:00Z</time>
      </trkpt>
      <trkpt lat="48.17669" lon="6.57536">
        <ele>409.6</ele>
        <time>2024-11-03T11:06:10Z</time>
      </trkpt>
      <trkpt lat="48.17677" lon="6.57546">
        <ele>408.9</ele>
        <time>2024-11-03T11:06:18Z</time>
      </trkpt>
      <trkpt lat="48.17681" lon="6.57559">
        <ele>408.1</ele>
        <time>2024-11-03T11:06:26Z</time>
      </trkpt>
      <trkpt lat="48.17689" lon="6.57567">
        <ele>407.3</ele>
        <time>2024-11-03T11:06:33Z</time>
      </trkpt>
      <trkpt lat="48.17694" lon="6.57579">
        <ele>406.1</ele>
        <time>2024-11-03T11:06:42Z</time>
      </trkpt>
      <trkpt lat="48.17702" lon="6.57587">
        <ele>404.4</ele>
        <time>2024-11-03T11:06:52Z</time>
      </trkpt>
      <trkpt lat="48.17709" lon="6.57597">
        <ele>402.5</ele>
        <time>2024-11-03T11:07:02Z</time>
      </trkpt>
      <trkpt lat="48.1771" lon="6.57601">
        <ele>401.9</ele>
        <time>2024-11-03T11:07:28Z</time>
      </trkpt>
      <trkpt lat="48.1771" lon="6.57601">
        <ele>401.9</ele>
        <time>2024-11-03T11:07:29Z</time>
      </trkpt>
      <trkpt lat="48.17712" lon="6.57603">
        <ele>401.3</ele>
        <time>2024-11-03T11:08:11Z</time>
      </trkpt>
      <trkpt lat="48.17713" lon="6.57605">
        <ele>401.1</ele>
        <time>2024-11-03T11:08:12Z</time>
      </trkpt>
      <trkpt lat="48.17715" lon="6.57619">
        <ele>399.2</ele>
        <time>2024-11-03T11:08:23Z</time>
      </trkpt>
      <trkpt lat="48.17718" lon="6.57633">
        <ele>397.5</ele>
        <time>2024-11-03T11:08:32Z</time>
      </trkpt>
      <trkpt lat="48.17725" lon="6.57643">
        <ele>396</ele>
        <time>2024-11-03T11:08:40Z</time>
      </trkpt>
      <trkpt lat="48.17727" lon="6.57646">
        <ele>395.5</ele>
        <time>2024-11-03T11:08:47Z</time>
      </trkpt>
      <trkpt lat="48.17727" lon="6.57646">
        <ele>395.5</ele>
        <time>2024-11-03T11:08:48Z</time>
      </trkpt>
      <trkpt lat="48.17728" lon="6.57646">
        <ele>395.4</ele>
        <time>2024-11-03T11:08:49Z</time>
      </trkpt>
      <trkpt lat="48.1773" lon="6.57643">
        <ele>394.9</ele>
        <time>2024-11-03T11:09:00Z</time>
      </trkpt>
      <trkpt lat="48.1773" lon="6.57644">
        <ele>394.8</ele>
        <time>2024-11-03T11:09:01Z</time>
      </trkpt>
      <trkpt lat="48.17735" lon="6.57658">
        <ele>393.5</ele>
        <time>2024-11-03T11:09:07Z</time>
      </trkpt>
      <trkpt lat="48.17743" lon="6.57665">
        <ele>392.7</ele>
        <time>2024-11-03T11:09:16Z</time>
      </trkpt>
      <trkpt lat="48.17749" lon="6.57675">
        <ele>392.3</ele>
        <time>2024-11-03T11:09:24Z</time>
      </trkpt>
      <trkpt lat="48.17752" lon="6.57685">
        <ele>392.3</ele>
        <time>2024-11-03T11:09:41Z</time>
      </trkpt>
      <trkpt lat="48.17752" lon="6.57685">
        <ele>392.3</ele>
        <time>2024-11-03T11:09:42Z</time>
      </trkpt>
      <trkpt lat="48.17752" lon="6.57686">
        <ele>392.4</ele>
        <time>2024-11-03T11:10:03Z</time>
      </trkpt>
      <trkpt lat="48.17752" lon="6.57687">
        <ele>392.5</ele>
        <time>2024-11-03T11:10:04Z</time>
      </trkpt>
      <trkpt lat="48.17751" lon="6.57689">
        <ele>392.7</ele>
        <time>2024-11-03T11:10:10Z</time>
      </trkpt>
      <trkpt lat="48.17751" lon="6.57689">
        <ele>392.7</ele>
        <time>2024-11-03T11:10:11Z</time>
      </trkpt>
      <trkpt lat="48.17751" lon="6.57689">
        <ele>392.7</ele>
        <time>2024-11-03T11:10:12Z</time>
      </trkpt>
      <trkpt lat="48.17751" lon="6.5769">
        <ele>392.8</ele>
        <time>2024-11-03T11:10:20Z</time>
      </trkpt>
      <trkpt lat="48.17752" lon="6.5769">
        <ele>392.9</ele>
        <time>2024-11-03T11:10:21Z</time>
      </trkpt>
      <trkpt lat="48.17753" lon="6.57691">
        <ele>393</ele>
        <time>2024-11-03T11:10:22Z</time>
      </trkpt>
      <trkpt lat="48.1776" lon="6.57701">
        <ele>394.8</ele>
        <time>2024-11-03T11:10:31Z</time>
      </trkpt>
      <trkpt lat="48.17763" lon="6.57714">
        <ele>397.4</ele>
        <time>2024-11-03T11:10:42Z</time>
      </trkpt>
      <trkpt lat="48.1777" lon="6.57723">
        <ele>400.2</ele>
        <time>2024-11-03T11:10:55Z</time>
      </trkpt>
      <trkpt lat="48.17777" lon="6.57732">
        <ele>402.6</ele>
        <time>2024-11-03T11:11:08Z</time>
      </trkpt>
      <trkpt lat="48.17783" lon="6.57743">
        <ele>404.3</ele>
        <time>2024-11-03T11:11:20Z</time>
      </trkpt>
      <trkpt lat="48.17787" lon="6.57756">
        <ele>405.9</ele>
        <time>2024-11-03T11:11:30Z</time>
      </trkpt>
      <trkpt lat="48.17792" lon="6.57769">
        <ele>407.4</ele>
        <time>2024-11-03T11:11:43Z</time>
      </trkpt>
      <trkpt lat="48.17796" lon="6.57781">
        <ele>408.6</ele>
        <time>2024-11-03T11:11:55Z</time>
      </trkpt>
      <trkpt lat="48.178" lon="6.57793">
        <ele>409.7</ele>
        <time>2024-11-03T11:12:09Z</time>
      </trkpt>
      <trkpt lat="48.17805" lon="6.57805">
        <ele>410.9</ele>
        <time>2024-11-03T11:12:18Z</time>
      </trkpt>
      <trkpt lat="48.17814" lon="6.57812">
        <ele>412.2</ele>
        <time>2024-11-03T11:12:25Z</time>
      </trkpt>
      <trkpt lat="48.17819" lon="6.57823">
        <ele>413.4</ele>
        <time>2024-11-03T11:12:33Z</time>
      </trkpt>
      <trkpt lat="48.17826" lon="6.57835">
        <ele>414.7</ele>
        <time>2024-11-03T11:12:44Z</time>
      </trkpt>
      <trkpt lat="48.1783" lon="6.57848">
        <ele>415.7</ele>
        <time>2024-11-03T11:12:51Z</time>
      </trkpt>
      <trkpt lat="48.17834" lon="6.57862">
        <ele>416.7</ele>
        <time>2024-11-03T11:13:00Z</time>
      </trkpt>
      <trkpt lat="48.1784" lon="6.57871">
        <ele>417.6</ele>
        <time>2024-11-03T11:13:06Z</time>
      </trkpt>
      <trkpt lat="48.17846" lon="6.57882">
        <ele>418.4</ele>
        <time>2024-11-03T11:13:13Z</time>
      </trkpt>
      <trkpt lat="48.17853" lon="6.57892">
        <ele>419</ele>
        <time>2024-11-03T11:13:22Z</time>
      </trkpt>
      <trkpt lat="48.17857" lon="6.57905">
        <ele>419.5</ele>
        <time>2024-11-03T11:13:31Z</time>
      </trkpt>
      <trkpt lat="48.17863" lon="6.57916">
        <ele>419.8</ele>
        <time>2024-11-03T11:13:40Z</time>
      </trkpt>
      <trkpt lat="48.17871" lon="6.57926">
        <ele>420.2</ele>
        <time>2024-11-03T11:13:47Z</time>
      </trkpt>
      <trkpt lat="48.17875" lon="6.57939">
        <ele>420.5</ele>
        <time>2024-11-03T11:13:54Z</time>
      </trkpt>
      <trkpt lat="48.17876" lon="6.57953">
        <ele>420.5</ele>
        <time>2024-11-03T11:14:03Z</time>
      </trkpt>
      <trkpt lat="48.17881" lon="6.57958">
        <ele>420.5</ele>
        <time>2024-11-03T11:14:13Z</time>
      </trkpt>
      <trkpt lat="48.17881" lon="6.57958">
        <ele>420.5</ele>
        <time>2024-11-03T11:14:14Z</time>
      </trkpt>
      <trkpt lat="48.17881" lon="6.57958">
        <ele>420.5</ele>
        <time>2024-11-03T11:14:15Z</time>
      </trkpt>
      <trkpt lat="48.17882" lon="6.57959">
        <ele>420.5</ele>
        <time>2024-11-03T11:14:32Z</time>
      </trkpt>
      <trkpt lat="48.17883" lon="6.5796">
        <ele>420.5</ele>
        <time>2024-11-03T11:14:33Z</time>
      </trkpt>
      <trkpt lat="48.17885" lon="6.57961">
        <ele>420.5</ele>
        <time>2024-11-03T11:14:34Z</time>
      </trkpt>
      <trkpt lat="48.1789" lon="6.57974">
        <ele>420.4</ele>
        <time>2024-11-03T11:14:41Z</time>
      </trkpt>
      <trkpt lat="48.17895" lon="6.57987">
        <ele>420.3</ele>
        <time>2024-11-03T11:14:49Z</time>
      </trkpt>
      <trkpt lat="48.17899" lon="6.57999">
        <ele>420.3</ele>
        <time>2024-11-03T11:14:56Z</time>
      </trkpt>
      <trkpt lat="48.17903" lon="6.58011">
        <ele>420.2</ele>
        <time>2024-11-03T11:15:04Z</time>
      </trkpt>
      <trkpt lat="48.17908" lon="6.58024">
        <ele>420.1</ele>
        <time>2024-11-03T11:15:12Z</time>
      </trkpt>
      <trkpt lat="48.17908" lon="6.58038">
        <ele>420</ele>
        <time>2024-11-03T11:15:19Z</time>
      </trkpt>
      <trkpt lat="48.17912" lon="6.58052">
        <ele>419.9</ele>
        <time>2024-11-03T11:15:26Z</time>
      </trkpt>
      <trkpt lat="48.17914" lon="6.58068">
        <ele>419.8</ele>
        <time>2024-11-03T11:15:34Z</time>
      </trkpt>
      <trkpt lat="48.17918" lon="6.5808">
        <ele>419.8</ele>
        <time>2024-11-03T11:15:41Z</time>
      </trkpt>
      <trkpt lat="48.17925" lon="6.58091">
        <ele>419.7</ele>
        <time>2024-11-03T11:15:48Z</time>
      </trkpt>
      <trkpt lat="48.17932" lon="6.581">
        <ele>419.7</ele>
        <time>2024-11-03T11:15:55Z</time>
      </trkpt>
      <trkpt lat="48.17937" lon="6.58112">
        <ele>419.5</ele>
        <time>2024-11-03T11:16:04Z</time>
      </trkpt>
      <trkpt lat="48.17943" lon="6.58123">
        <ele>419.4</ele>
        <time>2024-11-03T11:16:10Z</time>
      </trkpt>
      <trkpt lat="48.17947" lon="6.58136">
        <ele>419.3</ele>
        <time>2024-11-03T11:16:17Z</time>
      </trkpt>
      <trkpt lat="48.1795" lon="6.58148">
        <ele>419.2</ele>
        <time>2024-11-03T11:16:24Z</time>
      </trkpt>
      <trkpt lat="48.17953" lon="6.58163">
        <ele>419.1</ele>
        <time>2024-11-03T11:16:32Z</time>
      </trkpt>
      <trkpt lat="48.17956" lon="6.58176">
        <ele>418.9</ele>
        <time>2024-11-03T11:16:41Z</time>
      </trkpt>
      <trkpt lat="48.17961" lon="6.58189">
        <ele>418.7</ele>
        <time>2024-11-03T11:16:48Z</time>
      </trkpt>
      <trkpt lat="48.17966" lon="6.58203">
        <ele>418.4</ele>
        <time>2024-11-03T11:16:54Z</time>
      </trkpt>
      <trkpt lat="48.17972" lon="6.58214">
        <ele>418.2</ele>
        <time>2024-11-03T11:17:00Z</time>
      </trkpt>
      <trkpt lat="48.17975" lon="6.58228">
        <ele>417.9</ele>
        <time>2024-11-03T11:17:07Z</time>
      </trkpt>
      <trkpt lat="48.17974" lon="6.58241">
        <ele>417.7</ele>
        <time>2024-11-03T11:17:15Z</time>
      </trkpt>
      <trkpt lat="48.17974" lon="6.58256">
        <ele>417.4</ele>
        <time>2024-11-03T11:17:24Z</time>
      </trkpt>
      <trkpt lat="48.17981" lon="6.58268">
        <ele>417.2</ele>
        <time>2024-11-03T11:17:30Z</time>
      </trkpt>
      <trkpt lat="48.17985" lon="6.5828">
        <ele>417</ele>
        <time>2024-11-03T11:17:36Z</time>
      </trkpt>
      <trkpt lat="48.17992" lon="6.58289">
        <ele>416.9</ele>
        <time>2024-11-03T11:17:45Z</time>
      </trkpt>
      <trkpt lat="48.18" lon="6.58297">
        <ele>416.7</ele>
        <time>2024-11-03T11:17:56Z</time>
      </trkpt>
      <trkpt lat="48.18002" lon="6.58311">
        <ele>416.5</ele>
        <time>2024-11-03T11:18:06Z</time>
      </trkpt>
      <trkpt lat="48.18003" lon="6.58315">
        <ele>416.5</ele>
        <time>2024-11-03T11:18:16Z</time>
      </trkpt>
      <trkpt lat="48.18003" lon="6.58315">
        <ele>416.5</ele>
        <time>2024-11-03T11:18:17Z</time>
      </trkpt>
      <trkpt lat="48.18003" lon="6.58315">
        <ele>416.5</ele>
        <time>2024-11-03T11:18:22Z</time>
      </trkpt>
      <trkpt lat="48.18003" lon="6.58315">
        <ele>416.5</ele>
        <time>2024-11-03T11:18:23Z</time>
      </trkpt>
      <trkpt lat="48.18003" lon="6.58315">
        <ele>416.5</ele>
        <time>2024-11-03T11:18:24Z</time>
      </trkpt>
      <trkpt lat="48.18003" lon="6.58315">
        <ele>416.5</ele>
        <time>2024-11-03T11:18:25Z</time>
      </trkpt>
      <trkpt lat="48.18003" lon="6.58315">
        <ele>416.5</ele>
        <time>2024-11-03T11:18:26Z</time>
      </trkpt>
      <trkpt lat="48.18003" lon="6.58315">
        <ele>416.5</ele>
        <time>2024-11-03T11:18:27Z</time>
      </trkpt>
      <trkpt lat="48.18004" lon="6.58315">
        <ele>416.5</ele>
        <time>2024-11-03T11:18:46Z</time>
      </trkpt>
      <trkpt lat="48.18004" lon="6.58316">
        <ele>416.4</ele>
        <time>2024-11-03T11:18:47Z</time>
      </trkpt>
      <trkpt lat="48.18008" lon="6.5833">
        <ele>416.3</ele>
        <time>2024-11-03T11:19:00Z</time>
      </trkpt>
      <trkpt lat="48.18009" lon="6.58345">
        <ele>416.1</ele>
        <time>2024-11-03T11:19:10Z</time>
      </trkpt>
      <trkpt lat="48.18007" lon="6.58359">
        <ele>415.9</ele>
        <time>2024-11-03T11:19:17Z</time>
      </trkpt>
      <trkpt lat="48.18009" lon="6.58358">
        <ele>415.9</ele>
        <time>2024-11-03T11:19:26Z</time>
      </trkpt>
      <trkpt lat="48.18009" lon="6.58358">
        <ele>415.9</ele>
        <time>2024-11-03T11:19:27Z</time>
      </trkpt>
      <trkpt lat="48.1801" lon="6.58358">
        <ele>415.9</ele>
        <time>2024-11-03T11:19:28Z</time>
      </trkpt>
      <trkpt lat="48.1801" lon="6.58358">
        <ele>415.9</ele>
        <time>2024-11-03T11:19:29Z</time>
      </trkpt>
      <trkpt lat="48.1801" lon="6.58358">
        <ele>415.9</ele>
        <time>2024-11-03T11:19:30Z</time>
      </trkpt>
      <trkpt lat="48.1801" lon="6.58358">
        <ele>415.9</ele>
        <time>2024-11-03T11:19:31Z</time>
      </trkpt>
      <trkpt lat="48.1801" lon="6.58358">
        <ele>415.9</ele>
        <time>2024-11-03T11:19:32Z</time>
      </trkpt>
      <trkpt lat="48.1801" lon="6.58359">
        <ele>415.9</ele>
        <time>2024-11-03T11:19:33Z</time>
      </trkpt>
      <trkpt lat="48.1801" lon="6.58359">
        <ele>415.9</ele>
        <time>2024-11-03T11:19:34Z</time>
      </trkpt>
      <trkpt lat="48.18012" lon="6.58359">
        <ele>415.9</ele>
        <time>2024-11-03T11:19:37Z</time>
      </trkpt>
      <trkpt lat="48.18012" lon="6.58359">
        <ele>415.9</ele>
        <time>2024-11-03T11:19:38Z</time>
      </trkpt>
      <trkpt lat="48.18012" lon="6.58359">
        <ele>415.9</ele>
        <time>2024-11-03T11:19:39Z</time>
      </trkpt>
      <trkpt lat="48.18012" lon="6.58359">
        <ele>415.9</ele>
        <time>2024-11-03T11:19:42Z</time>
      </trkpt>
      <trkpt lat="48.18013" lon="6.58359">
        <ele>415.9</ele>
        <time>2024-11-03T11:19:43Z</time>
      </trkpt>
      <trkpt lat="48.18013" lon="6.5836">
        <ele>415.9</ele>
        <time>2024-11-03T11:19:44Z</time>
      </trkpt>
      <trkpt lat="48.18014" lon="6.58359">
        <ele>415.9</ele>
        <time>2024-11-03T11:19:48Z</time>
      </trkpt>
      <trkpt lat="48.18014" lon="6.58359">
        <ele>415.9</ele>
        <time>2024-11-03T11:19:49Z</time>
      </trkpt>
      <trkpt lat="48.18014" lon="6.58359">
        <ele>415.9</ele>
        <time>2024-11-03T11:20:37Z</time>
      </trkpt>
      <trkpt lat="48.18014" lon="6.58359">
        <ele>415.9</ele>
        <time>2024-11-03T11:20:38Z</time>
      </trkpt>
      <trkpt lat="48.18014" lon="6.58359">
        <ele>415.9</ele>
        <time>2024-11-03T11:20:39Z</time>
      </trkpt>
      <trkpt lat="48.18014" lon="6.58359">
        <ele>415.9</ele>
        <time>2024-11-03T11:20:40Z</time>
      </trkpt>
      <trkpt lat="48.18014" lon="6.58359">
        <ele>415.9</ele>
        <time>2024-11-03T11:20:41Z</time>
      </trkpt>
      <trkpt lat="48.18014" lon="6.58359">
        <ele>415.9</ele>
        <time>2024-11-03T11:20:42Z</time>
      </trkpt>
      <trkpt lat="48.18014" lon="6.58359">
        <ele>415.9</ele>
        <time>2024-11-03T11:20:43Z</time>
      </trkpt>
      <trkpt lat="48.18014" lon="6.58359">
        <ele>415.9</ele>
        <time>2024-11-03T11:20:44Z</time>
      </trkpt>
      <trkpt lat="48.18014" lon="6.58359">
        <ele>415.9</ele>
        <time>2024-11-03T11:20:45Z</time>
      </trkpt>
      <trkpt lat="48.18014" lon="6.58359">
        <ele>415.9</ele>
        <time>2024-11-03T11:20:46Z</time>
      </trkpt>
      <trkpt lat="48.18014" lon="6.58359">
        <ele>415.9</ele>
        <time>2024-11-03T11:20:47Z</time>
      </trkpt>
      <trkpt lat="48.18014" lon="6.58359">
        <ele>415.9</ele>
        <time>2024-11-03T11:21:01Z</time>
      </trkpt>
      <trkpt lat="48.18014" lon="6.58359">
        <ele>415.9</ele>
        <time>2024-11-03T11:21:02Z</time>
      </trkpt>
      <trkpt lat="48.18014" lon="6.58359">
        <ele>415.9</ele>
        <time>2024-11-03T11:21:03Z</time>
      </trkpt>
      <trkpt lat="48.18014" lon="6.58359">
        <ele>415.9</ele>
        <time>2024-11-03T11:21:04Z</time>
      </trkpt>
      <trkpt lat="48.18014" lon="6.58359">
        <ele>415.9</ele>
        <time>2024-11-03T11:21:05Z</time>
      </trkpt>
      <trkpt lat="48.18014" lon="6.58359">
        <ele>415.9</ele>
        <time>2024-11-03T11:21:08Z</time>
      </trkpt>
      <trkpt lat="48.18014" lon="6.58359">
        <ele>415.9</ele>
        <time>2024-11-03T11:21:09Z</time>
      </trkpt>
      <trkpt lat="48.18014" lon="6.58359">
        <ele>415.9</ele>
        <time>2024-11-03T11:21:10Z</time>
      </trkpt>
      <trkpt lat="48.18014" lon="6.58359">
        <ele>415.9</ele>
        <time>2024-11-03T11:21:13Z</time>
      </trkpt>
      <trkpt lat="48.18014" lon="6.58359">
        <ele>415.9</ele>
        <time>2024-11-03T11:21:14Z</time>
      </trkpt>
      <trkpt lat="48.18014" lon="6.58359">
        <ele>415.9</ele>
        <time>2024-11-03T11:21:15Z</time>
      </trkpt>
      <trkpt lat="48.18013" lon="6.58359">
        <ele>415.9</ele>
        <time>2024-11-03T11:21:16Z</time>
      </trkpt>
      <trkpt lat="48.18013" lon="6.58359">
        <ele>415.9</ele>
        <time>2024-11-03T11:21:17Z</time>
      </trkpt>
      <trkpt lat="48.18013" lon="6.58359">
        <ele>415.9</ele>
        <time>2024-11-03T11:21:20Z</time>
      </trkpt>
      <trkpt lat="48.18013" lon="6.58359">
        <ele>415.9</ele>
        <time>2024-11-03T11:21:21Z</time>
      </trkpt>
      <trkpt lat="48.18013" lon="6.58359">
        <ele>415.9</ele>
        <time>2024-11-03T11:21:22Z</time>
      </trkpt>
      <trkpt lat="48.18013" lon="6.58358">
        <ele>415.9</ele>
        <time>2024-11-03T11:21:23Z</time>
      </trkpt>
      <trkpt lat="48.18013" lon="6.58358">
        <ele>415.9</ele>
        <time>2024-11-03T11:21:24Z</time>
      </trkpt>
      <trkpt lat="48.18013" lon="6.58358">
        <ele>415.9</ele>
        <time>2024-11-03T11:21:25Z</time>
      </trkpt>
      <trkpt lat="48.18013" lon="6.58358">
        <ele>415.9</ele>
        <time>2024-11-03T11:21:28Z</time>
      </trkpt>
      <trkpt lat="48.18013" lon="6.58358">
        <ele>415.9</ele>
        <time>2024-11-03T11:21:29Z</time>
      </trkpt>
      <trkpt lat="48.18013" lon="6.58358">
        <ele>415.9</ele>
        <time>2024-11-03T11:21:32Z</time>
      </trkpt>
      <trkpt lat="48.18013" lon="6.58358">
        <ele>415.9</ele>
        <time>2024-11-03T11:21:33Z</time>
      </trkpt>
      <trkpt lat="48.18013" lon="6.58358">
        <ele>415.9</ele>
        <time>2024-11-03T11:21:34Z</time>
      </trkpt>
      <trkpt lat="48.18013" lon="6.58359">
        <ele>415.9</ele>
        <time>2024-11-03T11:21:37Z</time>
      </trkpt>
      <trkpt lat="48.18013" lon="6.58359">
        <ele>415.9</ele>
        <time>2024-11-03T11:21:38Z</time>
      </trkpt>
      <trkpt lat="48.18013" lon="6.58359">
        <ele>415.9</ele>
        <time>2024-11-03T11:21:39Z</time>
      </trkpt>
      <trkpt lat="48.18014" lon="6.5836">
        <ele>415.9</ele>
        <time>2024-11-03T11:23:10Z</time>
      </trkpt>
      <trkpt lat="48.18014" lon="6.5836">
        <ele>415.9</ele>
        <time>2024-11-03T11:23:11Z</time>
      </trkpt>
      <trkpt lat="48.18021" lon="6.5837">
        <ele>415.8</ele>
        <time>2024-11-03T11:23:20Z</time>
      </trkpt>
      <trkpt lat="48.18028" lon="6.5838">
        <ele>415.8</ele>
        <time>2024-11-03T11:23:25Z</time>
      </trkpt>
      <trkpt lat="48.18035" lon="6.58391">
        <ele>415.9</ele>
        <time>2024-11-03T11:23:32Z</time>
      </trkpt>
      <trkpt lat="48.1804" lon="6.58404">
        <ele>416</ele>
        <time>2024-11-03T11:23:39Z</time>
      </trkpt>
      <trkpt lat="48.18044" lon="6.58416">
        <ele>416.1</ele>
        <time>2024-11-03T11:23:46Z</time>
      </trkpt>
      <trkpt lat="48.18048" lon="6.5843">
        <ele>416.2</ele>
        <time>2024-11-03T11:23:54Z</time>
      </trkpt>
      <trkpt lat="48.18049" lon="6.58445">
        <ele>416.3</ele>
        <time>2024-11-03T11:24:01Z</time>
      </trkpt>
      <trkpt lat="48.18052" lon="6.58458">
        <ele>416.5</ele>
        <time>2024-11-03T11:24:09Z</time>
      </trkpt>
      <trkpt lat="48.18055" lon="6.58472">
        <ele>416.7</ele>
        <time>2024-11-03T11:24:16Z</time>
      </trkpt>
      <trkpt lat="48.18058" lon="6.58486">
        <ele>416.9</ele>
        <time>2024-11-03T11:24:22Z</time>
      </trkpt>
      <trkpt lat="48.1806" lon="6.58499">
        <ele>417.1</ele>
        <time>2024-11-03T11:24:28Z</time>
      </trkpt>
      <trkpt lat="48.18065" lon="6.58512">
        <ele>417.3</ele>
        <time>2024-11-03T11:24:35Z</time>
      </trkpt>
      <trkpt lat="48.1807" lon="6.58524">
        <ele>417.5</ele>
        <time>2024-11-03T11:24:42Z</time>
      </trkpt>
      <trkpt lat="48.18074" lon="6.58538">
        <ele>417.6</ele>
        <time>2024-11-03T11:24:50Z</time>
      </trkpt>
      <trkpt lat="48.18076" lon="6.58552">
        <ele>417.8</ele>
        <time>2024-11-03T11:24:58Z</time>
      </trkpt>
      <trkpt lat="48.18081" lon="6.58565">
        <ele>418</ele>
        <time>2024-11-03T11:25:06Z</time>
      </trkpt>
      <trkpt lat="48.18087" lon="6.58577">
        <ele>418.3</ele>
        <time>2024-11-03T11:25:14Z</time>
      </trkpt>
      <trkpt lat="48.18093" lon="6.58589">
        <ele>418.5</ele>
        <time>2024-11-03T11:25:22Z</time>
      </trkpt>
      <trkpt lat="48.18099" lon="6.58601">
        <ele>418.7</ele>
        <time>2024-11-03T11:25:28Z</time>
      </trkpt>
      <trkpt lat="48.18105" lon="6.58614">
        <ele>419</ele>
        <time>2024-11-03T11:25:35Z</time>
      </trkpt>
      <trkpt lat="48.18113" lon="6.58623">
        <ele>419.2</ele>
        <time>2024-11-03T11:25:42Z</time>
      </trkpt>
      <trkpt lat="48.18121" lon="6.58633">
        <ele>419.5</ele>
        <time>2024-11-03T11:25:49Z</time>
      </trkpt>
      <trkpt lat="48.18128" lon="6.58644">
        <ele>419.8</ele>
        <time>2024-11-03T11:25:56Z</time>
      </trkpt>
      <trkpt lat="48.18135" lon="6.58654">
        <ele>420</ele>
        <time>2024-11-03T11:26:03Z</time>
      </trkpt>
      <trkpt lat="48.18141" lon="6.58664">
        <ele>420.3</ele>
        <time>2024-11-03T11:26:11Z</time>
      </trkpt>
      <trkpt lat="48.18148" lon="6.58675">
        <ele>420.5</ele>
        <time>2024-11-03T11:26:20Z</time>
      </trkpt>
      <trkpt lat="48.18155" lon="6.58685">
        <ele>420.8</ele>
        <time>2024-11-03T11:26:27Z</time>
      </trkpt>
      <trkpt lat="48.18161" lon="6.58697">
        <ele>421</ele>
        <time>2024-11-03T11:26:34Z</time>
      </trkpt>
      <trkpt lat="48.18168" lon="6.58706">
        <ele>421.3</ele>
        <time>2024-11-03T11:26:41Z</time>
      </trkpt>
      <trkpt lat="48.18174" lon="6.58717">
        <ele>421.6</ele>
        <time>2024-11-03T11:26:48Z</time>
      </trkpt>
      <trkpt lat="48.18181" lon="6.58726">
        <ele>422</ele>
        <time>2024-11-03T11:26:55Z</time>
      </trkpt>
      <trkpt lat="48.18189" lon="6.58734">
        <ele>422.6</ele>
        <time>2024-11-03T11:27:03Z</time>
      </trkpt>
      <trkpt lat="48.18199" lon="6.58735">
        <ele>422.6</ele>
        <time>2024-11-03T11:27:14Z</time>
      </trkpt>
      <trkpt lat="48.18208" lon="6.58736">
        <ele>422.3</ele>
        <time>2024-11-03T11:27:20Z</time>
      </trkpt>
      <trkpt lat="48.18216" lon="6.58743">
        <ele>421.8</ele>
        <time>2024-11-03T11:27:26Z</time>
      </trkpt>
      <trkpt lat="48.18225" lon="6.5875">
        <ele>421.3</ele>
        <time>2024-11-03T11:27:33Z</time>
      </trkpt>
      <trkpt lat="48.18233" lon="6.58758">
        <ele>420.9</ele>
        <time>2024-11-03T11:27:40Z</time>
      </trkpt>
      <trkpt lat="48.18243" lon="6.58765">
        <ele>420.5</ele>
        <time>2024-11-03T11:27:47Z</time>
      </trkpt>
      <trkpt lat="48.18252" lon="6.58771">
        <ele>420.2</ele>
        <time>2024-11-03T11:27:54Z</time>
      </trkpt>
      <trkpt lat="48.1826" lon="6.58779">
        <ele>420</ele>
        <time>2024-11-03T11:28:01Z</time>
      </trkpt>
      <trkpt lat="48.18268" lon="6.58787">
        <ele>419.7</ele>
        <time>2024-11-03T11:28:08Z</time>
      </trkpt>
      <trkpt lat="48.18276" lon="6.58795">
        <ele>419.5</ele>
        <time>2024-11-03T11:28:15Z</time>
      </trkpt>
      <trkpt lat="48.18284" lon="6.58803">
        <ele>420.3</ele>
        <time>2024-11-03T11:28:22Z</time>
      </trkpt>
      <trkpt lat="48.18293" lon="6.5881">
        <ele>421.1</ele>
        <time>2024-11-03T11:28:31Z</time>
      </trkpt>
      <trkpt lat="48.18301" lon="6.58818">
        <ele>422</ele>
        <time>2024-11-03T11:28:38Z</time>
      </trkpt>
      <trkpt lat="48.18309" lon="6.58824">
        <ele>422.8</ele>
        <time>2024-11-03T11:28:46Z</time>
      </trkpt>
      <trkpt lat="48.18316" lon="6.58835">
        <ele>423.5</ele>
        <time>2024-11-03T11:28:54Z</time>
      </trkpt>
      <trkpt lat="48.18324" lon="6.58844">
        <ele>424.1</ele>
        <time>2024-11-03T11:29:00Z</time>
      </trkpt>
      <trkpt lat="48.1833" lon="6.58854">
        <ele>424.7</ele>
        <time>2024-11-03T11:29:05Z</time>
      </trkpt>
      <trkpt lat="48.18339" lon="6.58861">
        <ele>425.2</ele>
        <time>2024-11-03T11:29:10Z</time>
      </trkpt>
      <trkpt lat="48.18348" lon="6.58866">
        <ele>425.8</ele>
        <time>2024-11-03T11:29:18Z</time>
      </trkpt>
      <trkpt lat="48.18357" lon="6.58872">
        <ele>426.4</ele>
        <time>2024-11-03T11:29:26Z</time>
      </trkpt>
      <trkpt lat="48.18365" lon="6.58882">
        <ele>427.1</ele>
        <time>2024-11-03T11:29:34Z</time>
      </trkpt>
      <trkpt lat="48.18372" lon="6.58891">
        <ele>427.8</ele>
        <time>2024-11-03T11:29:41Z</time>
      </trkpt>
      <trkpt lat="48.18382" lon="6.58894">
        <ele>428.6</ele>
        <time>2024-11-03T11:29:49Z</time>
      </trkpt>
      <trkpt lat="48.18392" lon="6.58889">
        <ele>429.6</ele>
        <time>2024-11-03T11:29:56Z</time>
      </trkpt>
      <trkpt lat="48.18401" lon="6.58885">
        <ele>430.6</ele>
        <time>2024-11-03T11:30:03Z</time>
      </trkpt>
      <trkpt lat="48.18411" lon="6.58879">
        <ele>431.6</ele>
        <time>2024-11-03T11:30:10Z</time>
      </trkpt>
      <trkpt lat="48.1842" lon="6.58885">
        <ele>432.7</ele>
        <time>2024-11-03T11:30:16Z</time>
      </trkpt>
      <trkpt lat="48.18429" lon="6.58892">
        <ele>433.6</ele>
        <time>2024-11-03T11:30:21Z</time>
      </trkpt>
      <trkpt lat="48.18438" lon="6.58899">
        <ele>434.5</ele>
        <time>2024-11-03T11:30:27Z</time>
      </trkpt>
      <trkpt lat="48.18446" lon="6.58907">
        <ele>435.3</ele>
        <time>2024-11-03T11:30:34Z</time>
      </trkpt>
      <trkpt lat="48.18454" lon="6.58915">
        <ele>436</ele>
        <time>2024-11-03T11:30:41Z</time>
      </trkpt>
      <trkpt lat="48.18461" lon="6.58924">
        <ele>436.8</ele>
        <time>2024-11-03T11:30:50Z</time>
      </trkpt>
      <trkpt lat="48.18469" lon="6.58934">
        <ele>437.5</ele>
        <time>2024-11-03T11:30:59Z</time>
      </trkpt>
      <trkpt lat="48.18476" lon="6.58944">
        <ele>438.2</ele>
        <time>2024-11-03T11:31:06Z</time>
      </trkpt>
      <trkpt lat="48.18483" lon="6.58952">
        <ele>438.8</ele>
        <time>2024-11-03T11:31:12Z</time>
      </trkpt>
      <trkpt lat="48.18491" lon="6.58961">
        <ele>439.4</ele>
        <time>2024-11-03T11:31:20Z</time>
      </trkpt>
      <trkpt lat="48.18498" lon="6.5897">
        <ele>440.1</ele>
        <time>2024-11-03T11:31:28Z</time>
      </trkpt>
      <trkpt lat="48.18507" lon="6.58977">
        <ele>440.8</ele>
        <time>2024-11-03T11:31:37Z</time>
      </trkpt>
      <trkpt lat="48.18516" lon="6.58982">
        <ele>441.4</ele>
        <time>2024-11-03T11:31:42Z</time>
      </trkpt>
      <trkpt lat="48.18524" lon="6.58989">
        <ele>442</ele>
        <time>2024-11-03T11:31:48Z</time>
      </trkpt>
      <trkpt lat="48.18531" lon="6.58998">
        <ele>442.6</ele>
        <time>2024-11-03T11:31:55Z</time>
      </trkpt>
      <trkpt lat="48.1854" lon="6.59004">
        <ele>443.2</ele>
        <time>2024-11-03T11:32:03Z</time>
      </trkpt>
      <trkpt lat="48.18548" lon="6.59011">
        <ele>443.7</ele>
        <time>2024-11-03T11:32:12Z</time>
      </trkpt>
      <trkpt lat="48.18554" lon="6.59022">
        <ele>444</ele>
        <time>2024-11-03T11:32:18Z</time>
      </trkpt>
      <trkpt lat="48.1856" lon="6.59034">
        <ele>444.3</ele>
        <time>2024-11-03T11:32:25Z</time>
      </trkpt>
      <trkpt lat="48.18564" lon="6.59046">
        <ele>444.6</ele>
        <time>2024-11-03T11:32:31Z</time>
      </trkpt>
      <trkpt lat="48.18569" lon="6.59059">
        <ele>444.9</ele>
        <time>2024-11-03T11:32:38Z</time>
      </trkpt>
      <trkpt lat="48.18574" lon="6.59071">
        <ele>445.1</ele>
        <time>2024-11-03T11:32:45Z</time>
      </trkpt>
      <trkpt lat="48.18576" lon="6.59084">
        <ele>445.4</ele>
        <time>2024-11-03T11:32:52Z</time>
      </trkpt>
      <trkpt lat="48.18577" lon="6.59099">
        <ele>445.6</ele>
        <time>2024-11-03T11:33:00Z</time>
      </trkpt>
      <trkpt lat="48.18578" lon="6.59112">
        <ele>445.8</ele>
        <time>2024-11-03T11:33:07Z</time>
      </trkpt>
      <trkpt lat="48.18577" lon="6.59126">
        <ele>445.9</ele>
        <time>2024-11-03T11:33:14Z</time>
      </trkpt>
      <trkpt lat="48.18579" lon="6.59141">
        <ele>446.1</ele>
        <time>2024-11-03T11:33:21Z</time>
      </trkpt>
      <trkpt lat="48.18579" lon="6.59156">
        <ele>446.3</ele>
        <time>2024-11-03T11:33:28Z</time>
      </trkpt>
      <trkpt lat="48.1858" lon="6.59169">
        <ele>446.5</ele>
        <time>2024-11-03T11:33:35Z</time>
      </trkpt>
      <trkpt lat="48.18582" lon="6.59184">
        <ele>446.8</ele>
        <time>2024-11-03T11:33:42Z</time>
      </trkpt>
      <trkpt lat="48.18583" lon="6.59199">
        <ele>447</ele>
        <time>2024-11-03T11:33:49Z</time>
      </trkpt>
      <trkpt lat="48.18576" lon="6.59208">
        <ele>447.1</ele>
        <time>2024-11-03T11:33:58Z</time>
      </trkpt>
      <trkpt lat="48.1857" lon="6.59218">
        <ele>447.2</ele>
        <time>2024-11-03T11:34:05Z</time>
      </trkpt>
      <trkpt lat="48.18563" lon="6.59228">
        <ele>447.2</ele>
        <time>2024-11-03T11:34:12Z</time>
      </trkpt>
      <trkpt lat="48.18556" lon="6.5924">
        <ele>447.3</ele>
        <time>2024-11-03T11:34:19Z</time>
      </trkpt>
      <trkpt lat="48.1855" lon="6.5925">
        <ele>447.4</ele>
        <time>2024-11-03T11:34:26Z</time>
      </trkpt>
      <trkpt lat="48.18543" lon="6.59258">
        <ele>447.5</ele>
        <time>2024-11-03T11:34:34Z</time>
      </trkpt>
      <trkpt lat="48.18536" lon="6.59269">
        <ele>447.7</ele>
        <time>2024-11-03T11:34:42Z</time>
      </trkpt>
      <trkpt lat="48.18533" lon="6.59282">
        <ele>448.9</ele>
        <time>2024-11-03T11:34:48Z</time>
      </trkpt>
      <trkpt lat="48.18531" lon="6.59297">
        <ele>450.6</ele>
        <time>2024-11-03T11:34:55Z</time>
      </trkpt>
      <trkpt lat="48.18532" lon="6.59311">
        <ele>452.2</ele>
        <time>2024-11-03T11:35:01Z</time>
      </trkpt>
      <trkpt lat="48.18536" lon="6.59323">
        <ele>452.7</ele>
        <time>2024-11-03T11:35:07Z</time>
      </trkpt>
      <trkpt lat="48.18541" lon="6.59336">
        <ele>453.1</ele>
        <time>2024-11-03T11:35:14Z</time>
      </trkpt>
      <trkpt lat="48.18545" lon="6.59349">
        <ele>453.4</ele>
        <time>2024-11-03T11:35:20Z</time>
      </trkpt>
      <trkpt lat="48.18546" lon="6.59363">
        <ele>453.8</ele>
        <time>2024-11-03T11:35:27Z</time>
      </trkpt>
      <trkpt lat="48.18548" lon="6.59376">
        <ele>454.2</ele>
        <time>2024-11-03T11:35:34Z</time>
      </trkpt>
      <trkpt lat="48.1855" lon="6.5939">
        <ele>454.7</ele>
        <time>2024-11-03T11:35:41Z</time>
      </trkpt>
      <trkpt lat="48.1855" lon="6.59404">
        <ele>455.1</ele>
        <time>2024-11-03T11:35:48Z</time>
      </trkpt>
      <trkpt lat="48.18551" lon="6.59419">
        <ele>455.6</ele>
        <time>2024-11-03T11:35:56Z</time>
      </trkpt>
      <trkpt lat="48.18554" lon="6.59432">
        <ele>456</ele>
        <time>2024-11-03T11:36:03Z</time>
      </trkpt>
      <trkpt lat="48.18555" lon="6.59446">
        <ele>456.5</ele>
        <time>2024-11-03T11:36:10Z</time>
      </trkpt>
      <trkpt lat="48.18557" lon="6.5946">
        <ele>457</ele>
        <time>2024-11-03T11:36:17Z</time>
      </trkpt>
      <trkpt lat="48.18558" lon="6.59475">
        <ele>457.6</ele>
        <time>2024-11-03T11:36:24Z</time>
      </trkpt>
      <trkpt lat="48.18558" lon="6.5949">
        <ele>458.1</ele>
        <time>2024-11-03T11:36:32Z</time>
      </trkpt>
      <trkpt lat="48.1856" lon="6.59504">
        <ele>458.7</ele>
        <time>2024-11-03T11:36:40Z</time>
      </trkpt>
      <trkpt lat="48.18559" lon="6.5952">
        <ele>459.2</ele>
        <time>2024-11-03T11:36:48Z</time>
      </trkpt>
      <trkpt lat="48.18559" lon="6.59533">
        <ele>459.6</ele>
        <time>2024-11-03T11:36:55Z</time>
      </trkpt>
      <trkpt lat="48.18559" lon="6.59547">
        <ele>460.2</ele>
        <time>2024-11-03T11:37:02Z</time>
      </trkpt>
      <trkpt lat="48.18558" lon="6.59562">
        <ele>460.8</ele>
        <time>2024-11-03T11:37:10Z</time>
      </trkpt>
      <trkpt lat="48.18556" lon="6.59577">
        <ele>461.2</ele>
        <time>2024-11-03T11:37:18Z</time>
      </trkpt>
      <trkpt lat="48.18553" lon="6.59591">
        <ele>461.7</ele>
        <time>2024-11-03T11:37:26Z</time>
      </trkpt>
      <trkpt lat="48.18552" lon="6.59605">
        <ele>462.1</ele>
        <time>2024-11-03T11:37:33Z</time>
      </trkpt>
      <trkpt lat="48.18552" lon="6.59619">
        <ele>462.6</ele>
        <time>2024-11-03T11:37:40Z</time>
      </trkpt>
      <trkpt lat="48.1855" lon="6.59634">
        <ele>463.2</ele>
        <time>2024-11-03T11:37:47Z</time>
      </trkpt>
      <trkpt lat="48.18551" lon="6.59649">
        <ele>463.7</ele>
        <time>2024-11-03T11:37:54Z</time>
      </trkpt>
      <trkpt lat="48.1855" lon="6.59663">
        <ele>464.3</ele>
        <time>2024-11-03T11:38:01Z</time>
      </trkpt>
      <trkpt lat="48.18549" lon="6.59677">
        <ele>464.9</ele>
        <time>2024-11-03T11:38:08Z</time>
      </trkpt>
      <trkpt lat="48.18551" lon="6.5969">
        <ele>465.2</ele>
        <time>2024-11-03T11:38:14Z</time>
      </trkpt>
      <trkpt lat="48.18552" lon="6.59705">
        <ele>465</ele>
        <time>2024-11-03T11:38:21Z</time>
      </trkpt>
      <trkpt lat="48.18553" lon="6.5972">
        <ele>464.8</ele>
        <time>2024-11-03T11:38:28Z</time>
      </trkpt>
      <trkpt lat="48.18554" lon="6.59734">
        <ele>464.8</ele>
        <time>2024-11-03T11:38:35Z</time>
      </trkpt>
      <trkpt lat="48.18556" lon="6.59748">
        <ele>464.8</ele>
        <time>2024-11-03T11:38:42Z</time>
      </trkpt>
      <trkpt lat="48.18556" lon="6.59762">
        <ele>464.9</ele>
        <time>2024-11-03T11:38:49Z</time>
      </trkpt>
      <trkpt lat="48.18555" lon="6.59776">
        <ele>465</ele>
        <time>2024-11-03T11:38:56Z</time>
      </trkpt>
      <trkpt lat="48.18553" lon="6.5979">
        <ele>465.2</ele>
        <time>2024-11-03T11:39:04Z</time>
      </trkpt>
      <trkpt lat="48.18547" lon="6.59802">
        <ele>465.4</ele>
        <time>2024-11-03T11:39:13Z</time>
      </trkpt>
      <trkpt lat="48.18539" lon="6.59812">
        <ele>465.7</ele>
        <time>2024-11-03T11:39:22Z</time>
      </trkpt>
      <trkpt lat="48.18531" lon="6.59819">
        <ele>465.9</ele>
        <time>2024-11-03T11:39:30Z</time>
      </trkpt>
      <trkpt lat="48.18525" lon="6.59829">
        <ele>466.1</ele>
        <time>2024-11-03T11:39:37Z</time>
      </trkpt>
      <trkpt lat="48.18518" lon="6.5984">
        <ele>466.2</ele>
        <time>2024-11-03T11:39:45Z</time>
      </trkpt>
      <trkpt lat="48.18512" lon="6.59852">
        <ele>466.3</ele>
        <time>2024-11-03T11:39:52Z</time>
      </trkpt>
      <trkpt lat="48.18507" lon="6.59865">
        <ele>466.3</ele>
        <time>2024-11-03T11:40:00Z</time>
      </trkpt>
      <trkpt lat="48.18504" lon="6.59877">
        <ele>466.3</ele>
        <time>2024-11-03T11:40:07Z</time>
      </trkpt>
      <trkpt lat="48.18502" lon="6.59892">
        <ele>466.2</ele>
        <time>2024-11-03T11:40:13Z</time>
      </trkpt>
      <trkpt lat="48.18501" lon="6.59906">
        <ele>466</ele>
        <time>2024-11-03T11:40:19Z</time>
      </trkpt>
      <trkpt lat="48.18505" lon="6.5992">
        <ele>465.6</ele>
        <time>2024-11-03T11:40:25Z</time>
      </trkpt>
      <trkpt lat="48.1851" lon="6.59933">
        <ele>465.1</ele>
        <time>2024-11-03T11:40:31Z</time>
      </trkpt>
      <trkpt lat="48.18516" lon="6.59945">
        <ele>464.5</ele>
        <time>2024-11-03T11:40:38Z</time>
      </trkpt>
      <trkpt lat="48.18523" lon="6.59953">
        <ele>464</ele>
        <time>2024-11-03T11:40:44Z</time>
      </trkpt>
      <trkpt lat="48.18533" lon="6.59958">
        <ele>463.4</ele>
        <time>2024-11-03T11:40:51Z</time>
      </trkpt>
      <trkpt lat="48.1854" lon="6.59969">
        <ele>462.9</ele>
        <time>2024-11-03T11:40:59Z</time>
      </trkpt>
      <trkpt lat="48.18542" lon="6.59983">
        <ele>463.5</ele>
        <time>2024-11-03T11:41:08Z</time>
      </trkpt>
      <trkpt lat="48.18537" lon="6.59997">
        <ele>463.8</ele>
        <time>2024-11-03T11:41:17Z</time>
      </trkpt>
      <trkpt lat="48.18531" lon="6.6001">
        <ele>464.2</ele>
        <time>2024-11-03T11:41:25Z</time>
      </trkpt>
      <trkpt lat="48.18526" lon="6.60022">
        <ele>464.5</ele>
        <time>2024-11-03T11:41:31Z</time>
      </trkpt>
      <trkpt lat="48.18522" lon="6.60034">
        <ele>464.9</ele>
        <time>2024-11-03T11:41:40Z</time>
      </trkpt>
      <trkpt lat="48.18517" lon="6.60047">
        <ele>465.3</ele>
        <time>2024-11-03T11:41:47Z</time>
      </trkpt>
      <trkpt lat="48.18511" lon="6.60058">
        <ele>465.8</ele>
        <time>2024-11-03T11:41:55Z</time>
      </trkpt>
      <trkpt lat="48.18506" lon="6.60071">
        <ele>466.4</ele>
        <time>2024-11-03T11:42:03Z</time>
      </trkpt>
      <trkpt lat="48.185" lon="6.60083">
        <ele>467</ele>
        <time>2024-11-03T11:42:09Z</time>
      </trkpt>
      <trkpt lat="48.18496" lon="6.60095">
        <ele>467.6</ele>
        <time>2024-11-03T11:42:17Z</time>
      </trkpt>
      <trkpt lat="48.18496" lon="6.60109">
        <ele>468.1</ele>
        <time>2024-11-03T11:42:23Z</time>
      </trkpt>
      <trkpt lat="48.18497" lon="6.60124">
        <ele>468.7</ele>
        <time>2024-11-03T11:42:30Z</time>
      </trkpt>
      <trkpt lat="48.18497" lon="6.60138">
        <ele>469.3</ele>
        <time>2024-11-03T11:42:38Z</time>
      </trkpt>
      <trkpt lat="48.18498" lon="6.60152">
        <ele>469.8</ele>
        <time>2024-11-03T11:42:45Z</time>
      </trkpt>
      <trkpt lat="48.18498" lon="6.60166">
        <ele>470.4</ele>
        <time>2024-11-03T11:42:52Z</time>
      </trkpt>
      <trkpt lat="48.18503" lon="6.60178">
        <ele>471.1</ele>
        <time>2024-11-03T11:42:58Z</time>
      </trkpt>
      <trkpt lat="48.18509" lon="6.60191">
        <ele>472</ele>
        <time>2024-11-03T11:43:04Z</time>
      </trkpt>
      <trkpt lat="48.18514" lon="6.60204">
        <ele>473.1</ele>
        <time>2024-11-03T11:43:11Z</time>
      </trkpt>
      <trkpt lat="48.18514" lon="6.60217">
        <ele>474.2</ele>
        <time>2024-11-03T11:43:19Z</time>
      </trkpt>
      <trkpt lat="48.18508" lon="6.60229">
        <ele>475.6</ele>
        <time>2024-11-03T11:43:28Z</time>
      </trkpt>
      <trkpt lat="48.18499" lon="6.60233">
        <ele>476.8</ele>
        <time>2024-11-03T11:43:36Z</time>
      </trkpt>
      <trkpt lat="48.1849" lon="6.60239">
        <ele>477.8</ele>
        <time>2024-11-03T11:43:45Z</time>
      </trkpt>
      <trkpt lat="48.18481" lon="6.60241">
        <ele>478.8</ele>
        <time>2024-11-03T11:43:52Z</time>
      </trkpt>
      <trkpt lat="48.18473" lon="6.60246">
        <ele>479.6</ele>
        <time>2024-11-03T11:44:00Z</time>
      </trkpt>
      <trkpt lat="48.18464" lon="6.60252">
        <ele>480.6</ele>
        <time>2024-11-03T11:44:08Z</time>
      </trkpt>
      <trkpt lat="48.18455" lon="6.60259">
        <ele>481.6</ele>
        <time>2024-11-03T11:44:16Z</time>
      </trkpt>
      <trkpt lat="48.18446" lon="6.60262">
        <ele>482.8</ele>
        <time>2024-11-03T11:44:23Z</time>
      </trkpt>
      <trkpt lat="48.18436" lon="6.60267">
        <ele>484.1</ele>
        <time>2024-11-03T11:44:31Z</time>
      </trkpt>
      <trkpt lat="48.18427" lon="6.60268">
        <ele>485.3</ele>
        <time>2024-11-03T11:44:38Z</time>
      </trkpt>
      <trkpt lat="48.18418" lon="6.60274">
        <ele>486.5</ele>
        <time>2024-11-03T11:44:46Z</time>
      </trkpt>
      <trkpt lat="48.18409" lon="6.60281">
        <ele>487.4</ele>
        <time>2024-11-03T11:44:54Z</time>
      </trkpt>
      <trkpt lat="48.184" lon="6.60285">
        <ele>488.2</ele>
        <time>2024-11-03T11:45:01Z</time>
      </trkpt>
      <trkpt lat="48.18392" lon="6.60291">
        <ele>488.9</ele>
        <time>2024-11-03T11:45:08Z</time>
      </trkpt>
      <trkpt lat="48.18383" lon="6.60295">
        <ele>489.7</ele>
        <time>2024-11-03T11:45:16Z</time>
      </trkpt>
      <trkpt lat="48.18374" lon="6.60301">
        <ele>490.5</ele>
        <time>2024-11-03T11:45:25Z</time>
      </trkpt>
      <trkpt lat="48.18365" lon="6.60308">
        <ele>491.2</ele>
        <time>2024-11-03T11:45:33Z</time>
      </trkpt>
      <trkpt lat="48.18355" lon="6.60312">
        <ele>491.9</ele>
        <time>2024-11-03T11:45:40Z</time>
      </trkpt>
      <trkpt lat="48.18346" lon="6.60317">
        <ele>492.6</ele>
        <time>2024-11-03T11:45:47Z</time>
      </trkpt>
      <trkpt lat="48.18337" lon="6.60322">
        <ele>493.4</ele>
        <time>2024-11-03T11:45:55Z</time>
      </trkpt>
      <trkpt lat="48.18338" lon="6.60336">
        <ele>493.8</ele>
        <time>2024-11-03T11:46:02Z</time>
      </trkpt>
      <trkpt lat="48.18346" lon="6.60346">
        <ele>494.4</ele>
        <time>2024-11-03T11:46:09Z</time>
      </trkpt>
      <trkpt lat="48.18353" lon="6.60355">
        <ele>495.1</ele>
        <time>2024-11-03T11:46:16Z</time>
      </trkpt>
      <trkpt lat="48.18362" lon="6.60363">
        <ele>495.9</ele>
        <time>2024-11-03T11:46:23Z</time>
      </trkpt>
      <trkpt lat="48.1837" lon="6.60372">
        <ele>496.6</ele>
        <time>2024-11-03T11:46:30Z</time>
      </trkpt>
      <trkpt lat="48.18377" lon="6.60381">
        <ele>497.3</ele>
        <time>2024-11-03T11:46:36Z</time>
      </trkpt>
      <trkpt lat="48.18384" lon="6.60391">
        <ele>498.1</ele>
        <time>2024-11-03T11:46:44Z</time>
      </trkpt>
      <trkpt lat="48.18391" lon="6.60403">
        <ele>498.9</ele>
        <time>2024-11-03T11:46:51Z</time>
      </trkpt>
      <trkpt lat="48.18396" lon="6.60416">
        <ele>499.7</ele>
        <time>2024-11-03T11:46:58Z</time>
      </trkpt>
      <trkpt lat="48.18401" lon="6.60429">
        <ele>500.6</ele>
        <time>2024-11-03T11:47:06Z</time>
      </trkpt>
      <trkpt lat="48.18406" lon="6.60442">
        <ele>501.4</ele>
        <time>2024-11-03T11:47:14Z</time>
      </trkpt>
      <trkpt lat="48.18411" lon="6.60454">
        <ele>502.2</ele>
        <time>2024-11-03T11:47:21Z</time>
      </trkpt>
      <trkpt lat="48.18417" lon="6.60465">
        <ele>502.9</ele>
        <time>2024-11-03T11:47:28Z</time>
      </trkpt>
      <trkpt lat="48.18421" lon="6.60478">
        <ele>503.7</ele>
        <time>2024-11-03T11:47:36Z</time>
      </trkpt>
      <trkpt lat="48.18426" lon="6.60491">
        <ele>504.5</ele>
        <time>2024-11-03T11:47:44Z</time>
      </trkpt>
      <trkpt lat="48.1843" lon="6.60503">
        <ele>505.3</ele>
        <time>2024-11-03T11:47:52Z</time>
      </trkpt>
      <trkpt lat="48.18436" lon="6.60516">
        <ele>506.2</ele>
        <time>2024-11-03T11:48:00Z</time>
      </trkpt>
      <trkpt lat="48.1844" lon="6.60528">
        <ele>507</ele>
        <time>2024-11-03T11:48:07Z</time>
      </trkpt>
      <trkpt lat="48.18448" lon="6.60538">
        <ele>507.8</ele>
        <time>2024-11-03T11:48:15Z</time>
      </trkpt>
      <trkpt lat="48.18454" lon="6.6055">
        <ele>508.7</ele>
        <time>2024-11-03T11:48:22Z</time>
      </trkpt>
      <trkpt lat="48.18461" lon="6.60561">
        <ele>509.4</ele>
        <time>2024-11-03T11:48:30Z</time>
      </trkpt>
      <trkpt lat="48.18468" lon="6.6057">
        <ele>510.1</ele>
        <time>2024-11-03T11:48:38Z</time>
      </trkpt>
      <trkpt lat="48.18474" lon="6.60581">
        <ele>510.7</ele>
        <time>2024-11-03T11:48:45Z</time>
      </trkpt>
      <trkpt lat="48.1848" lon="6.60593">
        <ele>511.2</ele>
        <time>2024-11-03T11:48:52Z</time>
      </trkpt>
      <trkpt lat="48.18486" lon="6.60603">
        <ele>511.7</ele>
        <time>2024-11-03T11:48:59Z</time>
      </trkpt>
      <trkpt lat="48.18492" lon="6.60615">
        <ele>512.2</ele>
        <time>2024-11-03T11:49:06Z</time>
      </trkpt>
      <trkpt lat="48.18499" lon="6.60627">
        <ele>512.6</ele>
        <time>2024-11-03T11:49:14Z</time>
      </trkpt>
      <trkpt lat="48.18506" lon="6.60638">
        <ele>513.1</ele>
        <time>2024-11-03T11:49:22Z</time>
      </trkpt>
      <trkpt lat="48.18512" lon="6.60648">
        <ele>513.5</ele>
        <time>2024-11-03T11:49:29Z</time>
      </trkpt>
      <trkpt lat="48.18518" lon="6.60659">
        <ele>513.8</ele>
        <time>2024-11-03T11:49:36Z</time>
      </trkpt>
      <trkpt lat="48.18526" lon="6.60669">
        <ele>514.2</ele>
        <time>2024-11-03T11:49:42Z</time>
      </trkpt>
      <trkpt lat="48.18533" lon="6.60679">
        <ele>514.4</ele>
        <time>2024-11-03T11:49:49Z</time>
      </trkpt>
      <trkpt lat="48.18539" lon="6.60691">
        <ele>514.6</ele>
        <time>2024-11-03T11:49:57Z</time>
      </trkpt>
      <trkpt lat="48.18543" lon="6.60704">
        <ele>514.7</ele>
        <time>2024-11-03T11:50:06Z</time>
      </trkpt>
      <trkpt lat="48.18547" lon="6.60718">
        <ele>514.9</ele>
        <time>2024-11-03T11:50:14Z</time>
      </trkpt>
      <trkpt lat="48.18551" lon="6.60731">
        <ele>515</ele>
        <time>2024-11-03T11:50:22Z</time>
      </trkpt>
      <trkpt lat="48.18556" lon="6.60744">
        <ele>515.2</ele>
        <time>2024-11-03T11:50:29Z</time>
      </trkpt>
      <trkpt lat="48.18561" lon="6.60756">
        <ele>515.4</ele>
        <time>2024-11-03T11:50:37Z</time>
      </trkpt>
      <trkpt lat="48.18567" lon="6.60767">
        <ele>515.5</ele>
        <time>2024-11-03T11:50:43Z</time>
      </trkpt>
      <trkpt lat="48.18573" lon="6.60778">
        <ele>515.7</ele>
        <time>2024-11-03T11:50:49Z</time>
      </trkpt>
      <trkpt lat="48.18579" lon="6.60789">
        <ele>515.9</ele>
        <time>2024-11-03T11:50:55Z</time>
      </trkpt>
      <trkpt lat="48.18583" lon="6.60801">
        <ele>516.1</ele>
        <time>2024-11-03T11:51:02Z</time>
      </trkpt>
      <trkpt lat="48.18588" lon="6.60814">
        <ele>516.4</ele>
        <time>2024-11-03T11:51:09Z</time>
      </trkpt>
      <trkpt lat="48.18593" lon="6.60826">
        <ele>516.7</ele>
        <time>2024-11-03T11:51:15Z</time>
      </trkpt>
      <trkpt lat="48.18599" lon="6.60837">
        <ele>516.9</ele>
        <time>2024-11-03T11:51:22Z</time>
      </trkpt>
      <trkpt lat="48.18604" lon="6.60849">
        <ele>517.2</ele>
        <time>2024-11-03T11:51:29Z</time>
      </trkpt>
      <trkpt lat="48.18609" lon="6.60861">
        <ele>517.5</ele>
        <time>2024-11-03T11:51:36Z</time>
      </trkpt>
      <trkpt lat="48.18614" lon="6.60873">
        <ele>517.9</ele>
        <time>2024-11-03T11:51:43Z</time>
      </trkpt>
      <trkpt lat="48.18619" lon="6.60887">
        <ele>518.2</ele>
        <time>2024-11-03T11:51:51Z</time>
      </trkpt>
      <trkpt lat="48.18623" lon="6.609">
        <ele>518.5</ele>
        <time>2024-11-03T11:51:57Z</time>
      </trkpt>
      <trkpt lat="48.18628" lon="6.60911">
        <ele>518.8</ele>
        <time>2024-11-03T11:52:04Z</time>
      </trkpt>
      <trkpt lat="48.18633" lon="6.60925">
        <ele>519</ele>
        <time>2024-11-03T11:52:12Z</time>
      </trkpt>
      <trkpt lat="48.18637" lon="6.60937">
        <ele>519.2</ele>
        <time>2024-11-03T11:52:19Z</time>
      </trkpt>
      <trkpt lat="48.1864" lon="6.60951">
        <ele>519.4</ele>
        <time>2024-11-03T11:52:26Z</time>
      </trkpt>
      <trkpt lat="48.18642" lon="6.60964">
        <ele>519.6</ele>
        <time>2024-11-03T11:52:33Z</time>
      </trkpt>
      <trkpt lat="48.18645" lon="6.60978">
        <ele>519.8</ele>
        <time>2024-11-03T11:52:40Z</time>
      </trkpt>
      <trkpt lat="48.18645" lon="6.60993">
        <ele>520.1</ele>
        <time>2024-11-03T11:52:47Z</time>
      </trkpt>
      <trkpt lat="48.18648" lon="6.61007">
        <ele>520.4</ele>
        <time>2024-11-03T11:52:54Z</time>
      </trkpt>
      <trkpt lat="48.1865" lon="6.61022">
        <ele>520.7</ele>
        <time>2024-11-03T11:53:02Z</time>
      </trkpt>
      <trkpt lat="48.18654" lon="6.61035">
        <ele>521.1</ele>
        <time>2024-11-03T11:53:08Z</time>
      </trkpt>
      <trkpt lat="48.18658" lon="6.61048">
        <ele>521.6</ele>
        <time>2024-11-03T11:53:15Z</time>
      </trkpt>
      <trkpt lat="48.1866" lon="6.61054">
        <ele>521.8</ele>
        <time>2024-11-03T11:53:22Z</time>
      </trkpt>
      <trkpt lat="48.1866" lon="6.61054">
        <ele>521.8</ele>
        <time>2024-11-03T11:53:23Z</time>
      </trkpt>
      <trkpt lat="48.1866" lon="6.61054">
        <ele>521.8</ele>
        <time>2024-11-03T11:53:24Z</time>
      </trkpt>
      <trkpt lat="48.18661" lon="6.61057">
        <ele>521.8</ele>
        <time>2024-11-03T11:53:32Z</time>
      </trkpt>
      <trkpt lat="48.18662" lon="6.61058">
        <ele>521.9</ele>
        <time>2024-11-03T11:53:33Z</time>
      </trkpt>
      <trkpt lat="48.18663" lon="6.6106">
        <ele>522</ele>
        <time>2024-11-03T11:53:34Z</time>
      </trkpt>
      <trkpt lat="48.18668" lon="6.61072">
        <ele>522.5</ele>
        <time>2024-11-03T11:53:41Z</time>
      </trkpt>
      <trkpt lat="48.18659" lon="6.6108">
        <ele>521.8</ele>
        <time>2024-11-03T11:53:56Z</time>
      </trkpt>
      <trkpt lat="48.18649" lon="6.61081">
        <ele>521</ele>
        <time>2024-11-03T11:54:04Z</time>
      </trkpt>
      <trkpt lat="48.1864" lon="6.61081">
        <ele>520</ele>
        <time>2024-11-03T11:54:12Z</time>
      </trkpt>
      <trkpt lat="48.18633" lon="6.61072">
        <ele>518.9</ele>
        <time>2024-11-03T11:54:22Z</time>
      </trkpt>
      <trkpt lat="48.18627" lon="6.61062">
        <ele>517.8</ele>
        <time>2024-11-03T11:54:31Z</time>
      </trkpt>
      <trkpt lat="48.18623" lon="6.6105">
        <ele>516.8</ele>
        <time>2024-11-03T11:54:38Z</time>
      </trkpt>
      <trkpt lat="48.18619" lon="6.61036">
        <ele>515.6</ele>
        <time>2024-11-03T11:54:47Z</time>
      </trkpt>
      <trkpt lat="48.18615" lon="6.61022">
        <ele>514.5</ele>
        <time>2024-11-03T11:54:57Z</time>
      </trkpt>
      <trkpt lat="48.18611" lon="6.61008">
        <ele>513.4</ele>
        <time>2024-11-03T11:55:05Z</time>
      </trkpt>
      <trkpt lat="48.18607" lon="6.60994">
        <ele>512.4</ele>
        <time>2024-11-03T11:55:12Z</time>
      </trkpt>
      <trkpt lat="48.18604" lon="6.60981">
        <ele>511.3</ele>
        <time>2024-11-03T11:55:19Z</time>
      </trkpt>
      <trkpt lat="48.18601" lon="6.60967">
        <ele>510.2</ele>
        <time>2024-11-03T11:55:27Z</time>
      </trkpt>
      <trkpt lat="48.18595" lon="6.60956">
        <ele>509.2</ele>
        <time>2024-11-03T11:55:35Z</time>
      </trkpt>
      <trkpt lat="48.18591" lon="6.60943">
        <ele>508.3</ele>
        <time>2024-11-03T11:55:42Z</time>
      </trkpt>
      <trkpt lat="48.18586" lon="6.60931">
        <ele>507.5</ele>
        <time>2024-11-03T11:55:49Z</time>
      </trkpt>
      <trkpt lat="48.18582" lon="6.60917">
        <ele>506.5</ele>
        <time>2024-11-03T11:55:57Z</time>
      </trkpt>
      <trkpt lat="48.18577" lon="6.60904">
        <ele>505.4</ele>
        <time>2024-11-03T11:56:05Z</time>
      </trkpt>
      <trkpt lat="48.18573" lon="6.6089">
        <ele>504.1</ele>
        <time>2024-11-03T11:56:13Z</time>
      </trkpt>
      <trkpt lat="48.18569" lon="6.60877">
        <ele>502.9</ele>
        <time>2024-11-03T11:56:21Z</time>
      </trkpt>
      <trkpt lat="48.18564" lon="6.60866">
        <ele>501.6</ele>
        <time>2024-11-03T11:56:29Z</time>
      </trkpt>
      <trkpt lat="48.18557" lon="6.60854">
        <ele>500.1</ele>
        <time>2024-11-03T11:56:37Z</time>
      </trkpt>
      <trkpt lat="48.18551" lon="6.60842">
        <ele>498.8</ele>
        <time>2024-11-03T11:56:44Z</time>
      </trkpt>
      <trkpt lat="48.18546" lon="6.60831">
        <ele>497.5</ele>
        <time>2024-11-03T11:56:51Z</time>
      </trkpt>
      <trkpt lat="48.18539" lon="6.60818">
        <ele>496.2</ele>
        <time>2024-11-03T11:56:59Z</time>
      </trkpt>
      <trkpt lat="48.18533" lon="6.60807">
        <ele>495.1</ele>
        <time>2024-11-03T11:57:05Z</time>
      </trkpt>
      <trkpt lat="48.18527" lon="6.60797">
        <ele>494.2</ele>
        <time>2024-11-03T11:57:11Z</time>
      </trkpt>
      <trkpt lat="48.1852" lon="6.60786">
        <ele>493.1</ele>
        <time>2024-11-03T11:57:18Z</time>
      </trkpt>
      <trkpt lat="48.18511" lon="6.60777">
        <ele>491.9</ele>
        <time>2024-11-03T11:57:25Z</time>
      </trkpt>
      <trkpt lat="48.18504" lon="6.60769">
        <ele>491</ele>
        <time>2024-11-03T11:57:32Z</time>
      </trkpt>
      <trkpt lat="48.18497" lon="6.6076">
        <ele>490.1</ele>
        <time>2024-11-03T11:57:39Z</time>
      </trkpt>
      <trkpt lat="48.18489" lon="6.60753">
        <ele>489.1</ele>
        <time>2024-11-03T11:57:46Z</time>
      </trkpt>
      <trkpt lat="48.18481" lon="6.60745">
        <ele>488</ele>
        <time>2024-11-03T11:57:53Z</time>
      </trkpt>
      <trkpt lat="48.18472" lon="6.60738">
        <ele>486.8</ele>
        <time>2024-11-03T11:57:59Z</time>
      </trkpt>
      <trkpt lat="48.18463" lon="6.60732">
        <ele>485.8</ele>
        <time>2024-11-03T11:58:07Z</time>
      </trkpt>
      <trkpt lat="48.18457" lon="6.60723">
        <ele>484.9</ele>
        <time>2024-11-03T11:58:15Z</time>
      </trkpt>
      <trkpt lat="48.18447" lon="6.60715">
        <ele>483.8</ele>
        <time>2024-11-03T11:58:22Z</time>
      </trkpt>
      <trkpt lat="48.18439" lon="6.60706">
        <ele>482.8</ele>
        <time>2024-11-03T11:58:29Z</time>
      </trkpt>
      <trkpt lat="48.18432" lon="6.60698">
        <ele>481.9</ele>
        <time>2024-11-03T11:58:39Z</time>
      </trkpt>
      <trkpt lat="48.18423" lon="6.60693">
        <ele>481.1</ele>
        <time>2024-11-03T11:58:46Z</time>
      </trkpt>
      <trkpt lat="48.18414" lon="6.60687">
        <ele>480.2</ele>
        <time>2024-11-03T11:58:52Z</time>
      </trkpt>
      <trkpt lat="48.18405" lon="6.60681">
        <ele>479.4</ele>
        <time>2024-11-03T11:58:59Z</time>
      </trkpt>
      <trkpt lat="48.18396" lon="6.60675">
        <ele>478.6</ele>
        <time>2024-11-03T11:59:04Z</time>
      </trkpt>
      <trkpt lat="48.18387" lon="6.6067">
        <ele>477.8</ele>
        <time>2024-11-03T11:59:11Z</time>
      </trkpt>
      <trkpt lat="48.18378" lon="6.60662">
        <ele>476.9</ele>
        <time>2024-11-03T11:59:18Z</time>
      </trkpt>
      <trkpt lat="48.18369" lon="6.60657">
        <ele>476.1</ele>
        <time>2024-11-03T11:59:25Z</time>
      </trkpt>
      <trkpt lat="48.1836" lon="6.6065">
        <ele>475.2</ele>
        <time>2024-11-03T11:59:34Z</time>
      </trkpt>
      <trkpt lat="48.1835" lon="6.60645">
        <ele>474.2</ele>
        <time>2024-11-03T11:59:41Z</time>
      </trkpt>
      <trkpt lat="48.18342" lon="6.6065">
        <ele>473.4</ele>
        <time>2024-11-03T11:59:49Z</time>
      </trkpt>
      <trkpt lat="48.18332" lon="6.60648">
        <ele>472.5</ele>
        <time>2024-11-03T11:59:57Z</time>
      </trkpt>
      <trkpt lat="48.18323" lon="6.60644">
        <ele>471.6</ele>
        <time>2024-11-03T12:00:04Z</time>
      </trkpt>
      <trkpt lat="48.18315" lon="6.60638">
        <ele>470.8</ele>
        <time>2024-11-03T12:00:11Z</time>
      </trkpt>
      <trkpt lat="48.18305" lon="6.60638">
        <ele>469.8</ele>
        <time>2024-11-03T12:00:18Z</time>
      </trkpt>
      <trkpt lat="48.18296" lon="6.6064">
        <ele>469</ele>
        <time>2024-11-03T12:00:24Z</time>
      </trkpt>
      <trkpt lat="48.18286" lon="6.60642">
        <ele>468.3</ele>
        <time>2024-11-03T12:00:30Z</time>
      </trkpt>
      <trkpt lat="48.18278" lon="6.60647">
        <ele>467.9</ele>
        <time>2024-11-03T12:00:36Z</time>
      </trkpt>
      <trkpt lat="48.18269" lon="6.60655">
        <ele>467.3</ele>
        <time>2024-11-03T12:00:42Z</time>
      </trkpt>
      <trkpt lat="48.18259" lon="6.6066">
        <ele>466.7</ele>
        <time>2024-11-03T12:00:49Z</time>
      </trkpt>
      <trkpt lat="48.18251" lon="6.6067">
        <ele>466.2</ele>
        <time>2024-11-03T12:00:56Z</time>
      </trkpt>
      <trkpt lat="48.18242" lon="6.60677">
        <ele>465.9</ele>
        <time>2024-11-03T12:01:04Z</time>
      </trkpt>
      <trkpt lat="48.18233" lon="6.60684">
        <ele>465.6</ele>
        <time>2024-11-03T12:01:12Z</time>
      </trkpt>
      <trkpt lat="48.18224" lon="6.60689">
        <ele>465.3</ele>
        <time>2024-11-03T12:01:21Z</time>
      </trkpt>
      <trkpt lat="48.18214" lon="6.6069">
        <ele>465.1</ele>
        <time>2024-11-03T12:01:30Z</time>
      </trkpt>
      <trkpt lat="48.18205" lon="6.6069">
        <ele>464.8</ele>
        <time>2024-11-03T12:01:37Z</time>
      </trkpt>
      <trkpt lat="48.18195" lon="6.6069">
        <ele>464.4</ele>
        <time>2024-11-03T12:01:44Z</time>
      </trkpt>
      <trkpt lat="48.18187" lon="6.60683">
        <ele>464</ele>
        <time>2024-11-03T12:01:52Z</time>
      </trkpt>
      <trkpt lat="48.18178" lon="6.60677">
        <ele>463.5</ele>
        <time>2024-11-03T12:02:06Z</time>
      </trkpt>
      <trkpt lat="48.1817" lon="6.60671">
        <ele>462.8</ele>
        <time>2024-11-03T12:02:13Z</time>
      </trkpt>
      <trkpt lat="48.18163" lon="6.60661">
        <ele>462</ele>
        <time>2024-11-03T12:02:24Z</time>
      </trkpt>
      <trkpt lat="48.18156" lon="6.60651">
        <ele>461.2</ele>
        <time>2024-11-03T12:02:32Z</time>
      </trkpt>
      <trkpt lat="48.18146" lon="6.60646">
        <ele>460.4</ele>
        <time>2024-11-03T12:02:38Z</time>
      </trkpt>
      <trkpt lat="48.18137" lon="6.6064">
        <ele>460</ele>
        <time>2024-11-03T12:02:44Z</time>
      </trkpt>
      <trkpt lat="48.18128" lon="6.60634">
        <ele>459.8</ele>
        <time>2024-11-03T12:02:52Z</time>
      </trkpt>
      <trkpt lat="48.1812" lon="6.60627">
        <ele>459.9</ele>
        <time>2024-11-03T12:03:00Z</time>
      </trkpt>
      <trkpt lat="48.18111" lon="6.60622">
        <ele>460.1</ele>
        <time>2024-11-03T12:03:07Z</time>
      </trkpt>
      <trkpt lat="48.18101" lon="6.60617">
        <ele>460.6</ele>
        <time>2024-11-03T12:03:13Z</time>
      </trkpt>
      <trkpt lat="48.18092" lon="6.60614">
        <ele>461</ele>
        <time>2024-11-03T12:03:19Z</time>
      </trkpt>
      <trkpt lat="48.18082" lon="6.60613">
        <ele>461.4</ele>
        <time>2024-11-03T12:03:25Z</time>
      </trkpt>
      <trkpt lat="48.18073" lon="6.60609">
        <ele>461.6</ele>
        <time>2024-11-03T12:03:32Z</time>
      </trkpt>
      <trkpt lat="48.18063" lon="6.60608">
        <ele>461.4</ele>
        <time>2024-11-03T12:03:40Z</time>
      </trkpt>
      <trkpt lat="48.18053" lon="6.60605">
        <ele>461</ele>
        <time>2024-11-03T12:03:47Z</time>
      </trkpt>
      <trkpt lat="48.18044" lon="6.60603">
        <ele>460.5</ele>
        <time>2024-11-03T12:03:56Z</time>
      </trkpt>
      <trkpt lat="48.18035" lon="6.60596">
        <ele>459.7</ele>
        <time>2024-11-03T12:04:04Z</time>
      </trkpt>
      <trkpt lat="48.18028" lon="6.60587">
        <ele>459</ele>
        <time>2024-11-03T12:04:10Z</time>
      </trkpt>
      <trkpt lat="48.18019" lon="6.60582">
        <ele>458.2</ele>
        <time>2024-11-03T12:04:18Z</time>
      </trkpt>
      <trkpt lat="48.18009" lon="6.60578">
        <ele>457.2</ele>
        <time>2024-11-03T12:04:27Z</time>
      </trkpt>
      <trkpt lat="48.17999" lon="6.60575">
        <ele>456.3</ele>
        <time>2024-11-03T12:04:33Z</time>
      </trkpt>
      <trkpt lat="48.1799" lon="6.60571">
        <ele>455.4</ele>
        <time>2024-11-03T12:04:40Z</time>
      </trkpt>
      <trkpt lat="48.1798" lon="6.60569">
        <ele>454.3</ele>
        <time>2024-11-03T12:04:47Z</time>
      </trkpt>
      <trkpt lat="48.17971" lon="6.60565">
        <ele>453.2</ele>
        <time>2024-11-03T12:04:54Z</time>
      </trkpt>
      <trkpt lat="48.17963" lon="6.60558">
        <ele>451.9</ele>
        <time>2024-11-03T12:05:02Z</time>
      </trkpt>
      <trkpt lat="48.17956" lon="6.60548">
        <ele>450.3</ele>
        <time>2024-11-03T12:05:11Z</time>
      </trkpt>
      <trkpt lat="48.17947" lon="6.60544">
        <ele>448.6</ele>
        <time>2024-11-03T12:05:31Z</time>
      </trkpt>
      <trkpt lat="48.17945" lon="6.60541">
        <ele>448</ele>
        <time>2024-11-03T12:05:39Z</time>
      </trkpt>
      <trkpt lat="48.17945" lon="6.60541">
        <ele>448</ele>
        <time>2024-11-03T12:05:40Z</time>
      </trkpt>
      <trkpt lat="48.17945" lon="6.60541">
        <ele>448</ele>
        <time>2024-11-03T12:05:41Z</time>
      </trkpt>
      <trkpt lat="48.17945" lon="6.60541">
        <ele>447.9</ele>
        <time>2024-11-03T12:05:50Z</time>
      </trkpt>
      <trkpt lat="48.17944" lon="6.6054">
        <ele>447.8</ele>
        <time>2024-11-03T12:05:51Z</time>
      </trkpt>
      <trkpt lat="48.17944" lon="6.6054">
        <ele>447.8</ele>
        <time>2024-11-03T12:05:52Z</time>
      </trkpt>
      <trkpt lat="48.17944" lon="6.6054">
        <ele>447.8</ele>
        <time>2024-11-03T12:05:53Z</time>
      </trkpt>
      <trkpt lat="48.17944" lon="6.6054">
        <ele>447.8</ele>
        <time>2024-11-03T12:05:54Z</time>
      </trkpt>
      <trkpt lat="48.17944" lon="6.6054">
        <ele>447.8</ele>
        <time>2024-11-03T12:05:55Z</time>
      </trkpt>
      <trkpt lat="48.17942" lon="6.6054">
        <ele>447.4</ele>
        <time>2024-11-03T12:05:58Z</time>
      </trkpt>
      <trkpt lat="48.17941" lon="6.60539">
        <ele>447.2</ele>
        <time>2024-11-03T12:05:59Z</time>
      </trkpt>
      <trkpt lat="48.1794" lon="6.60538">
        <ele>447.1</ele>
        <time>2024-11-03T12:06:00Z</time>
      </trkpt>
      <trkpt lat="48.17934" lon="6.60527">
        <ele>445.6</ele>
        <time>2024-11-03T12:06:08Z</time>
      </trkpt>
      <trkpt lat="48.17928" lon="6.60516">
        <ele>444.3</ele>
        <time>2024-11-03T12:06:17Z</time>
      </trkpt>
      <trkpt lat="48.17921" lon="6.60506">
        <ele>443.2</ele>
        <time>2024-11-03T12:06:27Z</time>
      </trkpt>
      <trkpt lat="48.17913" lon="6.60498">
        <ele>442.3</ele>
        <time>2024-11-03T12:06:34Z</time>
      </trkpt>
      <trkpt lat="48.17906" lon="6.60489">
        <ele>441.5</ele>
        <time>2024-11-03T12:06:42Z</time>
      </trkpt>
      <trkpt lat="48.179" lon="6.60479">
        <ele>441</ele>
        <time>2024-11-03T12:06:58Z</time>
      </trkpt>
      <trkpt lat="48.179" lon="6.60479">
        <ele>440.9</ele>
        <time>2024-11-03T12:07:05Z</time>
      </trkpt>
      <trkpt lat="48.179" lon="6.60479">
        <ele>440.9</ele>
        <time>2024-11-03T12:07:06Z</time>
      </trkpt>
      <trkpt lat="48.179" lon="6.60479">
        <ele>440.9</ele>
        <time>2024-11-03T12:07:15Z</time>
      </trkpt>
      <trkpt lat="48.17899" lon="6.60479">
        <ele>440.9</ele>
        <time>2024-11-03T12:07:16Z</time>
      </trkpt>
      <trkpt lat="48.17898" lon="6.60465">
        <ele>440.5</ele>
        <time>2024-11-03T12:07:24Z</time>
      </trkpt>
      <trkpt lat="48.17896" lon="6.60451">
        <ele>440.1</ele>
        <time>2024-11-03T12:07:32Z</time>
      </trkpt>
      <trkpt lat="48.17892" lon="6.60437">
        <ele>439.7</ele>
        <time>2024-11-03T12:07:40Z</time>
      </trkpt>
      <trkpt lat="48.17888" lon="6.60423">
        <ele>439.4</ele>
        <time>2024-11-03T12:07:47Z</time>
      </trkpt>
      <trkpt lat="48.17883" lon="6.6041">
        <ele>439</ele>
        <time>2024-11-03T12:07:54Z</time>
      </trkpt>
      <trkpt lat="48.17878" lon="6.60398">
        <ele>438.7</ele>
        <time>2024-11-03T12:08:01Z</time>
      </trkpt>
      <trkpt lat="48.17872" lon="6.60387">
        <ele>438.5</ele>
        <time>2024-11-03T12:08:08Z</time>
      </trkpt>
      <trkpt lat="48.17868" lon="6.60373">
        <ele>438.2</ele>
        <time>2024-11-03T12:08:16Z</time>
      </trkpt>
      <trkpt lat="48.17865" lon="6.6036">
        <ele>438</ele>
        <time>2024-11-03T12:08:23Z</time>
      </trkpt>
      <trkpt lat="48.17861" lon="6.60346">
        <ele>437.7</ele>
        <time>2024-11-03T12:08:30Z</time>
      </trkpt>
      <trkpt lat="48.17859" lon="6.60332">
        <ele>437.5</ele>
        <time>2024-11-03T12:08:37Z</time>
      </trkpt>
      <trkpt lat="48.17858" lon="6.60317">
        <ele>437.3</ele>
        <time>2024-11-03T12:08:44Z</time>
      </trkpt>
      <trkpt lat="48.17857" lon="6.60303">
        <ele>437</ele>
        <time>2024-11-03T12:08:51Z</time>
      </trkpt>
      <trkpt lat="48.17854" lon="6.60289">
        <ele>436.8</ele>
        <time>2024-11-03T12:08:59Z</time>
      </trkpt>
      <trkpt lat="48.1785" lon="6.60276">
        <ele>436.6</ele>
        <time>2024-11-03T12:09:05Z</time>
      </trkpt>
      <trkpt lat="48.17846" lon="6.60264">
        <ele>436.4</ele>
        <time>2024-11-03T12:09:12Z</time>
      </trkpt>
      <trkpt lat="48.17841" lon="6.60252">
        <ele>436.2</ele>
        <time>2024-11-03T12:09:19Z</time>
      </trkpt>
      <trkpt lat="48.17837" lon="6.6024">
        <ele>436</ele>
        <time>2024-11-03T12:09:25Z</time>
      </trkpt>
      <trkpt lat="48.17837" lon="6.60226">
        <ele>435.7</ele>
        <time>2024-11-03T12:09:34Z</time>
      </trkpt>
      <trkpt lat="48.17836" lon="6.60212">
        <ele>435.4</ele>
        <time>2024-11-03T12:09:43Z</time>
      </trkpt>
      <trkpt lat="48.17835" lon="6.60197">
        <ele>435.2</ele>
        <time>2024-11-03T12:09:50Z</time>
      </trkpt>
      <trkpt lat="48.17832" lon="6.60182">
        <ele>434.9</ele>
        <time>2024-11-03T12:09:56Z</time>
      </trkpt>
      <trkpt lat="48.17824" lon="6.60173">
        <ele>434.6</ele>
        <time>2024-11-03T12:10:02Z</time>
      </trkpt>
      <trkpt lat="48.17815" lon="6.60175">
        <ele>434.5</ele>
        <time>2024-11-03T12:10:07Z</time>
      </trkpt>
      <trkpt lat="48.17807" lon="6.60183">
        <ele>434.5</ele>
        <time>2024-11-03T12:10:13Z</time>
      </trkpt>
      <trkpt lat="48.17799" lon="6.60191">
        <ele>434.7</ele>
        <time>2024-11-03T12:10:19Z</time>
      </trkpt>
      <trkpt lat="48.17791" lon="6.60198">
        <ele>435</ele>
        <time>2024-11-03T12:10:25Z</time>
      </trkpt>
      <trkpt lat="48.17783" lon="6.60206">
        <ele>435.3</ele>
        <time>2024-11-03T12:10:32Z</time>
      </trkpt>
      <trkpt lat="48.17774" lon="6.60213">
        <ele>435.7</ele>
        <time>2024-11-03T12:10:39Z</time>
      </trkpt>
      <trkpt lat="48.17765" lon="6.60219">
        <ele>436.2</ele>
        <time>2024-11-03T12:10:46Z</time>
      </trkpt>
      <trkpt lat="48.17757" lon="6.60225">
        <ele>436.8</ele>
        <time>2024-11-03T12:10:53Z</time>
      </trkpt>
      <trkpt lat="48.17749" lon="6.60233">
        <ele>437.6</ele>
        <time>2024-11-03T12:11:01Z</time>
      </trkpt>
      <trkpt lat="48.17742" lon="6.60243">
        <ele>438.4</ele>
        <time>2024-11-03T12:11:08Z</time>
      </trkpt>
      <trkpt lat="48.17736" lon="6.60256">
        <ele>439.2</ele>
        <time>2024-11-03T12:11:15Z</time>
      </trkpt>
      <trkpt lat="48.17735" lon="6.60271">
        <ele>440.2</ele>
        <time>2024-11-03T12:11:23Z</time>
      </trkpt>
      <trkpt lat="48.17741" lon="6.60284">
        <ele>441.2</ele>
        <time>2024-11-03T12:11:29Z</time>
      </trkpt>
      <trkpt lat="48.17744" lon="6.60298">
        <ele>442</ele>
        <time>2024-11-03T12:11:35Z</time>
      </trkpt>
      <trkpt lat="48.17746" lon="6.60312">
        <ele>442.7</ele>
        <time>2024-11-03T12:11:41Z</time>
      </trkpt>
      <trkpt lat="48.17749" lon="6.60327">
        <ele>443.6</ele>
        <time>2024-11-03T12:11:49Z</time>
      </trkpt>
      <trkpt lat="48.17752" lon="6.60341">
        <ele>444.1</ele>
        <time>2024-11-03T12:11:57Z</time>
      </trkpt>
      <trkpt lat="48.17756" lon="6.60353">
        <ele>444.6</ele>
        <time>2024-11-03T12:12:05Z</time>
      </trkpt>
      <trkpt lat="48.17757" lon="6.60369">
        <ele>445.3</ele>
        <time>2024-11-03T12:12:13Z</time>
      </trkpt>
      <trkpt lat="48.1776" lon="6.60376">
        <ele>445.4</ele>
        <time>2024-11-03T12:12:22Z</time>
      </trkpt>
      <trkpt lat="48.17759" lon="6.60376">
        <ele>445.4</ele>
        <time>2024-11-03T12:12:23Z</time>
      </trkpt>
      <trkpt lat="48.17759" lon="6.60376">
        <ele>445.6</ele>
        <time>2024-11-03T12:12:24Z</time>
      </trkpt>
      <trkpt lat="48.17759" lon="6.60376">
        <ele>445.7</ele>
        <time>2024-11-03T12:12:25Z</time>
      </trkpt>
      <trkpt lat="48.17759" lon="6.60376">
        <ele>445.7</ele>
        <time>2024-11-03T12:12:26Z</time>
      </trkpt>
      <trkpt lat="48.17759" lon="6.60376">
        <ele>445.7</ele>
        <time>2024-11-03T12:12:27Z</time>
      </trkpt>
      <trkpt lat="48.17759" lon="6.60376">
        <ele>445.8</ele>
        <time>2024-11-03T12:12:28Z</time>
      </trkpt>
      <trkpt lat="48.17759" lon="6.60376">
        <ele>445.8</ele>
        <time>2024-11-03T12:12:29Z</time>
      </trkpt>
      <trkpt lat="48.17759" lon="6.60372">
        <ele>445.5</ele>
        <time>2024-11-03T12:12:53Z</time>
      </trkpt>
      <trkpt lat="48.1776" lon="6.60372">
        <ele>445.5</ele>
        <time>2024-11-03T12:12:54Z</time>
      </trkpt>
      <trkpt lat="48.17756" lon="6.60386">
        <ele>446.6</ele>
        <time>2024-11-03T12:13:05Z</time>
      </trkpt>
      <trkpt lat="48.17749" lon="6.60397">
        <ele>447.7</ele>
        <time>2024-11-03T12:13:13Z</time>
      </trkpt>
      <trkpt lat="48.17745" lon="6.6041">
        <ele>448.7</ele>
        <time>2024-11-03T12:13:21Z</time>
      </trkpt>
      <trkpt lat="48.17739" lon="6.60423">
        <ele>449.4</ele>
        <time>2024-11-03T12:13:29Z</time>
      </trkpt>
      <trkpt lat="48.17735" lon="6.60437">
        <ele>450.2</ele>
        <time>2024-11-03T12:13:37Z</time>
      </trkpt>
      <trkpt lat="48.1773" lon="6.60449">
        <ele>450.9</ele>
        <time>2024-11-03T12:13:43Z</time>
      </trkpt>
      <trkpt lat="48.17724" lon="6.60459">
        <ele>451.3</ele>
        <time>2024-11-03T12:13:50Z</time>
      </trkpt>
      <trkpt lat="48.17721" lon="6.60472">
        <ele>451.6</ele>
        <time>2024-11-03T12:13:58Z</time>
      </trkpt>
      <trkpt lat="48.1772" lon="6.60486">
        <ele>451.9</ele>
        <time>2024-11-03T12:14:05Z</time>
      </trkpt>
      <trkpt lat="48.1772" lon="6.605">
        <ele>452.2</ele>
        <time>2024-11-03T12:14:11Z</time>
      </trkpt>
      <trkpt lat="48.17717" lon="6.60514">
        <ele>452.9</ele>
        <time>2024-11-03T12:14:17Z</time>
      </trkpt>
      <trkpt lat="48.17714" lon="6.60529">
        <ele>453.9</ele>
        <time>2024-11-03T12:14:24Z</time>
      </trkpt>
      <trkpt lat="48.17711" lon="6.60541">
        <ele>454.7</ele>
        <time>2024-11-03T12:14:30Z</time>
      </trkpt>
      <trkpt lat="48.17706" lon="6.60555">
        <ele>455.6</ele>
        <time>2024-11-03T12:14:38Z</time>
      </trkpt>
      <trkpt lat="48.17702" lon="6.60567">
        <ele>456.4</ele>
        <time>2024-11-03T12:14:46Z</time>
      </trkpt>
      <trkpt lat="48.17695" lon="6.60576">
        <ele>456.8</ele>
        <time>2024-11-03T12:14:55Z</time>
      </trkpt>
      <trkpt lat="48.17687" lon="6.60586">
        <ele>457</ele>
        <time>2024-11-03T12:15:02Z</time>
      </trkpt>
      <trkpt lat="48.1768" lon="6.60597">
        <ele>457.2</ele>
        <time>2024-11-03T12:15:08Z</time>
      </trkpt>
      <trkpt lat="48.17672" lon="6.60604">
        <ele>457.3</ele>
        <time>2024-11-03T12:15:16Z</time>
      </trkpt>
      <trkpt lat="48.17663" lon="6.60613">
        <ele>457.5</ele>
        <time>2024-11-03T12:15:25Z</time>
      </trkpt>
      <trkpt lat="48.17657" lon="6.60622">
        <ele>457.8</ele>
        <time>2024-11-03T12:15:32Z</time>
      </trkpt>
      <trkpt lat="48.17651" lon="6.60633">
        <ele>458.2</ele>
        <time>2024-11-03T12:15:38Z</time>
      </trkpt>
      <trkpt lat="48.17644" lon="6.60644">
        <ele>459</ele>
        <time>2024-11-03T12:15:45Z</time>
      </trkpt>
      <trkpt lat="48.17637" lon="6.60652">
        <ele>459.7</ele>
        <time>2024-11-03T12:15:52Z</time>
      </trkpt>
      <trkpt lat="48.17629" lon="6.60662">
        <ele>460.6</ele>
        <time>2024-11-03T12:16:00Z</time>
      </trkpt>
      <trkpt lat="48.17621" lon="6.60672">
        <ele>461.6</ele>
        <time>2024-11-03T12:16:06Z</time>
      </trkpt>
      <trkpt lat="48.17615" lon="6.60682">
        <ele>462.7</ele>
        <time>2024-11-03T12:16:13Z</time>
      </trkpt>
      <trkpt lat="48.17606" lon="6.6069">
        <ele>464</ele>
        <time>2024-11-03T12:16:21Z</time>
      </trkpt>
      <trkpt lat="48.17598" lon="6.60698">
        <ele>465.1</ele>
        <time>2024-11-03T12:16:28Z</time>
      </trkpt>
      <trkpt lat="48.17593" lon="6.60711">
        <ele>466.1</ele>
        <time>2024-11-03T12:16:34Z</time>
      </trkpt>
      <trkpt lat="48.17587" lon="6.60721">
        <ele>466.9</ele>
        <time>2024-11-03T12:16:42Z</time>
      </trkpt>
      <trkpt lat="48.17578" lon="6.60729">
        <ele>467.4</ele>
        <time>2024-11-03T12:16:50Z</time>
      </trkpt>
      <trkpt lat="48.1757" lon="6.60737">
        <ele>467.6</ele>
        <time>2024-11-03T12:16:57Z</time>
      </trkpt>
      <trkpt lat="48.17561" lon="6.60745">
        <ele>467.8</ele>
        <time>2024-11-03T12:17:05Z</time>
      </trkpt>
      <trkpt lat="48.17553" lon="6.60751">
        <ele>467.9</ele>
        <time>2024-11-03T12:17:12Z</time>
      </trkpt>
      <trkpt lat="48.17545" lon="6.60759">
        <ele>468.2</ele>
        <time>2024-11-03T12:17:20Z</time>
      </trkpt>
      <trkpt lat="48.17536" lon="6.60765">
        <ele>468.8</ele>
        <time>2024-11-03T12:17:28Z</time>
      </trkpt>
      <trkpt lat="48.17526" lon="6.6077">
        <ele>469.5</ele>
        <time>2024-11-03T12:17:36Z</time>
      </trkpt>
      <trkpt lat="48.17518" lon="6.60777">
        <ele>470.1</ele>
        <time>2024-11-03T12:17:44Z</time>
      </trkpt>
      <trkpt lat="48.1751" lon="6.60785">
        <ele>470.5</ele>
        <time>2024-11-03T12:17:52Z</time>
      </trkpt>
      <trkpt lat="48.17503" lon="6.60795">
        <ele>470.7</ele>
        <time>2024-11-03T12:18:00Z</time>
      </trkpt>
      <trkpt lat="48.17495" lon="6.60804">
        <ele>471.2</ele>
        <time>2024-11-03T12:18:09Z</time>
      </trkpt>
      <trkpt lat="48.17488" lon="6.60811">
        <ele>471.1</ele>
        <time>2024-11-03T12:18:17Z</time>
      </trkpt>
      <trkpt lat="48.1748" lon="6.6082">
        <ele>471.2</ele>
        <time>2024-11-03T12:18:25Z</time>
      </trkpt>
      <trkpt lat="48.17471" lon="6.60828">
        <ele>471.5</ele>
        <time>2024-11-03T12:18:33Z</time>
      </trkpt>
      <trkpt lat="48.17464" lon="6.60837">
        <ele>472.1</ele>
        <time>2024-11-03T12:18:40Z</time>
      </trkpt>
      <trkpt lat="48.17458" lon="6.60848">
        <ele>472.4</ele>
        <time>2024-11-03T12:18:48Z</time>
      </trkpt>
      <trkpt lat="48.17451" lon="6.60859">
        <ele>472.8</ele>
        <time>2024-11-03T12:18:56Z</time>
      </trkpt>
      <trkpt lat="48.17444" lon="6.60871">
        <ele>473.4</ele>
        <time>2024-11-03T12:19:04Z</time>
      </trkpt>
      <trkpt lat="48.17438" lon="6.60882">
        <ele>474.7</ele>
        <time>2024-11-03T12:19:12Z</time>
      </trkpt>
      <trkpt lat="48.17432" lon="6.60892">
        <ele>475.5</ele>
        <time>2024-11-03T12:19:20Z</time>
      </trkpt>
      <trkpt lat="48.17425" lon="6.60903">
        <ele>476</ele>
        <time>2024-11-03T12:19:29Z</time>
      </trkpt>
      <trkpt lat="48.17418" lon="6.60913">
        <ele>476.4</ele>
        <time>2024-11-03T12:19:38Z</time>
      </trkpt>
      <trkpt lat="48.17412" lon="6.60923">
        <ele>476.7</ele>
        <time>2024-11-03T12:19:47Z</time>
      </trkpt>
      <trkpt lat="48.17405" lon="6.60933">
        <ele>477.4</ele>
        <time>2024-11-03T12:19:56Z</time>
      </trkpt>
      <trkpt lat="48.17399" lon="6.60945">
        <ele>478.5</ele>
        <time>2024-11-03T12:20:05Z</time>
      </trkpt>
      <trkpt lat="48.17394" lon="6.60956">
        <ele>479.5</ele>
        <time>2024-11-03T12:20:14Z</time>
      </trkpt>
      <trkpt lat="48.17392" lon="6.60962">
        <ele>480.1</ele>
        <time>2024-11-03T12:20:22Z</time>
      </trkpt>
      <trkpt lat="48.17392" lon="6.60962">
        <ele>480.2</ele>
        <time>2024-11-03T12:20:23Z</time>
      </trkpt>
      <trkpt lat="48.17392" lon="6.60963">
        <ele>480.2</ele>
        <time>2024-11-03T12:20:24Z</time>
      </trkpt>
      <trkpt lat="48.17392" lon="6.60963">
        <ele>480.2</ele>
        <time>2024-11-03T12:20:27Z</time>
      </trkpt>
      <trkpt lat="48.17392" lon="6.60963">
        <ele>480.2</ele>
        <time>2024-11-03T12:20:28Z</time>
      </trkpt>
      <trkpt lat="48.17392" lon="6.60963">
        <ele>480.2</ele>
        <time>2024-11-03T12:20:29Z</time>
      </trkpt>
      <trkpt lat="48.17392" lon="6.60963">
        <ele>480.2</ele>
        <time>2024-11-03T12:20:30Z</time>
      </trkpt>
      <trkpt lat="48.17392" lon="6.60963">
        <ele>480.2</ele>
        <time>2024-11-03T12:20:31Z</time>
      </trkpt>
      <trkpt lat="48.17393" lon="6.60961">
        <ele>480.2</ele>
        <time>2024-11-03T12:20:35Z</time>
      </trkpt>
      <trkpt lat="48.17393" lon="6.6096">
        <ele>480.1</ele>
        <time>2024-11-03T12:20:36Z</time>
      </trkpt>
      <trkpt lat="48.17392" lon="6.60957">
        <ele>480.1</ele>
        <time>2024-11-03T12:20:42Z</time>
      </trkpt>
      <trkpt lat="48.17392" lon="6.60957">
        <ele>480.1</ele>
        <time>2024-11-03T12:20:43Z</time>
      </trkpt>
      <trkpt lat="48.17392" lon="6.60957">
        <ele>480.1</ele>
        <time>2024-11-03T12:20:44Z</time>
      </trkpt>
      <trkpt lat="48.17392" lon="6.60957">
        <ele>480.1</ele>
        <time>2024-11-03T12:20:45Z</time>
      </trkpt>
      <trkpt lat="48.17392" lon="6.60957">
        <ele>480.1</ele>
        <time>2024-11-03T12:20:46Z</time>
      </trkpt>
      <trkpt lat="48.17392" lon="6.60957">
        <ele>480.1</ele>
        <time>2024-11-03T12:20:47Z</time>
      </trkpt>
      <trkpt lat="48.17392" lon="6.60957">
        <ele>480.1</ele>
        <time>2024-11-03T12:20:48Z</time>
      </trkpt>
      <trkpt lat="48.17392" lon="6.60957">
        <ele>480.1</ele>
        <time>2024-11-03T12:20:49Z</time>
      </trkpt>
      <trkpt lat="48.17393" lon="6.60958">
        <ele>480</ele>
        <time>2024-11-03T12:24:16Z</time>
      </trkpt>
      <trkpt lat="48.17393" lon="6.60958">
        <ele>480</ele>
        <time>2024-11-03T12:24:17Z</time>
      </trkpt>
      <trkpt lat="48.17393" lon="6.60958">
        <ele>480</ele>
        <time>2024-11-03T12:24:18Z</time>
      </trkpt>
      <trkpt lat="48.17393" lon="6.60958">
        <ele>480</ele>
        <time>2024-11-03T12:24:19Z</time>
      </trkpt>
      <trkpt lat="48.17393" lon="6.60958">
        <ele>480</ele>
        <time>2024-11-03T12:24:20Z</time>
      </trkpt>
      <trkpt lat="48.17393" lon="6.60959">
        <ele>480</ele>
        <time>2024-11-03T12:25:30Z</time>
      </trkpt>
      <trkpt lat="48.17393" lon="6.60959">
        <ele>480</ele>
        <time>2024-11-03T12:25:31Z</time>
      </trkpt>
      <trkpt lat="48.17393" lon="6.60959">
        <ele>480</ele>
        <time>2024-11-03T12:25:35Z</time>
      </trkpt>
      <trkpt lat="48.17393" lon="6.60959">
        <ele>480</ele>
        <time>2024-11-03T12:25:36Z</time>
      </trkpt>
      <trkpt lat="48.17393" lon="6.60959">
        <ele>480</ele>
        <time>2024-11-03T12:25:37Z</time>
      </trkpt>
      <trkpt lat="48.17393" lon="6.60959">
        <ele>480</ele>
        <time>2024-11-03T12:25:38Z</time>
      </trkpt>
      <trkpt lat="48.17393" lon="6.60959">
        <ele>480</ele>
        <time>2024-11-03T12:25:39Z</time>
      </trkpt>
      <trkpt lat="48.17393" lon="6.60959">
        <ele>480</ele>
        <time>2024-11-03T12:25:40Z</time>
      </trkpt>
      <trkpt lat="48.17393" lon="6.60959">
        <ele>480</ele>
        <time>2024-11-03T12:25:41Z</time>
      </trkpt>
      <trkpt lat="48.17393" lon="6.60959">
        <ele>480</ele>
        <time>2024-11-03T12:25:42Z</time>
      </trkpt>
      <trkpt lat="48.17393" lon="6.60959">
        <ele>480</ele>
        <time>2024-11-03T12:25:47Z</time>
      </trkpt>
      <trkpt lat="48.17393" lon="6.60959">
        <ele>480</ele>
        <time>2024-11-03T12:25:48Z</time>
      </trkpt>
      <trkpt lat="48.17393" lon="6.60959">
        <ele>480</ele>
        <time>2024-11-03T12:25:49Z</time>
      </trkpt>
      <trkpt lat="48.17393" lon="6.60959">
        <ele>480</ele>
        <time>2024-11-03T12:25:50Z</time>
      </trkpt>
      <trkpt lat="48.17393" lon="6.60959">
        <ele>480</ele>
        <time>2024-11-03T12:25:51Z</time>
      </trkpt>
      <trkpt lat="48.17393" lon="6.60959">
        <ele>480</ele>
        <time>2024-11-03T12:25:57Z</time>
      </trkpt>
      <trkpt lat="48.17394" lon="6.60959">
        <ele>480</ele>
        <time>2024-11-03T12:25:58Z</time>
      </trkpt>
      <trkpt lat="48.17394" lon="6.60959">
        <ele>480</ele>
        <time>2024-11-03T12:25:59Z</time>
      </trkpt>
      <trkpt lat="48.17395" lon="6.60972">
        <ele>479.7</ele>
        <time>2024-11-03T12:26:09Z</time>
      </trkpt>
      <trkpt lat="48.17399" lon="6.60986">
        <ele>479.5</ele>
        <time>2024-11-03T12:26:17Z</time>
      </trkpt>
      <trkpt lat="48.17401" lon="6.61">
        <ele>479.3</ele>
        <time>2024-11-03T12:26:25Z</time>
      </trkpt>
      <trkpt lat="48.17404" lon="6.61014">
        <ele>479.1</ele>
        <time>2024-11-03T12:26:33Z</time>
      </trkpt>
      <trkpt lat="48.17405" lon="6.61028">
        <ele>478.9</ele>
        <time>2024-11-03T12:26:41Z</time>
      </trkpt>
      <trkpt lat="48.17405" lon="6.61042">
        <ele>478.8</ele>
        <time>2024-11-03T12:26:49Z</time>
      </trkpt>
      <trkpt lat="48.17404" lon="6.61057">
        <ele>478.8</ele>
        <time>2024-11-03T12:26:57Z</time>
      </trkpt>
      <trkpt lat="48.17403" lon="6.61071">
        <ele>478.7</ele>
        <time>2024-11-03T12:27:05Z</time>
      </trkpt>
      <trkpt lat="48.174" lon="6.61085">
        <ele>478.7</ele>
        <time>2024-11-03T12:27:12Z</time>
      </trkpt>
      <trkpt lat="48.17397" lon="6.61099">
        <ele>478.6</ele>
        <time>2024-11-03T12:27:18Z</time>
      </trkpt>
      <trkpt lat="48.17394" lon="6.61112">
        <ele>478.6</ele>
        <time>2024-11-03T12:27:24Z</time>
      </trkpt>
      <trkpt lat="48.17393" lon="6.61126">
        <ele>478.6</ele>
        <time>2024-11-03T12:27:31Z</time>
      </trkpt>
      <trkpt lat="48.17392" lon="6.6114">
        <ele>478.6</ele>
        <time>2024-11-03T12:27:40Z</time>
      </trkpt>
      <trkpt lat="48.17392" lon="6.61153">
        <ele>478.7</ele>
        <time>2024-11-03T12:27:46Z</time>
      </trkpt>
      <trkpt lat="48.17391" lon="6.61168">
        <ele>478.9</ele>
        <time>2024-11-03T12:27:53Z</time>
      </trkpt>
      <trkpt lat="48.17388" lon="6.61182">
        <ele>479.1</ele>
        <time>2024-11-03T12:28:01Z</time>
      </trkpt>
      <trkpt lat="48.17387" lon="6.61197">
        <ele>479.4</ele>
        <time>2024-11-03T12:28:09Z</time>
      </trkpt>
      <trkpt lat="48.17387" lon="6.61211">
        <ele>479.6</ele>
        <time>2024-11-03T12:28:16Z</time>
      </trkpt>
      <trkpt lat="48.1739" lon="6.61225">
        <ele>479.9</ele>
        <time>2024-11-03T12:28:23Z</time>
      </trkpt>
      <trkpt lat="48.17392" lon="6.61239">
        <ele>480</ele>
        <time>2024-11-03T12:28:29Z</time>
      </trkpt>
      <trkpt lat="48.17395" lon="6.61253">
        <ele>480</ele>
        <time>2024-11-03T12:28:36Z</time>
      </trkpt>
      <trkpt lat="48.17398" lon="6.61267">
        <ele>480</ele>
        <time>2024-11-03T12:28:43Z</time>
      </trkpt>
      <trkpt lat="48.174" lon="6.61282">
        <ele>480.1</ele>
        <time>2024-11-03T12:28:51Z</time>
      </trkpt>
      <trkpt lat="48.17404" lon="6.61296">
        <ele>480.2</ele>
        <time>2024-11-03T12:28:58Z</time>
      </trkpt>
      <trkpt lat="48.17406" lon="6.61311">
        <ele>480.4</ele>
        <time>2024-11-03T12:29:05Z</time>
      </trkpt>
      <trkpt lat="48.17407" lon="6.61326">
        <ele>480.7</ele>
        <time>2024-11-03T12:29:13Z</time>
      </trkpt>
      <trkpt lat="48.17407" lon="6.6134">
        <ele>481</ele>
        <time>2024-11-03T12:29:20Z</time>
      </trkpt>
      <trkpt lat="48.17409" lon="6.61355">
        <ele>481.3</ele>
        <time>2024-11-03T12:29:28Z</time>
      </trkpt>
      <trkpt lat="48.17411" lon="6.6137">
        <ele>481.6</ele>
        <time>2024-11-03T12:29:35Z</time>
      </trkpt>
      <trkpt lat="48.17411" lon="6.61384">
        <ele>481.8</ele>
        <time>2024-11-03T12:29:41Z</time>
      </trkpt>
      <trkpt lat="48.1741" lon="6.61399">
        <ele>481.7</ele>
        <time>2024-11-03T12:29:48Z</time>
      </trkpt>
      <trkpt lat="48.1741" lon="6.61414">
        <ele>481.3</ele>
        <time>2024-11-03T12:29:56Z</time>
      </trkpt>
      <trkpt lat="48.17408" lon="6.61428">
        <ele>480.7</ele>
        <time>2024-11-03T12:30:04Z</time>
      </trkpt>
      <trkpt lat="48.17405" lon="6.61442">
        <ele>480</ele>
        <time>2024-11-03T12:30:12Z</time>
      </trkpt>
      <trkpt lat="48.174" lon="6.61455">
        <ele>479.3</ele>
        <time>2024-11-03T12:30:20Z</time>
      </trkpt>
      <trkpt lat="48.17395" lon="6.61467">
        <ele>478.7</ele>
        <time>2024-11-03T12:30:27Z</time>
      </trkpt>
      <trkpt lat="48.1739" lon="6.6148">
        <ele>478</ele>
        <time>2024-11-03T12:30:34Z</time>
      </trkpt>
      <trkpt lat="48.17385" lon="6.61492">
        <ele>477.4</ele>
        <time>2024-11-03T12:30:41Z</time>
      </trkpt>
      <trkpt lat="48.17381" lon="6.61505">
        <ele>476.6</ele>
        <time>2024-11-03T12:30:47Z</time>
      </trkpt>
      <trkpt lat="48.1738" lon="6.61519">
        <ele>475.7</ele>
        <time>2024-11-03T12:30:53Z</time>
      </trkpt>
      <trkpt lat="48.17378" lon="6.61532">
        <ele>474.8</ele>
        <time>2024-11-03T12:30:59Z</time>
      </trkpt>
      <trkpt lat="48.17375" lon="6.61546">
        <ele>473.9</ele>
        <time>2024-11-03T12:31:06Z</time>
      </trkpt>
      <trkpt lat="48.17372" lon="6.61559">
        <ele>473.1</ele>
        <time>2024-11-03T12:31:14Z</time>
      </trkpt>
      <trkpt lat="48.17369" lon="6.61572">
        <ele>472.3</ele>
        <time>2024-11-03T12:31:22Z</time>
      </trkpt>
      <trkpt lat="48.17366" lon="6.61586">
        <ele>471.5</ele>
        <time>2024-11-03T12:31:29Z</time>
      </trkpt>
      <trkpt lat="48.17361" lon="6.61599">
        <ele>470.8</ele>
        <time>2024-11-03T12:31:36Z</time>
      </trkpt>
      <trkpt lat="48.17357" lon="6.61611">
        <ele>470.3</ele>
        <time>2024-11-03T12:31:42Z</time>
      </trkpt>
      <trkpt lat="48.17353" lon="6.61624">
        <ele>469.7</ele>
        <time>2024-11-03T12:31:49Z</time>
      </trkpt>
      <trkpt lat="48.17348" lon="6.61637">
        <ele>469.2</ele>
        <time>2024-11-03T12:31:56Z</time>
      </trkpt>
      <trkpt lat="48.17344" lon="6.61649">
        <ele>468.7</ele>
        <time>2024-11-03T12:32:03Z</time>
      </trkpt>
      <trkpt lat="48.1734" lon="6.61661">
        <ele>468.2</ele>
        <time>2024-11-03T12:32:10Z</time>
      </trkpt>
      <trkpt lat="48.17336" lon="6.61674">
        <ele>467.6</ele>
        <time>2024-11-03T12:32:17Z</time>
      </trkpt>
      <trkpt lat="48.17333" lon="6.61687">
        <ele>467</ele>
        <time>2024-11-03T12:32:24Z</time>
      </trkpt>
      <trkpt lat="48.17329" lon="6.617">
        <ele>466.3</ele>
        <time>2024-11-03T12:32:32Z</time>
      </trkpt>
      <trkpt lat="48.17326" lon="6.61714">
        <ele>465.6</ele>
        <time>2024-11-03T12:32:39Z</time>
      </trkpt>
      <trkpt lat="48.17325" lon="6.61727">
        <ele>464.9</ele>
        <time>2024-11-03T12:32:46Z</time>
      </trkpt>
      <trkpt lat="48.17327" lon="6.61742">
        <ele>464.2</ele>
        <time>2024-11-03T12:32:56Z</time>
      </trkpt>
      <trkpt lat="48.17328" lon="6.61756">
        <ele>463.7</ele>
        <time>2024-11-03T12:33:02Z</time>
      </trkpt>
      <trkpt lat="48.17329" lon="6.61771">
        <ele>463.4</ele>
        <time>2024-11-03T12:33:09Z</time>
      </trkpt>
      <trkpt lat="48.17328" lon="6.61784">
        <ele>463.3</ele>
        <time>2024-11-03T12:33:16Z</time>
      </trkpt>
      <trkpt lat="48.17328" lon="6.61799">
        <ele>463.4</ele>
        <time>2024-11-03T12:33:24Z</time>
      </trkpt>
      <trkpt lat="48.17326" lon="6.61812">
        <ele>463.5</ele>
        <time>2024-11-03T12:33:31Z</time>
      </trkpt>
      <trkpt lat="48.17324" lon="6.61826">
        <ele>463.7</ele>
        <time>2024-11-03T12:33:38Z</time>
      </trkpt>
      <trkpt lat="48.17318" lon="6.61838">
        <ele>463.9</ele>
        <time>2024-11-03T12:33:45Z</time>
      </trkpt>
      <trkpt lat="48.17311" lon="6.61846">
        <ele>464.2</ele>
        <time>2024-11-03T12:33:53Z</time>
      </trkpt>
      <trkpt lat="48.17303" lon="6.61855">
        <ele>464.3</ele>
        <time>2024-11-03T12:34:00Z</time>
      </trkpt>
      <trkpt lat="48.17296" lon="6.61865">
        <ele>464.4</ele>
        <time>2024-11-03T12:34:07Z</time>
      </trkpt>
      <trkpt lat="48.17289" lon="6.61875">
        <ele>464.6</ele>
        <time>2024-11-03T12:34:14Z</time>
      </trkpt>
      <trkpt lat="48.17281" lon="6.61884">
        <ele>464.6</ele>
        <time>2024-11-03T12:34:22Z</time>
      </trkpt>
      <trkpt lat="48.17274" lon="6.61894">
        <ele>464.6</ele>
        <time>2024-11-03T12:34:28Z</time>
      </trkpt>
      <trkpt lat="48.17268" lon="6.61905">
        <ele>464.4</ele>
        <time>2024-11-03T12:34:35Z</time>
      </trkpt>
      <trkpt lat="48.17262" lon="6.61916">
        <ele>464</ele>
        <time>2024-11-03T12:34:42Z</time>
      </trkpt>
      <trkpt lat="48.17258" lon="6.61928">
        <ele>463.6</ele>
        <time>2024-11-03T12:34:50Z</time>
      </trkpt>
      <trkpt lat="48.17252" lon="6.61939">
        <ele>463</ele>
        <time>2024-11-03T12:34:57Z</time>
      </trkpt>
      <trkpt lat="48.17245" lon="6.6195">
        <ele>462.4</ele>
        <time>2024-11-03T12:35:03Z</time>
      </trkpt>
      <trkpt lat="48.17239" lon="6.61963">
        <ele>461.8</ele>
        <time>2024-11-03T12:35:10Z</time>
      </trkpt>
      <trkpt lat="48.17235" lon="6.61976">
        <ele>461.3</ele>
        <time>2024-11-03T12:35:17Z</time>
      </trkpt>
      <trkpt lat="48.17229" lon="6.61987">
        <ele>460.8</ele>
        <time>2024-11-03T12:35:25Z</time>
      </trkpt>
      <trkpt lat="48.17225" lon="6.62">
        <ele>460.3</ele>
        <time>2024-11-03T12:35:33Z</time>
      </trkpt>
      <trkpt lat="48.17218" lon="6.62011">
        <ele>459.9</ele>
        <time>2024-11-03T12:35:41Z</time>
      </trkpt>
      <trkpt lat="48.17213" lon="6.62023">
        <ele>459.5</ele>
        <time>2024-11-03T12:35:47Z</time>
      </trkpt>
      <trkpt lat="48.17207" lon="6.62033">
        <ele>459.1</ele>
        <time>2024-11-03T12:35:54Z</time>
      </trkpt>
      <trkpt lat="48.17201" lon="6.62044">
        <ele>458.8</ele>
        <time>2024-11-03T12:36:01Z</time>
      </trkpt>
      <trkpt lat="48.17195" lon="6.62054">
        <ele>458.5</ele>
        <time>2024-11-03T12:36:09Z</time>
      </trkpt>
      <trkpt lat="48.17188" lon="6.62064">
        <ele>458.2</ele>
        <time>2024-11-03T12:36:17Z</time>
      </trkpt>
      <trkpt lat="48.1718" lon="6.62072">
        <ele>458.1</ele>
        <time>2024-11-03T12:36:25Z</time>
      </trkpt>
      <trkpt lat="48.17173" lon="6.62081">
        <ele>458</ele>
        <time>2024-11-03T12:36:33Z</time>
      </trkpt>
      <trkpt lat="48.17164" lon="6.62089">
        <ele>458</ele>
        <time>2024-11-03T12:36:41Z</time>
      </trkpt>
      <trkpt lat="48.1717" lon="6.62103">
        <ele>458.1</ele>
        <time>2024-11-03T12:36:49Z</time>
      </trkpt>
      <trkpt lat="48.17178" lon="6.6211">
        <ele>458.4</ele>
        <time>2024-11-03T12:36:55Z</time>
      </trkpt>
      <trkpt lat="48.17186" lon="6.62118">
        <ele>458.7</ele>
        <time>2024-11-03T12:37:02Z</time>
      </trkpt>
      <trkpt lat="48.17194" lon="6.62126">
        <ele>459.1</ele>
        <time>2024-11-03T12:37:09Z</time>
      </trkpt>
      <trkpt lat="48.17202" lon="6.62136">
        <ele>459.5</ele>
        <time>2024-11-03T12:37:16Z</time>
      </trkpt>
      <trkpt lat="48.17209" lon="6.62146">
        <ele>460.1</ele>
        <time>2024-11-03T12:37:24Z</time>
      </trkpt>
      <trkpt lat="48.17216" lon="6.62156">
        <ele>460.6</ele>
        <time>2024-11-03T12:37:31Z</time>
      </trkpt>
      <trkpt lat="48.17223" lon="6.62166">
        <ele>461.2</ele>
        <time>2024-11-03T12:37:38Z</time>
      </trkpt>
      <trkpt lat="48.1723" lon="6.62174">
        <ele>461.7</ele>
        <time>2024-11-03T12:37:45Z</time>
      </trkpt>
      <trkpt lat="48.17238" lon="6.62182">
        <ele>462.4</ele>
        <time>2024-11-03T12:37:52Z</time>
      </trkpt>
      <trkpt lat="48.17246" lon="6.6219">
        <ele>463</ele>
        <time>2024-11-03T12:37:59Z</time>
      </trkpt>
      <trkpt lat="48.17254" lon="6.62196">
        <ele>463.6</ele>
        <time>2024-11-03T12:38:06Z</time>
      </trkpt>
      <trkpt lat="48.17263" lon="6.62198">
        <ele>464.2</ele>
        <time>2024-11-03T12:38:13Z</time>
      </trkpt>
      <trkpt lat="48.17273" lon="6.62197">
        <ele>464.4</ele>
        <time>2024-11-03T12:38:21Z</time>
      </trkpt>
      <trkpt lat="48.17282" lon="6.62197">
        <ele>464.5</ele>
        <time>2024-11-03T12:38:28Z</time>
      </trkpt>
      <trkpt lat="48.17293" lon="6.62196">
        <ele>464.6</ele>
        <time>2024-11-03T12:38:36Z</time>
      </trkpt>
      <trkpt lat="48.17303" lon="6.62196">
        <ele>464.6</ele>
        <time>2024-11-03T12:38:44Z</time>
      </trkpt>
      <trkpt lat="48.17312" lon="6.62195">
        <ele>464.5</ele>
        <time>2024-11-03T12:38:52Z</time>
      </trkpt>
      <trkpt lat="48.17322" lon="6.62194">
        <ele>464.4</ele>
        <time>2024-11-03T12:39:00Z</time>
      </trkpt>
      <trkpt lat="48.17332" lon="6.62193">
        <ele>464.1</ele>
        <time>2024-11-03T12:39:07Z</time>
      </trkpt>
      <trkpt lat="48.17341" lon="6.62194">
        <ele>463.9</ele>
        <time>2024-11-03T12:39:14Z</time>
      </trkpt>
      <trkpt lat="48.17351" lon="6.62195">
        <ele>463.5</ele>
        <time>2024-11-03T12:39:22Z</time>
      </trkpt>
      <trkpt lat="48.1736" lon="6.62195">
        <ele>463.3</ele>
        <time>2024-11-03T12:39:29Z</time>
      </trkpt>
      <trkpt lat="48.17369" lon="6.62194">
        <ele>463.1</ele>
        <time>2024-11-03T12:39:36Z</time>
      </trkpt>
      <trkpt lat="48.17378" lon="6.62192">
        <ele>463</ele>
        <time>2024-11-03T12:39:43Z</time>
      </trkpt>
      <trkpt lat="48.17387" lon="6.62191">
        <ele>462.9</ele>
        <time>2024-11-03T12:39:50Z</time>
      </trkpt>
      <trkpt lat="48.17396" lon="6.62186">
        <ele>462.9</ele>
        <time>2024-11-03T12:39:57Z</time>
      </trkpt>
      <trkpt lat="48.17404" lon="6.62179">
        <ele>462.9</ele>
        <time>2024-11-03T12:40:03Z</time>
      </trkpt>
      <trkpt lat="48.17411" lon="6.62171">
        <ele>463</ele>
        <time>2024-11-03T12:40:09Z</time>
      </trkpt>
      <trkpt lat="48.1742" lon="6.62163">
        <ele>463</ele>
        <time>2024-11-03T12:40:16Z</time>
      </trkpt>
      <trkpt lat="48.17426" lon="6.62154">
        <ele>462.8</ele>
        <time>2024-11-03T12:40:23Z</time>
      </trkpt>
      <trkpt lat="48.17433" lon="6.62142">
        <ele>462.6</ele>
        <time>2024-11-03T12:40:31Z</time>
      </trkpt>
      <trkpt lat="48.17439" lon="6.6213">
        <ele>462.4</ele>
        <time>2024-11-03T12:40:38Z</time>
      </trkpt>
      <trkpt lat="48.17444" lon="6.62117">
        <ele>462.2</ele>
        <time>2024-11-03T12:40:46Z</time>
      </trkpt>
      <trkpt lat="48.17448" lon="6.62105">
        <ele>462.1</ele>
        <time>2024-11-03T12:40:53Z</time>
      </trkpt>
      <trkpt lat="48.17454" lon="6.62092">
        <ele>462.1</ele>
        <time>2024-11-03T12:41:01Z</time>
      </trkpt>
      <trkpt lat="48.17459" lon="6.62078">
        <ele>462.1</ele>
        <time>2024-11-03T12:41:09Z</time>
      </trkpt>
      <trkpt lat="48.17464" lon="6.62067">
        <ele>462.1</ele>
        <time>2024-11-03T12:41:16Z</time>
      </trkpt>
      <trkpt lat="48.1747" lon="6.62056">
        <ele>462.3</ele>
        <time>2024-11-03T12:41:23Z</time>
      </trkpt>
      <trkpt lat="48.17477" lon="6.62045">
        <ele>462.4</ele>
        <time>2024-11-03T12:41:31Z</time>
      </trkpt>
      <trkpt lat="48.17482" lon="6.62034">
        <ele>462.5</ele>
        <time>2024-11-03T12:41:38Z</time>
      </trkpt>
      <trkpt lat="48.17491" lon="6.62029">
        <ele>462.7</ele>
        <time>2024-11-03T12:41:45Z</time>
      </trkpt>
      <trkpt lat="48.17496" lon="6.62024">
        <ele>462.6</ele>
        <time>2024-11-03T12:41:56Z</time>
      </trkpt>
      <trkpt lat="48.17496" lon="6.62024">
        <ele>462.6</ele>
        <time>2024-11-03T12:41:57Z</time>
      </trkpt>
      <trkpt lat="48.17495" lon="6.62023">
        <ele>462.6</ele>
        <time>2024-11-03T12:42:10Z</time>
      </trkpt>
      <trkpt lat="48.17495" lon="6.62023">
        <ele>462.6</ele>
        <time>2024-11-03T12:42:11Z</time>
      </trkpt>
      <trkpt lat="48.17495" lon="6.62023">
        <ele>462.6</ele>
        <time>2024-11-03T12:42:12Z</time>
      </trkpt>
      <trkpt lat="48.17495" lon="6.62023">
        <ele>462.6</ele>
        <time>2024-11-03T12:42:16Z</time>
      </trkpt>
      <trkpt lat="48.17495" lon="6.62023">
        <ele>462.6</ele>
        <time>2024-11-03T12:42:17Z</time>
      </trkpt>
      <trkpt lat="48.17495" lon="6.62024">
        <ele>462.6</ele>
        <time>2024-11-03T12:42:33Z</time>
      </trkpt>
      <trkpt lat="48.17495" lon="6.62024">
        <ele>462.6</ele>
        <time>2024-11-03T12:42:34Z</time>
      </trkpt>
      <trkpt lat="48.17496" lon="6.62024">
        <ele>462.6</ele>
        <time>2024-11-03T12:42:35Z</time>
      </trkpt>
      <trkpt lat="48.17505" lon="6.62031">
        <ele>462.4</ele>
        <time>2024-11-03T12:42:46Z</time>
      </trkpt>
      <trkpt lat="48.17512" lon="6.62041">
        <ele>462.3</ele>
        <time>2024-11-03T12:42:50Z</time>
      </trkpt>
      <trkpt lat="48.17518" lon="6.62052">
        <ele>462.2</ele>
        <time>2024-11-03T12:42:56Z</time>
      </trkpt>
      <trkpt lat="48.17522" lon="6.62065">
        <ele>462.1</ele>
        <time>2024-11-03T12:43:03Z</time>
      </trkpt>
      <trkpt lat="48.17523" lon="6.62078">
        <ele>461.9</ele>
        <time>2024-11-03T12:43:09Z</time>
      </trkpt>
      <trkpt lat="48.17523" lon="6.62093">
        <ele>461.8</ele>
        <time>2024-11-03T12:43:15Z</time>
      </trkpt>
      <trkpt lat="48.17524" lon="6.62108">
        <ele>461.8</ele>
        <time>2024-11-03T12:43:23Z</time>
      </trkpt>
      <trkpt lat="48.17525" lon="6.62122">
        <ele>461.8</ele>
        <time>2024-11-03T12:43:31Z</time>
      </trkpt>
      <trkpt lat="48.17523" lon="6.62135">
        <ele>461.9</ele>
        <time>2024-11-03T12:43:38Z</time>
      </trkpt>
      <trkpt lat="48.17524" lon="6.62149">
        <ele>462</ele>
        <time>2024-11-03T12:43:45Z</time>
      </trkpt>
      <trkpt lat="48.17526" lon="6.62163">
        <ele>462.1</ele>
        <time>2024-11-03T12:43:55Z</time>
      </trkpt>
      <trkpt lat="48.17527" lon="6.62177">
        <ele>462.2</ele>
        <time>2024-11-03T12:44:02Z</time>
      </trkpt>
      <trkpt lat="48.17528" lon="6.62192">
        <ele>462.2</ele>
        <time>2024-11-03T12:44:08Z</time>
      </trkpt>
      <trkpt lat="48.17527" lon="6.62206">
        <ele>462.1</ele>
        <time>2024-11-03T12:44:13Z</time>
      </trkpt>
      <trkpt lat="48.17531" lon="6.6222">
        <ele>461.9</ele>
        <time>2024-11-03T12:44:22Z</time>
      </trkpt>
      <trkpt lat="48.17534" lon="6.62233">
        <ele>461.7</ele>
        <time>2024-11-03T12:44:27Z</time>
      </trkpt>
      <trkpt lat="48.17538" lon="6.62247">
        <ele>461.4</ele>
        <time>2024-11-03T12:44:35Z</time>
      </trkpt>
      <trkpt lat="48.17541" lon="6.62261">
        <ele>461.2</ele>
        <time>2024-11-03T12:44:43Z</time>
      </trkpt>
      <trkpt lat="48.17545" lon="6.62273">
        <ele>461</ele>
        <time>2024-11-03T12:44:51Z</time>
      </trkpt>
      <trkpt lat="48.17551" lon="6.62285">
        <ele>460.9</ele>
        <time>2024-11-03T12:44:58Z</time>
      </trkpt>
      <trkpt lat="48.17555" lon="6.62298">
        <ele>460.7</ele>
        <time>2024-11-03T12:45:06Z</time>
      </trkpt>
      <trkpt lat="48.17559" lon="6.62311">
        <ele>460.6</ele>
        <time>2024-11-03T12:45:12Z</time>
      </trkpt>
      <trkpt lat="48.17563" lon="6.62325">
        <ele>460.4</ele>
        <time>2024-11-03T12:45:19Z</time>
      </trkpt>
      <trkpt lat="48.17569" lon="6.62336">
        <ele>460.3</ele>
        <time>2024-11-03T12:45:26Z</time>
      </trkpt>
      <trkpt lat="48.17576" lon="6.62346">
        <ele>460.1</ele>
        <time>2024-11-03T12:45:33Z</time>
      </trkpt>
      <trkpt lat="48.17583" lon="6.62354">
        <ele>460</ele>
        <time>2024-11-03T12:45:40Z</time>
      </trkpt>
      <trkpt lat="48.17589" lon="6.62365">
        <ele>459.9</ele>
        <time>2024-11-03T12:45:47Z</time>
      </trkpt>
      <trkpt lat="48.17592" lon="6.62379">
        <ele>459.7</ele>
        <time>2024-11-03T12:45:58Z</time>
      </trkpt>
      <trkpt lat="48.17592" lon="6.62392">
        <ele>459.4</ele>
        <time>2024-11-03T12:46:06Z</time>
      </trkpt>
      <trkpt lat="48.17587" lon="6.62405">
        <ele>459</ele>
        <time>2024-11-03T12:46:13Z</time>
      </trkpt>
      <trkpt lat="48.17583" lon="6.62417">
        <ele>458.4</ele>
        <time>2024-11-03T12:46:22Z</time>
      </trkpt>
      <trkpt lat="48.17578" lon="6.62431">
        <ele>457.7</ele>
        <time>2024-11-03T12:46:30Z</time>
      </trkpt>
      <trkpt lat="48.17574" lon="6.62443">
        <ele>457.1</ele>
        <time>2024-11-03T12:46:38Z</time>
      </trkpt>
      <trkpt lat="48.17571" lon="6.62456">
        <ele>456.5</ele>
        <time>2024-11-03T12:46:44Z</time>
      </trkpt>
      <trkpt lat="48.17567" lon="6.62469">
        <ele>456</ele>
        <time>2024-11-03T12:46:52Z</time>
      </trkpt>
      <trkpt lat="48.17564" lon="6.62482">
        <ele>455.4</ele>
        <time>2024-11-03T12:47:00Z</time>
      </trkpt>
      <trkpt lat="48.17563" lon="6.62496">
        <ele>454.7</ele>
        <time>2024-11-03T12:47:08Z</time>
      </trkpt>
      <trkpt lat="48.17565" lon="6.6251">
        <ele>454</ele>
        <time>2024-11-03T12:47:15Z</time>
      </trkpt>
      <trkpt lat="48.17566" lon="6.62525">
        <ele>453.1</ele>
        <time>2024-11-03T12:47:21Z</time>
      </trkpt>
      <trkpt lat="48.17568" lon="6.62539">
        <ele>452.3</ele>
        <time>2024-11-03T12:47:27Z</time>
      </trkpt>
      <trkpt lat="48.1757" lon="6.62552">
        <ele>451.4</ele>
        <time>2024-11-03T12:47:35Z</time>
      </trkpt>
      <trkpt lat="48.17572" lon="6.62565">
        <ele>450.7</ele>
        <time>2024-11-03T12:47:41Z</time>
      </trkpt>
      <trkpt lat="48.17573" lon="6.6258">
        <ele>449.9</ele>
        <time>2024-11-03T12:47:48Z</time>
      </trkpt>
      <trkpt lat="48.17571" lon="6.62595">
        <ele>449.2</ele>
        <time>2024-11-03T12:48:00Z</time>
      </trkpt>
      <trkpt lat="48.17571" lon="6.62609">
        <ele>448.5</ele>
        <time>2024-11-03T12:48:05Z</time>
      </trkpt>
      <trkpt lat="48.17567" lon="6.62621">
        <ele>447.9</ele>
        <time>2024-11-03T12:48:13Z</time>
      </trkpt>
      <trkpt lat="48.17567" lon="6.62636">
        <ele>447.3</ele>
        <time>2024-11-03T12:48:22Z</time>
      </trkpt>
      <trkpt lat="48.17571" lon="6.6265">
        <ele>446.6</ele>
        <time>2024-11-03T12:48:30Z</time>
      </trkpt>
      <trkpt lat="48.1757" lon="6.62664">
        <ele>446</ele>
        <time>2024-11-03T12:48:38Z</time>
      </trkpt>
      <trkpt lat="48.17569" lon="6.62678">
        <ele>445.2</ele>
        <time>2024-11-03T12:48:45Z</time>
      </trkpt>
      <trkpt lat="48.1757" lon="6.62692">
        <ele>444.4</ele>
        <time>2024-11-03T12:48:52Z</time>
      </trkpt>
      <trkpt lat="48.17573" lon="6.62706">
        <ele>443.7</ele>
        <time>2024-11-03T12:48:58Z</time>
      </trkpt>
      <trkpt lat="48.17576" lon="6.62721">
        <ele>443</ele>
        <time>2024-11-03T12:49:04Z</time>
      </trkpt>
      <trkpt lat="48.17575" lon="6.62735">
        <ele>442.5</ele>
        <time>2024-11-03T12:49:14Z</time>
      </trkpt>
      <trkpt lat="48.17579" lon="6.62749">
        <ele>442.2</ele>
        <time>2024-11-03T12:49:23Z</time>
      </trkpt>
      <trkpt lat="48.17585" lon="6.62761">
        <ele>441.9</ele>
        <time>2024-11-03T12:49:31Z</time>
      </trkpt>
      <trkpt lat="48.17592" lon="6.62773">
        <ele>441.7</ele>
        <time>2024-11-03T12:49:38Z</time>
      </trkpt>
      <trkpt lat="48.17598" lon="6.62785">
        <ele>441.5</ele>
        <time>2024-11-03T12:49:46Z</time>
      </trkpt>
      <trkpt lat="48.17604" lon="6.62796">
        <ele>441.5</ele>
        <time>2024-11-03T12:49:53Z</time>
      </trkpt>
      <trkpt lat="48.1761" lon="6.62807">
        <ele>441.5</ele>
        <time>2024-11-03T12:50:01Z</time>
      </trkpt>
      <trkpt lat="48.17615" lon="6.6282">
        <ele>441.6</ele>
        <time>2024-11-03T12:50:08Z</time>
      </trkpt>
      <trkpt lat="48.1762" lon="6.62832">
        <ele>441.7</ele>
        <time>2024-11-03T12:50:14Z</time>
      </trkpt>
      <trkpt lat="48.17623" lon="6.62845">
        <ele>441.6</ele>
        <time>2024-11-03T12:50:23Z</time>
      </trkpt>
      <trkpt lat="48.1763" lon="6.62855">
        <ele>441.6</ele>
        <time>2024-11-03T12:50:31Z</time>
      </trkpt>
      <trkpt lat="48.17639" lon="6.6286">
        <ele>441.7</ele>
        <time>2024-11-03T12:50:37Z</time>
      </trkpt>
      <trkpt lat="48.17647" lon="6.62867">
        <ele>441.8</ele>
        <time>2024-11-03T12:50:46Z</time>
      </trkpt>
      <trkpt lat="48.17656" lon="6.62873">
        <ele>442.1</ele>
        <time>2024-11-03T12:50:57Z</time>
      </trkpt>
      <trkpt lat="48.17665" lon="6.62876">
        <ele>442.4</ele>
        <time>2024-11-03T12:51:04Z</time>
      </trkpt>
      <trkpt lat="48.17673" lon="6.62883">
        <ele>442.6</ele>
        <time>2024-11-03T12:51:11Z</time>
      </trkpt>
      <trkpt lat="48.17683" lon="6.62881">
        <ele>442.8</ele>
        <time>2024-11-03T12:51:19Z</time>
      </trkpt>
      <trkpt lat="48.17693" lon="6.62882">
        <ele>443</ele>
        <time>2024-11-03T12:51:26Z</time>
      </trkpt>
      <trkpt lat="48.17703" lon="6.62886">
        <ele>443.2</ele>
        <time>2024-11-03T12:51:33Z</time>
      </trkpt>
      <trkpt lat="48.17712" lon="6.62891">
        <ele>443.5</ele>
        <time>2024-11-03T12:51:41Z</time>
      </trkpt>
      <trkpt lat="48.17721" lon="6.62897">
        <ele>443.9</ele>
        <time>2024-11-03T12:51:49Z</time>
      </trkpt>
      <trkpt lat="48.17729" lon="6.62904">
        <ele>444.2</ele>
        <time>2024-11-03T12:51:57Z</time>
      </trkpt>
      <trkpt lat="48.17736" lon="6.62912">
        <ele>444.7</ele>
        <time>2024-11-03T12:52:04Z</time>
      </trkpt>
      <trkpt lat="48.17745" lon="6.62916">
        <ele>445.2</ele>
        <time>2024-11-03T12:52:15Z</time>
      </trkpt>
      <trkpt lat="48.17754" lon="6.62917">
        <ele>445.7</ele>
        <time>2024-11-03T12:52:24Z</time>
      </trkpt>
      <trkpt lat="48.17762" lon="6.6291">
        <ele>445.9</ele>
        <time>2024-11-03T12:52:31Z</time>
      </trkpt>
      <trkpt lat="48.17769" lon="6.62919">
        <ele>446.3</ele>
        <time>2024-11-03T12:52:39Z</time>
      </trkpt>
      <trkpt lat="48.17773" lon="6.62935">
        <ele>446.7</ele>
        <time>2024-11-03T12:52:46Z</time>
      </trkpt>
      <trkpt lat="48.17773" lon="6.62949">
        <ele>447.1</ele>
        <time>2024-11-03T12:52:54Z</time>
      </trkpt>
      <trkpt lat="48.17774" lon="6.62963">
        <ele>447.8</ele>
        <time>2024-11-03T12:53:03Z</time>
      </trkpt>
      <trkpt lat="48.17776" lon="6.62978">
        <ele>448.5</ele>
        <time>2024-11-03T12:53:12Z</time>
      </trkpt>
      <trkpt lat="48.17777" lon="6.62993">
        <ele>449.4</ele>
        <time>2024-11-03T12:53:21Z</time>
      </trkpt>
      <trkpt lat="48.1778" lon="6.63006">
        <ele>450.5</ele>
        <time>2024-11-03T12:53:29Z</time>
      </trkpt>
      <trkpt lat="48.17783" lon="6.63015">
        <ele>451.4</ele>
        <time>2024-11-03T12:53:40Z</time>
      </trkpt>
      <trkpt lat="48.17782" lon="6.63016">
        <ele>451.4</ele>
        <time>2024-11-03T12:53:41Z</time>
      </trkpt>
      <trkpt lat="48.17783" lon="6.63016">
        <ele>451.5</ele>
        <time>2024-11-03T12:53:42Z</time>
      </trkpt>
      <trkpt lat="48.17783" lon="6.63016">
        <ele>451.6</ele>
        <time>2024-11-03T12:53:43Z</time>
      </trkpt>
      <trkpt lat="48.17783" lon="6.63015">
        <ele>451.7</ele>
        <time>2024-11-03T12:53:44Z</time>
      </trkpt>
      <trkpt lat="48.17783" lon="6.63015">
        <ele>451.7</ele>
        <time>2024-11-03T12:53:45Z</time>
      </trkpt>
      <trkpt lat="48.17783" lon="6.63015">
        <ele>451.7</ele>
        <time>2024-11-03T12:53:46Z</time>
      </trkpt>
      <trkpt lat="48.17783" lon="6.63016">
        <ele>451.8</ele>
        <time>2024-11-03T12:53:47Z</time>
      </trkpt>
      <trkpt lat="48.17783" lon="6.63017">
        <ele>451.8</ele>
        <time>2024-11-03T12:53:48Z</time>
      </trkpt>
      <trkpt lat="48.17784" lon="6.63017">
        <ele>451.9</ele>
        <time>2024-11-03T12:53:49Z</time>
      </trkpt>
      <trkpt lat="48.17792" lon="6.63025">
        <ele>453.2</ele>
        <time>2024-11-03T12:53:59Z</time>
      </trkpt>
      <trkpt lat="48.178" lon="6.63033">
        <ele>454.4</ele>
        <time>2024-11-03T12:54:07Z</time>
      </trkpt>
      <trkpt lat="48.17809" lon="6.6304">
        <ele>455.5</ele>
        <time>2024-11-03T12:54:15Z</time>
      </trkpt>
      <trkpt lat="48.17818" lon="6.63043">
        <ele>456.5</ele>
        <time>2024-11-03T12:54:20Z</time>
      </trkpt>
      <trkpt lat="48.17819" lon="6.63043">
        <ele>456.6</ele>
        <time>2024-11-03T12:54:22Z</time>
      </trkpt>
      <trkpt lat="48.17819" lon="6.63042">
        <ele>456.7</ele>
        <time>2024-11-03T12:54:23Z</time>
      </trkpt>
      <trkpt lat="48.17818" lon="6.63042">
        <ele>456.7</ele>
        <time>2024-11-03T12:54:24Z</time>
      </trkpt>
      <trkpt lat="48.17822" lon="6.63049">
        <ele>457.5</ele>
        <time>2024-11-03T12:54:32Z</time>
      </trkpt>
      <trkpt lat="48.17822" lon="6.63049">
        <ele>457.5</ele>
        <time>2024-11-03T12:54:33Z</time>
      </trkpt>
      <trkpt lat="48.17822" lon="6.63049">
        <ele>457.5</ele>
        <time>2024-11-03T12:54:34Z</time>
      </trkpt>
      <trkpt lat="48.17822" lon="6.63049">
        <ele>457.5</ele>
        <time>2024-11-03T12:54:35Z</time>
      </trkpt>
      <trkpt lat="48.17822" lon="6.63049">
        <ele>457.5</ele>
        <time>2024-11-03T12:54:36Z</time>
      </trkpt>
      <trkpt lat="48.17822" lon="6.6305">
        <ele>457.5</ele>
        <time>2024-11-03T12:54:42Z</time>
      </trkpt>
      <trkpt lat="48.17822" lon="6.6305">
        <ele>457.6</ele>
        <time>2024-11-03T12:54:43Z</time>
      </trkpt>
      <trkpt lat="48.17822" lon="6.63051">
        <ele>457.6</ele>
        <time>2024-11-03T12:54:44Z</time>
      </trkpt>
      <trkpt lat="48.17829" lon="6.6306">
        <ele>458.6</ele>
        <time>2024-11-03T12:55:03Z</time>
      </trkpt>
      <trkpt lat="48.17833" lon="6.63073">
        <ele>459.6</ele>
        <time>2024-11-03T12:55:20Z</time>
      </trkpt>
      <trkpt lat="48.17834" lon="6.63086">
        <ele>460.5</ele>
        <time>2024-11-03T12:55:31Z</time>
      </trkpt>
      <trkpt lat="48.17837" lon="6.631">
        <ele>461.4</ele>
        <time>2024-11-03T12:55:39Z</time>
      </trkpt>
      <trkpt lat="48.17843" lon="6.63106">
        <ele>462.1</ele>
        <time>2024-11-03T12:55:57Z</time>
      </trkpt>
      <trkpt lat="48.17843" lon="6.63106">
        <ele>462.1</ele>
        <time>2024-11-03T12:55:58Z</time>
      </trkpt>
      <trkpt lat="48.17843" lon="6.63107">
        <ele>462.1</ele>
        <time>2024-11-03T12:55:59Z</time>
      </trkpt>
      <trkpt lat="48.17843" lon="6.63106">
        <ele>462.2</ele>
        <time>2024-11-03T12:56:02Z</time>
      </trkpt>
      <trkpt lat="48.17843" lon="6.63106">
        <ele>462.2</ele>
        <time>2024-11-03T12:56:03Z</time>
      </trkpt>
      <trkpt lat="48.17843" lon="6.63105">
        <ele>462.2</ele>
        <time>2024-11-03T12:56:04Z</time>
      </trkpt>
      <trkpt lat="48.17845" lon="6.63104">
        <ele>462.4</ele>
        <time>2024-11-03T12:56:12Z</time>
      </trkpt>
      <trkpt lat="48.17844" lon="6.63103">
        <ele>462.5</ele>
        <time>2024-11-03T12:56:13Z</time>
      </trkpt>
      <trkpt lat="48.17842" lon="6.63101">
        <ele>462.7</ele>
        <time>2024-11-03T12:56:14Z</time>
      </trkpt>
      <trkpt lat="48.17835" lon="6.63098">
        <ele>463.3</ele>
        <time>2024-11-03T12:56:27Z</time>
      </trkpt>
      <trkpt lat="48.17835" lon="6.63099">
        <ele>463.3</ele>
        <time>2024-11-03T12:56:28Z</time>
      </trkpt>
      <trkpt lat="48.17835" lon="6.63099">
        <ele>463.3</ele>
        <time>2024-11-03T12:56:29Z</time>
      </trkpt>
      <trkpt lat="48.17839" lon="6.63096">
        <ele>463.6</ele>
        <time>2024-11-03T12:56:33Z</time>
      </trkpt>
      <trkpt lat="48.1784" lon="6.63094">
        <ele>463.8</ele>
        <time>2024-11-03T12:56:34Z</time>
      </trkpt>
      <trkpt lat="48.17841" lon="6.63092">
        <ele>463.9</ele>
        <time>2024-11-03T12:56:45Z</time>
      </trkpt>
      <trkpt lat="48.17841" lon="6.63093">
        <ele>463.9</ele>
        <time>2024-11-03T12:56:46Z</time>
      </trkpt>
      <trkpt lat="48.17842" lon="6.63093">
        <ele>464</ele>
        <time>2024-11-03T12:56:47Z</time>
      </trkpt>
      <trkpt lat="48.17842" lon="6.63094">
        <ele>464</ele>
        <time>2024-11-03T12:56:48Z</time>
      </trkpt>
      <trkpt lat="48.17842" lon="6.63094">
        <ele>464</ele>
        <time>2024-11-03T12:56:49Z</time>
      </trkpt>
      <trkpt lat="48.17842" lon="6.63094">
        <ele>464</ele>
        <time>2024-11-03T12:56:50Z</time>
      </trkpt>
      <trkpt lat="48.17842" lon="6.63094">
        <ele>464</ele>
        <time>2024-11-03T12:56:51Z</time>
      </trkpt>
      <trkpt lat="48.17842" lon="6.63094">
        <ele>464</ele>
        <time>2024-11-03T12:56:52Z</time>
      </trkpt>
      <trkpt lat="48.17851" lon="6.63095">
        <ele>464.7</ele>
        <time>2024-11-03T12:57:06Z</time>
      </trkpt>
      <trkpt lat="48.1786" lon="6.63086">
        <ele>465.5</ele>
        <time>2024-11-03T12:57:13Z</time>
      </trkpt>
      <trkpt lat="48.17868" lon="6.63077">
        <ele>466.4</ele>
        <time>2024-11-03T12:57:20Z</time>
      </trkpt>
      <trkpt lat="48.17872" lon="6.63063">
        <ele>467.2</ele>
        <time>2024-11-03T12:57:30Z</time>
      </trkpt>
      <trkpt lat="48.17878" lon="6.63051">
        <ele>468.2</ele>
        <time>2024-11-03T12:57:36Z</time>
      </trkpt>
      <trkpt lat="48.17882" lon="6.63037">
        <ele>469</ele>
        <time>2024-11-03T12:57:44Z</time>
      </trkpt>
      <trkpt lat="48.17885" lon="6.63022">
        <ele>469.9</ele>
        <time>2024-11-03T12:57:52Z</time>
      </trkpt>
      <trkpt lat="48.17888" lon="6.63009">
        <ele>470.6</ele>
        <time>2024-11-03T12:57:57Z</time>
      </trkpt>
      <trkpt lat="48.17892" lon="6.62996">
        <ele>471.3</ele>
        <time>2024-11-03T12:58:06Z</time>
      </trkpt>
      <trkpt lat="48.17898" lon="6.62985">
        <ele>472.1</ele>
        <time>2024-11-03T12:58:15Z</time>
      </trkpt>
      <trkpt lat="48.17902" lon="6.62972">
        <ele>472.7</ele>
        <time>2024-11-03T12:58:25Z</time>
      </trkpt>
      <trkpt lat="48.17909" lon="6.62962">
        <ele>473.4</ele>
        <time>2024-11-03T12:58:38Z</time>
      </trkpt>
      <trkpt lat="48.17919" lon="6.62958">
        <ele>474</ele>
        <time>2024-11-03T12:58:49Z</time>
      </trkpt>
      <trkpt lat="48.17925" lon="6.62948">
        <ele>474.6</ele>
        <time>2024-11-03T12:58:57Z</time>
      </trkpt>
      <trkpt lat="48.17933" lon="6.62939">
        <ele>475.1</ele>
        <time>2024-11-03T12:59:07Z</time>
      </trkpt>
      <trkpt lat="48.17939" lon="6.62927">
        <ele>475.6</ele>
        <time>2024-11-03T12:59:14Z</time>
      </trkpt>
      <trkpt lat="48.17945" lon="6.62915">
        <ele>476</ele>
        <time>2024-11-03T12:59:24Z</time>
      </trkpt>
      <trkpt lat="48.17952" lon="6.62903">
        <ele>476.5</ele>
        <time>2024-11-03T12:59:32Z</time>
      </trkpt>
      <trkpt lat="48.17955" lon="6.62889">
        <ele>477</ele>
        <time>2024-11-03T12:59:39Z</time>
      </trkpt>
      <trkpt lat="48.17961" lon="6.6288">
        <ele>477.5</ele>
        <time>2024-11-03T12:59:46Z</time>
      </trkpt>
      <trkpt lat="48.17966" lon="6.62868">
        <ele>477.9</ele>
        <time>2024-11-03T12:59:52Z</time>
      </trkpt>
      <trkpt lat="48.17972" lon="6.62856">
        <ele>478.4</ele>
        <time>2024-11-03T12:59:59Z</time>
      </trkpt>
      <trkpt lat="48.17976" lon="6.62843">
        <ele>478.7</ele>
        <time>2024-11-03T13:00:06Z</time>
      </trkpt>
      <trkpt lat="48.17976" lon="6.62826">
        <ele>479.1</ele>
        <time>2024-11-03T13:00:13Z</time>
      </trkpt>
      <trkpt lat="48.17981" lon="6.62813">
        <ele>479.5</ele>
        <time>2024-11-03T13:00:21Z</time>
      </trkpt>
      <trkpt lat="48.17984" lon="6.62799">
        <ele>479.8</ele>
        <time>2024-11-03T13:00:27Z</time>
      </trkpt>
      <trkpt lat="48.17988" lon="6.62786">
        <ele>480.2</ele>
        <time>2024-11-03T13:00:37Z</time>
      </trkpt>
      <trkpt lat="48.17992" lon="6.62772">
        <ele>480.6</ele>
        <time>2024-11-03T13:00:46Z</time>
      </trkpt>
      <trkpt lat="48.17996" lon="6.62758">
        <ele>481</ele>
        <time>2024-11-03T13:00:53Z</time>
      </trkpt>
      <trkpt lat="48.17998" lon="6.62744">
        <ele>481.3</ele>
        <time>2024-11-03T13:00:59Z</time>
      </trkpt>
      <trkpt lat="48.17997" lon="6.6273">
        <ele>481.7</ele>
        <time>2024-11-03T13:01:07Z</time>
      </trkpt>
      <trkpt lat="48.18" lon="6.62716">
        <ele>482.1</ele>
        <time>2024-11-03T13:01:15Z</time>
      </trkpt>
      <trkpt lat="48.18006" lon="6.62704">
        <ele>482.5</ele>
        <time>2024-11-03T13:01:22Z</time>
      </trkpt>
      <trkpt lat="48.18012" lon="6.62693">
        <ele>483</ele>
        <time>2024-11-03T13:01:30Z</time>
      </trkpt>
      <trkpt lat="48.1802" lon="6.62684">
        <ele>483.4</ele>
        <time>2024-11-03T13:01:37Z</time>
      </trkpt>
      <trkpt lat="48.18027" lon="6.62675">
        <ele>483.9</ele>
        <time>2024-11-03T13:01:44Z</time>
      </trkpt>
      <trkpt lat="48.18035" lon="6.62666">
        <ele>484.4</ele>
        <time>2024-11-03T13:01:51Z</time>
      </trkpt>
      <trkpt lat="48.18043" lon="6.62658">
        <ele>484.8</ele>
        <time>2024-11-03T13:01:58Z</time>
      </trkpt>
      <trkpt lat="48.18051" lon="6.6265">
        <ele>485.4</ele>
        <time>2024-11-03T13:02:05Z</time>
      </trkpt>
      <trkpt lat="48.18059" lon="6.62641">
        <ele>485.9</ele>
        <time>2024-11-03T13:02:13Z</time>
      </trkpt>
      <trkpt lat="48.18067" lon="6.62637">
        <ele>486.5</ele>
        <time>2024-11-03T13:02:19Z</time>
      </trkpt>
      <trkpt lat="48.18077" lon="6.62632">
        <ele>487.1</ele>
        <time>2024-11-03T13:02:26Z</time>
      </trkpt>
      <trkpt lat="48.18086" lon="6.62625">
        <ele>487.8</ele>
        <time>2024-11-03T13:02:35Z</time>
      </trkpt>
      <trkpt lat="48.18095" lon="6.6262">
        <ele>488.4</ele>
        <time>2024-11-03T13:02:43Z</time>
      </trkpt>
      <trkpt lat="48.18104" lon="6.62613">
        <ele>489.2</ele>
        <time>2024-11-03T13:02:52Z</time>
      </trkpt>
      <trkpt lat="48.18113" lon="6.62609">
        <ele>490</ele>
        <time>2024-11-03T13:03:00Z</time>
      </trkpt>
      <trkpt lat="48.18122" lon="6.62605">
        <ele>490.9</ele>
        <time>2024-11-03T13:03:08Z</time>
      </trkpt>
      <trkpt lat="48.18132" lon="6.62602">
        <ele>491.9</ele>
        <time>2024-11-03T13:03:16Z</time>
      </trkpt>
      <trkpt lat="48.1814" lon="6.62596">
        <ele>492.9</ele>
        <time>2024-11-03T13:03:24Z</time>
      </trkpt>
      <trkpt lat="48.1815" lon="6.62592">
        <ele>494</ele>
        <time>2024-11-03T13:03:32Z</time>
      </trkpt>
      <trkpt lat="48.18159" lon="6.62586">
        <ele>495.1</ele>
        <time>2024-11-03T13:03:40Z</time>
      </trkpt>
      <trkpt lat="48.18168" lon="6.6258">
        <ele>496.3</ele>
        <time>2024-11-03T13:03:47Z</time>
      </trkpt>
      <trkpt lat="48.18177" lon="6.62575">
        <ele>497.4</ele>
        <time>2024-11-03T13:03:56Z</time>
      </trkpt>
      <trkpt lat="48.18186" lon="6.6257">
        <ele>498.6</ele>
        <time>2024-11-03T13:04:05Z</time>
      </trkpt>
      <trkpt lat="48.18195" lon="6.62561">
        <ele>499.7</ele>
        <time>2024-11-03T13:04:14Z</time>
      </trkpt>
      <trkpt lat="48.18203" lon="6.62555">
        <ele>500.7</ele>
        <time>2024-11-03T13:04:21Z</time>
      </trkpt>
      <trkpt lat="48.18212" lon="6.62549">
        <ele>501.7</ele>
        <time>2024-11-03T13:04:29Z</time>
      </trkpt>
      <trkpt lat="48.18221" lon="6.62545">
        <ele>502.7</ele>
        <time>2024-11-03T13:04:38Z</time>
      </trkpt>
      <trkpt lat="48.1823" lon="6.62538">
        <ele>503.7</ele>
        <time>2024-11-03T13:04:49Z</time>
      </trkpt>
      <trkpt lat="48.18237" lon="6.6253">
        <ele>504.8</ele>
        <time>2024-11-03T13:05:02Z</time>
      </trkpt>
      <trkpt lat="48.18247" lon="6.62529">
        <ele>505.9</ele>
        <time>2024-11-03T13:05:11Z</time>
      </trkpt>
      <trkpt lat="48.18257" lon="6.62527">
        <ele>506.9</ele>
        <time>2024-11-03T13:05:17Z</time>
      </trkpt>
      <trkpt lat="48.18265" lon="6.62522">
        <ele>507.9</ele>
        <time>2024-11-03T13:05:25Z</time>
      </trkpt>
      <trkpt lat="48.18273" lon="6.62516">
        <ele>508.7</ele>
        <time>2024-11-03T13:05:33Z</time>
      </trkpt>
      <trkpt lat="48.18281" lon="6.62507">
        <ele>509.5</ele>
        <time>2024-11-03T13:05:42Z</time>
      </trkpt>
      <trkpt lat="48.1829" lon="6.62501">
        <ele>510.3</ele>
        <time>2024-11-03T13:05:50Z</time>
      </trkpt>
      <trkpt lat="48.18299" lon="6.62494">
        <ele>511.1</ele>
        <time>2024-11-03T13:05:58Z</time>
      </trkpt>
      <trkpt lat="48.18304" lon="6.62496">
        <ele>511.4</ele>
        <time>2024-11-03T13:06:05Z</time>
      </trkpt>
      <trkpt lat="48.18304" lon="6.62496">
        <ele>511.4</ele>
        <time>2024-11-03T13:06:06Z</time>
      </trkpt>
      <trkpt lat="48.18306" lon="6.62495">
        <ele>511.5</ele>
        <time>2024-11-03T13:06:25Z</time>
      </trkpt>
      <trkpt lat="48.18307" lon="6.62494">
        <ele>511.6</ele>
        <time>2024-11-03T13:06:26Z</time>
      </trkpt>
      <trkpt lat="48.18316" lon="6.62487">
        <ele>512.1</ele>
        <time>2024-11-03T13:06:37Z</time>
      </trkpt>
      <trkpt lat="48.18323" lon="6.62478">
        <ele>512.5</ele>
        <time>2024-11-03T13:06:46Z</time>
      </trkpt>
      <trkpt lat="48.1833" lon="6.62466">
        <ele>513</ele>
        <time>2024-11-03T13:06:56Z</time>
      </trkpt>
      <trkpt lat="48.18338" lon="6.62459">
        <ele>513.5</ele>
        <time>2024-11-03T13:07:05Z</time>
      </trkpt>
      <trkpt lat="48.18346" lon="6.62452">
        <ele>514</ele>
        <time>2024-11-03T13:07:16Z</time>
      </trkpt>
      <trkpt lat="48.18355" lon="6.62447">
        <ele>514.5</ele>
        <time>2024-11-03T13:07:26Z</time>
      </trkpt>
      <trkpt lat="48.18365" lon="6.62443">
        <ele>515</ele>
        <time>2024-11-03T13:07:32Z</time>
      </trkpt>
      <trkpt lat="48.18374" lon="6.62438">
        <ele>515.4</ele>
        <time>2024-11-03T13:07:41Z</time>
      </trkpt>
      <trkpt lat="48.18382" lon="6.6243">
        <ele>515.8</ele>
        <time>2024-11-03T13:07:52Z</time>
      </trkpt>
      <trkpt lat="48.18391" lon="6.62423">
        <ele>516.1</ele>
        <time>2024-11-03T13:08:00Z</time>
      </trkpt>
      <trkpt lat="48.184" lon="6.62417">
        <ele>516.4</ele>
        <time>2024-11-03T13:08:08Z</time>
      </trkpt>
      <trkpt lat="48.18409" lon="6.62412">
        <ele>516.7</ele>
        <time>2024-11-03T13:08:18Z</time>
      </trkpt>
      <trkpt lat="48.18409" lon="6.62412">
        <ele>516.7</ele>
        <time>2024-11-03T13:08:23Z</time>
      </trkpt>
      <trkpt lat="48.18409" lon="6.62412">
        <ele>516.7</ele>
        <time>2024-11-03T13:08:24Z</time>
      </trkpt>
      <trkpt lat="48.18409" lon="6.62412">
        <ele>516.7</ele>
        <time>2024-11-03T13:08:30Z</time>
      </trkpt>
      <trkpt lat="48.18409" lon="6.62413">
        <ele>516.7</ele>
        <time>2024-11-03T13:08:31Z</time>
      </trkpt>
      <trkpt lat="48.18409" lon="6.62413">
        <ele>516.7</ele>
        <time>2024-11-03T13:08:32Z</time>
      </trkpt>
      <trkpt lat="48.18409" lon="6.62413">
        <ele>516.7</ele>
        <time>2024-11-03T13:08:33Z</time>
      </trkpt>
      <trkpt lat="48.18409" lon="6.62413">
        <ele>516.7</ele>
        <time>2024-11-03T13:08:34Z</time>
      </trkpt>
      <trkpt lat="48.18411" lon="6.62413">
        <ele>516.8</ele>
        <time>2024-11-03T13:09:15Z</time>
      </trkpt>
      <trkpt lat="48.18411" lon="6.62412">
        <ele>516.8</ele>
        <time>2024-11-03T13:09:16Z</time>
      </trkpt>
      <trkpt lat="48.18419" lon="6.62405">
        <ele>517</ele>
        <time>2024-11-03T13:09:26Z</time>
      </trkpt>
      <trkpt lat="48.18424" lon="6.624">
        <ele>517.2</ele>
        <time>2024-11-03T13:09:38Z</time>
      </trkpt>
      <trkpt lat="48.18424" lon="6.624">
        <ele>517.2</ele>
        <time>2024-11-03T13:09:39Z</time>
      </trkpt>
      <trkpt lat="48.18424" lon="6.624">
        <ele>517.2</ele>
        <time>2024-11-03T13:09:40Z</time>
      </trkpt>
      <trkpt lat="48.18425" lon="6.624">
        <ele>517.2</ele>
        <time>2024-11-03T13:10:10Z</time>
      </trkpt>
      <trkpt lat="48.18426" lon="6.62399">
        <ele>517.2</ele>
        <time>2024-11-03T13:10:11Z</time>
      </trkpt>
      <trkpt lat="48.18427" lon="6.62399">
        <ele>517.3</ele>
        <time>2024-11-03T13:10:12Z</time>
      </trkpt>
      <trkpt lat="48.18436" lon="6.62392">
        <ele>517.5</ele>
        <time>2024-11-03T13:10:20Z</time>
      </trkpt>
      <trkpt lat="48.18445" lon="6.62388">
        <ele>517.7</ele>
        <time>2024-11-03T13:10:30Z</time>
      </trkpt>
      <trkpt lat="48.18453" lon="6.62382">
        <ele>517.9</ele>
        <time>2024-11-03T13:10:37Z</time>
      </trkpt>
      <trkpt lat="48.18462" lon="6.62374">
        <ele>518.2</ele>
        <time>2024-11-03T13:10:45Z</time>
      </trkpt>
      <trkpt lat="48.18471" lon="6.62367">
        <ele>518.4</ele>
        <time>2024-11-03T13:10:58Z</time>
      </trkpt>
      <trkpt lat="48.1848" lon="6.62364">
        <ele>518.9</ele>
        <time>2024-11-03T13:11:08Z</time>
      </trkpt>
      <trkpt lat="48.1849" lon="6.62365">
        <ele>519.3</ele>
        <time>2024-11-03T13:11:17Z</time>
      </trkpt>
      <trkpt lat="48.185" lon="6.62366">
        <ele>519.9</ele>
        <time>2024-11-03T13:11:26Z</time>
      </trkpt>
      <trkpt lat="48.18509" lon="6.62364">
        <ele>520.4</ele>
        <time>2024-11-03T13:11:35Z</time>
      </trkpt>
      <trkpt lat="48.18517" lon="6.62372">
        <ele>521.1</ele>
        <time>2024-11-03T13:11:47Z</time>
      </trkpt>
      <trkpt lat="48.18525" lon="6.6238">
        <ele>521.7</ele>
        <time>2024-11-03T13:12:03Z</time>
      </trkpt>
      <trkpt lat="48.18533" lon="6.6239">
        <ele>522.4</ele>
        <time>2024-11-03T13:12:16Z</time>
      </trkpt>
      <trkpt lat="48.18541" lon="6.62398">
        <ele>523</ele>
        <time>2024-11-03T13:12:26Z</time>
      </trkpt>
      <trkpt lat="48.18548" lon="6.62406">
        <ele>523.6</ele>
        <time>2024-11-03T13:12:37Z</time>
      </trkpt>
      <trkpt lat="48.18555" lon="6.62416">
        <ele>524.3</ele>
        <time>2024-11-03T13:12:47Z</time>
      </trkpt>
      <trkpt lat="48.1856" lon="6.62428">
        <ele>525</ele>
        <time>2024-11-03T13:12:58Z</time>
      </trkpt>
      <trkpt lat="48.18566" lon="6.6244">
        <ele>525.8</ele>
        <time>2024-11-03T13:13:09Z</time>
      </trkpt>
      <trkpt lat="48.18572" lon="6.62451">
        <ele>526.6</ele>
        <time>2024-11-03T13:13:18Z</time>
      </trkpt>
      <trkpt lat="48.18579" lon="6.62459">
        <ele>527.4</ele>
        <time>2024-11-03T13:13:31Z</time>
      </trkpt>
      <trkpt lat="48.18587" lon="6.62468">
        <ele>528.2</ele>
        <time>2024-11-03T13:13:43Z</time>
      </trkpt>
      <trkpt lat="48.18596" lon="6.62474">
        <ele>528.9</ele>
        <time>2024-11-03T13:13:51Z</time>
      </trkpt>
      <trkpt lat="48.18604" lon="6.62481">
        <ele>529.5</ele>
        <time>2024-11-03T13:13:59Z</time>
      </trkpt>
      <trkpt lat="48.18613" lon="6.62486">
        <ele>530</ele>
        <time>2024-11-03T13:14:08Z</time>
      </trkpt>
      <trkpt lat="48.18622" lon="6.6249">
        <ele>530.5</ele>
        <time>2024-11-03T13:14:16Z</time>
      </trkpt>
      <trkpt lat="48.18632" lon="6.62493">
        <ele>530.9</ele>
        <time>2024-11-03T13:14:24Z</time>
      </trkpt>
      <trkpt lat="48.1864" lon="6.62497">
        <ele>531.3</ele>
        <time>2024-11-03T13:14:32Z</time>
      </trkpt>
      <trkpt lat="48.1865" lon="6.62498">
        <ele>531.6</ele>
        <time>2024-11-03T13:14:41Z</time>
      </trkpt>
      <trkpt lat="48.18658" lon="6.62506">
        <ele>532</ele>
        <time>2024-11-03T13:14:49Z</time>
      </trkpt>
      <trkpt lat="48.18668" lon="6.62511">
        <ele>532.3</ele>
        <time>2024-11-03T13:14:57Z</time>
      </trkpt>
      <trkpt lat="48.18677" lon="6.62517">
        <ele>532.6</ele>
        <time>2024-11-03T13:15:05Z</time>
      </trkpt>
      <trkpt lat="48.18686" lon="6.62523">
        <ele>532.9</ele>
        <time>2024-11-03T13:15:13Z</time>
      </trkpt>
      <trkpt lat="48.18695" lon="6.62525">
        <ele>533.2</ele>
        <time>2024-11-03T13:15:22Z</time>
      </trkpt>
      <trkpt lat="48.18704" lon="6.62529">
        <ele>533.4</ele>
        <time>2024-11-03T13:15:31Z</time>
      </trkpt>
      <trkpt lat="48.18714" lon="6.6253">
        <ele>533.7</ele>
        <time>2024-11-03T13:15:39Z</time>
      </trkpt>
      <trkpt lat="48.18723" lon="6.62535">
        <ele>533.9</ele>
        <time>2024-11-03T13:15:48Z</time>
      </trkpt>
      <trkpt lat="48.18732" lon="6.6254">
        <ele>534.1</ele>
        <time>2024-11-03T13:15:59Z</time>
      </trkpt>
      <trkpt lat="48.18741" lon="6.62545">
        <ele>534.3</ele>
        <time>2024-11-03T13:16:08Z</time>
      </trkpt>
      <trkpt lat="48.1875" lon="6.62549">
        <ele>534.4</ele>
        <time>2024-11-03T13:16:17Z</time>
      </trkpt>
      <trkpt lat="48.1876" lon="6.62551">
        <ele>534.5</ele>
        <time>2024-11-03T13:16:25Z</time>
      </trkpt>
      <trkpt lat="48.18769" lon="6.62553">
        <ele>534.5</ele>
        <time>2024-11-03T13:16:33Z</time>
      </trkpt>
      <trkpt lat="48.18779" lon="6.62556">
        <ele>534.6</ele>
        <time>2024-11-03T13:16:41Z</time>
      </trkpt>
      <trkpt lat="48.18788" lon="6.62558">
        <ele>534.7</ele>
        <time>2024-11-03T13:16:50Z</time>
      </trkpt>
      <trkpt lat="48.18797" lon="6.62561">
        <ele>534.8</ele>
        <time>2024-11-03T13:16:59Z</time>
      </trkpt>
      <trkpt lat="48.18807" lon="6.62566">
        <ele>534.8</ele>
        <time>2024-11-03T13:17:08Z</time>
      </trkpt>
      <trkpt lat="48.18816" lon="6.62571">
        <ele>534.7</ele>
        <time>2024-11-03T13:17:17Z</time>
      </trkpt>
      <trkpt lat="48.18826" lon="6.62572">
        <ele>534.7</ele>
        <time>2024-11-03T13:17:26Z</time>
      </trkpt>
      <trkpt lat="48.18835" lon="6.62572">
        <ele>534.6</ele>
        <time>2024-11-03T13:17:33Z</time>
      </trkpt>
      <trkpt lat="48.18844" lon="6.62579">
        <ele>534.5</ele>
        <time>2024-11-03T13:17:41Z</time>
      </trkpt>
      <trkpt lat="48.18842" lon="6.62576">
        <ele>534.5</ele>
        <time>2024-11-03T13:17:48Z</time>
      </trkpt>
      <trkpt lat="48.18842" lon="6.62576">
        <ele>534.5</ele>
        <time>2024-11-03T13:17:49Z</time>
      </trkpt>
      <trkpt lat="48.18839" lon="6.62572">
        <ele>534.5</ele>
        <time>2024-11-03T13:19:55Z</time>
      </trkpt>
      <trkpt lat="48.18839" lon="6.62574">
        <ele>534.5</ele>
        <time>2024-11-03T13:19:56Z</time>
      </trkpt>
      <trkpt lat="48.1884" lon="6.62574">
        <ele>534.5</ele>
        <time>2024-11-03T13:19:57Z</time>
      </trkpt>
      <trkpt lat="48.18848" lon="6.62582">
        <ele>534.4</ele>
        <time>2024-11-03T13:20:06Z</time>
      </trkpt>
      <trkpt lat="48.18853" lon="6.62594">
        <ele>534.4</ele>
        <time>2024-11-03T13:20:15Z</time>
      </trkpt>
      <trkpt lat="48.18852" lon="6.62594">
        <ele>534.4</ele>
        <time>2024-11-03T13:20:17Z</time>
      </trkpt>
      <trkpt lat="48.18852" lon="6.62594">
        <ele>534.4</ele>
        <time>2024-11-03T13:20:18Z</time>
      </trkpt>
      <trkpt lat="48.18852" lon="6.62594">
        <ele>534.4</ele>
        <time>2024-11-03T13:20:19Z</time>
      </trkpt>
      <trkpt lat="48.18854" lon="6.626">
        <ele>534.4</ele>
        <time>2024-11-03T13:22:11Z</time>
      </trkpt>
      <trkpt lat="48.18854" lon="6.62602">
        <ele>534.4</ele>
        <time>2024-11-03T13:22:12Z</time>
      </trkpt>
      <trkpt lat="48.1886" lon="6.62614">
        <ele>534.5</ele>
        <time>2024-11-03T13:22:21Z</time>
      </trkpt>
      <trkpt lat="48.1886" lon="6.62616">
        <ele>534.6</ele>
        <time>2024-11-03T13:22:27Z</time>
      </trkpt>
      <trkpt lat="48.1886" lon="6.62616">
        <ele>534.6</ele>
        <time>2024-11-03T13:22:28Z</time>
      </trkpt>
      <trkpt lat="48.1886" lon="6.62615">
        <ele>534.6</ele>
        <time>2024-11-03T13:22:29Z</time>
      </trkpt>
      <trkpt lat="48.18862" lon="6.62613">
        <ele>534.7</ele>
        <time>2024-11-03T13:23:22Z</time>
      </trkpt>
      <trkpt lat="48.18862" lon="6.62613">
        <ele>534.8</ele>
        <time>2024-11-03T13:23:23Z</time>
      </trkpt>
      <trkpt lat="48.18862" lon="6.62613">
        <ele>534.8</ele>
        <time>2024-11-03T13:23:24Z</time>
      </trkpt>
      <trkpt lat="48.18863" lon="6.62611">
        <ele>534.8</ele>
        <time>2024-11-03T13:23:41Z</time>
      </trkpt>
      <trkpt lat="48.18863" lon="6.62611">
        <ele>534.8</ele>
        <time>2024-11-03T13:23:42Z</time>
      </trkpt>
      <trkpt lat="48.18863" lon="6.62611">
        <ele>534.8</ele>
        <time>2024-11-03T13:23:46Z</time>
      </trkpt>
      <trkpt lat="48.18864" lon="6.62611">
        <ele>534.8</ele>
        <time>2024-11-03T13:23:47Z</time>
      </trkpt>
      <trkpt lat="48.18864" lon="6.62611">
        <ele>534.8</ele>
        <time>2024-11-03T13:23:48Z</time>
      </trkpt>
      <trkpt lat="48.18864" lon="6.62611">
        <ele>534.9</ele>
        <time>2024-11-03T13:23:49Z</time>
      </trkpt>
      <trkpt lat="48.18864" lon="6.62611">
        <ele>534.9</ele>
        <time>2024-11-03T13:23:50Z</time>
      </trkpt>
      <trkpt lat="48.18864" lon="6.62612">
        <ele>534.9</ele>
        <time>2024-11-03T13:24:23Z</time>
      </trkpt>
      <trkpt lat="48.18864" lon="6.62613">
        <ele>535</ele>
        <time>2024-11-03T13:24:24Z</time>
      </trkpt>
      <trkpt lat="48.18869" lon="6.62625">
        <ele>535.5</ele>
        <time>2024-11-03T13:24:35Z</time>
      </trkpt>
      <trkpt lat="48.18875" lon="6.62636">
        <ele>536.2</ele>
        <time>2024-11-03T13:24:41Z</time>
      </trkpt>
      <trkpt lat="48.18881" lon="6.62646">
        <ele>536.9</ele>
        <time>2024-11-03T13:24:47Z</time>
      </trkpt>
      <trkpt lat="48.18884" lon="6.6266">
        <ele>537.8</ele>
        <time>2024-11-03T13:24:56Z</time>
      </trkpt>
      <trkpt lat="48.18889" lon="6.62673">
        <ele>538.8</ele>
        <time>2024-11-03T13:25:08Z</time>
      </trkpt>
      <trkpt lat="48.18891" lon="6.62687">
        <ele>539.7</ele>
        <time>2024-11-03T13:25:18Z</time>
      </trkpt>
      <trkpt lat="48.18893" lon="6.62702">
        <ele>540.7</ele>
        <time>2024-11-03T13:25:27Z</time>
      </trkpt>
      <trkpt lat="48.18896" lon="6.62715">
        <ele>541.5</ele>
        <time>2024-11-03T13:25:35Z</time>
      </trkpt>
      <trkpt lat="48.189" lon="6.62728">
        <ele>542.3</ele>
        <time>2024-11-03T13:25:42Z</time>
      </trkpt>
      <trkpt lat="48.18902" lon="6.62741">
        <ele>542.9</ele>
        <time>2024-11-03T13:25:51Z</time>
      </trkpt>
      <trkpt lat="48.18904" lon="6.62751">
        <ele>542.9</ele>
        <time>2024-11-03T13:26:03Z</time>
      </trkpt>
      <trkpt lat="48.18904" lon="6.62751">
        <ele>542.9</ele>
        <time>2024-11-03T13:26:04Z</time>
      </trkpt>
      <trkpt lat="48.18905" lon="6.6275">
        <ele>542.9</ele>
        <time>2024-11-03T13:26:07Z</time>
      </trkpt>
      <trkpt lat="48.18906" lon="6.6275">
        <ele>542.9</ele>
        <time>2024-11-03T13:26:08Z</time>
      </trkpt>
      <trkpt lat="48.18906" lon="6.62751">
        <ele>542.9</ele>
        <time>2024-11-03T13:26:09Z</time>
      </trkpt>
      <trkpt lat="48.18913" lon="6.6276">
        <ele>542.9</ele>
        <time>2024-11-03T13:26:19Z</time>
      </trkpt>
      <trkpt lat="48.18922" lon="6.62766">
        <ele>542.8</ele>
        <time>2024-11-03T13:26:28Z</time>
      </trkpt>
      <trkpt lat="48.18931" lon="6.62775">
        <ele>542.8</ele>
        <time>2024-11-03T13:26:35Z</time>
      </trkpt>
      <trkpt lat="48.1894" lon="6.62781">
        <ele>542.8</ele>
        <time>2024-11-03T13:26:41Z</time>
      </trkpt>
      <trkpt lat="48.18949" lon="6.62788">
        <ele>542.9</ele>
        <time>2024-11-03T13:26:49Z</time>
      </trkpt>
      <trkpt lat="48.18957" lon="6.62793">
        <ele>542.9</ele>
        <time>2024-11-03T13:26:56Z</time>
      </trkpt>
      <trkpt lat="48.18967" lon="6.62797">
        <ele>542.9</ele>
        <time>2024-11-03T13:27:04Z</time>
      </trkpt>
      <trkpt lat="48.18976" lon="6.62803">
        <ele>543</ele>
        <time>2024-11-03T13:27:12Z</time>
      </trkpt>
      <trkpt lat="48.18984" lon="6.6281">
        <ele>543</ele>
        <time>2024-11-03T13:27:19Z</time>
      </trkpt>
      <trkpt lat="48.18993" lon="6.62814">
        <ele>543.1</ele>
        <time>2024-11-03T13:27:26Z</time>
      </trkpt>
      <trkpt lat="48.19002" lon="6.62818">
        <ele>543.2</ele>
        <time>2024-11-03T13:27:34Z</time>
      </trkpt>
      <trkpt lat="48.1901" lon="6.62824">
        <ele>543.2</ele>
        <time>2024-11-03T13:27:41Z</time>
      </trkpt>
      <trkpt lat="48.19019" lon="6.6283">
        <ele>543.1</ele>
        <time>2024-11-03T13:27:49Z</time>
      </trkpt>
      <trkpt lat="48.19022" lon="6.62835">
        <ele>543.1</ele>
        <time>2024-11-03T13:27:58Z</time>
      </trkpt>
      <trkpt lat="48.19022" lon="6.62835">
        <ele>543.1</ele>
        <time>2024-11-03T13:27:59Z</time>
      </trkpt>
      <trkpt lat="48.19022" lon="6.62835">
        <ele>543.1</ele>
        <time>2024-11-03T13:28:02Z</time>
      </trkpt>
      <trkpt lat="48.19023" lon="6.62835">
        <ele>543.1</ele>
        <time>2024-11-03T13:28:03Z</time>
      </trkpt>
      <trkpt lat="48.19024" lon="6.62836">
        <ele>543.1</ele>
        <time>2024-11-03T13:28:04Z</time>
      </trkpt>
      <trkpt lat="48.19032" lon="6.6284">
        <ele>543</ele>
        <time>2024-11-03T13:28:11Z</time>
      </trkpt>
      <trkpt lat="48.1904" lon="6.62846">
        <ele>543</ele>
        <time>2024-11-03T13:28:18Z</time>
      </trkpt>
      <trkpt lat="48.19049" lon="6.62852">
        <ele>543</ele>
        <time>2024-11-03T13:28:33Z</time>
      </trkpt>
      <trkpt lat="48.19059" lon="6.62857">
        <ele>543.1</ele>
        <time>2024-11-03T13:28:39Z</time>
      </trkpt>
      <trkpt lat="48.19069" lon="6.62862">
        <ele>543.3</ele>
        <time>2024-11-03T13:28:43Z</time>
      </trkpt>
      <trkpt lat="48.19077" lon="6.62869">
        <ele>543.5</ele>
        <time>2024-11-03T13:28:48Z</time>
      </trkpt>
      <trkpt lat="48.19086" lon="6.62872">
        <ele>543.6</ele>
        <time>2024-11-03T13:28:55Z</time>
      </trkpt>
      <trkpt lat="48.19089" lon="6.62873">
        <ele>543.6</ele>
        <time>2024-11-03T13:29:02Z</time>
      </trkpt>
      <trkpt lat="48.19088" lon="6.62873">
        <ele>543.6</ele>
        <time>2024-11-03T13:29:03Z</time>
      </trkpt>
      <trkpt lat="48.19087" lon="6.62872">
        <ele>543.6</ele>
        <time>2024-11-03T13:29:04Z</time>
      </trkpt>
      <trkpt lat="48.19087" lon="6.62873">
        <ele>543.6</ele>
        <time>2024-11-03T13:29:07Z</time>
      </trkpt>
      <trkpt lat="48.19088" lon="6.62874">
        <ele>543.6</ele>
        <time>2024-11-03T13:29:08Z</time>
      </trkpt>
      <trkpt lat="48.19089" lon="6.62874">
        <ele>543.6</ele>
        <time>2024-11-03T13:29:09Z</time>
      </trkpt>
      <trkpt lat="48.19098" lon="6.62877">
        <ele>543.7</ele>
        <time>2024-11-03T13:29:16Z</time>
      </trkpt>
      <trkpt lat="48.19108" lon="6.62879">
        <ele>543.6</ele>
        <time>2024-11-03T13:29:24Z</time>
      </trkpt>
      <trkpt lat="48.19116" lon="6.62884">
        <ele>543.6</ele>
        <time>2024-11-03T13:29:32Z</time>
      </trkpt>
      <trkpt lat="48.19121" lon="6.62887">
        <ele>543.6</ele>
        <time>2024-11-03T13:29:40Z</time>
      </trkpt>
      <trkpt lat="48.19121" lon="6.62887">
        <ele>543.6</ele>
        <time>2024-11-03T13:29:41Z</time>
      </trkpt>
      <trkpt lat="48.19122" lon="6.62886">
        <ele>543.6</ele>
        <time>2024-11-03T13:29:45Z</time>
      </trkpt>
      <trkpt lat="48.19123" lon="6.62884">
        <ele>543.6</ele>
        <time>2024-11-03T13:29:46Z</time>
      </trkpt>
      <trkpt lat="48.19125" lon="6.6288">
        <ele>543.6</ele>
        <time>2024-11-03T13:29:50Z</time>
      </trkpt>
      <trkpt lat="48.19125" lon="6.62878">
        <ele>543.6</ele>
        <time>2024-11-03T13:29:51Z</time>
      </trkpt>
      <trkpt lat="48.19127" lon="6.62878">
        <ele>543.6</ele>
        <time>2024-11-03T13:30:10Z</time>
      </trkpt>
      <trkpt lat="48.19127" lon="6.62877">
        <ele>543.6</ele>
        <time>2024-11-03T13:30:11Z</time>
      </trkpt>
      <trkpt lat="48.19119" lon="6.6287">
        <ele>543.6</ele>
        <time>2024-11-03T13:30:23Z</time>
      </trkpt>
      <trkpt lat="48.19119" lon="6.6287">
        <ele>543.6</ele>
        <time>2024-11-03T13:30:24Z</time>
      </trkpt>
      <trkpt lat="48.19119" lon="6.6287">
        <ele>543.6</ele>
        <time>2024-11-03T13:30:25Z</time>
      </trkpt>
      <trkpt lat="48.1912" lon="6.62871">
        <ele>543.6</ele>
        <time>2024-11-03T13:30:26Z</time>
      </trkpt>
      <trkpt lat="48.19129" lon="6.62877">
        <ele>543.7</ele>
        <time>2024-11-03T13:30:35Z</time>
      </trkpt>
      <trkpt lat="48.19137" lon="6.62886">
        <ele>543.9</ele>
        <time>2024-11-03T13:30:43Z</time>
      </trkpt>
      <trkpt lat="48.19144" lon="6.62895">
        <ele>544</ele>
        <time>2024-11-03T13:30:52Z</time>
      </trkpt>
      <trkpt lat="48.19152" lon="6.62904">
        <ele>544.2</ele>
        <time>2024-11-03T13:30:59Z</time>
      </trkpt>
      <trkpt lat="48.1916" lon="6.6291">
        <ele>544.2</ele>
        <time>2024-11-03T13:31:07Z</time>
      </trkpt>
      <trkpt lat="48.19167" lon="6.62918">
        <ele>544.2</ele>
        <time>2024-11-03T13:31:15Z</time>
      </trkpt>
      <trkpt lat="48.19175" lon="6.62925">
        <ele>544.2</ele>
        <time>2024-11-03T13:31:23Z</time>
      </trkpt>
      <trkpt lat="48.19183" lon="6.62933">
        <ele>544.2</ele>
        <time>2024-11-03T13:31:31Z</time>
      </trkpt>
      <trkpt lat="48.19191" lon="6.6294">
        <ele>544.2</ele>
        <time>2024-11-03T13:31:38Z</time>
      </trkpt>
      <trkpt lat="48.19199" lon="6.62948">
        <ele>544.2</ele>
        <time>2024-11-03T13:31:45Z</time>
      </trkpt>
      <trkpt lat="48.19208" lon="6.62954">
        <ele>544.2</ele>
        <time>2024-11-03T13:31:54Z</time>
      </trkpt>
      <trkpt lat="48.19217" lon="6.6296">
        <ele>544.2</ele>
        <time>2024-11-03T13:32:02Z</time>
      </trkpt>
      <trkpt lat="48.19224" lon="6.62971">
        <ele>544.2</ele>
        <time>2024-11-03T13:32:10Z</time>
      </trkpt>
      <trkpt lat="48.19231" lon="6.62981">
        <ele>544.2</ele>
        <time>2024-11-03T13:32:17Z</time>
      </trkpt>
      <trkpt lat="48.19239" lon="6.62989">
        <ele>544.2</ele>
        <time>2024-11-03T13:32:25Z</time>
      </trkpt>
      <trkpt lat="48.19248" lon="6.62996">
        <ele>544.3</ele>
        <time>2024-11-03T13:32:32Z</time>
      </trkpt>
      <trkpt lat="48.19255" lon="6.63004">
        <ele>544.4</ele>
        <time>2024-11-03T13:32:39Z</time>
      </trkpt>
      <trkpt lat="48.19262" lon="6.63013">
        <ele>544.5</ele>
        <time>2024-11-03T13:32:47Z</time>
      </trkpt>
      <trkpt lat="48.19268" lon="6.63023">
        <ele>544.7</ele>
        <time>2024-11-03T13:32:54Z</time>
      </trkpt>
      <trkpt lat="48.19275" lon="6.63034">
        <ele>544.9</ele>
        <time>2024-11-03T13:33:01Z</time>
      </trkpt>
      <trkpt lat="48.19281" lon="6.63045">
        <ele>545.1</ele>
        <time>2024-11-03T13:33:08Z</time>
      </trkpt>
      <trkpt lat="48.19287" lon="6.63054">
        <ele>545.2</ele>
        <time>2024-11-03T13:33:15Z</time>
      </trkpt>
      <trkpt lat="48.19294" lon="6.63064">
        <ele>545.3</ele>
        <time>2024-11-03T13:33:22Z</time>
      </trkpt>
      <trkpt lat="48.19302" lon="6.63075">
        <ele>545.3</ele>
        <time>2024-11-03T13:33:30Z</time>
      </trkpt>
      <trkpt lat="48.1931" lon="6.63085">
        <ele>545.2</ele>
        <time>2024-11-03T13:33:37Z</time>
      </trkpt>
      <trkpt lat="48.19318" lon="6.63093">
        <ele>545.1</ele>
        <time>2024-11-03T13:33:44Z</time>
      </trkpt>
      <trkpt lat="48.19326" lon="6.631">
        <ele>544.9</ele>
        <time>2024-11-03T13:33:51Z</time>
      </trkpt>
      <trkpt lat="48.19335" lon="6.63107">
        <ele>544.7</ele>
        <time>2024-11-03T13:33:59Z</time>
      </trkpt>
      <trkpt lat="48.19343" lon="6.63114">
        <ele>544.5</ele>
        <time>2024-11-03T13:34:06Z</time>
      </trkpt>
      <trkpt lat="48.19349" lon="6.63124">
        <ele>544.4</ele>
        <time>2024-11-03T13:34:13Z</time>
      </trkpt>
      <trkpt lat="48.19354" lon="6.63137">
        <ele>544.2</ele>
        <time>2024-11-03T13:34:20Z</time>
      </trkpt>
      <trkpt lat="48.1936" lon="6.63148">
        <ele>544.1</ele>
        <time>2024-11-03T13:34:28Z</time>
      </trkpt>
      <trkpt lat="48.19366" lon="6.63158">
        <ele>544</ele>
        <time>2024-11-03T13:34:35Z</time>
      </trkpt>
      <trkpt lat="48.19371" lon="6.6317">
        <ele>543.7</ele>
        <time>2024-11-03T13:34:43Z</time>
      </trkpt>
      <trkpt lat="48.19378" lon="6.63179">
        <ele>543.3</ele>
        <time>2024-11-03T13:34:51Z</time>
      </trkpt>
      <trkpt lat="48.19387" lon="6.63187">
        <ele>542.6</ele>
        <time>2024-11-03T13:34:59Z</time>
      </trkpt>
      <trkpt lat="48.19395" lon="6.63192">
        <ele>541.9</ele>
        <time>2024-11-03T13:35:07Z</time>
      </trkpt>
      <trkpt lat="48.19403" lon="6.63199">
        <ele>541.1</ele>
        <time>2024-11-03T13:35:14Z</time>
      </trkpt>
      <trkpt lat="48.1941" lon="6.63209">
        <ele>540.2</ele>
        <time>2024-11-03T13:35:22Z</time>
      </trkpt>
      <trkpt lat="48.19418" lon="6.63217">
        <ele>539.4</ele>
        <time>2024-11-03T13:35:31Z</time>
      </trkpt>
      <trkpt lat="48.19426" lon="6.63225">
        <ele>538.8</ele>
        <time>2024-11-03T13:35:38Z</time>
      </trkpt>
      <trkpt lat="48.19434" lon="6.63233">
        <ele>538.3</ele>
        <time>2024-11-03T13:35:45Z</time>
      </trkpt>
      <trkpt lat="48.19442" lon="6.63239">
        <ele>537.8</ele>
        <time>2024-11-03T13:35:52Z</time>
      </trkpt>
      <trkpt lat="48.19449" lon="6.63248">
        <ele>537.4</ele>
        <time>2024-11-03T13:36:00Z</time>
      </trkpt>
      <trkpt lat="48.19456" lon="6.63258">
        <ele>536.8</ele>
        <time>2024-11-03T13:36:07Z</time>
      </trkpt>
      <trkpt lat="48.19463" lon="6.63267">
        <ele>536.3</ele>
        <time>2024-11-03T13:36:15Z</time>
      </trkpt>
      <trkpt lat="48.1947" lon="6.63276">
        <ele>535.7</ele>
        <time>2024-11-03T13:36:23Z</time>
      </trkpt>
      <trkpt lat="48.19478" lon="6.63284">
        <ele>535.1</ele>
        <time>2024-11-03T13:36:31Z</time>
      </trkpt>
      <trkpt lat="48.19484" lon="6.63294">
        <ele>534.6</ele>
        <time>2024-11-03T13:36:39Z</time>
      </trkpt>
      <trkpt lat="48.19491" lon="6.63304">
        <ele>534</ele>
        <time>2024-11-03T13:36:48Z</time>
      </trkpt>
      <trkpt lat="48.19499" lon="6.63313">
        <ele>533.3</ele>
        <time>2024-11-03T13:36:58Z</time>
      </trkpt>
      <trkpt lat="48.19505" lon="6.63324">
        <ele>532.6</ele>
        <time>2024-11-03T13:37:07Z</time>
      </trkpt>
      <trkpt lat="48.19511" lon="6.63334">
        <ele>532</ele>
        <time>2024-11-03T13:37:15Z</time>
      </trkpt>
      <trkpt lat="48.19519" lon="6.63342">
        <ele>531.4</ele>
        <time>2024-11-03T13:37:23Z</time>
      </trkpt>
      <trkpt lat="48.19525" lon="6.63354">
        <ele>530.7</ele>
        <time>2024-11-03T13:37:31Z</time>
      </trkpt>
      <trkpt lat="48.19532" lon="6.63363">
        <ele>530.2</ele>
        <time>2024-11-03T13:37:39Z</time>
      </trkpt>
      <trkpt lat="48.1954" lon="6.63372">
        <ele>529.7</ele>
        <time>2024-11-03T13:37:48Z</time>
      </trkpt>
      <trkpt lat="48.19546" lon="6.63382">
        <ele>529.2</ele>
        <time>2024-11-03T13:37:56Z</time>
      </trkpt>
      <trkpt lat="48.19551" lon="6.63396">
        <ele>528.7</ele>
        <time>2024-11-03T13:38:04Z</time>
      </trkpt>
      <trkpt lat="48.19557" lon="6.63407">
        <ele>528.3</ele>
        <time>2024-11-03T13:38:11Z</time>
      </trkpt>
      <trkpt lat="48.19561" lon="6.63419">
        <ele>527.8</ele>
        <time>2024-11-03T13:38:18Z</time>
      </trkpt>
      <trkpt lat="48.19569" lon="6.63411">
        <ele>525.3</ele>
        <time>2024-11-03T13:38:26Z</time>
      </trkpt>
      <trkpt lat="48.19569" lon="6.63396">
        <ele>524.1</ele>
        <time>2024-11-03T13:38:32Z</time>
      </trkpt>
      <trkpt lat="48.19568" lon="6.63381">
        <ele>523</ele>
        <time>2024-11-03T13:38:40Z</time>
      </trkpt>
      <trkpt lat="48.19569" lon="6.63367">
        <ele>521.3</ele>
        <time>2024-11-03T13:38:47Z</time>
      </trkpt>
      <trkpt lat="48.19568" lon="6.63353">
        <ele>519.8</ele>
        <time>2024-11-03T13:38:55Z</time>
      </trkpt>
      <trkpt lat="48.19566" lon="6.6334">
        <ele>519</ele>
        <time>2024-11-03T13:39:02Z</time>
      </trkpt>
      <trkpt lat="48.19563" lon="6.63325">
        <ele>517.4</ele>
        <time>2024-11-03T13:39:09Z</time>
      </trkpt>
      <trkpt lat="48.19561" lon="6.63312">
        <ele>516.3</ele>
        <time>2024-11-03T13:39:15Z</time>
      </trkpt>
      <trkpt lat="48.19558" lon="6.63298">
        <ele>515</ele>
        <time>2024-11-03T13:39:21Z</time>
      </trkpt>
      <trkpt lat="48.19554" lon="6.63286">
        <ele>513.7</ele>
        <time>2024-11-03T13:39:28Z</time>
      </trkpt>
      <trkpt lat="48.1955" lon="6.63273">
        <ele>513</ele>
        <time>2024-11-03T13:39:35Z</time>
      </trkpt>
      <trkpt lat="48.19546" lon="6.63261">
        <ele>511.8</ele>
        <time>2024-11-03T13:39:42Z</time>
      </trkpt>
      <trkpt lat="48.19543" lon="6.63246">
        <ele>510.2</ele>
        <time>2024-11-03T13:39:53Z</time>
      </trkpt>
      <trkpt lat="48.19538" lon="6.63233">
        <ele>509.5</ele>
        <time>2024-11-03T13:39:59Z</time>
      </trkpt>
      <trkpt lat="48.19534" lon="6.6322">
        <ele>508.2</ele>
        <time>2024-11-03T13:40:06Z</time>
      </trkpt>
      <trkpt lat="48.19533" lon="6.63206">
        <ele>507</ele>
        <time>2024-11-03T13:40:14Z</time>
      </trkpt>
      <trkpt lat="48.19529" lon="6.63194">
        <ele>505.9</ele>
        <time>2024-11-03T13:40:22Z</time>
      </trkpt>
      <trkpt lat="48.19523" lon="6.63182">
        <ele>505.3</ele>
        <time>2024-11-03T13:40:30Z</time>
      </trkpt>
      <trkpt lat="48.19519" lon="6.63168">
        <ele>504.5</ele>
        <time>2024-11-03T13:40:39Z</time>
      </trkpt>
      <trkpt lat="48.19514" lon="6.63155">
        <ele>503.1</ele>
        <time>2024-11-03T13:40:47Z</time>
      </trkpt>
      <trkpt lat="48.19512" lon="6.63142">
        <ele>502</ele>
        <time>2024-11-03T13:40:55Z</time>
      </trkpt>
      <trkpt lat="48.19512" lon="6.63128">
        <ele>500.6</ele>
        <time>2024-11-03T13:41:03Z</time>
      </trkpt>
      <trkpt lat="48.19514" lon="6.63114">
        <ele>498.2</ele>
        <time>2024-11-03T13:41:13Z</time>
      </trkpt>
      <trkpt lat="48.1951" lon="6.63101">
        <ele>497</ele>
        <time>2024-11-03T13:41:21Z</time>
      </trkpt>
      <trkpt lat="48.19505" lon="6.63088">
        <ele>496.5</ele>
        <time>2024-11-03T13:41:29Z</time>
      </trkpt>
      <trkpt lat="48.19497" lon="6.63079">
        <ele>497.1</ele>
        <time>2024-11-03T13:41:35Z</time>
      </trkpt>
      <trkpt lat="48.19488" lon="6.63071">
        <ele>497.6</ele>
        <time>2024-11-03T13:41:42Z</time>
      </trkpt>
      <trkpt lat="48.19479" lon="6.63066">
        <ele>498.4</ele>
        <time>2024-11-03T13:41:49Z</time>
      </trkpt>
      <trkpt lat="48.19477" lon="6.63066">
        <ele>498.9</ele>
        <time>2024-11-03T13:41:55Z</time>
      </trkpt>
      <trkpt lat="48.19477" lon="6.63066">
        <ele>498.9</ele>
        <time>2024-11-03T13:41:56Z</time>
      </trkpt>
      <trkpt lat="48.19477" lon="6.63066">
        <ele>498.8</ele>
        <time>2024-11-03T13:41:57Z</time>
      </trkpt>
      <trkpt lat="48.19475" lon="6.63064">
        <ele>499.4</ele>
        <time>2024-11-03T13:42:01Z</time>
      </trkpt>
      <trkpt lat="48.19475" lon="6.63063">
        <ele>498.6</ele>
        <time>2024-11-03T13:42:02Z</time>
      </trkpt>
      <trkpt lat="48.19469" lon="6.63052">
        <ele>498.3</ele>
        <time>2024-11-03T13:42:12Z</time>
      </trkpt>
      <trkpt lat="48.19464" lon="6.63039">
        <ele>497.6</ele>
        <time>2024-11-03T13:42:20Z</time>
      </trkpt>
      <trkpt lat="48.19462" lon="6.63025">
        <ele>495.7</ele>
        <time>2024-11-03T13:42:28Z</time>
      </trkpt>
      <trkpt lat="48.19462" lon="6.63012">
        <ele>493.4</ele>
        <time>2024-11-03T13:42:36Z</time>
      </trkpt>
      <trkpt lat="48.19461" lon="6.62998">
        <ele>492.6</ele>
        <time>2024-11-03T13:42:45Z</time>
      </trkpt>
      <trkpt lat="48.19462" lon="6.62984">
        <ele>491.1</ele>
        <time>2024-11-03T13:42:54Z</time>
      </trkpt>
      <trkpt lat="48.19462" lon="6.6297">
        <ele>488.6</ele>
        <time>2024-11-03T13:43:02Z</time>
      </trkpt>
      <trkpt lat="48.1946" lon="6.62959">
        <ele>487.2</ele>
        <time>2024-11-03T13:43:13Z</time>
      </trkpt>
      <trkpt lat="48.1946" lon="6.62959">
        <ele>487.2</ele>
        <time>2024-11-03T13:43:14Z</time>
      </trkpt>
      <trkpt lat="48.19451" lon="6.62956">
        <ele>489.1</ele>
        <time>2024-11-03T13:43:23Z</time>
      </trkpt>
      <trkpt lat="48.1945" lon="6.62957">
        <ele>489.9</ele>
        <time>2024-11-03T13:43:24Z</time>
      </trkpt>
      <trkpt lat="48.1945" lon="6.62956">
        <ele>489.9</ele>
        <time>2024-11-03T13:43:25Z</time>
      </trkpt>
      <trkpt lat="48.1945" lon="6.62956">
        <ele>489.9</ele>
        <time>2024-11-03T13:43:26Z</time>
      </trkpt>
      <trkpt lat="48.1945" lon="6.62956">
        <ele>489.8</ele>
        <time>2024-11-03T13:43:27Z</time>
      </trkpt>
      <trkpt lat="48.19448" lon="6.62954">
        <ele>489.1</ele>
        <time>2024-11-03T13:43:48Z</time>
      </trkpt>
      <trkpt lat="48.19448" lon="6.62952">
        <ele>488.5</ele>
        <time>2024-11-03T13:43:49Z</time>
      </trkpt>
      <trkpt lat="48.19445" lon="6.62938">
        <ele>487.2</ele>
        <time>2024-11-03T13:43:56Z</time>
      </trkpt>
      <trkpt lat="48.19442" lon="6.62925">
        <ele>486</ele>
        <time>2024-11-03T13:44:03Z</time>
      </trkpt>
      <trkpt lat="48.19437" lon="6.62913">
        <ele>485.7</ele>
        <time>2024-11-03T13:44:11Z</time>
      </trkpt>
      <trkpt lat="48.1943" lon="6.62901">
        <ele>486.7</ele>
        <time>2024-11-03T13:44:20Z</time>
      </trkpt>
      <trkpt lat="48.19423" lon="6.6289">
        <ele>486.6</ele>
        <time>2024-11-03T13:44:28Z</time>
      </trkpt>
      <trkpt lat="48.19417" lon="6.62878">
        <ele>486.7</ele>
        <time>2024-11-03T13:44:36Z</time>
      </trkpt>
      <trkpt lat="48.19415" lon="6.62864">
        <ele>486.4</ele>
        <time>2024-11-03T13:44:45Z</time>
      </trkpt>
      <trkpt lat="48.19413" lon="6.6285">
        <ele>486.4</ele>
        <time>2024-11-03T13:44:52Z</time>
      </trkpt>
      <trkpt lat="48.19411" lon="6.62835">
        <ele>485.4</ele>
        <time>2024-11-03T13:45:01Z</time>
      </trkpt>
      <trkpt lat="48.19415" lon="6.62822">
        <ele>484.1</ele>
        <time>2024-11-03T13:45:09Z</time>
      </trkpt>
      <trkpt lat="48.19417" lon="6.62807">
        <ele>483.6</ele>
        <time>2024-11-03T13:45:22Z</time>
      </trkpt>
      <trkpt lat="48.19426" lon="6.62802">
        <ele>481.1</ele>
        <time>2024-11-03T13:45:31Z</time>
      </trkpt>
      <trkpt lat="48.19432" lon="6.62791">
        <ele>480.3</ele>
        <time>2024-11-03T13:45:38Z</time>
      </trkpt>
      <trkpt lat="48.1944" lon="6.62781">
        <ele>478.5</ele>
        <time>2024-11-03T13:45:45Z</time>
      </trkpt>
      <trkpt lat="48.19446" lon="6.62769">
        <ele>477.4</ele>
        <time>2024-11-03T13:45:52Z</time>
      </trkpt>
      <trkpt lat="48.19452" lon="6.62759">
        <ele>476.1</ele>
        <time>2024-11-03T13:45:59Z</time>
      </trkpt>
      <trkpt lat="48.19455" lon="6.62746">
        <ele>475.6</ele>
        <time>2024-11-03T13:46:07Z</time>
      </trkpt>
      <trkpt lat="48.19457" lon="6.62747">
        <ele>474.7</ele>
        <time>2024-11-03T13:46:08Z</time>
      </trkpt>
      <trkpt lat="48.19459" lon="6.62747">
        <ele>474</ele>
        <time>2024-11-03T13:46:09Z</time>
      </trkpt>
      <trkpt lat="48.19462" lon="6.62745">
        <ele>473.4</ele>
        <time>2024-11-03T13:46:20Z</time>
      </trkpt>
      <trkpt lat="48.19462" lon="6.62743">
        <ele>473.3</ele>
        <time>2024-11-03T13:46:21Z</time>
      </trkpt>
      <trkpt lat="48.19462" lon="6.62742">
        <ele>473.3</ele>
        <time>2024-11-03T13:46:22Z</time>
      </trkpt>
      <trkpt lat="48.19462" lon="6.62729">
        <ele>473.9</ele>
        <time>2024-11-03T13:46:30Z</time>
      </trkpt>
      <trkpt lat="48.1946" lon="6.62714">
        <ele>475.4</ele>
        <time>2024-11-03T13:46:37Z</time>
      </trkpt>
      <trkpt lat="48.19458" lon="6.627">
        <ele>476.9</ele>
        <time>2024-11-03T13:46:44Z</time>
      </trkpt>
      <trkpt lat="48.19454" lon="6.62688">
        <ele>478.4</ele>
        <time>2024-11-03T13:46:50Z</time>
      </trkpt>
      <trkpt lat="48.19449" lon="6.62676">
        <ele>481</ele>
        <time>2024-11-03T13:46:56Z</time>
      </trkpt>
      <trkpt lat="48.19444" lon="6.62665">
        <ele>483.5</ele>
        <time>2024-11-03T13:47:03Z</time>
      </trkpt>
      <trkpt lat="48.19439" lon="6.62651">
        <ele>486</ele>
        <time>2024-11-03T13:47:10Z</time>
      </trkpt>
      <trkpt lat="48.19435" lon="6.62643">
        <ele>487.8</ele>
        <time>2024-11-03T13:47:18Z</time>
      </trkpt>
      <trkpt lat="48.19435" lon="6.62643">
        <ele>488.1</ele>
        <time>2024-11-03T13:47:19Z</time>
      </trkpt>
      <trkpt lat="48.19434" lon="6.6264">
        <ele>488</ele>
        <time>2024-11-03T13:47:23Z</time>
      </trkpt>
      <trkpt lat="48.19433" lon="6.62638">
        <ele>488.9</ele>
        <time>2024-11-03T13:47:24Z</time>
      </trkpt>
      <trkpt lat="48.19425" lon="6.62629">
        <ele>490.5</ele>
        <time>2024-11-03T13:47:32Z</time>
      </trkpt>
      <trkpt lat="48.19417" lon="6.62621">
        <ele>492.9</ele>
        <time>2024-11-03T13:47:38Z</time>
      </trkpt>
      <trkpt lat="48.19408" lon="6.62614">
        <ele>495.2</ele>
        <time>2024-11-03T13:47:45Z</time>
      </trkpt>
      <trkpt lat="48.19402" lon="6.62602">
        <ele>497</ele>
        <time>2024-11-03T13:47:55Z</time>
      </trkpt>
      <trkpt lat="48.19392" lon="6.62594">
        <ele>499.1</ele>
        <time>2024-11-03T13:48:00Z</time>
      </trkpt>
      <trkpt lat="48.19384" lon="6.62587">
        <ele>501.4</ele>
        <time>2024-11-03T13:48:05Z</time>
      </trkpt>
      <trkpt lat="48.19377" lon="6.62578">
        <ele>503.1</ele>
        <time>2024-11-03T13:48:15Z</time>
      </trkpt>
      <trkpt lat="48.1937" lon="6.62569">
        <ele>504.2</ele>
        <time>2024-11-03T13:48:22Z</time>
      </trkpt>
      <trkpt lat="48.19364" lon="6.62558">
        <ele>505.8</ele>
        <time>2024-11-03T13:48:29Z</time>
      </trkpt>
      <trkpt lat="48.19357" lon="6.62549">
        <ele>506.9</ele>
        <time>2024-11-03T13:48:36Z</time>
      </trkpt>
      <trkpt lat="48.1935" lon="6.62537">
        <ele>506</ele>
        <time>2024-11-03T13:48:44Z</time>
      </trkpt>
      <trkpt lat="48.19349" lon="6.62536">
        <ele>506</ele>
        <time>2024-11-03T13:48:50Z</time>
      </trkpt>
      <trkpt lat="48.19349" lon="6.62536">
        <ele>503.8</ele>
        <time>2024-11-03T13:48:51Z</time>
      </trkpt>
      <trkpt lat="48.19349" lon="6.62535">
        <ele>503.8</ele>
        <time>2024-11-03T13:48:52Z</time>
      </trkpt>
      <trkpt lat="48.19349" lon="6.62536">
        <ele>505.9</ele>
        <time>2024-11-03T13:48:53Z</time>
      </trkpt>
      <trkpt lat="48.19349" lon="6.62536">
        <ele>505.9</ele>
        <time>2024-11-03T13:48:54Z</time>
      </trkpt>
      <trkpt lat="48.1935" lon="6.62537">
        <ele>505</ele>
        <time>2024-11-03T13:48:55Z</time>
      </trkpt>
      <trkpt lat="48.19346" lon="6.62538">
        <ele>506.4</ele>
        <time>2024-11-03T13:49:01Z</time>
      </trkpt>
      <trkpt lat="48.19345" lon="6.62538">
        <ele>506.4</ele>
        <time>2024-11-03T13:49:02Z</time>
      </trkpt>
      <trkpt lat="48.19345" lon="6.62539">
        <ele>506.4</ele>
        <time>2024-11-03T13:49:03Z</time>
      </trkpt>
      <trkpt lat="48.19345" lon="6.6254">
        <ele>507.8</ele>
        <time>2024-11-03T13:49:04Z</time>
      </trkpt>
      <trkpt lat="48.19345" lon="6.62542">
        <ele>507.8</ele>
        <time>2024-11-03T13:49:05Z</time>
      </trkpt>
      <trkpt lat="48.19346" lon="6.62542">
        <ele>507.8</ele>
        <time>2024-11-03T13:49:06Z</time>
      </trkpt>
      <trkpt lat="48.19346" lon="6.62543">
        <ele>507.7</ele>
        <time>2024-11-03T13:49:07Z</time>
      </trkpt>
      <trkpt lat="48.19346" lon="6.62543">
        <ele>507.7</ele>
        <time>2024-11-03T13:49:15Z</time>
      </trkpt>
      <trkpt lat="48.19346" lon="6.62543">
        <ele>507.7</ele>
        <time>2024-11-03T13:49:16Z</time>
      </trkpt>
      <trkpt lat="48.19345" lon="6.62542">
        <ele>507.6</ele>
        <time>2024-11-03T13:49:32Z</time>
      </trkpt>
      <trkpt lat="48.19345" lon="6.62543">
        <ele>507.6</ele>
        <time>2024-11-03T13:49:33Z</time>
      </trkpt>
      <trkpt lat="48.19345" lon="6.62545">
        <ele>508.4</ele>
        <time>2024-11-03T13:49:34Z</time>
      </trkpt>
      <trkpt lat="48.19335" lon="6.62544">
        <ele>507.4</ele>
        <time>2024-11-03T13:49:45Z</time>
      </trkpt>
      <trkpt lat="48.19331" lon="6.6253">
        <ele>502.2</ele>
        <time>2024-11-03T13:49:57Z</time>
      </trkpt>
      <trkpt lat="48.19324" lon="6.62521">
        <ele>498.3</ele>
        <time>2024-11-03T13:50:04Z</time>
      </trkpt>
      <trkpt lat="48.19317" lon="6.62511">
        <ele>496.5</ele>
        <time>2024-11-03T13:50:08Z</time>
      </trkpt>
      <trkpt lat="48.19309" lon="6.62503">
        <ele>496.5</ele>
        <time>2024-11-03T13:50:12Z</time>
      </trkpt>
      <trkpt lat="48.19298" lon="6.62497">
        <ele>496.5</ele>
        <time>2024-11-03T13:50:17Z</time>
      </trkpt>
      <trkpt lat="48.19294" lon="6.62485">
        <ele>496.1</ele>
        <time>2024-11-03T13:50:28Z</time>
      </trkpt>
      <trkpt lat="48.19285" lon="6.6248">
        <ele>494.8</ele>
        <time>2024-11-03T13:50:35Z</time>
      </trkpt>
      <trkpt lat="48.19276" lon="6.62476">
        <ele>493.3</ele>
        <time>2024-11-03T13:50:40Z</time>
      </trkpt>
      <trkpt lat="48.19265" lon="6.62476">
        <ele>491</ele>
        <time>2024-11-03T13:50:47Z</time>
      </trkpt>
      <trkpt lat="48.19256" lon="6.6248">
        <ele>489.6</ele>
        <time>2024-11-03T13:50:52Z</time>
      </trkpt>
      <trkpt lat="48.19249" lon="6.62488">
        <ele>488.7</ele>
        <time>2024-11-03T13:50:57Z</time>
      </trkpt>
      <trkpt lat="48.19239" lon="6.62489">
        <ele>488</ele>
        <time>2024-11-03T13:51:05Z</time>
      </trkpt>
      <trkpt lat="48.1923" lon="6.62489">
        <ele>487</ele>
        <time>2024-11-03T13:51:12Z</time>
      </trkpt>
      <trkpt lat="48.19222" lon="6.625">
        <ele>487.1</ele>
        <time>2024-11-03T13:51:18Z</time>
      </trkpt>
      <trkpt lat="48.19215" lon="6.62511">
        <ele>487.7</ele>
        <time>2024-11-03T13:51:25Z</time>
      </trkpt>
      <trkpt lat="48.19209" lon="6.62523">
        <ele>488.3</ele>
        <time>2024-11-03T13:51:34Z</time>
      </trkpt>
      <trkpt lat="48.19201" lon="6.62531">
        <ele>488.7</ele>
        <time>2024-11-03T13:51:43Z</time>
      </trkpt>
      <trkpt lat="48.19192" lon="6.62534">
        <ele>489.9</ele>
        <time>2024-11-03T13:51:57Z</time>
      </trkpt>
      <trkpt lat="48.19184" lon="6.62528">
        <ele>490.3</ele>
        <time>2024-11-03T13:52:07Z</time>
      </trkpt>
      <trkpt lat="48.19176" lon="6.62538">
        <ele>491.7</ele>
        <time>2024-11-03T13:52:16Z</time>
      </trkpt>
      <trkpt lat="48.1917" lon="6.62527">
        <ele>490.9</ele>
        <time>2024-11-03T13:52:39Z</time>
      </trkpt>
      <trkpt lat="48.19161" lon="6.62527">
        <ele>492.5</ele>
        <time>2024-11-03T13:52:46Z</time>
      </trkpt>
      <trkpt lat="48.19157" lon="6.62514">
        <ele>491.8</ele>
        <time>2024-11-03T13:53:06Z</time>
      </trkpt>
      <trkpt lat="48.1916" lon="6.62501">
        <ele>490.6</ele>
        <time>2024-11-03T13:53:19Z</time>
      </trkpt>
      <trkpt lat="48.19165" lon="6.62487">
        <ele>488.9</ele>
        <time>2024-11-03T13:53:29Z</time>
      </trkpt>
      <trkpt lat="48.19166" lon="6.62472">
        <ele>487.8</ele>
        <time>2024-11-03T13:53:36Z</time>
      </trkpt>
      <trkpt lat="48.19164" lon="6.62466">
        <ele>487.3</ele>
        <time>2024-11-03T13:53:43Z</time>
      </trkpt>
      <trkpt lat="48.19164" lon="6.62466">
        <ele>487.3</ele>
        <time>2024-11-03T13:53:44Z</time>
      </trkpt>
      <trkpt lat="48.1916" lon="6.62465">
        <ele>487.6</ele>
        <time>2024-11-03T13:53:58Z</time>
      </trkpt>
      <trkpt lat="48.1916" lon="6.62465">
        <ele>487.6</ele>
        <time>2024-11-03T13:53:59Z</time>
      </trkpt>
      <trkpt lat="48.19158" lon="6.62464">
        <ele>487.9</ele>
        <time>2024-11-03T13:54:03Z</time>
      </trkpt>
      <trkpt lat="48.19158" lon="6.62464">
        <ele>487.8</ele>
        <time>2024-11-03T13:54:04Z</time>
      </trkpt>
      <trkpt lat="48.19157" lon="6.62463">
        <ele>487.8</ele>
        <time>2024-11-03T13:54:05Z</time>
      </trkpt>
      <trkpt lat="48.19156" lon="6.62462">
        <ele>487.4</ele>
        <time>2024-11-03T13:54:06Z</time>
      </trkpt>
      <trkpt lat="48.19156" lon="6.62461">
        <ele>487.3</ele>
        <time>2024-11-03T13:54:07Z</time>
      </trkpt>
      <trkpt lat="48.1915" lon="6.62451">
        <ele>487.5</ele>
        <time>2024-11-03T13:54:18Z</time>
      </trkpt>
      <trkpt lat="48.1915" lon="6.62449">
        <ele>487</ele>
        <time>2024-11-03T13:54:30Z</time>
      </trkpt>
      <trkpt lat="48.1915" lon="6.62449">
        <ele>487.2</ele>
        <time>2024-11-03T13:54:31Z</time>
      </trkpt>
      <trkpt lat="48.1915" lon="6.62449">
        <ele>487.2</ele>
        <time>2024-11-03T13:54:32Z</time>
      </trkpt>
      <trkpt lat="48.1915" lon="6.62449">
        <ele>486.9</ele>
        <time>2024-11-03T13:54:35Z</time>
      </trkpt>
      <trkpt lat="48.1915" lon="6.6245">
        <ele>487</ele>
        <time>2024-11-03T13:54:36Z</time>
      </trkpt>
      <trkpt lat="48.1915" lon="6.62451">
        <ele>487</ele>
        <time>2024-11-03T13:54:37Z</time>
      </trkpt>
      <trkpt lat="48.1915" lon="6.62451">
        <ele>487</ele>
        <time>2024-11-03T13:54:40Z</time>
      </trkpt>
      <trkpt lat="48.1915" lon="6.62451">
        <ele>486.9</ele>
        <time>2024-11-03T13:54:41Z</time>
      </trkpt>
      <trkpt lat="48.1915" lon="6.62453">
        <ele>486.9</ele>
        <time>2024-11-03T13:55:05Z</time>
      </trkpt>
      <trkpt lat="48.19151" lon="6.62454">
        <ele>486.9</ele>
        <time>2024-11-03T13:55:06Z</time>
      </trkpt>
      <trkpt lat="48.19152" lon="6.62454">
        <ele>486.8</ele>
        <time>2024-11-03T13:55:10Z</time>
      </trkpt>
      <trkpt lat="48.19154" lon="6.62454">
        <ele>486.5</ele>
        <time>2024-11-03T13:55:11Z</time>
      </trkpt>
      <trkpt lat="48.19154" lon="6.62453">
        <ele>486.5</ele>
        <time>2024-11-03T13:55:12Z</time>
      </trkpt>
      <trkpt lat="48.19155" lon="6.62453">
        <ele>486.5</ele>
        <time>2024-11-03T13:55:51Z</time>
      </trkpt>
      <trkpt lat="48.19155" lon="6.62453">
        <ele>486.4</ele>
        <time>2024-11-03T13:55:52Z</time>
      </trkpt>
      <trkpt lat="48.19155" lon="6.62453">
        <ele>486.4</ele>
        <time>2024-11-03T13:55:53Z</time>
      </trkpt>
      <trkpt lat="48.19155" lon="6.62453">
        <ele>486.4</ele>
        <time>2024-11-03T13:55:54Z</time>
      </trkpt>
      <trkpt lat="48.19148" lon="6.62462">
        <ele>487.6</ele>
        <time>2024-11-03T13:56:34Z</time>
      </trkpt>
      <trkpt lat="48.19152" lon="6.62475">
        <ele>488.5</ele>
        <time>2024-11-03T13:57:48Z</time>
      </trkpt>
      <trkpt lat="48.19155" lon="6.62474">
        <ele>488.2</ele>
        <time>2024-11-03T13:58:13Z</time>
      </trkpt>
      <trkpt lat="48.19155" lon="6.62473">
        <ele>488.2</ele>
        <time>2024-11-03T13:58:14Z</time>
      </trkpt>
      <trkpt lat="48.19155" lon="6.62472">
        <ele>488.1</ele>
        <time>2024-11-03T13:58:15Z</time>
      </trkpt>
      <trkpt lat="48.19156" lon="6.62472">
        <ele>487.8</ele>
        <time>2024-11-03T13:58:16Z</time>
      </trkpt>
      <trkpt lat="48.19156" lon="6.62471">
        <ele>487.4</ele>
        <time>2024-11-03T13:58:17Z</time>
      </trkpt>
      <trkpt lat="48.19153" lon="6.62475">
        <ele>488</ele>
        <time>2024-11-03T13:58:30Z</time>
      </trkpt>
      <trkpt lat="48.1915" lon="6.62478">
        <ele>488.9</ele>
        <time>2024-11-03T13:58:38Z</time>
      </trkpt>
      <trkpt lat="48.19149" lon="6.62478">
        <ele>489.2</ele>
        <time>2024-11-03T13:58:39Z</time>
      </trkpt>
      <trkpt lat="48.19148" lon="6.62477">
        <ele>489.2</ele>
        <time>2024-11-03T13:58:40Z</time>
      </trkpt>
      <trkpt lat="48.19149" lon="6.62464">
        <ele>487.6</ele>
        <time>2024-11-03T14:00:22Z</time>
      </trkpt>
      <trkpt lat="48.19152" lon="6.62461">
        <ele>486.9</ele>
        <time>2024-11-03T14:01:25Z</time>
      </trkpt>
      <trkpt lat="48.19151" lon="6.62461">
        <ele>486.9</ele>
        <time>2024-11-03T14:01:26Z</time>
      </trkpt>
      <trkpt lat="48.1915" lon="6.62461">
        <ele>486.9</ele>
        <time>2024-11-03T14:01:27Z</time>
      </trkpt>
      <trkpt lat="48.19149" lon="6.6246">
        <ele>487.1</ele>
        <time>2024-11-03T14:01:28Z</time>
      </trkpt>
      <trkpt lat="48.19149" lon="6.62459">
        <ele>487.1</ele>
        <time>2024-11-03T14:01:29Z</time>
      </trkpt>
      <trkpt lat="48.19147" lon="6.62454">
        <ele>486.4</ele>
        <time>2024-11-03T14:01:33Z</time>
      </trkpt>
      <trkpt lat="48.19147" lon="6.62453">
        <ele>486.4</ele>
        <time>2024-11-03T14:01:34Z</time>
      </trkpt>
      <trkpt lat="48.19148" lon="6.62449">
        <ele>486.2</ele>
        <time>2024-11-03T14:01:42Z</time>
      </trkpt>
      <trkpt lat="48.19148" lon="6.62449">
        <ele>486.1</ele>
        <time>2024-11-03T14:01:43Z</time>
      </trkpt>
      <trkpt lat="48.19148" lon="6.62449">
        <ele>486.1</ele>
        <time>2024-11-03T14:01:44Z</time>
      </trkpt>
      <trkpt lat="48.19149" lon="6.62447">
        <ele>486.1</ele>
        <time>2024-11-03T14:01:55Z</time>
      </trkpt>
      <trkpt lat="48.19149" lon="6.62446">
        <ele>486</ele>
        <time>2024-11-03T14:01:56Z</time>
      </trkpt>
      <trkpt lat="48.1915" lon="6.62445">
        <ele>485.6</ele>
        <time>2024-11-03T14:01:57Z</time>
      </trkpt>
      <trkpt lat="48.19149" lon="6.62431">
        <ele>486.5</ele>
        <time>2024-11-03T14:02:09Z</time>
      </trkpt>
      <trkpt lat="48.19141" lon="6.62426">
        <ele>488.8</ele>
        <time>2024-11-03T14:02:20Z</time>
      </trkpt>
      <trkpt lat="48.19135" lon="6.62414">
        <ele>492.5</ele>
        <time>2024-11-03T14:02:36Z</time>
      </trkpt>
      <trkpt lat="48.19125" lon="6.62413">
        <ele>494.7</ele>
        <time>2024-11-03T14:02:52Z</time>
      </trkpt>
      <trkpt lat="48.19116" lon="6.6241">
        <ele>497.7</ele>
        <time>2024-11-03T14:03:03Z</time>
      </trkpt>
      <trkpt lat="48.19107" lon="6.62416">
        <ele>499.9</ele>
        <time>2024-11-03T14:03:13Z</time>
      </trkpt>
      <trkpt lat="48.191" lon="6.62426">
        <ele>500.7</ele>
        <time>2024-11-03T14:03:21Z</time>
      </trkpt>
      <trkpt lat="48.19096" lon="6.62438">
        <ele>500.2</ele>
        <time>2024-11-03T14:03:32Z</time>
      </trkpt>
      <trkpt lat="48.19087" lon="6.62439">
        <ele>503.4</ele>
        <time>2024-11-03T14:03:42Z</time>
      </trkpt>
      <trkpt lat="48.19079" lon="6.62444">
        <ele>506.5</ele>
        <time>2024-11-03T14:03:58Z</time>
      </trkpt>
      <trkpt lat="48.1907" lon="6.62447">
        <ele>510.5</ele>
        <time>2024-11-03T14:04:07Z</time>
      </trkpt>
      <trkpt lat="48.1906" lon="6.62448">
        <ele>513.5</ele>
        <time>2024-11-03T14:04:15Z</time>
      </trkpt>
      <trkpt lat="48.1905" lon="6.6245">
        <ele>516.4</ele>
        <time>2024-11-03T14:04:27Z</time>
      </trkpt>
      <trkpt lat="48.19044" lon="6.62451">
        <ele>518.3</ele>
        <time>2024-11-03T14:04:40Z</time>
      </trkpt>
      <trkpt lat="48.19044" lon="6.62451">
        <ele>518.3</ele>
        <time>2024-11-03T14:04:41Z</time>
      </trkpt>
      <trkpt lat="48.19045" lon="6.6245">
        <ele>517.6</ele>
        <time>2024-11-03T14:04:56Z</time>
      </trkpt>
      <trkpt lat="48.19046" lon="6.6245">
        <ele>517.8</ele>
        <time>2024-11-03T14:04:57Z</time>
      </trkpt>
      <trkpt lat="48.19037" lon="6.62447">
        <ele>519.7</ele>
        <time>2024-11-03T14:05:05Z</time>
      </trkpt>
      <trkpt lat="48.19028" lon="6.62443">
        <ele>521.6</ele>
        <time>2024-11-03T14:05:10Z</time>
      </trkpt>
      <trkpt lat="48.19018" lon="6.62438">
        <ele>523.4</ele>
        <time>2024-11-03T14:05:24Z</time>
      </trkpt>
      <trkpt lat="48.1901" lon="6.62431">
        <ele>525.2</ele>
        <time>2024-11-03T14:05:36Z</time>
      </trkpt>
      <trkpt lat="48.19002" lon="6.62426">
        <ele>526.5</ele>
        <time>2024-11-03T14:05:43Z</time>
      </trkpt>
      <trkpt lat="48.18993" lon="6.6242">
        <ele>528</ele>
        <time>2024-11-03T14:05:50Z</time>
      </trkpt>
      <trkpt lat="48.18984" lon="6.62416">
        <ele>528.6</ele>
        <time>2024-11-03T14:05:59Z</time>
      </trkpt>
      <trkpt lat="48.18975" lon="6.62412">
        <ele>529.7</ele>
        <time>2024-11-03T14:06:11Z</time>
      </trkpt>
      <trkpt lat="48.18969" lon="6.62402">
        <ele>530.7</ele>
        <time>2024-11-03T14:06:22Z</time>
      </trkpt>
      <trkpt lat="48.18961" lon="6.62393">
        <ele>531.4</ele>
        <time>2024-11-03T14:06:34Z</time>
      </trkpt>
      <trkpt lat="48.18953" lon="6.62388">
        <ele>531.7</ele>
        <time>2024-11-03T14:06:48Z</time>
      </trkpt>
      <trkpt lat="48.1895" lon="6.62374">
        <ele>531.9</ele>
        <time>2024-11-03T14:07:00Z</time>
      </trkpt>
      <trkpt lat="48.18941" lon="6.62375">
        <ele>532</ele>
        <time>2024-11-03T14:07:14Z</time>
      </trkpt>
      <trkpt lat="48.18936" lon="6.62388">
        <ele>531.4</ele>
        <time>2024-11-03T14:07:22Z</time>
      </trkpt>
      <trkpt lat="48.18929" lon="6.62397">
        <ele>531</ele>
        <time>2024-11-03T14:07:30Z</time>
      </trkpt>
      <trkpt lat="48.18922" lon="6.62406">
        <ele>530.7</ele>
        <time>2024-11-03T14:07:39Z</time>
      </trkpt>
      <trkpt lat="48.18917" lon="6.6242">
        <ele>530.6</ele>
        <time>2024-11-03T14:07:47Z</time>
      </trkpt>
      <trkpt lat="48.18913" lon="6.62434">
        <ele>530.7</ele>
        <time>2024-11-03T14:07:55Z</time>
      </trkpt>
      <trkpt lat="48.18908" lon="6.62445">
        <ele>530.8</ele>
        <time>2024-11-03T14:08:02Z</time>
      </trkpt>
      <trkpt lat="48.18902" lon="6.62455">
        <ele>531.1</ele>
        <time>2024-11-03T14:08:11Z</time>
      </trkpt>
      <trkpt lat="48.18894" lon="6.62462">
        <ele>531.5</ele>
        <time>2024-11-03T14:08:19Z</time>
      </trkpt>
      <trkpt lat="48.18886" lon="6.62471">
        <ele>532</ele>
        <time>2024-11-03T14:08:28Z</time>
      </trkpt>
      <trkpt lat="48.18883" lon="6.62458">
        <ele>531.9</ele>
        <time>2024-11-03T14:08:50Z</time>
      </trkpt>
      <trkpt lat="48.18886" lon="6.6245">
        <ele>531.9</ele>
        <time>2024-11-03T14:09:00Z</time>
      </trkpt>
      <trkpt lat="48.18886" lon="6.6245">
        <ele>531.9</ele>
        <time>2024-11-03T14:09:01Z</time>
      </trkpt>
      <trkpt lat="48.18887" lon="6.62449">
        <ele>531.9</ele>
        <time>2024-11-03T14:09:05Z</time>
      </trkpt>
      <trkpt lat="48.18886" lon="6.62448">
        <ele>531.9</ele>
        <time>2024-11-03T14:09:06Z</time>
      </trkpt>
      <trkpt lat="48.18886" lon="6.62434">
        <ele>532</ele>
        <time>2024-11-03T14:09:14Z</time>
      </trkpt>
      <trkpt lat="48.18885" lon="6.62419">
        <ele>532.1</ele>
        <time>2024-11-03T14:09:22Z</time>
      </trkpt>
      <trkpt lat="48.18886" lon="6.62404">
        <ele>532.3</ele>
        <time>2024-11-03T14:09:30Z</time>
      </trkpt>
      <trkpt lat="48.18889" lon="6.62389">
        <ele>532.6</ele>
        <time>2024-11-03T14:09:38Z</time>
      </trkpt>
      <trkpt lat="48.18888" lon="6.62375">
        <ele>532.9</ele>
        <time>2024-11-03T14:09:46Z</time>
      </trkpt>
      <trkpt lat="48.1889" lon="6.62361">
        <ele>533.4</ele>
        <time>2024-11-03T14:09:54Z</time>
      </trkpt>
      <trkpt lat="48.18891" lon="6.62347">
        <ele>534</ele>
        <time>2024-11-03T14:10:02Z</time>
      </trkpt>
      <trkpt lat="48.18893" lon="6.62333">
        <ele>534.8</ele>
        <time>2024-11-03T14:10:11Z</time>
      </trkpt>
      <trkpt lat="48.18895" lon="6.6232">
        <ele>535.7</ele>
        <time>2024-11-03T14:10:18Z</time>
      </trkpt>
      <trkpt lat="48.18896" lon="6.62305">
        <ele>536.6</ele>
        <time>2024-11-03T14:10:26Z</time>
      </trkpt>
      <trkpt lat="48.18894" lon="6.6229">
        <ele>537.6</ele>
        <time>2024-11-03T14:10:34Z</time>
      </trkpt>
      <trkpt lat="48.18892" lon="6.62276">
        <ele>538.4</ele>
        <time>2024-11-03T14:10:41Z</time>
      </trkpt>
      <trkpt lat="48.18888" lon="6.62263">
        <ele>539.1</ele>
        <time>2024-11-03T14:10:49Z</time>
      </trkpt>
      <trkpt lat="48.18881" lon="6.62252">
        <ele>539.7</ele>
        <time>2024-11-03T14:10:56Z</time>
      </trkpt>
      <trkpt lat="48.18874" lon="6.62243">
        <ele>540</ele>
        <time>2024-11-03T14:11:02Z</time>
      </trkpt>
      <trkpt lat="48.18866" lon="6.62233">
        <ele>540.3</ele>
        <time>2024-11-03T14:11:09Z</time>
      </trkpt>
      <trkpt lat="48.1886" lon="6.62222">
        <ele>540.6</ele>
        <time>2024-11-03T14:11:17Z</time>
      </trkpt>
      <trkpt lat="48.18856" lon="6.62209">
        <ele>540.7</ele>
        <time>2024-11-03T14:11:26Z</time>
      </trkpt>
      <trkpt lat="48.18851" lon="6.62197">
        <ele>540.8</ele>
        <time>2024-11-03T14:11:33Z</time>
      </trkpt>
      <trkpt lat="48.18845" lon="6.62186">
        <ele>540.8</ele>
        <time>2024-11-03T14:11:41Z</time>
      </trkpt>
      <trkpt lat="48.1884" lon="6.62173">
        <ele>540.7</ele>
        <time>2024-11-03T14:11:49Z</time>
      </trkpt>
      <trkpt lat="48.18835" lon="6.62161">
        <ele>540.5</ele>
        <time>2024-11-03T14:11:57Z</time>
      </trkpt>
      <trkpt lat="48.18831" lon="6.62147">
        <ele>540.1</ele>
        <time>2024-11-03T14:12:06Z</time>
      </trkpt>
      <trkpt lat="48.18824" lon="6.62138">
        <ele>539.8</ele>
        <time>2024-11-03T14:12:12Z</time>
      </trkpt>
      <trkpt lat="48.18818" lon="6.62126">
        <ele>539.4</ele>
        <time>2024-11-03T14:12:22Z</time>
      </trkpt>
      <trkpt lat="48.18814" lon="6.62114">
        <ele>539</ele>
        <time>2024-11-03T14:12:29Z</time>
      </trkpt>
      <trkpt lat="48.1881" lon="6.621">
        <ele>538.7</ele>
        <time>2024-11-03T14:12:37Z</time>
      </trkpt>
      <trkpt lat="48.18807" lon="6.62086">
        <ele>538.3</ele>
        <time>2024-11-03T14:12:46Z</time>
      </trkpt>
      <trkpt lat="48.18803" lon="6.62074">
        <ele>538</ele>
        <time>2024-11-03T14:12:55Z</time>
      </trkpt>
      <trkpt lat="48.18796" lon="6.62062">
        <ele>537.7</ele>
        <time>2024-11-03T14:13:02Z</time>
      </trkpt>
      <trkpt lat="48.1879" lon="6.6205">
        <ele>537.3</ele>
        <time>2024-11-03T14:13:10Z</time>
      </trkpt>
      <trkpt lat="48.18786" lon="6.62038">
        <ele>536.9</ele>
        <time>2024-11-03T14:13:17Z</time>
      </trkpt>
      <trkpt lat="48.18784" lon="6.62024">
        <ele>536.5</ele>
        <time>2024-11-03T14:13:27Z</time>
      </trkpt>
      <trkpt lat="48.18784" lon="6.62011">
        <ele>536.2</ele>
        <time>2024-11-03T14:13:34Z</time>
      </trkpt>
      <trkpt lat="48.18783" lon="6.61997">
        <ele>535.9</ele>
        <time>2024-11-03T14:13:42Z</time>
      </trkpt>
      <trkpt lat="48.18785" lon="6.61983">
        <ele>535.7</ele>
        <time>2024-11-03T14:13:49Z</time>
      </trkpt>
      <trkpt lat="48.18787" lon="6.61969">
        <ele>535.5</ele>
        <time>2024-11-03T14:13:58Z</time>
      </trkpt>
      <trkpt lat="48.18784" lon="6.61955">
        <ele>535.5</ele>
        <time>2024-11-03T14:14:08Z</time>
      </trkpt>
      <trkpt lat="48.18784" lon="6.61941">
        <ele>535.4</ele>
        <time>2024-11-03T14:14:15Z</time>
      </trkpt>
      <trkpt lat="48.18782" lon="6.61927">
        <ele>535.4</ele>
        <time>2024-11-03T14:14:22Z</time>
      </trkpt>
      <trkpt lat="48.18781" lon="6.61913">
        <ele>535.5</ele>
        <time>2024-11-03T14:14:28Z</time>
      </trkpt>
      <trkpt lat="48.18782" lon="6.61898">
        <ele>535.5</ele>
        <time>2024-11-03T14:14:36Z</time>
      </trkpt>
      <trkpt lat="48.18785" lon="6.61883">
        <ele>535.6</ele>
        <time>2024-11-03T14:14:44Z</time>
      </trkpt>
      <trkpt lat="48.18788" lon="6.6187">
        <ele>535.6</ele>
        <time>2024-11-03T14:14:52Z</time>
      </trkpt>
      <trkpt lat="48.1879" lon="6.61855">
        <ele>535.6</ele>
        <time>2024-11-03T14:15:00Z</time>
      </trkpt>
      <trkpt lat="48.1879" lon="6.61841">
        <ele>535.6</ele>
        <time>2024-11-03T14:15:07Z</time>
      </trkpt>
      <trkpt lat="48.18791" lon="6.61827">
        <ele>535.7</ele>
        <time>2024-11-03T14:15:17Z</time>
      </trkpt>
      <trkpt lat="48.18795" lon="6.61815">
        <ele>535.7</ele>
        <time>2024-11-03T14:15:25Z</time>
      </trkpt>
      <trkpt lat="48.18797" lon="6.618">
        <ele>535.8</ele>
        <time>2024-11-03T14:15:34Z</time>
      </trkpt>
      <trkpt lat="48.18798" lon="6.61786">
        <ele>535.9</ele>
        <time>2024-11-03T14:15:42Z</time>
      </trkpt>
      <trkpt lat="48.18798" lon="6.61772">
        <ele>536.1</ele>
        <time>2024-11-03T14:15:49Z</time>
      </trkpt>
      <trkpt lat="48.18797" lon="6.61757">
        <ele>536.2</ele>
        <time>2024-11-03T14:15:57Z</time>
      </trkpt>
      <trkpt lat="48.18793" lon="6.61744">
        <ele>536.3</ele>
        <time>2024-11-03T14:16:03Z</time>
      </trkpt>
      <trkpt lat="48.18789" lon="6.61731">
        <ele>536.4</ele>
        <time>2024-11-03T14:16:11Z</time>
      </trkpt>
      <trkpt lat="48.18784" lon="6.6172">
        <ele>536.4</ele>
        <time>2024-11-03T14:16:18Z</time>
      </trkpt>
      <trkpt lat="48.18781" lon="6.61707">
        <ele>536.3</ele>
        <time>2024-11-03T14:16:26Z</time>
      </trkpt>
      <trkpt lat="48.18778" lon="6.61692">
        <ele>536.1</ele>
        <time>2024-11-03T14:16:34Z</time>
      </trkpt>
      <trkpt lat="48.18774" lon="6.61678">
        <ele>535.8</ele>
        <time>2024-11-03T14:16:41Z</time>
      </trkpt>
      <trkpt lat="48.18771" lon="6.61665">
        <ele>535.5</ele>
        <time>2024-11-03T14:16:48Z</time>
      </trkpt>
      <trkpt lat="48.18766" lon="6.61653">
        <ele>535.1</ele>
        <time>2024-11-03T14:16:55Z</time>
      </trkpt>
      <trkpt lat="48.18762" lon="6.61639">
        <ele>534.8</ele>
        <time>2024-11-03T14:17:04Z</time>
      </trkpt>
      <trkpt lat="48.18757" lon="6.61627">
        <ele>534.4</ele>
        <time>2024-11-03T14:17:13Z</time>
      </trkpt>
      <trkpt lat="48.18753" lon="6.61613">
        <ele>534.1</ele>
        <time>2024-11-03T14:17:22Z</time>
      </trkpt>
      <trkpt lat="48.18751" lon="6.616">
        <ele>533.9</ele>
        <time>2024-11-03T14:17:29Z</time>
      </trkpt>
      <trkpt lat="48.18748" lon="6.61586">
        <ele>533.7</ele>
        <time>2024-11-03T14:17:37Z</time>
      </trkpt>
      <trkpt lat="48.18746" lon="6.61573">
        <ele>533.5</ele>
        <time>2024-11-03T14:17:45Z</time>
      </trkpt>
      <trkpt lat="48.18742" lon="6.61561">
        <ele>533.2</ele>
        <time>2024-11-03T14:17:52Z</time>
      </trkpt>
      <trkpt lat="48.18739" lon="6.61557">
        <ele>533.1</ele>
        <time>2024-11-03T14:17:55Z</time>
      </trkpt>
      <trkpt lat="48.18739" lon="6.61556">
        <ele>533.1</ele>
        <time>2024-11-03T14:17:56Z</time>
      </trkpt>
      <trkpt lat="48.18739" lon="6.61556">
        <ele>533.1</ele>
        <time>2024-11-03T14:17:57Z</time>
      </trkpt>
      <trkpt lat="48.18739" lon="6.61555">
        <ele>533.1</ele>
        <time>2024-11-03T14:17:58Z</time>
      </trkpt>
      <trkpt lat="48.18739" lon="6.61554">
        <ele>533</ele>
        <time>2024-11-03T14:17:59Z</time>
      </trkpt>
      <trkpt lat="48.18738" lon="6.61552">
        <ele>533</ele>
        <time>2024-11-03T14:18:00Z</time>
      </trkpt>
      <trkpt lat="48.18738" lon="6.61537">
        <ele>532.7</ele>
        <time>2024-11-03T14:18:08Z</time>
      </trkpt>
      <trkpt lat="48.18739" lon="6.61522">
        <ele>532.3</ele>
        <time>2024-11-03T14:18:20Z</time>
      </trkpt>
      <trkpt lat="48.18738" lon="6.61517">
        <ele>532.2</ele>
        <time>2024-11-03T14:18:25Z</time>
      </trkpt>
      <trkpt lat="48.18738" lon="6.61517">
        <ele>532.2</ele>
        <time>2024-11-03T14:18:26Z</time>
      </trkpt>
      <trkpt lat="48.18738" lon="6.61514">
        <ele>532.2</ele>
        <time>2024-11-03T14:18:30Z</time>
      </trkpt>
      <trkpt lat="48.18737" lon="6.61513">
        <ele>532.1</ele>
        <time>2024-11-03T14:18:31Z</time>
      </trkpt>
      <trkpt lat="48.18737" lon="6.61499">
        <ele>531.9</ele>
        <time>2024-11-03T14:18:41Z</time>
      </trkpt>
      <trkpt lat="48.18735" lon="6.61486">
        <ele>531.5</ele>
        <time>2024-11-03T14:18:51Z</time>
      </trkpt>
      <trkpt lat="48.18735" lon="6.61486">
        <ele>531.5</ele>
        <time>2024-11-03T14:18:52Z</time>
      </trkpt>
      <trkpt lat="48.18733" lon="6.61485">
        <ele>531.5</ele>
        <time>2024-11-03T14:18:55Z</time>
      </trkpt>
      <trkpt lat="48.18732" lon="6.61486">
        <ele>531.4</ele>
        <time>2024-11-03T14:18:56Z</time>
      </trkpt>
      <trkpt lat="48.18732" lon="6.61486">
        <ele>531.4</ele>
        <time>2024-11-03T14:18:57Z</time>
      </trkpt>
      <trkpt lat="48.18732" lon="6.61486">
        <ele>531.4</ele>
        <time>2024-11-03T14:19:01Z</time>
      </trkpt>
      <trkpt lat="48.18733" lon="6.61485">
        <ele>531.4</ele>
        <time>2024-11-03T14:19:02Z</time>
      </trkpt>
      <trkpt lat="48.18734" lon="6.61479">
        <ele>531.4</ele>
        <time>2024-11-03T14:19:35Z</time>
      </trkpt>
      <trkpt lat="48.18734" lon="6.61478">
        <ele>531.3</ele>
        <time>2024-11-03T14:19:36Z</time>
      </trkpt>
      <trkpt lat="48.18735" lon="6.61478">
        <ele>531.3</ele>
        <time>2024-11-03T14:19:43Z</time>
      </trkpt>
      <trkpt lat="48.18735" lon="6.61478">
        <ele>531.3</ele>
        <time>2024-11-03T14:19:44Z</time>
      </trkpt>
      <trkpt lat="48.18735" lon="6.61478">
        <ele>531.3</ele>
        <time>2024-11-03T14:19:45Z</time>
      </trkpt>
      <trkpt lat="48.18736" lon="6.61478">
        <ele>531.3</ele>
        <time>2024-11-03T14:19:46Z</time>
      </trkpt>
      <trkpt lat="48.18736" lon="6.61478">
        <ele>531.3</ele>
        <time>2024-11-03T14:19:47Z</time>
      </trkpt>
      <trkpt lat="48.18733" lon="6.6148">
        <ele>531.3</ele>
        <time>2024-11-03T14:19:57Z</time>
      </trkpt>
      <trkpt lat="48.18732" lon="6.6148">
        <ele>531.3</ele>
        <time>2024-11-03T14:19:58Z</time>
      </trkpt>
      <trkpt lat="48.1873" lon="6.6148">
        <ele>531.2</ele>
        <time>2024-11-03T14:19:59Z</time>
      </trkpt>
      <trkpt lat="48.18732" lon="6.61472">
        <ele>531.2</ele>
        <time>2024-11-03T14:21:35Z</time>
      </trkpt>
      <trkpt lat="48.18732" lon="6.61472">
        <ele>531.1</ele>
        <time>2024-11-03T14:21:36Z</time>
      </trkpt>
      <trkpt lat="48.18739" lon="6.61461">
        <ele>531</ele>
        <time>2024-11-03T14:21:46Z</time>
      </trkpt>
      <trkpt lat="48.18747" lon="6.61454">
        <ele>530.8</ele>
        <time>2024-11-03T14:21:54Z</time>
      </trkpt>
      <trkpt lat="48.18754" lon="6.61444">
        <ele>530.3</ele>
        <time>2024-11-03T14:22:04Z</time>
      </trkpt>
      <trkpt lat="48.18763" lon="6.61441">
        <ele>529.4</ele>
        <time>2024-11-03T14:22:14Z</time>
      </trkpt>
      <trkpt lat="48.18773" lon="6.61441">
        <ele>528</ele>
        <time>2024-11-03T14:22:22Z</time>
      </trkpt>
      <trkpt lat="48.18783" lon="6.61438">
        <ele>526.7</ele>
        <time>2024-11-03T14:22:29Z</time>
      </trkpt>
      <trkpt lat="48.18792" lon="6.61435">
        <ele>525.1</ele>
        <time>2024-11-03T14:22:37Z</time>
      </trkpt>
      <trkpt lat="48.18802" lon="6.61431">
        <ele>523.1</ele>
        <time>2024-11-03T14:22:45Z</time>
      </trkpt>
      <trkpt lat="48.18811" lon="6.61425">
        <ele>521.4</ele>
        <time>2024-11-03T14:22:52Z</time>
      </trkpt>
      <trkpt lat="48.1882" lon="6.6142">
        <ele>520.1</ele>
        <time>2024-11-03T14:22:59Z</time>
      </trkpt>
      <trkpt lat="48.18829" lon="6.61419">
        <ele>518.8</ele>
        <time>2024-11-03T14:23:06Z</time>
      </trkpt>
      <trkpt lat="48.18838" lon="6.61415">
        <ele>517.6</ele>
        <time>2024-11-03T14:23:16Z</time>
      </trkpt>
      <trkpt lat="48.18846" lon="6.61409">
        <ele>516.6</ele>
        <time>2024-11-03T14:23:24Z</time>
      </trkpt>
      <trkpt lat="48.18855" lon="6.61401">
        <ele>515.2</ele>
        <time>2024-11-03T14:23:31Z</time>
      </trkpt>
      <trkpt lat="48.18864" lon="6.61392">
        <ele>514</ele>
        <time>2024-11-03T14:23:39Z</time>
      </trkpt>
      <trkpt lat="48.18872" lon="6.61385">
        <ele>513.1</ele>
        <time>2024-11-03T14:23:44Z</time>
      </trkpt>
      <trkpt lat="48.18879" lon="6.61374">
        <ele>512.1</ele>
        <time>2024-11-03T14:23:50Z</time>
      </trkpt>
      <trkpt lat="48.1888" lon="6.61361">
        <ele>511.1</ele>
        <time>2024-11-03T14:23:56Z</time>
      </trkpt>
      <trkpt lat="48.18883" lon="6.61347">
        <ele>510</ele>
        <time>2024-11-03T14:24:02Z</time>
      </trkpt>
      <trkpt lat="48.18887" lon="6.61333">
        <ele>509.5</ele>
        <time>2024-11-03T14:24:10Z</time>
      </trkpt>
      <trkpt lat="48.18887" lon="6.61319">
        <ele>509</ele>
        <time>2024-11-03T14:24:18Z</time>
      </trkpt>
      <trkpt lat="48.18891" lon="6.61306">
        <ele>508.6</ele>
        <time>2024-11-03T14:24:28Z</time>
      </trkpt>
      <trkpt lat="48.18899" lon="6.61299">
        <ele>508.4</ele>
        <time>2024-11-03T14:24:37Z</time>
      </trkpt>
      <trkpt lat="48.18906" lon="6.61289">
        <ele>508.4</ele>
        <time>2024-11-03T14:24:44Z</time>
      </trkpt>
      <trkpt lat="48.18915" lon="6.61284">
        <ele>508.4</ele>
        <time>2024-11-03T14:24:54Z</time>
      </trkpt>
      <trkpt lat="48.18923" lon="6.61276">
        <ele>508.4</ele>
        <time>2024-11-03T14:25:01Z</time>
      </trkpt>
      <trkpt lat="48.18929" lon="6.61266">
        <ele>508.1</ele>
        <time>2024-11-03T14:25:07Z</time>
      </trkpt>
      <trkpt lat="48.18937" lon="6.61257">
        <ele>507.7</ele>
        <time>2024-11-03T14:25:14Z</time>
      </trkpt>
      <trkpt lat="48.18944" lon="6.61247">
        <ele>506.8</ele>
        <time>2024-11-03T14:25:22Z</time>
      </trkpt>
      <trkpt lat="48.18952" lon="6.61241">
        <ele>506.2</ele>
        <time>2024-11-03T14:25:29Z</time>
      </trkpt>
      <trkpt lat="48.1896" lon="6.61232">
        <ele>505.4</ele>
        <time>2024-11-03T14:25:38Z</time>
      </trkpt>
      <trkpt lat="48.18965" lon="6.61221">
        <ele>504.8</ele>
        <time>2024-11-03T14:25:47Z</time>
      </trkpt>
      <trkpt lat="48.18973" lon="6.61211">
        <ele>504.6</ele>
        <time>2024-11-03T14:25:55Z</time>
      </trkpt>
      <trkpt lat="48.18979" lon="6.61201">
        <ele>504.4</ele>
        <time>2024-11-03T14:26:04Z</time>
      </trkpt>
      <trkpt lat="48.18987" lon="6.61193">
        <ele>504.4</ele>
        <time>2024-11-03T14:26:12Z</time>
      </trkpt>
      <trkpt lat="48.18996" lon="6.61186">
        <ele>504.4</ele>
        <time>2024-11-03T14:26:20Z</time>
      </trkpt>
      <trkpt lat="48.19003" lon="6.61178">
        <ele>504.4</ele>
        <time>2024-11-03T14:26:28Z</time>
      </trkpt>
      <trkpt lat="48.19012" lon="6.6117">
        <ele>504.2</ele>
        <time>2024-11-03T14:26:36Z</time>
      </trkpt>
      <trkpt lat="48.1902" lon="6.61162">
        <ele>503.9</ele>
        <time>2024-11-03T14:26:46Z</time>
      </trkpt>
      <trkpt lat="48.19025" lon="6.6115">
        <ele>503.8</ele>
        <time>2024-11-03T14:26:54Z</time>
      </trkpt>
      <trkpt lat="48.19032" lon="6.6114">
        <ele>504</ele>
        <time>2024-11-03T14:27:01Z</time>
      </trkpt>
      <trkpt lat="48.19039" lon="6.6113">
        <ele>504.5</ele>
        <time>2024-11-03T14:27:09Z</time>
      </trkpt>
      <trkpt lat="48.19047" lon="6.6112">
        <ele>505.4</ele>
        <time>2024-11-03T14:27:17Z</time>
      </trkpt>
      <trkpt lat="48.19055" lon="6.61111">
        <ele>506.1</ele>
        <time>2024-11-03T14:27:25Z</time>
      </trkpt>
      <trkpt lat="48.19061" lon="6.61109">
        <ele>506.8</ele>
        <time>2024-11-03T14:27:35Z</time>
      </trkpt>
      <trkpt lat="48.19061" lon="6.61109">
        <ele>506.8</ele>
        <time>2024-11-03T14:27:36Z</time>
      </trkpt>
      <trkpt lat="48.19061" lon="6.61109">
        <ele>506.8</ele>
        <time>2024-11-03T14:27:37Z</time>
      </trkpt>
      <trkpt lat="48.19061" lon="6.61109">
        <ele>506.8</ele>
        <time>2024-11-03T14:27:43Z</time>
      </trkpt>
      <trkpt lat="48.19061" lon="6.61109">
        <ele>506.8</ele>
        <time>2024-11-03T14:27:44Z</time>
      </trkpt>
      <trkpt lat="48.19061" lon="6.61108">
        <ele>506.5</ele>
        <time>2024-11-03T14:27:47Z</time>
      </trkpt>
      <trkpt lat="48.19061" lon="6.61108">
        <ele>506.5</ele>
        <time>2024-11-03T14:27:48Z</time>
      </trkpt>
      <trkpt lat="48.19061" lon="6.61108">
        <ele>506.5</ele>
        <time>2024-11-03T14:27:49Z</time>
      </trkpt>
      <trkpt lat="48.19061" lon="6.61108">
        <ele>506.5</ele>
        <time>2024-11-03T14:27:52Z</time>
      </trkpt>
      <trkpt lat="48.19061" lon="6.61108">
        <ele>506.5</ele>
        <time>2024-11-03T14:27:53Z</time>
      </trkpt>
      <trkpt lat="48.19061" lon="6.61108">
        <ele>506.4</ele>
        <time>2024-11-03T14:27:54Z</time>
      </trkpt>
      <trkpt lat="48.19061" lon="6.61108">
        <ele>506.4</ele>
        <time>2024-11-03T14:27:55Z</time>
      </trkpt>
      <trkpt lat="48.19061" lon="6.61108">
        <ele>506.4</ele>
        <time>2024-11-03T14:27:56Z</time>
      </trkpt>
      <trkpt lat="48.19061" lon="6.61108">
        <ele>506.4</ele>
        <time>2024-11-03T14:27:57Z</time>
      </trkpt>
      <trkpt lat="48.19062" lon="6.61107">
        <ele>506.6</ele>
        <time>2024-11-03T14:28:02Z</time>
      </trkpt>
      <trkpt lat="48.19062" lon="6.61106">
        <ele>506.6</ele>
        <time>2024-11-03T14:28:03Z</time>
      </trkpt>
      <trkpt lat="48.19062" lon="6.61105">
        <ele>506.5</ele>
        <time>2024-11-03T14:28:04Z</time>
      </trkpt>
      <trkpt lat="48.19053" lon="6.61098">
        <ele>505.9</ele>
        <time>2024-11-03T14:28:17Z</time>
      </trkpt>
      <trkpt lat="48.19044" lon="6.61094">
        <ele>505.4</ele>
        <time>2024-11-03T14:28:29Z</time>
      </trkpt>
      <trkpt lat="48.19035" lon="6.61088">
        <ele>505.5</ele>
        <time>2024-11-03T14:28:33Z</time>
      </trkpt>
      <trkpt lat="48.19026" lon="6.61084">
        <ele>506</ele>
        <time>2024-11-03T14:28:39Z</time>
      </trkpt>
      <trkpt lat="48.19015" lon="6.6108">
        <ele>507</ele>
        <time>2024-11-03T14:28:46Z</time>
      </trkpt>
      <trkpt lat="48.19006" lon="6.61081">
        <ele>507.5</ele>
        <time>2024-11-03T14:28:54Z</time>
      </trkpt>
      <trkpt lat="48.18997" lon="6.61081">
        <ele>508.6</ele>
        <time>2024-11-03T14:29:03Z</time>
      </trkpt>
      <trkpt lat="48.18987" lon="6.6108">
        <ele>509.5</ele>
        <time>2024-11-03T14:29:11Z</time>
      </trkpt>
      <trkpt lat="48.18978" lon="6.61081">
        <ele>510.4</ele>
        <time>2024-11-03T14:29:18Z</time>
      </trkpt>
      <trkpt lat="48.18969" lon="6.61081">
        <ele>511.3</ele>
        <time>2024-11-03T14:29:25Z</time>
      </trkpt>
      <trkpt lat="48.18959" lon="6.61079">
        <ele>512.3</ele>
        <time>2024-11-03T14:29:36Z</time>
      </trkpt>
      <trkpt lat="48.1895" lon="6.61076">
        <ele>513.2</ele>
        <time>2024-11-03T14:29:46Z</time>
      </trkpt>
      <trkpt lat="48.1894" lon="6.61072">
        <ele>514</ele>
        <time>2024-11-03T14:29:54Z</time>
      </trkpt>
      <trkpt lat="48.18931" lon="6.61073">
        <ele>514.6</ele>
        <time>2024-11-03T14:30:04Z</time>
      </trkpt>
      <trkpt lat="48.18921" lon="6.61071">
        <ele>515.6</ele>
        <time>2024-11-03T14:30:12Z</time>
      </trkpt>
      <trkpt lat="48.18911" lon="6.6107">
        <ele>516.5</ele>
        <time>2024-11-03T14:30:19Z</time>
      </trkpt>
      <trkpt lat="48.18902" lon="6.61067">
        <ele>517.4</ele>
        <time>2024-11-03T14:30:29Z</time>
      </trkpt>
      <trkpt lat="48.18893" lon="6.61068">
        <ele>517.9</ele>
        <time>2024-11-03T14:30:37Z</time>
      </trkpt>
      <trkpt lat="48.18884" lon="6.61071">
        <ele>518.2</ele>
        <time>2024-11-03T14:30:46Z</time>
      </trkpt>
      <trkpt lat="48.18875" lon="6.61074">
        <ele>518.5</ele>
        <time>2024-11-03T14:30:57Z</time>
      </trkpt>
      <trkpt lat="48.18865" lon="6.61069">
        <ele>518.6</ele>
        <time>2024-11-03T14:31:05Z</time>
      </trkpt>
      <trkpt lat="48.18855" lon="6.61067">
        <ele>518.5</ele>
        <time>2024-11-03T14:31:14Z</time>
      </trkpt>
      <trkpt lat="48.18845" lon="6.61066">
        <ele>518.3</ele>
        <time>2024-11-03T14:31:24Z</time>
      </trkpt>
      <trkpt lat="48.18835" lon="6.61067">
        <ele>518.1</ele>
        <time>2024-11-03T14:31:32Z</time>
      </trkpt>
      <trkpt lat="48.18826" lon="6.61062">
        <ele>517.9</ele>
        <time>2024-11-03T14:31:38Z</time>
      </trkpt>
      <trkpt lat="48.18818" lon="6.61056">
        <ele>517.6</ele>
        <time>2024-11-03T14:31:51Z</time>
      </trkpt>
      <trkpt lat="48.18809" lon="6.61049">
        <ele>517.4</ele>
        <time>2024-11-03T14:32:02Z</time>
      </trkpt>
      <trkpt lat="48.18799" lon="6.6105">
        <ele>517.8</ele>
        <time>2024-11-03T14:32:12Z</time>
      </trkpt>
      <trkpt lat="48.18791" lon="6.61059">
        <ele>518.7</ele>
        <time>2024-11-03T14:32:21Z</time>
      </trkpt>
      <trkpt lat="48.18783" lon="6.61065">
        <ele>519.8</ele>
        <time>2024-11-03T14:32:33Z</time>
      </trkpt>
      <trkpt lat="48.18773" lon="6.61067">
        <ele>520.6</ele>
        <time>2024-11-03T14:32:40Z</time>
      </trkpt>
      <trkpt lat="48.18763" lon="6.61064">
        <ele>521.6</ele>
        <time>2024-11-03T14:32:46Z</time>
      </trkpt>
      <trkpt lat="48.18753" lon="6.61061">
        <ele>522.1</ele>
        <time>2024-11-03T14:32:52Z</time>
      </trkpt>
      <trkpt lat="48.18742" lon="6.61058">
        <ele>522.5</ele>
        <time>2024-11-03T14:32:59Z</time>
      </trkpt>
      <trkpt lat="48.18733" lon="6.61062">
        <ele>523</ele>
        <time>2024-11-03T14:33:09Z</time>
      </trkpt>
      <trkpt lat="48.18727" lon="6.61062">
        <ele>523.1</ele>
        <time>2024-11-03T14:33:15Z</time>
      </trkpt>
      <trkpt lat="48.18726" lon="6.61062">
        <ele>523.1</ele>
        <time>2024-11-03T14:33:16Z</time>
      </trkpt>
      <trkpt lat="48.18726" lon="6.61061">
        <ele>523.1</ele>
        <time>2024-11-03T14:33:17Z</time>
      </trkpt>
      <trkpt lat="48.18725" lon="6.6106">
        <ele>523.1</ele>
        <time>2024-11-03T14:33:18Z</time>
      </trkpt>
      <trkpt lat="48.18725" lon="6.6106">
        <ele>523.1</ele>
        <time>2024-11-03T14:33:19Z</time>
      </trkpt>
      <trkpt lat="48.18716" lon="6.61056">
        <ele>523</ele>
        <time>2024-11-03T14:33:32Z</time>
      </trkpt>
      <trkpt lat="48.18706" lon="6.61058">
        <ele>522.8</ele>
        <time>2024-11-03T14:33:38Z</time>
      </trkpt>
      <trkpt lat="48.18697" lon="6.6106">
        <ele>522.7</ele>
        <time>2024-11-03T14:33:46Z</time>
      </trkpt>
      <trkpt lat="48.18688" lon="6.61066">
        <ele>522.6</ele>
        <time>2024-11-03T14:33:52Z</time>
      </trkpt>
      <trkpt lat="48.18678" lon="6.61072">
        <ele>522.4</ele>
        <time>2024-11-03T14:33:58Z</time>
      </trkpt>
      <trkpt lat="48.18669" lon="6.61073">
        <ele>522.3</ele>
        <time>2024-11-03T14:34:14Z</time>
      </trkpt>
      <trkpt lat="48.18671" lon="6.61059">
        <ele>521.9</ele>
        <time>2024-11-03T14:34:28Z</time>
      </trkpt>
      <trkpt lat="48.18665" lon="6.61048">
        <ele>521.5</ele>
        <time>2024-11-03T14:34:38Z</time>
      </trkpt>
      <trkpt lat="48.18659" lon="6.61035">
        <ele>521.1</ele>
        <time>2024-11-03T14:34:48Z</time>
      </trkpt>
      <trkpt lat="48.18655" lon="6.61022">
        <ele>520.7</ele>
        <time>2024-11-03T14:34:56Z</time>
      </trkpt>
      <trkpt lat="48.18653" lon="6.61009">
        <ele>520.4</ele>
        <time>2024-11-03T14:35:04Z</time>
      </trkpt>
      <trkpt lat="48.18653" lon="6.60994">
        <ele>520.1</ele>
        <time>2024-11-03T14:35:13Z</time>
      </trkpt>
      <trkpt lat="48.1865" lon="6.60979">
        <ele>519.8</ele>
        <time>2024-11-03T14:35:21Z</time>
      </trkpt>
      <trkpt lat="48.18647" lon="6.60964">
        <ele>519.6</ele>
        <time>2024-11-03T14:35:30Z</time>
      </trkpt>
      <trkpt lat="48.18642" lon="6.60952">
        <ele>519.4</ele>
        <time>2024-11-03T14:35:37Z</time>
      </trkpt>
      <trkpt lat="48.1864" lon="6.60938">
        <ele>519.2</ele>
        <time>2024-11-03T14:35:44Z</time>
      </trkpt>
      <trkpt lat="48.18635" lon="6.60926">
        <ele>519</ele>
        <time>2024-11-03T14:35:56Z</time>
      </trkpt>
      <trkpt lat="48.18631" lon="6.60913">
        <ele>518.8</ele>
        <time>2024-11-03T14:36:04Z</time>
      </trkpt>
      <trkpt lat="48.18626" lon="6.609">
        <ele>518.5</ele>
        <time>2024-11-03T14:36:12Z</time>
      </trkpt>
      <trkpt lat="48.18622" lon="6.60888">
        <ele>518.2</ele>
        <time>2024-11-03T14:36:20Z</time>
      </trkpt>
      <trkpt lat="48.18617" lon="6.60875">
        <ele>517.9</ele>
        <time>2024-11-03T14:36:31Z</time>
      </trkpt>
      <trkpt lat="48.18612" lon="6.60863">
        <ele>517.6</ele>
        <time>2024-11-03T14:36:40Z</time>
      </trkpt>
      <trkpt lat="48.18608" lon="6.60851">
        <ele>517.3</ele>
        <time>2024-11-03T14:36:47Z</time>
      </trkpt>
      <trkpt lat="48.18603" lon="6.60839">
        <ele>517</ele>
        <time>2024-11-03T14:36:54Z</time>
      </trkpt>
      <trkpt lat="48.186" lon="6.60825">
        <ele>516.7</ele>
        <time>2024-11-03T14:37:04Z</time>
      </trkpt>
      <trkpt lat="48.18597" lon="6.6081">
        <ele>516.4</ele>
        <time>2024-11-03T14:37:12Z</time>
      </trkpt>
      <trkpt lat="48.18596" lon="6.60796">
        <ele>516.2</ele>
        <time>2024-11-03T14:37:22Z</time>
      </trkpt>
      <trkpt lat="48.18591" lon="6.60784">
        <ele>515.9</ele>
        <time>2024-11-03T14:37:29Z</time>
      </trkpt>
      <trkpt lat="48.18585" lon="6.60773">
        <ele>515.7</ele>
        <time>2024-11-03T14:37:35Z</time>
      </trkpt>
      <trkpt lat="48.18579" lon="6.60763">
        <ele>515.6</ele>
        <time>2024-11-03T14:37:41Z</time>
      </trkpt>
      <trkpt lat="48.18573" lon="6.60752">
        <ele>515.4</ele>
        <time>2024-11-03T14:37:49Z</time>
      </trkpt>
      <trkpt lat="48.18568" lon="6.6074">
        <ele>515.2</ele>
        <time>2024-11-03T14:37:57Z</time>
      </trkpt>
      <trkpt lat="48.18563" lon="6.60728">
        <ele>515</ele>
        <time>2024-11-03T14:38:04Z</time>
      </trkpt>
      <trkpt lat="48.18559" lon="6.60714">
        <ele>514.9</ele>
        <time>2024-11-03T14:38:11Z</time>
      </trkpt>
      <trkpt lat="48.18555" lon="6.60702">
        <ele>514.8</ele>
        <time>2024-11-03T14:38:18Z</time>
      </trkpt>
      <trkpt lat="48.18552" lon="6.60689">
        <ele>514.7</ele>
        <time>2024-11-03T14:38:27Z</time>
      </trkpt>
      <trkpt lat="48.18562" lon="6.60688">
        <ele>514.5</ele>
        <time>2024-11-03T14:38:41Z</time>
      </trkpt>
      <trkpt lat="48.18571" lon="6.60692">
        <ele>514.4</ele>
        <time>2024-11-03T14:38:48Z</time>
      </trkpt>
      <trkpt lat="48.18579" lon="6.60699">
        <ele>514.2</ele>
        <time>2024-11-03T14:38:56Z</time>
      </trkpt>
      <trkpt lat="48.18589" lon="6.60705">
        <ele>513.9</ele>
        <time>2024-11-03T14:39:04Z</time>
      </trkpt>
      <trkpt lat="48.18598" lon="6.60712">
        <ele>513.7</ele>
        <time>2024-11-03T14:39:12Z</time>
      </trkpt>
      <trkpt lat="48.18607" lon="6.60717">
        <ele>513.4</ele>
        <time>2024-11-03T14:39:19Z</time>
      </trkpt>
      <trkpt lat="48.18616" lon="6.60721">
        <ele>513.2</ele>
        <time>2024-11-03T14:39:28Z</time>
      </trkpt>
      <trkpt lat="48.18625" lon="6.60728">
        <ele>513</ele>
        <time>2024-11-03T14:39:37Z</time>
      </trkpt>
      <trkpt lat="48.18634" lon="6.60733">
        <ele>512.8</ele>
        <time>2024-11-03T14:39:44Z</time>
      </trkpt>
      <trkpt lat="48.18643" lon="6.60735">
        <ele>512.8</ele>
        <time>2024-11-03T14:39:53Z</time>
      </trkpt>
      <trkpt lat="48.18652" lon="6.60738">
        <ele>512.7</ele>
        <time>2024-11-03T14:40:01Z</time>
      </trkpt>
      <trkpt lat="48.18661" lon="6.60741">
        <ele>512.6</ele>
        <time>2024-11-03T14:40:09Z</time>
      </trkpt>
      <trkpt lat="48.1867" lon="6.60748">
        <ele>512.4</ele>
        <time>2024-11-03T14:40:16Z</time>
      </trkpt>
      <trkpt lat="48.18679" lon="6.60754">
        <ele>512.2</ele>
        <time>2024-11-03T14:40:25Z</time>
      </trkpt>
      <trkpt lat="48.18688" lon="6.60759">
        <ele>512</ele>
        <time>2024-11-03T14:40:32Z</time>
      </trkpt>
      <trkpt lat="48.18696" lon="6.60765">
        <ele>511.9</ele>
        <time>2024-11-03T14:40:40Z</time>
      </trkpt>
      <trkpt lat="48.18704" lon="6.60773">
        <ele>511.7</ele>
        <time>2024-11-03T14:40:47Z</time>
      </trkpt>
      <trkpt lat="48.18711" lon="6.6078">
        <ele>511.6</ele>
        <time>2024-11-03T14:40:56Z</time>
      </trkpt>
      <trkpt lat="48.18718" lon="6.60791">
        <ele>511.4</ele>
        <time>2024-11-03T14:41:04Z</time>
      </trkpt>
      <trkpt lat="48.18722" lon="6.60803">
        <ele>511.3</ele>
        <time>2024-11-03T14:41:11Z</time>
      </trkpt>
      <trkpt lat="48.18729" lon="6.60815">
        <ele>511.2</ele>
        <time>2024-11-03T14:41:19Z</time>
      </trkpt>
      <trkpt lat="48.18737" lon="6.60823">
        <ele>511.1</ele>
        <time>2024-11-03T14:41:27Z</time>
      </trkpt>
      <trkpt lat="48.18744" lon="6.60833">
        <ele>511</ele>
        <time>2024-11-03T14:41:34Z</time>
      </trkpt>
      <trkpt lat="48.18753" lon="6.6084">
        <ele>511</ele>
        <time>2024-11-03T14:41:41Z</time>
      </trkpt>
      <trkpt lat="48.18762" lon="6.60842">
        <ele>511</ele>
        <time>2024-11-03T14:41:48Z</time>
      </trkpt>
      <trkpt lat="48.1877" lon="6.6085">
        <ele>511</ele>
        <time>2024-11-03T14:41:56Z</time>
      </trkpt>
      <trkpt lat="48.18778" lon="6.60856">
        <ele>511</ele>
        <time>2024-11-03T14:42:04Z</time>
      </trkpt>
      <trkpt lat="48.18788" lon="6.60861">
        <ele>511.1</ele>
        <time>2024-11-03T14:42:12Z</time>
      </trkpt>
      <trkpt lat="48.18797" lon="6.60861">
        <ele>511.1</ele>
        <time>2024-11-03T14:42:21Z</time>
      </trkpt>
      <trkpt lat="48.18807" lon="6.60856">
        <ele>511.1</ele>
        <time>2024-11-03T14:42:26Z</time>
      </trkpt>
      <trkpt lat="48.18816" lon="6.6085">
        <ele>511</ele>
        <time>2024-11-03T14:42:34Z</time>
      </trkpt>
      <trkpt lat="48.18824" lon="6.60843">
        <ele>510.9</ele>
        <time>2024-11-03T14:42:39Z</time>
      </trkpt>
      <trkpt lat="48.1883" lon="6.60832">
        <ele>510.8</ele>
        <time>2024-11-03T14:42:46Z</time>
      </trkpt>
      <trkpt lat="48.18837" lon="6.60821">
        <ele>510.7</ele>
        <time>2024-11-03T14:42:53Z</time>
      </trkpt>
      <trkpt lat="48.1884" lon="6.60808">
        <ele>510.6</ele>
        <time>2024-11-03T14:42:59Z</time>
      </trkpt>
      <trkpt lat="48.18842" lon="6.60794">
        <ele>510.5</ele>
        <time>2024-11-03T14:43:05Z</time>
      </trkpt>
      <trkpt lat="48.18844" lon="6.60781">
        <ele>510.4</ele>
        <time>2024-11-03T14:43:10Z</time>
      </trkpt>
      <trkpt lat="48.18846" lon="6.60766">
        <ele>510.4</ele>
        <time>2024-11-03T14:43:17Z</time>
      </trkpt>
      <trkpt lat="48.18849" lon="6.60751">
        <ele>510.3</ele>
        <time>2024-11-03T14:43:25Z</time>
      </trkpt>
      <trkpt lat="48.1885" lon="6.60737">
        <ele>510.3</ele>
        <time>2024-11-03T14:43:33Z</time>
      </trkpt>
      <trkpt lat="48.18848" lon="6.60724">
        <ele>510.3</ele>
        <time>2024-11-03T14:43:40Z</time>
      </trkpt>
      <trkpt lat="48.18848" lon="6.60709">
        <ele>510.3</ele>
        <time>2024-11-03T14:43:49Z</time>
      </trkpt>
      <trkpt lat="48.1885" lon="6.60695">
        <ele>510.3</ele>
        <time>2024-11-03T14:43:56Z</time>
      </trkpt>
      <trkpt lat="48.1885" lon="6.60682">
        <ele>510.2</ele>
        <time>2024-11-03T14:44:04Z</time>
      </trkpt>
      <trkpt lat="48.18853" lon="6.60668">
        <ele>510.2</ele>
        <time>2024-11-03T14:44:14Z</time>
      </trkpt>
      <trkpt lat="48.18858" lon="6.60655">
        <ele>510.1</ele>
        <time>2024-11-03T14:44:22Z</time>
      </trkpt>
      <trkpt lat="48.18863" lon="6.60643">
        <ele>510</ele>
        <time>2024-11-03T14:44:31Z</time>
      </trkpt>
      <trkpt lat="48.18868" lon="6.6063">
        <ele>509.9</ele>
        <time>2024-11-03T14:44:40Z</time>
      </trkpt>
      <trkpt lat="48.18872" lon="6.60617">
        <ele>509.7</ele>
        <time>2024-11-03T14:44:49Z</time>
      </trkpt>
      <trkpt lat="48.18879" lon="6.60607">
        <ele>509.5</ele>
        <time>2024-11-03T14:44:57Z</time>
      </trkpt>
      <trkpt lat="48.18884" lon="6.60597">
        <ele>509.1</ele>
        <time>2024-11-03T14:45:05Z</time>
      </trkpt>
      <trkpt lat="48.1889" lon="6.60583">
        <ele>508.7</ele>
        <time>2024-11-03T14:45:12Z</time>
      </trkpt>
      <trkpt lat="48.18895" lon="6.6057">
        <ele>508.2</ele>
        <time>2024-11-03T14:45:20Z</time>
      </trkpt>
      <trkpt lat="48.189" lon="6.60559">
        <ele>507.8</ele>
        <time>2024-11-03T14:45:29Z</time>
      </trkpt>
      <trkpt lat="48.18906" lon="6.60548">
        <ele>507.3</ele>
        <time>2024-11-03T14:45:36Z</time>
      </trkpt>
      <trkpt lat="48.18913" lon="6.60537">
        <ele>506.8</ele>
        <time>2024-11-03T14:45:41Z</time>
      </trkpt>
      <trkpt lat="48.18917" lon="6.60524">
        <ele>506.3</ele>
        <time>2024-11-03T14:45:50Z</time>
      </trkpt>
      <trkpt lat="48.18922" lon="6.6051">
        <ele>505.8</ele>
        <time>2024-11-03T14:45:56Z</time>
      </trkpt>
      <trkpt lat="48.18927" lon="6.60497">
        <ele>505.4</ele>
        <time>2024-11-03T14:46:03Z</time>
      </trkpt>
      <trkpt lat="48.18923" lon="6.60493">
        <ele>505.2</ele>
        <time>2024-11-03T14:46:12Z</time>
      </trkpt>
      <trkpt lat="48.18922" lon="6.60492">
        <ele>505.1</ele>
        <time>2024-11-03T14:46:13Z</time>
      </trkpt>
      <trkpt lat="48.18921" lon="6.60492">
        <ele>505.1</ele>
        <time>2024-11-03T14:46:14Z</time>
      </trkpt>
      <trkpt lat="48.18921" lon="6.60492">
        <ele>505.1</ele>
        <time>2024-11-03T14:46:15Z</time>
      </trkpt>
      <trkpt lat="48.1892" lon="6.60494">
        <ele>505</ele>
        <time>2024-11-03T14:46:28Z</time>
      </trkpt>
      <trkpt lat="48.1892" lon="6.60493">
        <ele>505</ele>
        <time>2024-11-03T14:46:29Z</time>
      </trkpt>
      <trkpt lat="48.18922" lon="6.60488">
        <ele>504.9</ele>
        <time>2024-11-03T14:46:43Z</time>
      </trkpt>
      <trkpt lat="48.18922" lon="6.60486">
        <ele>504.8</ele>
        <time>2024-11-03T14:46:44Z</time>
      </trkpt>
      <trkpt lat="48.18923" lon="6.60485">
        <ele>504.8</ele>
        <time>2024-11-03T14:46:45Z</time>
      </trkpt>
      <trkpt lat="48.18929" lon="6.60473">
        <ele>504.4</ele>
        <time>2024-11-03T14:46:52Z</time>
      </trkpt>
      <trkpt lat="48.18933" lon="6.60459">
        <ele>504.1</ele>
        <time>2024-11-03T14:47:00Z</time>
      </trkpt>
      <trkpt lat="48.18938" lon="6.60446">
        <ele>503.8</ele>
        <time>2024-11-03T14:47:07Z</time>
      </trkpt>
      <trkpt lat="48.18945" lon="6.60436">
        <ele>503.5</ele>
        <time>2024-11-03T14:47:15Z</time>
      </trkpt>
      <trkpt lat="48.18951" lon="6.60425">
        <ele>503.2</ele>
        <time>2024-11-03T14:47:24Z</time>
      </trkpt>
      <trkpt lat="48.18956" lon="6.60414">
        <ele>502.9</ele>
        <time>2024-11-03T14:47:33Z</time>
      </trkpt>
      <trkpt lat="48.18963" lon="6.60405">
        <ele>502.6</ele>
        <time>2024-11-03T14:47:41Z</time>
      </trkpt>
      <trkpt lat="48.18969" lon="6.60395">
        <ele>502.4</ele>
        <time>2024-11-03T14:47:49Z</time>
      </trkpt>
      <trkpt lat="48.18976" lon="6.60384">
        <ele>502.1</ele>
        <time>2024-11-03T14:47:58Z</time>
      </trkpt>
      <trkpt lat="48.18982" lon="6.60374">
        <ele>501.9</ele>
        <time>2024-11-03T14:48:07Z</time>
      </trkpt>
      <trkpt lat="48.1899" lon="6.60365">
        <ele>501.6</ele>
        <time>2024-11-03T14:48:14Z</time>
      </trkpt>
      <trkpt lat="48.18999" lon="6.60359">
        <ele>501.3</ele>
        <time>2024-11-03T14:48:21Z</time>
      </trkpt>
      <trkpt lat="48.19007" lon="6.60352">
        <ele>501</ele>
        <time>2024-11-03T14:48:29Z</time>
      </trkpt>
      <trkpt lat="48.19014" lon="6.60341">
        <ele>500.7</ele>
        <time>2024-11-03T14:48:37Z</time>
      </trkpt>
      <trkpt lat="48.1902" lon="6.60329">
        <ele>500.3</ele>
        <time>2024-11-03T14:48:45Z</time>
      </trkpt>
      <trkpt lat="48.19024" lon="6.60316">
        <ele>500</ele>
        <time>2024-11-03T14:48:54Z</time>
      </trkpt>
      <trkpt lat="48.19032" lon="6.6031">
        <ele>499.7</ele>
        <time>2024-11-03T14:49:02Z</time>
      </trkpt>
      <trkpt lat="48.19042" lon="6.60306">
        <ele>499.3</ele>
        <time>2024-11-03T14:49:09Z</time>
      </trkpt>
      <trkpt lat="48.1905" lon="6.60296">
        <ele>498.8</ele>
        <time>2024-11-03T14:49:18Z</time>
      </trkpt>
      <trkpt lat="48.19058" lon="6.60287">
        <ele>498.4</ele>
        <time>2024-11-03T14:49:25Z</time>
      </trkpt>
      <trkpt lat="48.19065" lon="6.60277">
        <ele>497.9</ele>
        <time>2024-11-03T14:49:32Z</time>
      </trkpt>
      <trkpt lat="48.19072" lon="6.60267">
        <ele>497.5</ele>
        <time>2024-11-03T14:49:40Z</time>
      </trkpt>
      <trkpt lat="48.1908" lon="6.60258">
        <ele>497.1</ele>
        <time>2024-11-03T14:49:48Z</time>
      </trkpt>
      <trkpt lat="48.19087" lon="6.60247">
        <ele>496.7</ele>
        <time>2024-11-03T14:49:57Z</time>
      </trkpt>
      <trkpt lat="48.19092" lon="6.60233">
        <ele>496.2</ele>
        <time>2024-11-03T14:50:07Z</time>
      </trkpt>
      <trkpt lat="48.19095" lon="6.60228">
        <ele>496</ele>
        <time>2024-11-03T14:50:16Z</time>
      </trkpt>
      <trkpt lat="48.19095" lon="6.60227">
        <ele>495.9</ele>
        <time>2024-11-03T14:50:17Z</time>
      </trkpt>
      <trkpt lat="48.19096" lon="6.60227">
        <ele>495.9</ele>
        <time>2024-11-03T14:50:18Z</time>
      </trkpt>
      <trkpt lat="48.19096" lon="6.60227">
        <ele>495.9</ele>
        <time>2024-11-03T14:50:19Z</time>
      </trkpt>
      <trkpt lat="48.19104" lon="6.60219">
        <ele>495.4</ele>
        <time>2024-11-03T14:50:31Z</time>
      </trkpt>
      <trkpt lat="48.19112" lon="6.6021">
        <ele>494.8</ele>
        <time>2024-11-03T14:50:40Z</time>
      </trkpt>
      <trkpt lat="48.1912" lon="6.602">
        <ele>494.4</ele>
        <time>2024-11-03T14:50:46Z</time>
      </trkpt>
      <trkpt lat="48.19128" lon="6.60191">
        <ele>493.9</ele>
        <time>2024-11-03T14:50:52Z</time>
      </trkpt>
      <trkpt lat="48.19137" lon="6.60183">
        <ele>493.6</ele>
        <time>2024-11-03T14:51:01Z</time>
      </trkpt>
      <trkpt lat="48.19143" lon="6.60172">
        <ele>493.2</ele>
        <time>2024-11-03T14:51:09Z</time>
      </trkpt>
      <trkpt lat="48.1915" lon="6.60162">
        <ele>492.8</ele>
        <time>2024-11-03T14:51:16Z</time>
      </trkpt>
      <trkpt lat="48.19159" lon="6.60151">
        <ele>492.4</ele>
        <time>2024-11-03T14:51:23Z</time>
      </trkpt>
      <trkpt lat="48.19165" lon="6.60139">
        <ele>492</ele>
        <time>2024-11-03T14:51:30Z</time>
      </trkpt>
      <trkpt lat="48.19171" lon="6.60129">
        <ele>491.7</ele>
        <time>2024-11-03T14:51:39Z</time>
      </trkpt>
      <trkpt lat="48.19176" lon="6.60117">
        <ele>491.4</ele>
        <time>2024-11-03T14:51:47Z</time>
      </trkpt>
      <trkpt lat="48.19182" lon="6.60105">
        <ele>491.1</ele>
        <time>2024-11-03T14:51:58Z</time>
      </trkpt>
      <trkpt lat="48.19187" lon="6.60094">
        <ele>490.9</ele>
        <time>2024-11-03T14:52:08Z</time>
      </trkpt>
      <trkpt lat="48.19194" lon="6.60083">
        <ele>490.7</ele>
        <time>2024-11-03T14:52:17Z</time>
      </trkpt>
      <trkpt lat="48.19201" lon="6.60073">
        <ele>490.6</ele>
        <time>2024-11-03T14:52:24Z</time>
      </trkpt>
      <trkpt lat="48.1921" lon="6.60067">
        <ele>490.5</ele>
        <time>2024-11-03T14:52:31Z</time>
      </trkpt>
      <trkpt lat="48.1922" lon="6.60066">
        <ele>490.4</ele>
        <time>2024-11-03T14:52:39Z</time>
      </trkpt>
      <trkpt lat="48.19229" lon="6.60067">
        <ele>490.3</ele>
        <time>2024-11-03T14:52:47Z</time>
      </trkpt>
      <trkpt lat="48.19239" lon="6.60066">
        <ele>490</ele>
        <time>2024-11-03T14:52:53Z</time>
      </trkpt>
      <trkpt lat="48.19248" lon="6.60068">
        <ele>489.7</ele>
        <time>2024-11-03T14:53:03Z</time>
      </trkpt>
      <trkpt lat="48.19258" lon="6.6007">
        <ele>489.4</ele>
        <time>2024-11-03T14:53:11Z</time>
      </trkpt>
      <trkpt lat="48.19268" lon="6.60072">
        <ele>489</ele>
        <time>2024-11-03T14:53:20Z</time>
      </trkpt>
      <trkpt lat="48.19277" lon="6.60074">
        <ele>488.6</ele>
        <time>2024-11-03T14:53:28Z</time>
      </trkpt>
      <trkpt lat="48.19286" lon="6.60076">
        <ele>488.3</ele>
        <time>2024-11-03T14:53:36Z</time>
      </trkpt>
      <trkpt lat="48.19295" lon="6.60081">
        <ele>487.9</ele>
        <time>2024-11-03T14:53:44Z</time>
      </trkpt>
      <trkpt lat="48.19304" lon="6.60082">
        <ele>487.6</ele>
        <time>2024-11-03T14:53:51Z</time>
      </trkpt>
      <trkpt lat="48.19314" lon="6.60084">
        <ele>487.2</ele>
        <time>2024-11-03T14:53:57Z</time>
      </trkpt>
      <trkpt lat="48.19324" lon="6.60083">
        <ele>486.9</ele>
        <time>2024-11-03T14:54:04Z</time>
      </trkpt>
      <trkpt lat="48.19334" lon="6.60084">
        <ele>486.5</ele>
        <time>2024-11-03T14:54:11Z</time>
      </trkpt>
      <trkpt lat="48.19343" lon="6.60085">
        <ele>486.2</ele>
        <time>2024-11-03T14:54:19Z</time>
      </trkpt>
      <trkpt lat="48.19352" lon="6.60087">
        <ele>485.9</ele>
        <time>2024-11-03T14:54:26Z</time>
      </trkpt>
      <trkpt lat="48.19362" lon="6.60088">
        <ele>485.7</ele>
        <time>2024-11-03T14:54:34Z</time>
      </trkpt>
      <trkpt lat="48.19371" lon="6.60087">
        <ele>485.4</ele>
        <time>2024-11-03T14:54:43Z</time>
      </trkpt>
      <trkpt lat="48.19381" lon="6.60087">
        <ele>485.2</ele>
        <time>2024-11-03T14:54:52Z</time>
      </trkpt>
      <trkpt lat="48.19391" lon="6.60092">
        <ele>484.9</ele>
        <time>2024-11-03T14:54:59Z</time>
      </trkpt>
      <trkpt lat="48.19399" lon="6.60098">
        <ele>484.6</ele>
        <time>2024-11-03T14:55:07Z</time>
      </trkpt>
      <trkpt lat="48.19408" lon="6.60101">
        <ele>484.4</ele>
        <time>2024-11-03T14:55:14Z</time>
      </trkpt>
      <trkpt lat="48.19417" lon="6.60105">
        <ele>484.1</ele>
        <time>2024-11-03T14:55:22Z</time>
      </trkpt>
      <trkpt lat="48.19427" lon="6.60109">
        <ele>483.9</ele>
        <time>2024-11-03T14:55:30Z</time>
      </trkpt>
      <trkpt lat="48.19437" lon="6.60111">
        <ele>483.6</ele>
        <time>2024-11-03T14:55:38Z</time>
      </trkpt>
      <trkpt lat="48.19444" lon="6.601">
        <ele>483.3</ele>
        <time>2024-11-03T14:55:43Z</time>
      </trkpt>
      <trkpt lat="48.19443" lon="6.60086">
        <ele>483.3</ele>
        <time>2024-11-03T14:55:49Z</time>
      </trkpt>
      <trkpt lat="48.19441" lon="6.60071">
        <ele>483.2</ele>
        <time>2024-11-03T14:55:57Z</time>
      </trkpt>
      <trkpt lat="48.19439" lon="6.60058">
        <ele>483</ele>
        <time>2024-11-03T14:56:05Z</time>
      </trkpt>
      <trkpt lat="48.19443" lon="6.60045">
        <ele>482.5</ele>
        <time>2024-11-03T14:56:15Z</time>
      </trkpt>
      <trkpt lat="48.19452" lon="6.60046">
        <ele>481.8</ele>
        <time>2024-11-03T14:56:31Z</time>
      </trkpt>
      <trkpt lat="48.19461" lon="6.60046">
        <ele>481.1</ele>
        <time>2024-11-03T14:56:41Z</time>
      </trkpt>
      <trkpt lat="48.1947" lon="6.60046">
        <ele>480.5</ele>
        <time>2024-11-03T14:56:49Z</time>
      </trkpt>
      <trkpt lat="48.1948" lon="6.60045">
        <ele>479.8</ele>
        <time>2024-11-03T14:56:57Z</time>
      </trkpt>
      <trkpt lat="48.19489" lon="6.60042">
        <ele>479</ele>
        <time>2024-11-03T14:57:06Z</time>
      </trkpt>
      <trkpt lat="48.19499" lon="6.60039">
        <ele>478.1</ele>
        <time>2024-11-03T14:57:14Z</time>
      </trkpt>
      <trkpt lat="48.19508" lon="6.60037">
        <ele>477.1</ele>
        <time>2024-11-03T14:57:22Z</time>
      </trkpt>
      <trkpt lat="48.19517" lon="6.60035">
        <ele>476.1</ele>
        <time>2024-11-03T14:57:31Z</time>
      </trkpt>
      <trkpt lat="48.19526" lon="6.60029">
        <ele>475</ele>
        <time>2024-11-03T14:57:38Z</time>
      </trkpt>
      <trkpt lat="48.19535" lon="6.60023">
        <ele>473.7</ele>
        <time>2024-11-03T14:57:47Z</time>
      </trkpt>
      <trkpt lat="48.19544" lon="6.60018">
        <ele>472.4</ele>
        <time>2024-11-03T14:57:55Z</time>
      </trkpt>
      <trkpt lat="48.19552" lon="6.60011">
        <ele>471</ele>
        <time>2024-11-03T14:58:01Z</time>
      </trkpt>
      <trkpt lat="48.1956" lon="6.60004">
        <ele>469.7</ele>
        <time>2024-11-03T14:58:11Z</time>
      </trkpt>
      <trkpt lat="48.19569" lon="6.59998">
        <ele>468.3</ele>
        <time>2024-11-03T14:58:21Z</time>
      </trkpt>
      <trkpt lat="48.19578" lon="6.59991">
        <ele>466.9</ele>
        <time>2024-11-03T14:58:26Z</time>
      </trkpt>
      <trkpt lat="48.19585" lon="6.59982">
        <ele>465.6</ele>
        <time>2024-11-03T14:58:31Z</time>
      </trkpt>
      <trkpt lat="48.19593" lon="6.59974">
        <ele>464.3</ele>
        <time>2024-11-03T14:58:39Z</time>
      </trkpt>
      <trkpt lat="48.19601" lon="6.59966">
        <ele>463</ele>
        <time>2024-11-03T14:58:45Z</time>
      </trkpt>
      <trkpt lat="48.19609" lon="6.59957">
        <ele>461.7</ele>
        <time>2024-11-03T14:58:53Z</time>
      </trkpt>
      <trkpt lat="48.19616" lon="6.59949">
        <ele>460.6</ele>
        <time>2024-11-03T14:59:03Z</time>
      </trkpt>
      <trkpt lat="48.19622" lon="6.59938">
        <ele>459.5</ele>
        <time>2024-11-03T14:59:10Z</time>
      </trkpt>
      <trkpt lat="48.19626" lon="6.59924">
        <ele>458.5</ele>
        <time>2024-11-03T14:59:16Z</time>
      </trkpt>
      <trkpt lat="48.19626" lon="6.59911">
        <ele>457.8</ele>
        <time>2024-11-03T14:59:24Z</time>
      </trkpt>
      <trkpt lat="48.19618" lon="6.59899">
        <ele>457.3</ele>
        <time>2024-11-03T14:59:29Z</time>
      </trkpt>
      <trkpt lat="48.19611" lon="6.59891">
        <ele>457.1</ele>
        <time>2024-11-03T14:59:34Z</time>
      </trkpt>
      <trkpt lat="48.19605" lon="6.5988">
        <ele>457</ele>
        <time>2024-11-03T14:59:40Z</time>
      </trkpt>
      <trkpt lat="48.196" lon="6.59867">
        <ele>457.5</ele>
        <time>2024-11-03T14:59:47Z</time>
      </trkpt>
      <trkpt lat="48.19599" lon="6.59852">
        <ele>458.1</ele>
        <time>2024-11-03T14:59:59Z</time>
      </trkpt>
      <trkpt lat="48.196" lon="6.59841">
        <ele>458.6</ele>
        <time>2024-11-03T15:00:20Z</time>
      </trkpt>
      <trkpt lat="48.196" lon="6.59841">
        <ele>458.6</ele>
        <time>2024-11-03T15:00:21Z</time>
      </trkpt>
      <trkpt lat="48.196" lon="6.5984">
        <ele>458.6</ele>
        <time>2024-11-03T15:00:30Z</time>
      </trkpt>
      <trkpt lat="48.196" lon="6.59839">
        <ele>458.7</ele>
        <time>2024-11-03T15:00:31Z</time>
      </trkpt>
      <trkpt lat="48.19593" lon="6.59828">
        <ele>459.4</ele>
        <time>2024-11-03T15:00:39Z</time>
      </trkpt>
      <trkpt lat="48.19585" lon="6.59822">
        <ele>460.1</ele>
        <time>2024-11-03T15:00:46Z</time>
      </trkpt>
      <trkpt lat="48.19578" lon="6.5981">
        <ele>460.9</ele>
        <time>2024-11-03T15:00:55Z</time>
      </trkpt>
      <trkpt lat="48.19572" lon="6.598">
        <ele>461.8</ele>
        <time>2024-11-03T15:01:02Z</time>
      </trkpt>
      <trkpt lat="48.19561" lon="6.59794">
        <ele>462.9</ele>
        <time>2024-11-03T15:01:09Z</time>
      </trkpt>
      <trkpt lat="48.19553" lon="6.59789">
        <ele>463.7</ele>
        <time>2024-11-03T15:01:14Z</time>
      </trkpt>
      <trkpt lat="48.19545" lon="6.59779">
        <ele>464.6</ele>
        <time>2024-11-03T15:01:20Z</time>
      </trkpt>
      <trkpt lat="48.19538" lon="6.59769">
        <ele>465.5</ele>
        <time>2024-11-03T15:01:28Z</time>
      </trkpt>
      <trkpt lat="48.19529" lon="6.59763">
        <ele>466.2</ele>
        <time>2024-11-03T15:01:34Z</time>
      </trkpt>
      <trkpt lat="48.1952" lon="6.59759">
        <ele>467</ele>
        <time>2024-11-03T15:01:41Z</time>
      </trkpt>
      <trkpt lat="48.19511" lon="6.59755">
        <ele>467.8</ele>
        <time>2024-11-03T15:01:49Z</time>
      </trkpt>
      <trkpt lat="48.19502" lon="6.59753">
        <ele>468.6</ele>
        <time>2024-11-03T15:01:56Z</time>
      </trkpt>
      <trkpt lat="48.19492" lon="6.59753">
        <ele>469.4</ele>
        <time>2024-11-03T15:02:06Z</time>
      </trkpt>
      <trkpt lat="48.19482" lon="6.59754">
        <ele>470.5</ele>
        <time>2024-11-03T15:02:13Z</time>
      </trkpt>
      <trkpt lat="48.19472" lon="6.59752">
        <ele>471.6</ele>
        <time>2024-11-03T15:02:19Z</time>
      </trkpt>
      <trkpt lat="48.19463" lon="6.59753">
        <ele>472.6</ele>
        <time>2024-11-03T15:02:25Z</time>
      </trkpt>
      <trkpt lat="48.19454" lon="6.59751">
        <ele>473.6</ele>
        <time>2024-11-03T15:02:34Z</time>
      </trkpt>
      <trkpt lat="48.19453" lon="6.59751">
        <ele>473.8</ele>
        <time>2024-11-03T15:02:41Z</time>
      </trkpt>
      <trkpt lat="48.19453" lon="6.59752">
        <ele>473.9</ele>
        <time>2024-11-03T15:02:42Z</time>
      </trkpt>
      <trkpt lat="48.19454" lon="6.59753">
        <ele>473.9</ele>
        <time>2024-11-03T15:02:43Z</time>
      </trkpt>
      <trkpt lat="48.19455" lon="6.59754">
        <ele>474.1</ele>
        <time>2024-11-03T15:02:44Z</time>
      </trkpt>
      <trkpt lat="48.19458" lon="6.59759">
        <ele>474.6</ele>
        <time>2024-11-03T15:03:00Z</time>
      </trkpt>
      <trkpt lat="48.19458" lon="6.59759">
        <ele>474.6</ele>
        <time>2024-11-03T15:03:01Z</time>
      </trkpt>
      <trkpt lat="48.19458" lon="6.59759">
        <ele>474.6</ele>
        <time>2024-11-03T15:03:02Z</time>
      </trkpt>
      <trkpt lat="48.19458" lon="6.59758">
        <ele>474.7</ele>
        <time>2024-11-03T15:03:03Z</time>
      </trkpt>
      <trkpt lat="48.19457" lon="6.59759">
        <ele>474.8</ele>
        <time>2024-11-03T15:03:04Z</time>
      </trkpt>
      <trkpt lat="48.19458" lon="6.59759">
        <ele>474.9</ele>
        <time>2024-11-03T15:03:07Z</time>
      </trkpt>
      <trkpt lat="48.19458" lon="6.5976">
        <ele>474.9</ele>
        <time>2024-11-03T15:03:08Z</time>
      </trkpt>
      <trkpt lat="48.19458" lon="6.5976">
        <ele>474.9</ele>
        <time>2024-11-03T15:03:09Z</time>
      </trkpt>
      <trkpt lat="48.19456" lon="6.59761">
        <ele>475.1</ele>
        <time>2024-11-03T15:03:25Z</time>
      </trkpt>
      <trkpt lat="48.19456" lon="6.59761">
        <ele>475.2</ele>
        <time>2024-11-03T15:03:26Z</time>
      </trkpt>
      <trkpt lat="48.19455" lon="6.59762">
        <ele>475.3</ele>
        <time>2024-11-03T15:03:27Z</time>
      </trkpt>
      <trkpt lat="48.19452" lon="6.59766">
        <ele>475.7</ele>
        <time>2024-11-03T15:03:32Z</time>
      </trkpt>
      <trkpt lat="48.19452" lon="6.59766">
        <ele>475.7</ele>
        <time>2024-11-03T15:03:33Z</time>
      </trkpt>
      <trkpt lat="48.19452" lon="6.59766">
        <ele>475.7</ele>
        <time>2024-11-03T15:03:34Z</time>
      </trkpt>
      <trkpt lat="48.19452" lon="6.59764">
        <ele>475.8</ele>
        <time>2024-11-03T15:03:40Z</time>
      </trkpt>
      <trkpt lat="48.19451" lon="6.59763">
        <ele>475.8</ele>
        <time>2024-11-03T15:03:41Z</time>
      </trkpt>
      <trkpt lat="48.19443" lon="6.59757">
        <ele>476.7</ele>
        <time>2024-11-03T15:03:50Z</time>
      </trkpt>
      <trkpt lat="48.19434" lon="6.59755">
        <ele>477.5</ele>
        <time>2024-11-03T15:03:57Z</time>
      </trkpt>
      <trkpt lat="48.19425" lon="6.59752">
        <ele>478.2</ele>
        <time>2024-11-03T15:04:06Z</time>
      </trkpt>
      <trkpt lat="48.19416" lon="6.59748">
        <ele>479.1</ele>
        <time>2024-11-03T15:04:15Z</time>
      </trkpt>
      <trkpt lat="48.19408" lon="6.5974">
        <ele>479.9</ele>
        <time>2024-11-03T15:04:23Z</time>
      </trkpt>
      <trkpt lat="48.19403" lon="6.59729">
        <ele>480.8</ele>
        <time>2024-11-03T15:04:32Z</time>
      </trkpt>
      <trkpt lat="48.19399" lon="6.59716">
        <ele>481.4</ele>
        <time>2024-11-03T15:04:39Z</time>
      </trkpt>
      <trkpt lat="48.19398" lon="6.59703">
        <ele>482</ele>
        <time>2024-11-03T15:04:48Z</time>
      </trkpt>
      <trkpt lat="48.19402" lon="6.59689">
        <ele>482.6</ele>
        <time>2024-11-03T15:04:57Z</time>
      </trkpt>
      <trkpt lat="48.19408" lon="6.59677">
        <ele>483.4</ele>
        <time>2024-11-03T15:05:04Z</time>
      </trkpt>
      <trkpt lat="48.19416" lon="6.59667">
        <ele>484.1</ele>
        <time>2024-11-03T15:05:14Z</time>
      </trkpt>
      <trkpt lat="48.19422" lon="6.59656">
        <ele>484.8</ele>
        <time>2024-11-03T15:05:22Z</time>
      </trkpt>
      <trkpt lat="48.1943" lon="6.59647">
        <ele>485.6</ele>
        <time>2024-11-03T15:05:31Z</time>
      </trkpt>
      <trkpt lat="48.19437" lon="6.59638">
        <ele>486.2</ele>
        <time>2024-11-03T15:05:38Z</time>
      </trkpt>
      <trkpt lat="48.19444" lon="6.5963">
        <ele>486.6</ele>
        <time>2024-11-03T15:05:45Z</time>
      </trkpt>
      <trkpt lat="48.19451" lon="6.59619">
        <ele>487</ele>
        <time>2024-11-03T15:05:54Z</time>
      </trkpt>
      <trkpt lat="48.19456" lon="6.59606">
        <ele>487.4</ele>
        <time>2024-11-03T15:06:03Z</time>
      </trkpt>
      <trkpt lat="48.19462" lon="6.59595">
        <ele>487.6</ele>
        <time>2024-11-03T15:06:10Z</time>
      </trkpt>
      <trkpt lat="48.19469" lon="6.59585">
        <ele>487.7</ele>
        <time>2024-11-03T15:06:18Z</time>
      </trkpt>
      <trkpt lat="48.19476" lon="6.59575">
        <ele>487.8</ele>
        <time>2024-11-03T15:06:27Z</time>
      </trkpt>
      <trkpt lat="48.19484" lon="6.59565">
        <ele>487.8</ele>
        <time>2024-11-03T15:06:35Z</time>
      </trkpt>
      <trkpt lat="48.19491" lon="6.59554">
        <ele>487.9</ele>
        <time>2024-11-03T15:06:43Z</time>
      </trkpt>
      <trkpt lat="48.19497" lon="6.59545">
        <ele>488</ele>
        <time>2024-11-03T15:06:51Z</time>
      </trkpt>
      <trkpt lat="48.19504" lon="6.59536">
        <ele>488.2</ele>
        <time>2024-11-03T15:06:58Z</time>
      </trkpt>
      <trkpt lat="48.1951" lon="6.59525">
        <ele>488.4</ele>
        <time>2024-11-03T15:07:06Z</time>
      </trkpt>
      <trkpt lat="48.19516" lon="6.59512">
        <ele>488.6</ele>
        <time>2024-11-03T15:07:13Z</time>
      </trkpt>
      <trkpt lat="48.19522" lon="6.59502">
        <ele>488.8</ele>
        <time>2024-11-03T15:07:19Z</time>
      </trkpt>
      <trkpt lat="48.19528" lon="6.59491">
        <ele>489</ele>
        <time>2024-11-03T15:07:26Z</time>
      </trkpt>
      <trkpt lat="48.19535" lon="6.59481">
        <ele>489.2</ele>
        <time>2024-11-03T15:07:32Z</time>
      </trkpt>
      <trkpt lat="48.1954" lon="6.59469">
        <ele>489.6</ele>
        <time>2024-11-03T15:07:40Z</time>
      </trkpt>
      <trkpt lat="48.19545" lon="6.59457">
        <ele>490</ele>
        <time>2024-11-03T15:07:48Z</time>
      </trkpt>
      <trkpt lat="48.19548" lon="6.59444">
        <ele>490.3</ele>
        <time>2024-11-03T15:07:56Z</time>
      </trkpt>
      <trkpt lat="48.19554" lon="6.59431">
        <ele>490.5</ele>
        <time>2024-11-03T15:08:07Z</time>
      </trkpt>
      <trkpt lat="48.19561" lon="6.59422">
        <ele>490.6</ele>
        <time>2024-11-03T15:08:13Z</time>
      </trkpt>
      <trkpt lat="48.19568" lon="6.59413">
        <ele>490.7</ele>
        <time>2024-11-03T15:08:19Z</time>
      </trkpt>
      <trkpt lat="48.19573" lon="6.59401">
        <ele>490.6</ele>
        <time>2024-11-03T15:08:26Z</time>
      </trkpt>
      <trkpt lat="48.19578" lon="6.5939">
        <ele>490.5</ele>
        <time>2024-11-03T15:08:33Z</time>
      </trkpt>
      <trkpt lat="48.19582" lon="6.59376">
        <ele>490.5</ele>
        <time>2024-11-03T15:08:40Z</time>
      </trkpt>
      <trkpt lat="48.19589" lon="6.59366">
        <ele>490.4</ele>
        <time>2024-11-03T15:08:47Z</time>
      </trkpt>
      <trkpt lat="48.19592" lon="6.59353">
        <ele>490.4</ele>
        <time>2024-11-03T15:08:57Z</time>
      </trkpt>
      <trkpt lat="48.19595" lon="6.59339">
        <ele>490.2</ele>
        <time>2024-11-03T15:09:04Z</time>
      </trkpt>
      <trkpt lat="48.19595" lon="6.59324">
        <ele>490</ele>
        <time>2024-11-03T15:09:14Z</time>
      </trkpt>
      <trkpt lat="48.19596" lon="6.59309">
        <ele>489.8</ele>
        <time>2024-11-03T15:09:20Z</time>
      </trkpt>
      <trkpt lat="48.19599" lon="6.59295">
        <ele>489.5</ele>
        <time>2024-11-03T15:09:27Z</time>
      </trkpt>
      <trkpt lat="48.196" lon="6.59281">
        <ele>489.1</ele>
        <time>2024-11-03T15:09:35Z</time>
      </trkpt>
      <trkpt lat="48.19602" lon="6.59268">
        <ele>488.8</ele>
        <time>2024-11-03T15:09:41Z</time>
      </trkpt>
      <trkpt lat="48.19608" lon="6.59256">
        <ele>488.3</ele>
        <time>2024-11-03T15:09:47Z</time>
      </trkpt>
      <trkpt lat="48.19614" lon="6.59245">
        <ele>487.7</ele>
        <time>2024-11-03T15:09:54Z</time>
      </trkpt>
      <trkpt lat="48.19617" lon="6.59232">
        <ele>487.2</ele>
        <time>2024-11-03T15:10:03Z</time>
      </trkpt>
      <trkpt lat="48.19621" lon="6.5922">
        <ele>486.7</ele>
        <time>2024-11-03T15:10:14Z</time>
      </trkpt>
      <trkpt lat="48.19629" lon="6.59212">
        <ele>486.1</ele>
        <time>2024-11-03T15:10:24Z</time>
      </trkpt>
      <trkpt lat="48.19637" lon="6.59203">
        <ele>485.5</ele>
        <time>2024-11-03T15:10:33Z</time>
      </trkpt>
      <trkpt lat="48.19644" lon="6.59193">
        <ele>484.9</ele>
        <time>2024-11-03T15:10:41Z</time>
      </trkpt>
      <trkpt lat="48.19651" lon="6.59184">
        <ele>484.2</ele>
        <time>2024-11-03T15:10:48Z</time>
      </trkpt>
      <trkpt lat="48.19657" lon="6.59173">
        <ele>483.3</ele>
        <time>2024-11-03T15:10:56Z</time>
      </trkpt>
      <trkpt lat="48.19663" lon="6.59162">
        <ele>482.3</ele>
        <time>2024-11-03T15:11:03Z</time>
      </trkpt>
      <trkpt lat="48.19668" lon="6.59149">
        <ele>481.1</ele>
        <time>2024-11-03T15:11:10Z</time>
      </trkpt>
      <trkpt lat="48.19671" lon="6.59135">
        <ele>479.8</ele>
        <time>2024-11-03T15:11:18Z</time>
      </trkpt>
      <trkpt lat="48.19676" lon="6.59123">
        <ele>478.5</ele>
        <time>2024-11-03T15:11:31Z</time>
      </trkpt>
      <trkpt lat="48.19676" lon="6.59121">
        <ele>478.4</ele>
        <time>2024-11-03T15:11:36Z</time>
      </trkpt>
      <trkpt lat="48.19676" lon="6.59122">
        <ele>478.3</ele>
        <time>2024-11-03T15:11:37Z</time>
      </trkpt>
      <trkpt lat="48.19676" lon="6.59121">
        <ele>478.2</ele>
        <time>2024-11-03T15:11:38Z</time>
      </trkpt>
      <trkpt lat="48.19675" lon="6.59121">
        <ele>478.2</ele>
        <time>2024-11-03T15:11:39Z</time>
      </trkpt>
      <trkpt lat="48.19676" lon="6.5912">
        <ele>478.1</ele>
        <time>2024-11-03T15:11:40Z</time>
      </trkpt>
      <trkpt lat="48.19681" lon="6.59108">
        <ele>476.8</ele>
        <time>2024-11-03T15:12:00Z</time>
      </trkpt>
      <trkpt lat="48.1969" lon="6.59103">
        <ele>475.5</ele>
        <time>2024-11-03T15:12:08Z</time>
      </trkpt>
      <trkpt lat="48.197" lon="6.59101">
        <ele>474.3</ele>
        <time>2024-11-03T15:12:14Z</time>
      </trkpt>
      <trkpt lat="48.19709" lon="6.591">
        <ele>473.1</ele>
        <time>2024-11-03T15:12:21Z</time>
      </trkpt>
      <trkpt lat="48.19718" lon="6.59104">
        <ele>472</ele>
        <time>2024-11-03T15:12:31Z</time>
      </trkpt>
      <trkpt lat="48.19726" lon="6.5911">
        <ele>471</ele>
        <time>2024-11-03T15:12:39Z</time>
      </trkpt>
      <trkpt lat="48.19735" lon="6.59113">
        <ele>470.2</ele>
        <time>2024-11-03T15:12:47Z</time>
      </trkpt>
      <trkpt lat="48.19745" lon="6.59116">
        <ele>469.5</ele>
        <time>2024-11-03T15:12:54Z</time>
      </trkpt>
      <trkpt lat="48.19754" lon="6.59119">
        <ele>468.9</ele>
        <time>2024-11-03T15:13:01Z</time>
      </trkpt>
      <trkpt lat="48.19764" lon="6.59122">
        <ele>468.3</ele>
        <time>2024-11-03T15:13:08Z</time>
      </trkpt>
      <trkpt lat="48.19774" lon="6.59127">
        <ele>467.6</ele>
        <time>2024-11-03T15:13:17Z</time>
      </trkpt>
      <trkpt lat="48.19782" lon="6.59133">
        <ele>467</ele>
        <time>2024-11-03T15:13:25Z</time>
      </trkpt>
      <trkpt lat="48.19792" lon="6.59137">
        <ele>466.3</ele>
        <time>2024-11-03T15:13:35Z</time>
      </trkpt>
      <trkpt lat="48.19802" lon="6.59139">
        <ele>465.6</ele>
        <time>2024-11-03T15:13:42Z</time>
      </trkpt>
      <trkpt lat="48.19811" lon="6.59144">
        <ele>464.9</ele>
        <time>2024-11-03T15:13:50Z</time>
      </trkpt>
      <trkpt lat="48.19819" lon="6.5915">
        <ele>464.4</ele>
        <time>2024-11-03T15:13:58Z</time>
      </trkpt>
      <trkpt lat="48.19828" lon="6.59156">
        <ele>463.8</ele>
        <time>2024-11-03T15:14:06Z</time>
      </trkpt>
      <trkpt lat="48.19837" lon="6.59161">
        <ele>463.3</ele>
        <time>2024-11-03T15:14:13Z</time>
      </trkpt>
      <trkpt lat="48.19846" lon="6.59167">
        <ele>462.6</ele>
        <time>2024-11-03T15:14:21Z</time>
      </trkpt>
      <trkpt lat="48.19854" lon="6.59174">
        <ele>461.9</ele>
        <time>2024-11-03T15:14:30Z</time>
      </trkpt>
      <trkpt lat="48.19862" lon="6.59178">
        <ele>461</ele>
        <time>2024-11-03T15:14:39Z</time>
      </trkpt>
      <trkpt lat="48.19872" lon="6.59182">
        <ele>459.8</ele>
        <time>2024-11-03T15:14:47Z</time>
      </trkpt>
      <trkpt lat="48.19882" lon="6.59182">
        <ele>458.6</ele>
        <time>2024-11-03T15:14:55Z</time>
      </trkpt>
      <trkpt lat="48.19891" lon="6.5918">
        <ele>457.2</ele>
        <time>2024-11-03T15:15:04Z</time>
      </trkpt>
      <trkpt lat="48.19899" lon="6.59175">
        <ele>456</ele>
        <time>2024-11-03T15:15:12Z</time>
      </trkpt>
      <trkpt lat="48.19908" lon="6.59169">
        <ele>454.7</ele>
        <time>2024-11-03T15:15:20Z</time>
      </trkpt>
      <trkpt lat="48.19916" lon="6.59161">
        <ele>453.5</ele>
        <time>2024-11-03T15:15:29Z</time>
      </trkpt>
      <trkpt lat="48.19924" lon="6.59153">
        <ele>452.4</ele>
        <time>2024-11-03T15:15:37Z</time>
      </trkpt>
      <trkpt lat="48.19932" lon="6.59144">
        <ele>451.2</ele>
        <time>2024-11-03T15:15:45Z</time>
      </trkpt>
      <trkpt lat="48.19941" lon="6.59136">
        <ele>450.2</ele>
        <time>2024-11-03T15:15:53Z</time>
      </trkpt>
      <trkpt lat="48.19949" lon="6.59127">
        <ele>449.1</ele>
        <time>2024-11-03T15:16:01Z</time>
      </trkpt>
      <trkpt lat="48.19957" lon="6.59121">
        <ele>448.1</ele>
        <time>2024-11-03T15:16:12Z</time>
      </trkpt>
      <trkpt lat="48.19965" lon="6.59113">
        <ele>447</ele>
        <time>2024-11-03T15:16:19Z</time>
      </trkpt>
      <trkpt lat="48.19973" lon="6.59103">
        <ele>445.7</ele>
        <time>2024-11-03T15:16:26Z</time>
      </trkpt>
      <trkpt lat="48.19979" lon="6.59092">
        <ele>444.6</ele>
        <time>2024-11-03T15:16:32Z</time>
      </trkpt>
      <trkpt lat="48.19983" lon="6.59079">
        <ele>443.6</ele>
        <time>2024-11-03T15:16:40Z</time>
      </trkpt>
      <trkpt lat="48.19987" lon="6.59065">
        <ele>442.6</ele>
        <time>2024-11-03T15:16:47Z</time>
      </trkpt>
      <trkpt lat="48.19991" lon="6.59051">
        <ele>441.7</ele>
        <time>2024-11-03T15:16:54Z</time>
      </trkpt>
      <trkpt lat="48.19994" lon="6.59038">
        <ele>441</ele>
        <time>2024-11-03T15:17:01Z</time>
      </trkpt>
      <trkpt lat="48.2" lon="6.59026">
        <ele>440.3</ele>
        <time>2024-11-03T15:17:12Z</time>
      </trkpt>
      <trkpt lat="48.20007" lon="6.59016">
        <ele>439.9</ele>
        <time>2024-11-03T15:17:19Z</time>
      </trkpt>
      <trkpt lat="48.20014" lon="6.59009">
        <ele>439.5</ele>
        <time>2024-11-03T15:17:27Z</time>
      </trkpt>
      <trkpt lat="48.20021" lon="6.59">
        <ele>439.1</ele>
        <time>2024-11-03T15:17:33Z</time>
      </trkpt>
      <trkpt lat="48.20027" lon="6.58988">
        <ele>438.5</ele>
        <time>2024-11-03T15:17:41Z</time>
      </trkpt>
      <trkpt lat="48.20033" lon="6.58976">
        <ele>437.8</ele>
        <time>2024-11-03T15:17:48Z</time>
      </trkpt>
      <trkpt lat="48.2004" lon="6.58968">
        <ele>437</ele>
        <time>2024-11-03T15:17:59Z</time>
      </trkpt>
      <trkpt lat="48.20048" lon="6.58957">
        <ele>436</ele>
        <time>2024-11-03T15:18:06Z</time>
      </trkpt>
      <trkpt lat="48.20051" lon="6.58957">
        <ele>435.8</ele>
        <time>2024-11-03T15:18:10Z</time>
      </trkpt>
      <trkpt lat="48.20051" lon="6.58957">
        <ele>435.8</ele>
        <time>2024-11-03T15:18:11Z</time>
      </trkpt>
      <trkpt lat="48.2005" lon="6.58955">
        <ele>435.7</ele>
        <time>2024-11-03T15:18:23Z</time>
      </trkpt>
      <trkpt lat="48.2005" lon="6.58956">
        <ele>435.6</ele>
        <time>2024-11-03T15:18:24Z</time>
      </trkpt>
      <trkpt lat="48.20058" lon="6.58947">
        <ele>434.7</ele>
        <time>2024-11-03T15:18:39Z</time>
      </trkpt>
      <trkpt lat="48.20067" lon="6.58939">
        <ele>433.7</ele>
        <time>2024-11-03T15:18:44Z</time>
      </trkpt>
      <trkpt lat="48.20075" lon="6.5893">
        <ele>432.7</ele>
        <time>2024-11-03T15:18:48Z</time>
      </trkpt>
      <trkpt lat="48.20082" lon="6.58917">
        <ele>431.9</ele>
        <time>2024-11-03T15:18:53Z</time>
      </trkpt>
      <trkpt lat="48.20089" lon="6.58906">
        <ele>431.2</ele>
        <time>2024-11-03T15:18:59Z</time>
      </trkpt>
      <trkpt lat="48.20095" lon="6.58896">
        <ele>430.7</ele>
        <time>2024-11-03T15:19:06Z</time>
      </trkpt>
      <trkpt lat="48.201" lon="6.58883">
        <ele>430.2</ele>
        <time>2024-11-03T15:19:15Z</time>
      </trkpt>
      <trkpt lat="48.20104" lon="6.5887">
        <ele>429.6</ele>
        <time>2024-11-03T15:19:25Z</time>
      </trkpt>
      <trkpt lat="48.20109" lon="6.58858">
        <ele>428.9</ele>
        <time>2024-11-03T15:19:34Z</time>
      </trkpt>
      <trkpt lat="48.20115" lon="6.58848">
        <ele>428.2</ele>
        <time>2024-11-03T15:19:43Z</time>
      </trkpt>
      <trkpt lat="48.20123" lon="6.58839">
        <ele>427.5</ele>
        <time>2024-11-03T15:19:52Z</time>
      </trkpt>
      <trkpt lat="48.20132" lon="6.58832">
        <ele>426.7</ele>
        <time>2024-11-03T15:20:03Z</time>
      </trkpt>
      <trkpt lat="48.2014" lon="6.58827">
        <ele>426</ele>
        <time>2024-11-03T15:20:13Z</time>
      </trkpt>
      <trkpt lat="48.20149" lon="6.58823">
        <ele>425.3</ele>
        <time>2024-11-03T15:20:21Z</time>
      </trkpt>
      <trkpt lat="48.20159" lon="6.58818">
        <ele>424.5</ele>
        <time>2024-11-03T15:20:27Z</time>
      </trkpt>
      <trkpt lat="48.20168" lon="6.58817">
        <ele>423.8</ele>
        <time>2024-11-03T15:20:33Z</time>
      </trkpt>
      <trkpt lat="48.20178" lon="6.58812">
        <ele>423.1</ele>
        <time>2024-11-03T15:20:40Z</time>
      </trkpt>
      <trkpt lat="48.20187" lon="6.58805">
        <ele>422.6</ele>
        <time>2024-11-03T15:20:47Z</time>
      </trkpt>
      <trkpt lat="48.20191" lon="6.58792">
        <ele>421.9</ele>
        <time>2024-11-03T15:20:53Z</time>
      </trkpt>
      <trkpt lat="48.20186" lon="6.5878">
        <ele>422.3</ele>
        <time>2024-11-03T15:21:00Z</time>
      </trkpt>
      <trkpt lat="48.20184" lon="6.5878">
        <ele>422.3</ele>
        <time>2024-11-03T15:21:05Z</time>
      </trkpt>
      <trkpt lat="48.20184" lon="6.5878">
        <ele>422.3</ele>
        <time>2024-11-03T15:21:06Z</time>
      </trkpt>
      <trkpt lat="48.20184" lon="6.5878">
        <ele>422.3</ele>
        <time>2024-11-03T15:21:07Z</time>
      </trkpt>
      <trkpt lat="48.20184" lon="6.5878">
        <ele>422.3</ele>
        <time>2024-11-03T15:21:10Z</time>
      </trkpt>
      <trkpt lat="48.20184" lon="6.5878">
        <ele>422.3</ele>
        <time>2024-11-03T15:21:11Z</time>
      </trkpt>
      <trkpt lat="48.20184" lon="6.5878">
        <ele>422.3</ele>
        <time>2024-11-03T15:21:12Z</time>
      </trkpt>
      <trkpt lat="48.20184" lon="6.5878">
        <ele>422.3</ele>
        <time>2024-11-03T15:21:20Z</time>
      </trkpt>
      <trkpt lat="48.20184" lon="6.5878">
        <ele>422.3</ele>
        <time>2024-11-03T15:21:21Z</time>
      </trkpt>
      <trkpt lat="48.20184" lon="6.5878">
        <ele>422.3</ele>
        <time>2024-11-03T15:21:22Z</time>
      </trkpt>
      <trkpt lat="48.20183" lon="6.5878">
        <ele>422.4</ele>
        <time>2024-11-03T15:21:37Z</time>
      </trkpt>
      <trkpt lat="48.20182" lon="6.5878">
        <ele>422.4</ele>
        <time>2024-11-03T15:21:38Z</time>
      </trkpt>
      <trkpt lat="48.20181" lon="6.58779">
        <ele>422.5</ele>
        <time>2024-11-03T15:21:39Z</time>
      </trkpt>
      <trkpt lat="48.20171" lon="6.58777">
        <ele>423.1</ele>
        <time>2024-11-03T15:21:47Z</time>
      </trkpt>
      <trkpt lat="48.20162" lon="6.58777">
        <ele>423.7</ele>
        <time>2024-11-03T15:21:54Z</time>
      </trkpt>
      <trkpt lat="48.20152" lon="6.58777">
        <ele>424.2</ele>
        <time>2024-11-03T15:22:01Z</time>
      </trkpt>
      <trkpt lat="48.20144" lon="6.5877">
        <ele>424.9</ele>
        <time>2024-11-03T15:22:11Z</time>
      </trkpt>
      <trkpt lat="48.20135" lon="6.58766">
        <ele>425.5</ele>
        <time>2024-11-03T15:22:19Z</time>
      </trkpt>
      <trkpt lat="48.20126" lon="6.58765">
        <ele>426.1</ele>
        <time>2024-11-03T15:22:25Z</time>
      </trkpt>
      <trkpt lat="48.20117" lon="6.58762">
        <ele>426.8</ele>
        <time>2024-11-03T15:22:32Z</time>
      </trkpt>
      <trkpt lat="48.20107" lon="6.58761">
        <ele>427.5</ele>
        <time>2024-11-03T15:22:39Z</time>
      </trkpt>
      <trkpt lat="48.20096" lon="6.58758">
        <ele>428.3</ele>
        <time>2024-11-03T15:22:46Z</time>
      </trkpt>
      <trkpt lat="48.20087" lon="6.58756">
        <ele>429</ele>
        <time>2024-11-03T15:22:53Z</time>
      </trkpt>
      <trkpt lat="48.20077" lon="6.58757">
        <ele>429.9</ele>
        <time>2024-11-03T15:23:02Z</time>
      </trkpt>
      <trkpt lat="48.20068" lon="6.58758">
        <ele>430.7</ele>
        <time>2024-11-03T15:23:10Z</time>
      </trkpt>
      <trkpt lat="48.20059" lon="6.58761">
        <ele>431.5</ele>
        <time>2024-11-03T15:23:17Z</time>
      </trkpt>
      <trkpt lat="48.20051" lon="6.58768">
        <ele>432.3</ele>
        <time>2024-11-03T15:23:25Z</time>
      </trkpt>
      <trkpt lat="48.20043" lon="6.58773">
        <ele>433.1</ele>
        <time>2024-11-03T15:23:31Z</time>
      </trkpt>
      <trkpt lat="48.20035" lon="6.5878">
        <ele>434</ele>
        <time>2024-11-03T15:23:39Z</time>
      </trkpt>
      <trkpt lat="48.20026" lon="6.58785">
        <ele>434.8</ele>
        <time>2024-11-03T15:23:45Z</time>
      </trkpt>
      <trkpt lat="48.20016" lon="6.58791">
        <ele>435.6</ele>
        <time>2024-11-03T15:23:52Z</time>
      </trkpt>
      <trkpt lat="48.20006" lon="6.58788">
        <ele>436.5</ele>
        <time>2024-11-03T15:24:00Z</time>
      </trkpt>
      <trkpt lat="48.19997" lon="6.58783">
        <ele>437.4</ele>
        <time>2024-11-03T15:24:08Z</time>
      </trkpt>
      <trkpt lat="48.19989" lon="6.58776">
        <ele>438.6</ele>
        <time>2024-11-03T15:24:17Z</time>
      </trkpt>
      <trkpt lat="48.19979" lon="6.5877">
        <ele>439.9</ele>
        <time>2024-11-03T15:24:25Z</time>
      </trkpt>
      <trkpt lat="48.1997" lon="6.5877">
        <ele>441.1</ele>
        <time>2024-11-03T15:24:33Z</time>
      </trkpt>
      <trkpt lat="48.19961" lon="6.58769">
        <ele>442.2</ele>
        <time>2024-11-03T15:24:40Z</time>
      </trkpt>
      <trkpt lat="48.19951" lon="6.58768">
        <ele>443.3</ele>
        <time>2024-11-03T15:24:47Z</time>
      </trkpt>
      <trkpt lat="48.19941" lon="6.58767">
        <ele>444.5</ele>
        <time>2024-11-03T15:24:55Z</time>
      </trkpt>
      <trkpt lat="48.19932" lon="6.58765">
        <ele>445.6</ele>
        <time>2024-11-03T15:25:03Z</time>
      </trkpt>
      <trkpt lat="48.19922" lon="6.58767">
        <ele>446.8</ele>
        <time>2024-11-03T15:25:13Z</time>
      </trkpt>
      <trkpt lat="48.19912" lon="6.58767">
        <ele>448</ele>
        <time>2024-11-03T15:25:22Z</time>
      </trkpt>
      <trkpt lat="48.19903" lon="6.58769">
        <ele>449</ele>
        <time>2024-11-03T15:25:30Z</time>
      </trkpt>
      <trkpt lat="48.19902" lon="6.58768">
        <ele>449.1</ele>
        <time>2024-11-03T15:25:36Z</time>
      </trkpt>
      <trkpt lat="48.19901" lon="6.58769">
        <ele>449.2</ele>
        <time>2024-11-03T15:25:37Z</time>
      </trkpt>
      <trkpt lat="48.19896" lon="6.5877">
        <ele>449.6</ele>
        <time>2024-11-03T15:25:41Z</time>
      </trkpt>
      <trkpt lat="48.19895" lon="6.5877">
        <ele>449.7</ele>
        <time>2024-11-03T15:25:42Z</time>
      </trkpt>
      <trkpt lat="48.19886" lon="6.58775">
        <ele>450.5</ele>
        <time>2024-11-03T15:25:51Z</time>
      </trkpt>
      <trkpt lat="48.19877" lon="6.58779">
        <ele>451.2</ele>
        <time>2024-11-03T15:26:00Z</time>
      </trkpt>
      <trkpt lat="48.19867" lon="6.58784">
        <ele>452.1</ele>
        <time>2024-11-03T15:26:08Z</time>
      </trkpt>
      <trkpt lat="48.19857" lon="6.58786">
        <ele>453.2</ele>
        <time>2024-11-03T15:26:17Z</time>
      </trkpt>
      <trkpt lat="48.19847" lon="6.58786">
        <ele>454.2</ele>
        <time>2024-11-03T15:26:26Z</time>
      </trkpt>
      <trkpt lat="48.19838" lon="6.58788">
        <ele>455.1</ele>
        <time>2024-11-03T15:26:36Z</time>
      </trkpt>
      <trkpt lat="48.19829" lon="6.5879">
        <ele>456.1</ele>
        <time>2024-11-03T15:26:46Z</time>
      </trkpt>
      <trkpt lat="48.19819" lon="6.58793">
        <ele>457</ele>
        <time>2024-11-03T15:26:55Z</time>
      </trkpt>
      <trkpt lat="48.19809" lon="6.58797">
        <ele>458</ele>
        <time>2024-11-03T15:27:03Z</time>
      </trkpt>
      <trkpt lat="48.19801" lon="6.58803">
        <ele>458.9</ele>
        <time>2024-11-03T15:27:10Z</time>
      </trkpt>
      <trkpt lat="48.19792" lon="6.58808">
        <ele>460</ele>
        <time>2024-11-03T15:27:21Z</time>
      </trkpt>
      <trkpt lat="48.19782" lon="6.58806">
        <ele>461.2</ele>
        <time>2024-11-03T15:27:29Z</time>
      </trkpt>
      <trkpt lat="48.19773" lon="6.58807">
        <ele>462.3</ele>
        <time>2024-11-03T15:27:43Z</time>
      </trkpt>
      <trkpt lat="48.19764" lon="6.5881">
        <ele>463.5</ele>
        <time>2024-11-03T15:27:52Z</time>
      </trkpt>
      <trkpt lat="48.19755" lon="6.58814">
        <ele>464.6</ele>
        <time>2024-11-03T15:27:59Z</time>
      </trkpt>
      <trkpt lat="48.19746" lon="6.58816">
        <ele>465.7</ele>
        <time>2024-11-03T15:28:07Z</time>
      </trkpt>
      <trkpt lat="48.19736" lon="6.58816">
        <ele>466.8</ele>
        <time>2024-11-03T15:28:16Z</time>
      </trkpt>
      <trkpt lat="48.19727" lon="6.5882">
        <ele>467.8</ele>
        <time>2024-11-03T15:28:24Z</time>
      </trkpt>
      <trkpt lat="48.19717" lon="6.58821">
        <ele>468.9</ele>
        <time>2024-11-03T15:28:35Z</time>
      </trkpt>
      <trkpt lat="48.19708" lon="6.58821">
        <ele>469.9</ele>
        <time>2024-11-03T15:28:46Z</time>
      </trkpt>
      <trkpt lat="48.19698" lon="6.5882">
        <ele>470.9</ele>
        <time>2024-11-03T15:28:55Z</time>
      </trkpt>
      <trkpt lat="48.19689" lon="6.58825">
        <ele>472</ele>
        <time>2024-11-03T15:29:03Z</time>
      </trkpt>
      <trkpt lat="48.19679" lon="6.58826">
        <ele>473</ele>
        <time>2024-11-03T15:29:11Z</time>
      </trkpt>
      <trkpt lat="48.1967" lon="6.58825">
        <ele>473.9</ele>
        <time>2024-11-03T15:29:22Z</time>
      </trkpt>
      <trkpt lat="48.1966" lon="6.58823">
        <ele>474.9</ele>
        <time>2024-11-03T15:29:34Z</time>
      </trkpt>
      <trkpt lat="48.19651" lon="6.58822">
        <ele>475.8</ele>
        <time>2024-11-03T15:29:42Z</time>
      </trkpt>
      <trkpt lat="48.19642" lon="6.58825">
        <ele>476.7</ele>
        <time>2024-11-03T15:29:49Z</time>
      </trkpt>
      <trkpt lat="48.19632" lon="6.58827">
        <ele>477.6</ele>
        <time>2024-11-03T15:29:57Z</time>
      </trkpt>
      <trkpt lat="48.19623" lon="6.58827">
        <ele>478.4</ele>
        <time>2024-11-03T15:30:10Z</time>
      </trkpt>
      <trkpt lat="48.19613" lon="6.58828">
        <ele>479.3</ele>
        <time>2024-11-03T15:30:17Z</time>
      </trkpt>
      <trkpt lat="48.19603" lon="6.58831">
        <ele>480</ele>
        <time>2024-11-03T15:30:27Z</time>
      </trkpt>
      <trkpt lat="48.19594" lon="6.58831">
        <ele>480.5</ele>
        <time>2024-11-03T15:30:36Z</time>
      </trkpt>
      <trkpt lat="48.19585" lon="6.58832">
        <ele>481</ele>
        <time>2024-11-03T15:30:46Z</time>
      </trkpt>
      <trkpt lat="48.19575" lon="6.58834">
        <ele>481.4</ele>
        <time>2024-11-03T15:30:53Z</time>
      </trkpt>
      <trkpt lat="48.19574" lon="6.58836">
        <ele>481.5</ele>
        <time>2024-11-03T15:30:58Z</time>
      </trkpt>
      <trkpt lat="48.19574" lon="6.58836">
        <ele>481.5</ele>
        <time>2024-11-03T15:30:59Z</time>
      </trkpt>
      <trkpt lat="48.19574" lon="6.58836">
        <ele>481.5</ele>
        <time>2024-11-03T15:31:10Z</time>
      </trkpt>
      <trkpt lat="48.19574" lon="6.58836">
        <ele>481.5</ele>
        <time>2024-11-03T15:31:11Z</time>
      </trkpt>
      <trkpt lat="48.19574" lon="6.58837">
        <ele>481.5</ele>
        <time>2024-11-03T15:31:12Z</time>
      </trkpt>
      <trkpt lat="48.19574" lon="6.58837">
        <ele>481.5</ele>
        <time>2024-11-03T15:31:13Z</time>
      </trkpt>
      <trkpt lat="48.19574" lon="6.58837">
        <ele>481.5</ele>
        <time>2024-11-03T15:31:14Z</time>
      </trkpt>
      <trkpt lat="48.19574" lon="6.58837">
        <ele>481.5</ele>
        <time>2024-11-03T15:31:15Z</time>
      </trkpt>
      <trkpt lat="48.19572" lon="6.58838">
        <ele>481.6</ele>
        <time>2024-11-03T15:31:20Z</time>
      </trkpt>
      <trkpt lat="48.19571" lon="6.58838">
        <ele>481.6</ele>
        <time>2024-11-03T15:31:21Z</time>
      </trkpt>
      <trkpt lat="48.19562" lon="6.58837">
        <ele>482.1</ele>
        <time>2024-11-03T15:31:30Z</time>
      </trkpt>
      <trkpt lat="48.19553" lon="6.58839">
        <ele>482.5</ele>
        <time>2024-11-03T15:31:36Z</time>
      </trkpt>
      <trkpt lat="48.19543" lon="6.58841">
        <ele>483</ele>
        <time>2024-11-03T15:31:44Z</time>
      </trkpt>
      <trkpt lat="48.1954" lon="6.58841">
        <ele>483.1</ele>
        <time>2024-11-03T15:31:50Z</time>
      </trkpt>
      <trkpt lat="48.1954" lon="6.58841">
        <ele>483.1</ele>
        <time>2024-11-03T15:31:51Z</time>
      </trkpt>
      <trkpt lat="48.1954" lon="6.58841">
        <ele>483.1</ele>
        <time>2024-11-03T15:31:52Z</time>
      </trkpt>
      <trkpt lat="48.19539" lon="6.58841">
        <ele>483.2</ele>
        <time>2024-11-03T15:31:53Z</time>
      </trkpt>
      <trkpt lat="48.19538" lon="6.58842">
        <ele>483.2</ele>
        <time>2024-11-03T15:31:54Z</time>
      </trkpt>
      <trkpt lat="48.19537" lon="6.58842">
        <ele>483.3</ele>
        <time>2024-11-03T15:31:55Z</time>
      </trkpt>
      <trkpt lat="48.19528" lon="6.58841">
        <ele>483.5</ele>
        <time>2024-11-03T15:32:04Z</time>
      </trkpt>
      <trkpt lat="48.19518" lon="6.58841">
        <ele>483.8</ele>
        <time>2024-11-03T15:32:12Z</time>
      </trkpt>
      <trkpt lat="48.19508" lon="6.58842">
        <ele>484</ele>
        <time>2024-11-03T15:32:20Z</time>
      </trkpt>
      <trkpt lat="48.19499" lon="6.58837">
        <ele>484.2</ele>
        <time>2024-11-03T15:32:29Z</time>
      </trkpt>
      <trkpt lat="48.1949" lon="6.5884">
        <ele>484.4</ele>
        <time>2024-11-03T15:32:36Z</time>
      </trkpt>
      <trkpt lat="48.1948" lon="6.5884">
        <ele>484.4</ele>
        <time>2024-11-03T15:32:51Z</time>
      </trkpt>
      <trkpt lat="48.19471" lon="6.5884">
        <ele>484.1</ele>
        <time>2024-11-03T15:32:58Z</time>
      </trkpt>
      <trkpt lat="48.19462" lon="6.58843">
        <ele>483.8</ele>
        <time>2024-11-03T15:33:04Z</time>
      </trkpt>
      <trkpt lat="48.19453" lon="6.58844">
        <ele>483.1</ele>
        <time>2024-11-03T15:33:10Z</time>
      </trkpt>
      <trkpt lat="48.19443" lon="6.58845">
        <ele>482.5</ele>
        <time>2024-11-03T15:33:18Z</time>
      </trkpt>
      <trkpt lat="48.19433" lon="6.58848">
        <ele>482</ele>
        <time>2024-11-03T15:33:27Z</time>
      </trkpt>
      <trkpt lat="48.19429" lon="6.58844">
        <ele>481.5</ele>
        <time>2024-11-03T15:33:36Z</time>
      </trkpt>
      <trkpt lat="48.1943" lon="6.58843">
        <ele>481.6</ele>
        <time>2024-11-03T15:33:37Z</time>
      </trkpt>
      <trkpt lat="48.1943" lon="6.58842">
        <ele>481.6</ele>
        <time>2024-11-03T15:33:40Z</time>
      </trkpt>
      <trkpt lat="48.19429" lon="6.58841">
        <ele>481.7</ele>
        <time>2024-11-03T15:33:41Z</time>
      </trkpt>
      <trkpt lat="48.19421" lon="6.58848">
        <ele>481.3</ele>
        <time>2024-11-03T15:33:49Z</time>
      </trkpt>
      <trkpt lat="48.19421" lon="6.58853">
        <ele>481.5</ele>
        <time>2024-11-03T15:33:55Z</time>
      </trkpt>
      <trkpt lat="48.19421" lon="6.58853">
        <ele>481.6</ele>
        <time>2024-11-03T15:33:56Z</time>
      </trkpt>
      <trkpt lat="48.19419" lon="6.58854">
        <ele>481.7</ele>
        <time>2024-11-03T15:34:03Z</time>
      </trkpt>
      <trkpt lat="48.19419" lon="6.58855">
        <ele>481.6</ele>
        <time>2024-11-03T15:34:04Z</time>
      </trkpt>
      <trkpt lat="48.19418" lon="6.58855">
        <ele>481.6</ele>
        <time>2024-11-03T15:34:05Z</time>
      </trkpt>
      <trkpt lat="48.1941" lon="6.58862">
        <ele>481.3</ele>
        <time>2024-11-03T15:34:16Z</time>
      </trkpt>
      <trkpt lat="48.19404" lon="6.58874">
        <ele>481.2</ele>
        <time>2024-11-03T15:34:24Z</time>
      </trkpt>
      <trkpt lat="48.19397" lon="6.58883">
        <ele>481.2</ele>
        <time>2024-11-03T15:34:33Z</time>
      </trkpt>
      <trkpt lat="48.19389" lon="6.58892">
        <ele>481.1</ele>
        <time>2024-11-03T15:34:41Z</time>
      </trkpt>
      <trkpt lat="48.19378" lon="6.58898">
        <ele>480.6</ele>
        <time>2024-11-03T15:34:48Z</time>
      </trkpt>
      <trkpt lat="48.19368" lon="6.58902">
        <ele>480.2</ele>
        <time>2024-11-03T15:34:53Z</time>
      </trkpt>
      <trkpt lat="48.19359" lon="6.58903">
        <ele>479.7</ele>
        <time>2024-11-03T15:35:01Z</time>
      </trkpt>
      <trkpt lat="48.1935" lon="6.58906">
        <ele>479.1</ele>
        <time>2024-11-03T15:35:10Z</time>
      </trkpt>
      <trkpt lat="48.1934" lon="6.58909">
        <ele>477.9</ele>
        <time>2024-11-03T15:35:21Z</time>
      </trkpt>
      <trkpt lat="48.19331" lon="6.58914">
        <ele>477</ele>
        <time>2024-11-03T15:35:28Z</time>
      </trkpt>
      <trkpt lat="48.19322" lon="6.58918">
        <ele>476.1</ele>
        <time>2024-11-03T15:35:33Z</time>
      </trkpt>
      <trkpt lat="48.19313" lon="6.58916">
        <ele>474.5</ele>
        <time>2024-11-03T15:35:42Z</time>
      </trkpt>
      <trkpt lat="48.19304" lon="6.58911">
        <ele>473.4</ele>
        <time>2024-11-03T15:35:54Z</time>
      </trkpt>
      <trkpt lat="48.19293" lon="6.58913">
        <ele>472.5</ele>
        <time>2024-11-03T15:36:02Z</time>
      </trkpt>
      <trkpt lat="48.19284" lon="6.58918">
        <ele>472.1</ele>
        <time>2024-11-03T15:36:08Z</time>
      </trkpt>
      <trkpt lat="48.19274" lon="6.5892">
        <ele>471.7</ele>
        <time>2024-11-03T15:36:15Z</time>
      </trkpt>
      <trkpt lat="48.19264" lon="6.58924">
        <ele>471.3</ele>
        <time>2024-11-03T15:36:22Z</time>
      </trkpt>
      <trkpt lat="48.19255" lon="6.58925">
        <ele>470.7</ele>
        <time>2024-11-03T15:36:31Z</time>
      </trkpt>
      <trkpt lat="48.19246" lon="6.58924">
        <ele>470.3</ele>
        <time>2024-11-03T15:36:38Z</time>
      </trkpt>
      <trkpt lat="48.19236" lon="6.58925">
        <ele>469.9</ele>
        <time>2024-11-03T15:36:46Z</time>
      </trkpt>
      <trkpt lat="48.19228" lon="6.58932">
        <ele>469.6</ele>
        <time>2024-11-03T15:36:53Z</time>
      </trkpt>
      <trkpt lat="48.19217" lon="6.58938">
        <ele>469.3</ele>
        <time>2024-11-03T15:37:00Z</time>
      </trkpt>
      <trkpt lat="48.19208" lon="6.58942">
        <ele>469.3</ele>
        <time>2024-11-03T15:37:06Z</time>
      </trkpt>
      <trkpt lat="48.19199" lon="6.58948">
        <ele>469.6</ele>
        <time>2024-11-03T15:37:16Z</time>
      </trkpt>
      <trkpt lat="48.19194" lon="6.58961">
        <ele>470.9</ele>
        <time>2024-11-03T15:37:28Z</time>
      </trkpt>
      <trkpt lat="48.19192" lon="6.5896">
        <ele>470.9</ele>
        <time>2024-11-03T15:37:32Z</time>
      </trkpt>
      <trkpt lat="48.19192" lon="6.5896">
        <ele>471</ele>
        <time>2024-11-03T15:37:33Z</time>
      </trkpt>
      <trkpt lat="48.19192" lon="6.5896">
        <ele>471</ele>
        <time>2024-11-03T15:37:34Z</time>
      </trkpt>
      <trkpt lat="48.19189" lon="6.58963">
        <ele>471.5</ele>
        <time>2024-11-03T15:37:37Z</time>
      </trkpt>
      <trkpt lat="48.19188" lon="6.58964">
        <ele>471.6</ele>
        <time>2024-11-03T15:37:38Z</time>
      </trkpt>
      <trkpt lat="48.19187" lon="6.58964">
        <ele>471.7</ele>
        <time>2024-11-03T15:37:39Z</time>
      </trkpt>
      <trkpt lat="48.19179" lon="6.58973">
        <ele>472.6</ele>
        <time>2024-11-03T15:37:47Z</time>
      </trkpt>
      <trkpt lat="48.19179" lon="6.58976">
        <ele>473</ele>
        <time>2024-11-03T15:37:51Z</time>
      </trkpt>
      <trkpt lat="48.19179" lon="6.58976">
        <ele>473</ele>
        <time>2024-11-03T15:37:52Z</time>
      </trkpt>
      <trkpt lat="48.19179" lon="6.58976">
        <ele>473.1</ele>
        <time>2024-11-03T15:37:53Z</time>
      </trkpt>
      <trkpt lat="48.19179" lon="6.58975">
        <ele>473.1</ele>
        <time>2024-11-03T15:37:54Z</time>
      </trkpt>
      <trkpt lat="48.19179" lon="6.58975">
        <ele>473.1</ele>
        <time>2024-11-03T15:37:55Z</time>
      </trkpt>
      <trkpt lat="48.19179" lon="6.58975">
        <ele>473.2</ele>
        <time>2024-11-03T15:37:56Z</time>
      </trkpt>
      <trkpt lat="48.19179" lon="6.58975">
        <ele>473.2</ele>
        <time>2024-11-03T15:37:57Z</time>
      </trkpt>
      <trkpt lat="48.19179" lon="6.58976">
        <ele>473.3</ele>
        <time>2024-11-03T15:38:00Z</time>
      </trkpt>
      <trkpt lat="48.19179" lon="6.58977">
        <ele>473.3</ele>
        <time>2024-11-03T15:38:01Z</time>
      </trkpt>
      <trkpt lat="48.19178" lon="6.58978">
        <ele>473.4</ele>
        <time>2024-11-03T15:38:02Z</time>
      </trkpt>
      <trkpt lat="48.19171" lon="6.58988">
        <ele>474.3</ele>
        <time>2024-11-03T15:38:09Z</time>
      </trkpt>
      <trkpt lat="48.19162" lon="6.58993">
        <ele>474.6</ele>
        <time>2024-11-03T15:38:16Z</time>
      </trkpt>
      <trkpt lat="48.19153" lon="6.58997">
        <ele>474.7</ele>
        <time>2024-11-03T15:38:22Z</time>
      </trkpt>
      <trkpt lat="48.19144" lon="6.58998">
        <ele>474.5</ele>
        <time>2024-11-03T15:38:29Z</time>
      </trkpt>
      <trkpt lat="48.19135" lon="6.59005">
        <ele>474.3</ele>
        <time>2024-11-03T15:38:40Z</time>
      </trkpt>
      <trkpt lat="48.19127" lon="6.59011">
        <ele>474.2</ele>
        <time>2024-11-03T15:38:53Z</time>
      </trkpt>
      <trkpt lat="48.19117" lon="6.59017">
        <ele>474.1</ele>
        <time>2024-11-03T15:39:01Z</time>
      </trkpt>
      <trkpt lat="48.19108" lon="6.59019">
        <ele>473.9</ele>
        <time>2024-11-03T15:39:09Z</time>
      </trkpt>
      <trkpt lat="48.19098" lon="6.59021">
        <ele>473.6</ele>
        <time>2024-11-03T15:39:19Z</time>
      </trkpt>
      <trkpt lat="48.19089" lon="6.59022">
        <ele>473.3</ele>
        <time>2024-11-03T15:39:27Z</time>
      </trkpt>
      <trkpt lat="48.1908" lon="6.59024">
        <ele>472.7</ele>
        <time>2024-11-03T15:39:36Z</time>
      </trkpt>
      <trkpt lat="48.19071" lon="6.59016">
        <ele>471.8</ele>
        <time>2024-11-03T15:39:45Z</time>
      </trkpt>
      <trkpt lat="48.19062" lon="6.59012">
        <ele>470.9</ele>
        <time>2024-11-03T15:39:53Z</time>
      </trkpt>
      <trkpt lat="48.19053" lon="6.59008">
        <ele>470</ele>
        <time>2024-11-03T15:40:00Z</time>
      </trkpt>
      <trkpt lat="48.19045" lon="6.59002">
        <ele>468.9</ele>
        <time>2024-11-03T15:40:06Z</time>
      </trkpt>
      <trkpt lat="48.19043" lon="6.59003">
        <ele>468.5</ele>
        <time>2024-11-03T15:40:10Z</time>
      </trkpt>
      <trkpt lat="48.19043" lon="6.59003">
        <ele>468.6</ele>
        <time>2024-11-03T15:40:11Z</time>
      </trkpt>
      <trkpt lat="48.19042" lon="6.59003">
        <ele>468.6</ele>
        <time>2024-11-03T15:40:18Z</time>
      </trkpt>
      <trkpt lat="48.19041" lon="6.59004">
        <ele>468.7</ele>
        <time>2024-11-03T15:40:19Z</time>
      </trkpt>
      <trkpt lat="48.1904" lon="6.59004">
        <ele>468.4</ele>
        <time>2024-11-03T15:40:20Z</time>
      </trkpt>
      <trkpt lat="48.19031" lon="6.59006">
        <ele>467.3</ele>
        <time>2024-11-03T15:40:28Z</time>
      </trkpt>
      <trkpt lat="48.19021" lon="6.59002">
        <ele>465.7</ele>
        <time>2024-11-03T15:40:36Z</time>
      </trkpt>
      <trkpt lat="48.19012" lon="6.59006">
        <ele>465.2</ele>
        <time>2024-11-03T15:40:45Z</time>
      </trkpt>
      <trkpt lat="48.19003" lon="6.59008">
        <ele>464.7</ele>
        <time>2024-11-03T15:40:55Z</time>
      </trkpt>
      <trkpt lat="48.18994" lon="6.59013">
        <ele>465.1</ele>
        <time>2024-11-03T15:41:02Z</time>
      </trkpt>
      <trkpt lat="48.18984" lon="6.59015">
        <ele>464.9</ele>
        <time>2024-11-03T15:41:12Z</time>
      </trkpt>
      <trkpt lat="48.18984" lon="6.59013">
        <ele>464.8</ele>
        <time>2024-11-03T15:41:16Z</time>
      </trkpt>
      <trkpt lat="48.18983" lon="6.59014">
        <ele>464.9</ele>
        <time>2024-11-03T15:41:17Z</time>
      </trkpt>
      <trkpt lat="48.18982" lon="6.59013">
        <ele>464.9</ele>
        <time>2024-11-03T15:41:18Z</time>
      </trkpt>
      <trkpt lat="48.18982" lon="6.59013">
        <ele>465</ele>
        <time>2024-11-03T15:41:19Z</time>
      </trkpt>
      <trkpt lat="48.18972" lon="6.59017">
        <ele>464.9</ele>
        <time>2024-11-03T15:41:28Z</time>
      </trkpt>
      <trkpt lat="48.18973" lon="6.59014">
        <ele>464.7</ele>
        <time>2024-11-03T15:41:35Z</time>
      </trkpt>
      <trkpt lat="48.18973" lon="6.59014">
        <ele>464.7</ele>
        <time>2024-11-03T15:41:36Z</time>
      </trkpt>
      <trkpt lat="48.18973" lon="6.59014">
        <ele>464.8</ele>
        <time>2024-11-03T15:41:37Z</time>
      </trkpt>
      <trkpt lat="48.18973" lon="6.59015">
        <ele>464.8</ele>
        <time>2024-11-03T15:41:47Z</time>
      </trkpt>
      <trkpt lat="48.18973" lon="6.59015">
        <ele>464.8</ele>
        <time>2024-11-03T15:41:48Z</time>
      </trkpt>
      <trkpt lat="48.18973" lon="6.59015">
        <ele>464.9</ele>
        <time>2024-11-03T15:41:49Z</time>
      </trkpt>
      <trkpt lat="48.18964" lon="6.5902">
        <ele>464.7</ele>
        <time>2024-11-03T15:41:57Z</time>
      </trkpt>
      <trkpt lat="48.18962" lon="6.59006">
        <ele>464</ele>
        <time>2024-11-03T15:42:08Z</time>
      </trkpt>
      <trkpt lat="48.18958" lon="6.58992">
        <ele>463.8</ele>
        <time>2024-11-03T15:42:16Z</time>
      </trkpt>
      <trkpt lat="48.18958" lon="6.58989">
        <ele>463.8</ele>
        <time>2024-11-03T15:42:20Z</time>
      </trkpt>
      <trkpt lat="48.18958" lon="6.58989">
        <ele>463.8</ele>
        <time>2024-11-03T15:42:21Z</time>
      </trkpt>
      <trkpt lat="48.18958" lon="6.58988">
        <ele>463.9</ele>
        <time>2024-11-03T15:42:22Z</time>
      </trkpt>
      <trkpt lat="48.18958" lon="6.58982">
        <ele>463.9</ele>
        <time>2024-11-03T15:42:36Z</time>
      </trkpt>
      <trkpt lat="48.18958" lon="6.5898">
        <ele>463.9</ele>
        <time>2024-11-03T15:42:37Z</time>
      </trkpt>
      <trkpt lat="48.18955" lon="6.58966">
        <ele>464</ele>
        <time>2024-11-03T15:42:45Z</time>
      </trkpt>
      <trkpt lat="48.18951" lon="6.58953">
        <ele>464.4</ele>
        <time>2024-11-03T15:42:53Z</time>
      </trkpt>
      <trkpt lat="48.18943" lon="6.58944">
        <ele>464.7</ele>
        <time>2024-11-03T15:43:00Z</time>
      </trkpt>
      <trkpt lat="48.18943" lon="6.58946">
        <ele>464.7</ele>
        <time>2024-11-03T15:43:08Z</time>
      </trkpt>
      <trkpt lat="48.18942" lon="6.58946">
        <ele>464.8</ele>
        <time>2024-11-03T15:43:09Z</time>
      </trkpt>
      <trkpt lat="48.18941" lon="6.58946">
        <ele>464.8</ele>
        <time>2024-11-03T15:43:10Z</time>
      </trkpt>
      <trkpt lat="48.1894" lon="6.58945">
        <ele>464.7</ele>
        <time>2024-11-03T15:43:11Z</time>
      </trkpt>
      <trkpt lat="48.1893" lon="6.58943">
        <ele>464.8</ele>
        <time>2024-11-03T15:43:19Z</time>
      </trkpt>
      <trkpt lat="48.18921" lon="6.58939">
        <ele>464.3</ele>
        <time>2024-11-03T15:43:27Z</time>
      </trkpt>
      <trkpt lat="48.18912" lon="6.58934">
        <ele>463.5</ele>
        <time>2024-11-03T15:43:34Z</time>
      </trkpt>
      <trkpt lat="48.18903" lon="6.58929">
        <ele>462.5</ele>
        <time>2024-11-03T15:43:40Z</time>
      </trkpt>
      <trkpt lat="48.18898" lon="6.58917">
        <ele>462.2</ele>
        <time>2024-11-03T15:43:47Z</time>
      </trkpt>
      <trkpt lat="48.18891" lon="6.58906">
        <ele>462</ele>
        <time>2024-11-03T15:43:54Z</time>
      </trkpt>
      <trkpt lat="48.18887" lon="6.58892">
        <ele>461.7</ele>
        <time>2024-11-03T15:44:02Z</time>
      </trkpt>
      <trkpt lat="48.18884" lon="6.58878">
        <ele>461.5</ele>
        <time>2024-11-03T15:44:11Z</time>
      </trkpt>
      <trkpt lat="48.18882" lon="6.58865">
        <ele>461.2</ele>
        <time>2024-11-03T15:44:17Z</time>
      </trkpt>
      <trkpt lat="48.18881" lon="6.5885">
        <ele>461</ele>
        <time>2024-11-03T15:44:25Z</time>
      </trkpt>
      <trkpt lat="48.1888" lon="6.58836">
        <ele>460.7</ele>
        <time>2024-11-03T15:44:32Z</time>
      </trkpt>
      <trkpt lat="48.18877" lon="6.58822">
        <ele>460.3</ele>
        <time>2024-11-03T15:44:39Z</time>
      </trkpt>
      <trkpt lat="48.18873" lon="6.58809">
        <ele>459.8</ele>
        <time>2024-11-03T15:44:46Z</time>
      </trkpt>
      <trkpt lat="48.18872" lon="6.58795">
        <ele>459.2</ele>
        <time>2024-11-03T15:44:54Z</time>
      </trkpt>
      <trkpt lat="48.1887" lon="6.58781">
        <ele>458.6</ele>
        <time>2024-11-03T15:45:02Z</time>
      </trkpt>
      <trkpt lat="48.18871" lon="6.58767">
        <ele>457.9</ele>
        <time>2024-11-03T15:45:10Z</time>
      </trkpt>
      <trkpt lat="48.18873" lon="6.58753">
        <ele>457.3</ele>
        <time>2024-11-03T15:45:18Z</time>
      </trkpt>
      <trkpt lat="48.18876" lon="6.58739">
        <ele>456.8</ele>
        <time>2024-11-03T15:45:26Z</time>
      </trkpt>
      <trkpt lat="48.1888" lon="6.58725">
        <ele>456.3</ele>
        <time>2024-11-03T15:45:35Z</time>
      </trkpt>
      <trkpt lat="48.1888" lon="6.58712">
        <ele>455.9</ele>
        <time>2024-11-03T15:45:43Z</time>
      </trkpt>
      <trkpt lat="48.18882" lon="6.58698">
        <ele>455.6</ele>
        <time>2024-11-03T15:45:50Z</time>
      </trkpt>
      <trkpt lat="48.18886" lon="6.58686">
        <ele>455.2</ele>
        <time>2024-11-03T15:45:56Z</time>
      </trkpt>
      <trkpt lat="48.18888" lon="6.58671">
        <ele>454.9</ele>
        <time>2024-11-03T15:46:03Z</time>
      </trkpt>
      <trkpt lat="48.18888" lon="6.58658">
        <ele>454.5</ele>
        <time>2024-11-03T15:46:10Z</time>
      </trkpt>
      <trkpt lat="48.1889" lon="6.58643">
        <ele>454.1</ele>
        <time>2024-11-03T15:46:18Z</time>
      </trkpt>
      <trkpt lat="48.1889" lon="6.5863">
        <ele>453.7</ele>
        <time>2024-11-03T15:46:25Z</time>
      </trkpt>
      <trkpt lat="48.1889" lon="6.58616">
        <ele>453.4</ele>
        <time>2024-11-03T15:46:32Z</time>
      </trkpt>
      <trkpt lat="48.1889" lon="6.58603">
        <ele>453.1</ele>
        <time>2024-11-03T15:46:39Z</time>
      </trkpt>
      <trkpt lat="48.18889" lon="6.58588">
        <ele>452.8</ele>
        <time>2024-11-03T15:46:47Z</time>
      </trkpt>
      <trkpt lat="48.18889" lon="6.58573">
        <ele>452.5</ele>
        <time>2024-11-03T15:46:55Z</time>
      </trkpt>
      <trkpt lat="48.18889" lon="6.58559">
        <ele>452.1</ele>
        <time>2024-11-03T15:47:02Z</time>
      </trkpt>
      <trkpt lat="48.18889" lon="6.58545">
        <ele>451.7</ele>
        <time>2024-11-03T15:47:09Z</time>
      </trkpt>
      <trkpt lat="48.18889" lon="6.5853">
        <ele>451.2</ele>
        <time>2024-11-03T15:47:16Z</time>
      </trkpt>
      <trkpt lat="48.18889" lon="6.58515">
        <ele>450.6</ele>
        <time>2024-11-03T15:47:23Z</time>
      </trkpt>
      <trkpt lat="48.18888" lon="6.58501">
        <ele>450.1</ele>
        <time>2024-11-03T15:47:30Z</time>
      </trkpt>
      <trkpt lat="48.18888" lon="6.58486">
        <ele>449.6</ele>
        <time>2024-11-03T15:47:38Z</time>
      </trkpt>
      <trkpt lat="48.18889" lon="6.58472">
        <ele>449.2</ele>
        <time>2024-11-03T15:47:45Z</time>
      </trkpt>
      <trkpt lat="48.18889" lon="6.58458">
        <ele>448.8</ele>
        <time>2024-11-03T15:47:52Z</time>
      </trkpt>
      <trkpt lat="48.18889" lon="6.58444">
        <ele>448.4</ele>
        <time>2024-11-03T15:47:59Z</time>
      </trkpt>
      <trkpt lat="48.18889" lon="6.5843">
        <ele>448</ele>
        <time>2024-11-03T15:48:06Z</time>
      </trkpt>
      <trkpt lat="48.18889" lon="6.58416">
        <ele>447.5</ele>
        <time>2024-11-03T15:48:13Z</time>
      </trkpt>
      <trkpt lat="48.18889" lon="6.58402">
        <ele>447.1</ele>
        <time>2024-11-03T15:48:20Z</time>
      </trkpt>
      <trkpt lat="48.18889" lon="6.58388">
        <ele>446.8</ele>
        <time>2024-11-03T15:48:27Z</time>
      </trkpt>
      <trkpt lat="48.18888" lon="6.58373">
        <ele>446.5</ele>
        <time>2024-11-03T15:48:35Z</time>
      </trkpt>
      <trkpt lat="48.18888" lon="6.58359">
        <ele>446.1</ele>
        <time>2024-11-03T15:48:43Z</time>
      </trkpt>
      <trkpt lat="48.18888" lon="6.58344">
        <ele>445.6</ele>
        <time>2024-11-03T15:48:51Z</time>
      </trkpt>
      <trkpt lat="48.18889" lon="6.58329">
        <ele>445</ele>
        <time>2024-11-03T15:48:59Z</time>
      </trkpt>
      <trkpt lat="48.18888" lon="6.58315">
        <ele>444.5</ele>
        <time>2024-11-03T15:49:06Z</time>
      </trkpt>
      <trkpt lat="48.18887" lon="6.58302">
        <ele>443.8</ele>
        <time>2024-11-03T15:49:13Z</time>
      </trkpt>
      <trkpt lat="48.18886" lon="6.58288">
        <ele>443.2</ele>
        <time>2024-11-03T15:49:20Z</time>
      </trkpt>
      <trkpt lat="48.18885" lon="6.58274">
        <ele>442.5</ele>
        <time>2024-11-03T15:49:27Z</time>
      </trkpt>
      <trkpt lat="48.18883" lon="6.5826">
        <ele>441.8</ele>
        <time>2024-11-03T15:49:34Z</time>
      </trkpt>
      <trkpt lat="48.18882" lon="6.58246">
        <ele>441.1</ele>
        <time>2024-11-03T15:49:41Z</time>
      </trkpt>
      <trkpt lat="48.18881" lon="6.58233">
        <ele>440.3</ele>
        <time>2024-11-03T15:49:48Z</time>
      </trkpt>
      <trkpt lat="48.1888" lon="6.58219">
        <ele>439.5</ele>
        <time>2024-11-03T15:49:56Z</time>
      </trkpt>
      <trkpt lat="48.18878" lon="6.58203">
        <ele>438.6</ele>
        <time>2024-11-03T15:50:04Z</time>
      </trkpt>
      <trkpt lat="48.18875" lon="6.58189">
        <ele>437.8</ele>
        <time>2024-11-03T15:50:11Z</time>
      </trkpt>
      <trkpt lat="48.18871" lon="6.58175">
        <ele>436.9</ele>
        <time>2024-11-03T15:50:18Z</time>
      </trkpt>
      <trkpt lat="48.18869" lon="6.5816">
        <ele>436</ele>
        <time>2024-11-03T15:50:26Z</time>
      </trkpt>
      <trkpt lat="48.18866" lon="6.58146">
        <ele>435.2</ele>
        <time>2024-11-03T15:50:33Z</time>
      </trkpt>
      <trkpt lat="48.18864" lon="6.58132">
        <ele>434.7</ele>
        <time>2024-11-03T15:50:41Z</time>
      </trkpt>
      <trkpt lat="48.1886" lon="6.58119">
        <ele>434.3</ele>
        <time>2024-11-03T15:50:48Z</time>
      </trkpt>
      <trkpt lat="48.18861" lon="6.58104">
        <ele>434.5</ele>
        <time>2024-11-03T15:50:55Z</time>
      </trkpt>
      <trkpt lat="48.18868" lon="6.58094">
        <ele>434.9</ele>
        <time>2024-11-03T15:51:02Z</time>
      </trkpt>
      <trkpt lat="48.18876" lon="6.58086">
        <ele>435.3</ele>
        <time>2024-11-03T15:51:09Z</time>
      </trkpt>
      <trkpt lat="48.18884" lon="6.58077">
        <ele>435.8</ele>
        <time>2024-11-03T15:51:16Z</time>
      </trkpt>
      <trkpt lat="48.18891" lon="6.58067">
        <ele>436.2</ele>
        <time>2024-11-03T15:51:23Z</time>
      </trkpt>
      <trkpt lat="48.18898" lon="6.58056">
        <ele>436.7</ele>
        <time>2024-11-03T15:51:30Z</time>
      </trkpt>
      <trkpt lat="48.18905" lon="6.58048">
        <ele>437.2</ele>
        <time>2024-11-03T15:51:36Z</time>
      </trkpt>
      <trkpt lat="48.18913" lon="6.58039">
        <ele>437.7</ele>
        <time>2024-11-03T15:51:43Z</time>
      </trkpt>
      <trkpt lat="48.1892" lon="6.58028">
        <ele>438.2</ele>
        <time>2024-11-03T15:51:50Z</time>
      </trkpt>
      <trkpt lat="48.18927" lon="6.58018">
        <ele>438.7</ele>
        <time>2024-11-03T15:51:57Z</time>
      </trkpt>
      <trkpt lat="48.18933" lon="6.58007">
        <ele>439.2</ele>
        <time>2024-11-03T15:52:04Z</time>
      </trkpt>
      <trkpt lat="48.18941" lon="6.57998">
        <ele>439.7</ele>
        <time>2024-11-03T15:52:11Z</time>
      </trkpt>
      <trkpt lat="48.18947" lon="6.57987">
        <ele>440.2</ele>
        <time>2024-11-03T15:52:18Z</time>
      </trkpt>
      <trkpt lat="48.18948" lon="6.57972">
        <ele>440.7</ele>
        <time>2024-11-03T15:52:25Z</time>
      </trkpt>
      <trkpt lat="48.1895" lon="6.57958">
        <ele>441.2</ele>
        <time>2024-11-03T15:52:32Z</time>
      </trkpt>
      <trkpt lat="48.18948" lon="6.57943">
        <ele>441.7</ele>
        <time>2024-11-03T15:52:40Z</time>
      </trkpt>
      <trkpt lat="48.18943" lon="6.5793">
        <ele>442.2</ele>
        <time>2024-11-03T15:52:48Z</time>
      </trkpt>
      <trkpt lat="48.18937" lon="6.57919">
        <ele>442.5</ele>
        <time>2024-11-03T15:52:55Z</time>
      </trkpt>
      <trkpt lat="48.18931" lon="6.57908">
        <ele>442.7</ele>
        <time>2024-11-03T15:53:02Z</time>
      </trkpt>
      <trkpt lat="48.18925" lon="6.57896">
        <ele>442.9</ele>
        <time>2024-11-03T15:53:09Z</time>
      </trkpt>
      <trkpt lat="48.18919" lon="6.57885">
        <ele>442.8</ele>
        <time>2024-11-03T15:53:17Z</time>
      </trkpt>
      <trkpt lat="48.18915" lon="6.57872">
        <ele>442.7</ele>
        <time>2024-11-03T15:53:24Z</time>
      </trkpt>
      <trkpt lat="48.18905" lon="6.5786">
        <ele>444.6</ele>
        <time>2024-11-03T15:53:32Z</time>
      </trkpt>
      <trkpt lat="48.18901" lon="6.57856">
        <ele>444.9</ele>
        <time>2024-11-03T15:53:39Z</time>
      </trkpt>
      <trkpt lat="48.18897" lon="6.57853">
        <ele>445.1</ele>
        <time>2024-11-03T15:53:47Z</time>
      </trkpt>
      <trkpt lat="48.18894" lon="6.5785">
        <ele>445.4</ele>
        <time>2024-11-03T15:53:56Z</time>
      </trkpt>
      <trkpt lat="48.1889" lon="6.57846">
        <ele>445.6</ele>
        <time>2024-11-03T15:54:04Z</time>
      </trkpt>
      <trkpt lat="48.18887" lon="6.57843">
        <ele>445.8</ele>
        <time>2024-11-03T15:54:12Z</time>
      </trkpt>
      <trkpt lat="48.18883" lon="6.5784">
        <ele>446</ele>
        <time>2024-11-03T15:54:20Z</time>
      </trkpt>
      <trkpt lat="48.1888" lon="6.57837">
        <ele>446.2</ele>
        <time>2024-11-03T15:54:21Z</time>
      </trkpt>
      <trkpt lat="48.18876" lon="6.57833">
        <ele>446.3</ele>
        <time>2024-11-03T15:54:32Z</time>
      </trkpt>
      <trkpt lat="48.18872" lon="6.5783">
        <ele>446.5</ele>
        <time>2024-11-03T15:54:33Z</time>
      </trkpt>
      <trkpt lat="48.18869" lon="6.57827">
        <ele>446.6</ele>
        <time>2024-11-03T15:54:34Z</time>
      </trkpt>
      <trkpt lat="48.18865" lon="6.57823">
        <ele>446.7</ele>
        <time>2024-11-03T15:54:37Z</time>
      </trkpt>
      <trkpt lat="48.18862" lon="6.5782">
        <ele>446.9</ele>
        <time>2024-11-03T15:54:37Z</time>
      </trkpt>
      <trkpt lat="48.18862" lon="6.5782">
        <ele>446.9</ele>
        <time>2024-11-03T15:54:37Z</time>
      </trkpt>
    </trkseg>
  </trk>
</gpx>